<?xml version="1.0" encoding="UTF-8" standalone="no" ?>
<gpx xmlns="http://www.topografix.com/GPX/1/1" xmlns:xsi="http://www.w3.org/2001/XMLSchema-instance" xsi:schemaLocation="http://www.topografix.com/GPX/1/1 http://www.topografix.com/GPX/1/1/gpx.xsd" version="1.1" creator="VisuGPX - https://www.visugpx.com">
  <metadata>
    <name>2018-04-27 Bike ride-Val d-Azergues 31km</name>
    <desc><![CDATA[2018-04-27 Bike ride-Val d-Azergues 31km]]></desc>
  </metadata>
  <wpt lat="45.92463" lon="4.73708">
    <ele>174</ele>
    <name><![CDATA[2018-04-27 10:27 (Start)]]></name>
  </wpt>
  <wpt lat="45.92456" lon="4.73708">
    <ele>174</ele>
    <name><![CDATA[2018-04-27 10:27 (End)]]></name>
  </wpt>
  <trk>
    <name><![CDATA[2018-04-27 10:27]]></name>
    <trkseg>
      <trkpt lat="45.92463" lon="4.73708">
        <ele>174</ele>
        <time>2018-04-27T08:27:25.359Z</time>
      </trkpt>
      <trkpt lat="45.92462" lon="4.73705">
        <ele>174</ele>
        <time>2018-04-27T08:27:29.917Z</time>
      </trkpt>
      <trkpt lat="45.92459" lon="4.73706">
        <ele>174</ele>
        <time>2018-04-27T08:27:30.917Z</time>
      </trkpt>
      <trkpt lat="45.92459" lon="4.73707">
        <ele>174</ele>
        <time>2018-04-27T08:27:31.917Z</time>
      </trkpt>
      <trkpt lat="45.92466" lon="4.73699">
        <ele>174</ele>
        <time>2018-04-27T08:28:02Z</time>
      </trkpt>
      <trkpt lat="45.92466" lon="4.73695">
        <ele>174</ele>
        <time>2018-04-27T08:28:03Z</time>
      </trkpt>
      <trkpt lat="45.92468" lon="4.73683">
        <ele>174</ele>
        <time>2018-04-27T08:28:06Z</time>
      </trkpt>
      <trkpt lat="45.92469" lon="4.73679">
        <ele>174</ele>
        <time>2018-04-27T08:28:07Z</time>
      </trkpt>
      <trkpt lat="45.92471" lon="4.7367">
        <ele>174</ele>
        <time>2018-04-27T08:28:09Z</time>
      </trkpt>
      <trkpt lat="45.92472" lon="4.73665">
        <ele>174</ele>
        <time>2018-04-27T08:28:10Z</time>
      </trkpt>
      <trkpt lat="45.92474" lon="4.73653">
        <ele>174</ele>
        <time>2018-04-27T08:28:11Z</time>
      </trkpt>
      <trkpt lat="45.92475" lon="4.73651">
        <ele>174</ele>
        <time>2018-04-27T08:28:12Z</time>
      </trkpt>
      <trkpt lat="45.92478" lon="4.73644">
        <ele>174</ele>
        <time>2018-04-27T08:28:13Z</time>
      </trkpt>
      <trkpt lat="45.9248" lon="4.7364">
        <ele>174</ele>
        <time>2018-04-27T08:28:14Z</time>
      </trkpt>
      <trkpt lat="45.92488" lon="4.73636">
        <ele>174</ele>
        <time>2018-04-27T08:28:16Z</time>
      </trkpt>
      <trkpt lat="45.92492" lon="4.73635">
        <ele>174</ele>
        <time>2018-04-27T08:28:17Z</time>
      </trkpt>
      <trkpt lat="45.925" lon="4.73638">
        <ele>174</ele>
        <time>2018-04-27T08:28:19Z</time>
      </trkpt>
      <trkpt lat="45.92504" lon="4.73639">
        <ele>174</ele>
        <time>2018-04-27T08:28:20Z</time>
      </trkpt>
      <trkpt lat="45.92509" lon="4.73641">
        <ele>174</ele>
        <time>2018-04-27T08:28:21Z</time>
      </trkpt>
      <trkpt lat="45.92514" lon="4.73639">
        <ele>174</ele>
        <time>2018-04-27T08:28:22Z</time>
      </trkpt>
      <trkpt lat="45.92519" lon="4.7364">
        <ele>173</ele>
        <time>2018-04-27T08:28:23Z</time>
      </trkpt>
      <trkpt lat="45.92523" lon="4.73639">
        <ele>173</ele>
        <time>2018-04-27T08:28:24Z</time>
      </trkpt>
      <trkpt lat="45.92529" lon="4.73639">
        <ele>173</ele>
        <time>2018-04-27T08:28:25Z</time>
      </trkpt>
      <trkpt lat="45.92534" lon="4.73639">
        <ele>173</ele>
        <time>2018-04-27T08:28:26Z</time>
      </trkpt>
      <trkpt lat="45.92539" lon="4.73639">
        <ele>173</ele>
        <time>2018-04-27T08:28:27Z</time>
      </trkpt>
      <trkpt lat="45.92544" lon="4.73638">
        <ele>173</ele>
        <time>2018-04-27T08:28:28Z</time>
      </trkpt>
      <trkpt lat="45.92549" lon="4.73637">
        <ele>173</ele>
        <time>2018-04-27T08:28:29Z</time>
      </trkpt>
      <trkpt lat="45.92554" lon="4.73635">
        <ele>173</ele>
        <time>2018-04-27T08:28:30Z</time>
      </trkpt>
      <trkpt lat="45.92559" lon="4.73633">
        <ele>173</ele>
        <time>2018-04-27T08:28:31Z</time>
      </trkpt>
      <trkpt lat="45.92563" lon="4.73632">
        <ele>173</ele>
        <time>2018-04-27T08:28:32Z</time>
      </trkpt>
      <trkpt lat="45.9257" lon="4.73628">
        <ele>173</ele>
        <time>2018-04-27T08:28:34Z</time>
      </trkpt>
      <trkpt lat="45.92574" lon="4.73626">
        <ele>173</ele>
        <time>2018-04-27T08:28:35Z</time>
      </trkpt>
      <trkpt lat="45.92583" lon="4.73622">
        <ele>173</ele>
        <time>2018-04-27T08:28:37Z</time>
      </trkpt>
      <trkpt lat="45.92588" lon="4.73622">
        <ele>173</ele>
        <time>2018-04-27T08:28:38Z</time>
      </trkpt>
      <trkpt lat="45.92592" lon="4.73622">
        <ele>173</ele>
        <time>2018-04-27T08:28:39Z</time>
      </trkpt>
      <trkpt lat="45.92598" lon="4.73622">
        <ele>173</ele>
        <time>2018-04-27T08:28:40Z</time>
      </trkpt>
      <trkpt lat="45.92601" lon="4.73623">
        <ele>173</ele>
        <time>2018-04-27T08:28:41Z</time>
      </trkpt>
      <trkpt lat="45.92607" lon="4.73624">
        <ele>173</ele>
        <time>2018-04-27T08:28:42Z</time>
      </trkpt>
      <trkpt lat="45.92612" lon="4.73625">
        <ele>173</ele>
        <time>2018-04-27T08:28:43Z</time>
      </trkpt>
      <trkpt lat="45.92616" lon="4.73626">
        <ele>173</ele>
        <time>2018-04-27T08:28:44Z</time>
      </trkpt>
      <trkpt lat="45.92621" lon="4.73637">
        <ele>173</ele>
        <time>2018-04-27T08:28:46Z</time>
      </trkpt>
      <trkpt lat="45.92623" lon="4.7364">
        <ele>173</ele>
        <time>2018-04-27T08:28:47Z</time>
      </trkpt>
      <trkpt lat="45.92627" lon="4.73646">
        <ele>173</ele>
        <time>2018-04-27T08:28:48Z</time>
      </trkpt>
      <trkpt lat="45.92631" lon="4.73651">
        <ele>173</ele>
        <time>2018-04-27T08:28:49Z</time>
      </trkpt>
      <trkpt lat="45.92635" lon="4.73659">
        <ele>173</ele>
        <time>2018-04-27T08:28:50Z</time>
      </trkpt>
      <trkpt lat="45.92638" lon="4.73665">
        <ele>173</ele>
        <time>2018-04-27T08:28:51Z</time>
      </trkpt>
      <trkpt lat="45.9264" lon="4.73669">
        <ele>173</ele>
        <time>2018-04-27T08:28:52Z</time>
      </trkpt>
      <trkpt lat="45.92644" lon="4.73675">
        <ele>173</ele>
        <time>2018-04-27T08:28:53Z</time>
      </trkpt>
      <trkpt lat="45.92647" lon="4.73681">
        <ele>173</ele>
        <time>2018-04-27T08:28:54Z</time>
      </trkpt>
      <trkpt lat="45.9265" lon="4.73688">
        <ele>173</ele>
        <time>2018-04-27T08:28:55Z</time>
      </trkpt>
      <trkpt lat="45.92654" lon="4.73693">
        <ele>173</ele>
        <time>2018-04-27T08:28:56Z</time>
      </trkpt>
      <trkpt lat="45.92658" lon="4.73698">
        <ele>173</ele>
        <time>2018-04-27T08:28:57Z</time>
      </trkpt>
      <trkpt lat="45.92663" lon="4.737">
        <ele>173</ele>
        <time>2018-04-27T08:28:58Z</time>
      </trkpt>
      <trkpt lat="45.92667" lon="4.73703">
        <ele>174</ele>
        <time>2018-04-27T08:28:59Z</time>
      </trkpt>
      <trkpt lat="45.92672" lon="4.73706">
        <ele>174</ele>
        <time>2018-04-27T08:29:00Z</time>
      </trkpt>
      <trkpt lat="45.92676" lon="4.73708">
        <ele>173</ele>
        <time>2018-04-27T08:29:01Z</time>
      </trkpt>
      <trkpt lat="45.92681" lon="4.73711">
        <ele>173</ele>
        <time>2018-04-27T08:29:02Z</time>
      </trkpt>
      <trkpt lat="45.92687" lon="4.73712">
        <ele>173</ele>
        <time>2018-04-27T08:29:03Z</time>
      </trkpt>
      <trkpt lat="45.92695" lon="4.73711">
        <ele>173</ele>
        <time>2018-04-27T08:29:05Z</time>
      </trkpt>
      <trkpt lat="45.927" lon="4.73711">
        <ele>173</ele>
        <time>2018-04-27T08:29:06Z</time>
      </trkpt>
      <trkpt lat="45.92704" lon="4.73713">
        <ele>173</ele>
        <time>2018-04-27T08:29:07Z</time>
      </trkpt>
      <trkpt lat="45.9271" lon="4.73716">
        <ele>173</ele>
        <time>2018-04-27T08:29:08Z</time>
      </trkpt>
      <trkpt lat="45.92718" lon="4.73718">
        <ele>173</ele>
        <time>2018-04-27T08:29:10Z</time>
      </trkpt>
      <trkpt lat="45.92724" lon="4.73717">
        <ele>173</ele>
        <time>2018-04-27T08:29:11Z</time>
      </trkpt>
      <trkpt lat="45.92729" lon="4.73718">
        <ele>173</ele>
        <time>2018-04-27T08:29:12Z</time>
      </trkpt>
      <trkpt lat="45.92733" lon="4.7372">
        <ele>173</ele>
        <time>2018-04-27T08:29:13Z</time>
      </trkpt>
      <trkpt lat="45.92739" lon="4.73722">
        <ele>173</ele>
        <time>2018-04-27T08:29:14Z</time>
      </trkpt>
      <trkpt lat="45.92744" lon="4.73723">
        <ele>173</ele>
        <time>2018-04-27T08:29:15Z</time>
      </trkpt>
      <trkpt lat="45.92748" lon="4.73725">
        <ele>173</ele>
        <time>2018-04-27T08:29:16Z</time>
      </trkpt>
      <trkpt lat="45.92753" lon="4.73726">
        <ele>172</ele>
        <time>2018-04-27T08:29:17Z</time>
      </trkpt>
      <trkpt lat="45.9276" lon="4.73729">
        <ele>172</ele>
        <time>2018-04-27T08:29:19Z</time>
      </trkpt>
      <trkpt lat="45.92765" lon="4.73732">
        <ele>172</ele>
        <time>2018-04-27T08:29:20Z</time>
      </trkpt>
      <trkpt lat="45.92773" lon="4.73735">
        <ele>172</ele>
        <time>2018-04-27T08:29:22Z</time>
      </trkpt>
      <trkpt lat="45.92777" lon="4.73738">
        <ele>172</ele>
        <time>2018-04-27T08:29:23Z</time>
      </trkpt>
      <trkpt lat="45.92781" lon="4.73747">
        <ele>172</ele>
        <time>2018-04-27T08:29:25Z</time>
      </trkpt>
      <trkpt lat="45.92783" lon="4.73751">
        <ele>173</ele>
        <time>2018-04-27T08:29:26Z</time>
      </trkpt>
      <trkpt lat="45.92786" lon="4.73758">
        <ele>173</ele>
        <time>2018-04-27T08:29:27Z</time>
      </trkpt>
      <trkpt lat="45.92789" lon="4.73763">
        <ele>173</ele>
        <time>2018-04-27T08:29:28Z</time>
      </trkpt>
      <trkpt lat="45.92793" lon="4.73766">
        <ele>173</ele>
        <time>2018-04-27T08:29:29Z</time>
      </trkpt>
      <trkpt lat="45.92797" lon="4.73769">
        <ele>173</ele>
        <time>2018-04-27T08:29:30Z</time>
      </trkpt>
      <trkpt lat="45.92802" lon="4.7377">
        <ele>173</ele>
        <time>2018-04-27T08:29:31Z</time>
      </trkpt>
      <trkpt lat="45.92807" lon="4.73771">
        <ele>173</ele>
        <time>2018-04-27T08:29:32Z</time>
      </trkpt>
      <trkpt lat="45.92812" lon="4.73773">
        <ele>173</ele>
        <time>2018-04-27T08:29:33Z</time>
      </trkpt>
      <trkpt lat="45.92816" lon="4.73776">
        <ele>173</ele>
        <time>2018-04-27T08:29:34Z</time>
      </trkpt>
      <trkpt lat="45.92823" lon="4.73779">
        <ele>173</ele>
        <time>2018-04-27T08:29:35Z</time>
      </trkpt>
      <trkpt lat="45.92827" lon="4.73783">
        <ele>173</ele>
        <time>2018-04-27T08:29:36Z</time>
      </trkpt>
      <trkpt lat="45.92833" lon="4.73786">
        <ele>173</ele>
        <time>2018-04-27T08:29:37Z</time>
      </trkpt>
      <trkpt lat="45.92839" lon="4.73787">
        <ele>173</ele>
        <time>2018-04-27T08:29:38Z</time>
      </trkpt>
      <trkpt lat="45.92844" lon="4.7379">
        <ele>173</ele>
        <time>2018-04-27T08:29:39Z</time>
      </trkpt>
      <trkpt lat="45.92849" lon="4.73796">
        <ele>173</ele>
        <time>2018-04-27T08:29:40Z</time>
      </trkpt>
      <trkpt lat="45.92854" lon="4.73801">
        <ele>173</ele>
        <time>2018-04-27T08:29:41Z</time>
      </trkpt>
      <trkpt lat="45.92858" lon="4.73808">
        <ele>173</ele>
        <time>2018-04-27T08:29:42Z</time>
      </trkpt>
      <trkpt lat="45.9286" lon="4.73814">
        <ele>173</ele>
        <time>2018-04-27T08:29:43Z</time>
      </trkpt>
      <trkpt lat="45.92863" lon="4.73822">
        <ele>173</ele>
        <time>2018-04-27T08:29:44Z</time>
      </trkpt>
      <trkpt lat="45.92866" lon="4.73831">
        <ele>173</ele>
        <time>2018-04-27T08:29:45Z</time>
      </trkpt>
      <trkpt lat="45.92868" lon="4.73838">
        <ele>173</ele>
        <time>2018-04-27T08:29:46Z</time>
      </trkpt>
      <trkpt lat="45.92869" lon="4.73845">
        <ele>173</ele>
        <time>2018-04-27T08:29:47Z</time>
      </trkpt>
      <trkpt lat="45.92871" lon="4.73853">
        <ele>173</ele>
        <time>2018-04-27T08:29:48Z</time>
      </trkpt>
      <trkpt lat="45.92873" lon="4.7386">
        <ele>173</ele>
        <time>2018-04-27T08:29:49Z</time>
      </trkpt>
      <trkpt lat="45.92873" lon="4.73867">
        <ele>173</ele>
        <time>2018-04-27T08:29:50Z</time>
      </trkpt>
      <trkpt lat="45.92879" lon="4.73877">
        <ele>173</ele>
        <time>2018-04-27T08:29:51Z</time>
      </trkpt>
      <trkpt lat="45.92879" lon="4.73883">
        <ele>173</ele>
        <time>2018-04-27T08:29:52Z</time>
      </trkpt>
      <trkpt lat="45.92879" lon="4.73892">
        <ele>173</ele>
        <time>2018-04-27T08:29:53Z</time>
      </trkpt>
      <trkpt lat="45.9288" lon="4.73899">
        <ele>173</ele>
        <time>2018-04-27T08:29:54Z</time>
      </trkpt>
      <trkpt lat="45.92881" lon="4.73906">
        <ele>173</ele>
        <time>2018-04-27T08:29:55Z</time>
      </trkpt>
      <trkpt lat="45.92881" lon="4.73915">
        <ele>173</ele>
        <time>2018-04-27T08:29:56Z</time>
      </trkpt>
      <trkpt lat="45.92882" lon="4.73924">
        <ele>172</ele>
        <time>2018-04-27T08:29:57Z</time>
      </trkpt>
      <trkpt lat="45.9288" lon="4.7393">
        <ele>172</ele>
        <time>2018-04-27T08:29:58Z</time>
      </trkpt>
      <trkpt lat="45.92881" lon="4.73939">
        <ele>172</ele>
        <time>2018-04-27T08:29:59Z</time>
      </trkpt>
      <trkpt lat="45.92881" lon="4.73945">
        <ele>172</ele>
        <time>2018-04-27T08:30:00Z</time>
      </trkpt>
      <trkpt lat="45.92882" lon="4.73957">
        <ele>172</ele>
        <time>2018-04-27T08:30:02Z</time>
      </trkpt>
      <trkpt lat="45.92882" lon="4.73964">
        <ele>172</ele>
        <time>2018-04-27T08:30:03Z</time>
      </trkpt>
      <trkpt lat="45.92882" lon="4.73971">
        <ele>172</ele>
        <time>2018-04-27T08:30:04Z</time>
      </trkpt>
      <trkpt lat="45.92883" lon="4.73979">
        <ele>172</ele>
        <time>2018-04-27T08:30:05Z</time>
      </trkpt>
      <trkpt lat="45.92881" lon="4.73991">
        <ele>172</ele>
        <time>2018-04-27T08:30:07Z</time>
      </trkpt>
      <trkpt lat="45.9288" lon="4.73998">
        <ele>172</ele>
        <time>2018-04-27T08:30:08Z</time>
      </trkpt>
      <trkpt lat="45.92877" lon="4.74004">
        <ele>172</ele>
        <time>2018-04-27T08:30:09Z</time>
      </trkpt>
      <trkpt lat="45.92878" lon="4.74011">
        <ele>172</ele>
        <time>2018-04-27T08:30:10Z</time>
      </trkpt>
      <trkpt lat="45.92877" lon="4.74018">
        <ele>172</ele>
        <time>2018-04-27T08:30:11Z</time>
      </trkpt>
      <trkpt lat="45.92876" lon="4.74024">
        <ele>172</ele>
        <time>2018-04-27T08:30:12Z</time>
      </trkpt>
      <trkpt lat="45.92875" lon="4.7403">
        <ele>172</ele>
        <time>2018-04-27T08:30:13Z</time>
      </trkpt>
      <trkpt lat="45.92873" lon="4.74037">
        <ele>172</ele>
        <time>2018-04-27T08:30:14Z</time>
      </trkpt>
      <trkpt lat="45.9287" lon="4.74043">
        <ele>172</ele>
        <time>2018-04-27T08:30:15Z</time>
      </trkpt>
      <trkpt lat="45.92867" lon="4.74048">
        <ele>172</ele>
        <time>2018-04-27T08:30:16Z</time>
      </trkpt>
      <trkpt lat="45.92863" lon="4.74053">
        <ele>172</ele>
        <time>2018-04-27T08:30:17Z</time>
      </trkpt>
      <trkpt lat="45.92858" lon="4.74057">
        <ele>172</ele>
        <time>2018-04-27T08:30:18Z</time>
      </trkpt>
      <trkpt lat="45.92855" lon="4.74061">
        <ele>172</ele>
        <time>2018-04-27T08:30:19Z</time>
      </trkpt>
      <trkpt lat="45.92851" lon="4.74065">
        <ele>172</ele>
        <time>2018-04-27T08:30:20Z</time>
      </trkpt>
      <trkpt lat="45.92847" lon="4.7407">
        <ele>172</ele>
        <time>2018-04-27T08:30:21Z</time>
      </trkpt>
      <trkpt lat="45.92843" lon="4.74075">
        <ele>172</ele>
        <time>2018-04-27T08:30:22Z</time>
      </trkpt>
      <trkpt lat="45.9284" lon="4.74081">
        <ele>171</ele>
        <time>2018-04-27T08:30:23Z</time>
      </trkpt>
      <trkpt lat="45.92837" lon="4.74085">
        <ele>171</ele>
        <time>2018-04-27T08:30:24Z</time>
      </trkpt>
      <trkpt lat="45.92833" lon="4.7409">
        <ele>171</ele>
        <time>2018-04-27T08:30:25Z</time>
      </trkpt>
      <trkpt lat="45.92828" lon="4.74095">
        <ele>171</ele>
        <time>2018-04-27T08:30:26Z</time>
      </trkpt>
      <trkpt lat="45.92826" lon="4.741">
        <ele>171</ele>
        <time>2018-04-27T08:30:27Z</time>
      </trkpt>
      <trkpt lat="45.92821" lon="4.74104">
        <ele>171</ele>
        <time>2018-04-27T08:30:28Z</time>
      </trkpt>
      <trkpt lat="45.92818" lon="4.74109">
        <ele>172</ele>
        <time>2018-04-27T08:30:29Z</time>
      </trkpt>
      <trkpt lat="45.92813" lon="4.74113">
        <ele>172</ele>
        <time>2018-04-27T08:30:30Z</time>
      </trkpt>
      <trkpt lat="45.9281" lon="4.74119">
        <ele>172</ele>
        <time>2018-04-27T08:30:31Z</time>
      </trkpt>
      <trkpt lat="45.92805" lon="4.74122">
        <ele>172</ele>
        <time>2018-04-27T08:30:32Z</time>
      </trkpt>
      <trkpt lat="45.92801" lon="4.74127">
        <ele>172</ele>
        <time>2018-04-27T08:30:33Z</time>
      </trkpt>
      <trkpt lat="45.92796" lon="4.74132">
        <ele>172</ele>
        <time>2018-04-27T08:30:34Z</time>
      </trkpt>
      <trkpt lat="45.92793" lon="4.74137">
        <ele>172</ele>
        <time>2018-04-27T08:30:35Z</time>
      </trkpt>
      <trkpt lat="45.92789" lon="4.74141">
        <ele>172</ele>
        <time>2018-04-27T08:30:36Z</time>
      </trkpt>
      <trkpt lat="45.92785" lon="4.74145">
        <ele>172</ele>
        <time>2018-04-27T08:30:37Z</time>
      </trkpt>
      <trkpt lat="45.9278" lon="4.74149">
        <ele>172</ele>
        <time>2018-04-27T08:30:38Z</time>
      </trkpt>
      <trkpt lat="45.92776" lon="4.74154">
        <ele>172</ele>
        <time>2018-04-27T08:30:39Z</time>
      </trkpt>
      <trkpt lat="45.92772" lon="4.74158">
        <ele>172</ele>
        <time>2018-04-27T08:30:40Z</time>
      </trkpt>
      <trkpt lat="45.92769" lon="4.74164">
        <ele>172</ele>
        <time>2018-04-27T08:30:41Z</time>
      </trkpt>
      <trkpt lat="45.92764" lon="4.74169">
        <ele>172</ele>
        <time>2018-04-27T08:30:42Z</time>
      </trkpt>
      <trkpt lat="45.92761" lon="4.74173">
        <ele>172</ele>
        <time>2018-04-27T08:30:43Z</time>
      </trkpt>
      <trkpt lat="45.92757" lon="4.74177">
        <ele>172</ele>
        <time>2018-04-27T08:30:44Z</time>
      </trkpt>
      <trkpt lat="45.92753" lon="4.74182">
        <ele>172</ele>
        <time>2018-04-27T08:30:45Z</time>
      </trkpt>
      <trkpt lat="45.92749" lon="4.74186">
        <ele>172</ele>
        <time>2018-04-27T08:30:46Z</time>
      </trkpt>
      <trkpt lat="45.92745" lon="4.74191">
        <ele>172</ele>
        <time>2018-04-27T08:30:47Z</time>
      </trkpt>
      <trkpt lat="45.92742" lon="4.74196">
        <ele>171</ele>
        <time>2018-04-27T08:30:48Z</time>
      </trkpt>
      <trkpt lat="45.92738" lon="4.74201">
        <ele>171</ele>
        <time>2018-04-27T08:30:49Z</time>
      </trkpt>
      <trkpt lat="45.92733" lon="4.74205">
        <ele>171</ele>
        <time>2018-04-27T08:30:50Z</time>
      </trkpt>
      <trkpt lat="45.92731" lon="4.74213">
        <ele>171</ele>
        <time>2018-04-27T08:30:51Z</time>
      </trkpt>
      <trkpt lat="45.92726" lon="4.74218">
        <ele>171</ele>
        <time>2018-04-27T08:30:52Z</time>
      </trkpt>
      <trkpt lat="45.92722" lon="4.74223">
        <ele>171</ele>
        <time>2018-04-27T08:30:53Z</time>
      </trkpt>
      <trkpt lat="45.92717" lon="4.74228">
        <ele>171</ele>
        <time>2018-04-27T08:30:54Z</time>
      </trkpt>
      <trkpt lat="45.92713" lon="4.74234">
        <ele>171</ele>
        <time>2018-04-27T08:30:55Z</time>
      </trkpt>
      <trkpt lat="45.92709" lon="4.7424">
        <ele>171</ele>
        <time>2018-04-27T08:30:56Z</time>
      </trkpt>
      <trkpt lat="45.92705" lon="4.74247">
        <ele>171</ele>
        <time>2018-04-27T08:30:57Z</time>
      </trkpt>
      <trkpt lat="45.92701" lon="4.74254">
        <ele>171</ele>
        <time>2018-04-27T08:30:58Z</time>
      </trkpt>
      <trkpt lat="45.92697" lon="4.74259">
        <ele>171</ele>
        <time>2018-04-27T08:30:59Z</time>
      </trkpt>
      <trkpt lat="45.92693" lon="4.74265">
        <ele>171</ele>
        <time>2018-04-27T08:31:00Z</time>
      </trkpt>
      <trkpt lat="45.9269" lon="4.74271">
        <ele>171</ele>
        <time>2018-04-27T08:31:01Z</time>
      </trkpt>
      <trkpt lat="45.92687" lon="4.74278">
        <ele>171</ele>
        <time>2018-04-27T08:31:02Z</time>
      </trkpt>
      <trkpt lat="45.92683" lon="4.74285">
        <ele>171</ele>
        <time>2018-04-27T08:31:03Z</time>
      </trkpt>
      <trkpt lat="45.9268" lon="4.74291">
        <ele>171</ele>
        <time>2018-04-27T08:31:04Z</time>
      </trkpt>
      <trkpt lat="45.92677" lon="4.74298">
        <ele>171</ele>
        <time>2018-04-27T08:31:05Z</time>
      </trkpt>
      <trkpt lat="45.92674" lon="4.74304">
        <ele>171</ele>
        <time>2018-04-27T08:31:06Z</time>
      </trkpt>
      <trkpt lat="45.92672" lon="4.74312">
        <ele>171</ele>
        <time>2018-04-27T08:31:07Z</time>
      </trkpt>
      <trkpt lat="45.92669" lon="4.74318">
        <ele>171</ele>
        <time>2018-04-27T08:31:08Z</time>
      </trkpt>
      <trkpt lat="45.92666" lon="4.74325">
        <ele>171</ele>
        <time>2018-04-27T08:31:09Z</time>
      </trkpt>
      <trkpt lat="45.92663" lon="4.74333">
        <ele>171</ele>
        <time>2018-04-27T08:31:10Z</time>
      </trkpt>
      <trkpt lat="45.9266" lon="4.74338">
        <ele>171</ele>
        <time>2018-04-27T08:31:11Z</time>
      </trkpt>
      <trkpt lat="45.92655" lon="4.74342">
        <ele>171</ele>
        <time>2018-04-27T08:31:12Z</time>
      </trkpt>
      <trkpt lat="45.92652" lon="4.74348">
        <ele>171</ele>
        <time>2018-04-27T08:31:13Z</time>
      </trkpt>
      <trkpt lat="45.92649" lon="4.74354">
        <ele>171</ele>
        <time>2018-04-27T08:31:14Z</time>
      </trkpt>
      <trkpt lat="45.92645" lon="4.74361">
        <ele>171</ele>
        <time>2018-04-27T08:31:15Z</time>
      </trkpt>
      <trkpt lat="45.92642" lon="4.74367">
        <ele>171</ele>
        <time>2018-04-27T08:31:16Z</time>
      </trkpt>
      <trkpt lat="45.92638" lon="4.74373">
        <ele>171</ele>
        <time>2018-04-27T08:31:17Z</time>
      </trkpt>
      <trkpt lat="45.92634" lon="4.7438">
        <ele>170</ele>
        <time>2018-04-27T08:31:18Z</time>
      </trkpt>
      <trkpt lat="45.9263" lon="4.74386">
        <ele>170</ele>
        <time>2018-04-27T08:31:19Z</time>
      </trkpt>
      <trkpt lat="45.92626" lon="4.74392">
        <ele>170</ele>
        <time>2018-04-27T08:31:20Z</time>
      </trkpt>
      <trkpt lat="45.92622" lon="4.74398">
        <ele>170</ele>
        <time>2018-04-27T08:31:21Z</time>
      </trkpt>
      <trkpt lat="45.92621" lon="4.74405">
        <ele>170</ele>
        <time>2018-04-27T08:31:22Z</time>
      </trkpt>
      <trkpt lat="45.92618" lon="4.7441">
        <ele>170</ele>
        <time>2018-04-27T08:31:23Z</time>
      </trkpt>
      <trkpt lat="45.92613" lon="4.74416">
        <ele>170</ele>
        <time>2018-04-27T08:31:24Z</time>
      </trkpt>
      <trkpt lat="45.92609" lon="4.74422">
        <ele>170</ele>
        <time>2018-04-27T08:31:25Z</time>
      </trkpt>
      <trkpt lat="45.92605" lon="4.74428">
        <ele>170</ele>
        <time>2018-04-27T08:31:26Z</time>
      </trkpt>
      <trkpt lat="45.92602" lon="4.74435">
        <ele>170</ele>
        <time>2018-04-27T08:31:27Z</time>
      </trkpt>
      <trkpt lat="45.92599" lon="4.74441">
        <ele>170</ele>
        <time>2018-04-27T08:31:28Z</time>
      </trkpt>
      <trkpt lat="45.92595" lon="4.74447">
        <ele>170</ele>
        <time>2018-04-27T08:31:29Z</time>
      </trkpt>
      <trkpt lat="45.92591" lon="4.74453">
        <ele>170</ele>
        <time>2018-04-27T08:31:30Z</time>
      </trkpt>
      <trkpt lat="45.92587" lon="4.7446">
        <ele>170</ele>
        <time>2018-04-27T08:31:31Z</time>
      </trkpt>
      <trkpt lat="45.92584" lon="4.74466">
        <ele>170</ele>
        <time>2018-04-27T08:31:32Z</time>
      </trkpt>
      <trkpt lat="45.9258" lon="4.74472">
        <ele>170</ele>
        <time>2018-04-27T08:31:33Z</time>
      </trkpt>
      <trkpt lat="45.92576" lon="4.74479">
        <ele>170</ele>
        <time>2018-04-27T08:31:34Z</time>
      </trkpt>
      <trkpt lat="45.92572" lon="4.74486">
        <ele>170</ele>
        <time>2018-04-27T08:31:35Z</time>
      </trkpt>
      <trkpt lat="45.92568" lon="4.74492">
        <ele>170</ele>
        <time>2018-04-27T08:31:36Z</time>
      </trkpt>
      <trkpt lat="45.92564" lon="4.74498">
        <ele>170</ele>
        <time>2018-04-27T08:31:37Z</time>
      </trkpt>
      <trkpt lat="45.92562" lon="4.74505">
        <ele>170</ele>
        <time>2018-04-27T08:31:38Z</time>
      </trkpt>
      <trkpt lat="45.92558" lon="4.74512">
        <ele>170</ele>
        <time>2018-04-27T08:31:39Z</time>
      </trkpt>
      <trkpt lat="45.92553" lon="4.74518">
        <ele>170</ele>
        <time>2018-04-27T08:31:40Z</time>
      </trkpt>
      <trkpt lat="45.9255" lon="4.74524">
        <ele>170</ele>
        <time>2018-04-27T08:31:41Z</time>
      </trkpt>
      <trkpt lat="45.92546" lon="4.74531">
        <ele>170</ele>
        <time>2018-04-27T08:31:42Z</time>
      </trkpt>
      <trkpt lat="45.92542" lon="4.74538">
        <ele>170</ele>
        <time>2018-04-27T08:31:43Z</time>
      </trkpt>
      <trkpt lat="45.92539" lon="4.74544">
        <ele>171</ele>
        <time>2018-04-27T08:31:44Z</time>
      </trkpt>
      <trkpt lat="45.92534" lon="4.7455">
        <ele>171</ele>
        <time>2018-04-27T08:31:45Z</time>
      </trkpt>
      <trkpt lat="45.9253" lon="4.74557">
        <ele>171</ele>
        <time>2018-04-27T08:31:46Z</time>
      </trkpt>
      <trkpt lat="45.92526" lon="4.74562">
        <ele>171</ele>
        <time>2018-04-27T08:31:47Z</time>
      </trkpt>
      <trkpt lat="45.92522" lon="4.74567">
        <ele>171</ele>
        <time>2018-04-27T08:31:48Z</time>
      </trkpt>
      <trkpt lat="45.92522" lon="4.74576">
        <ele>171</ele>
        <time>2018-04-27T08:31:49Z</time>
      </trkpt>
      <trkpt lat="45.92517" lon="4.74582">
        <ele>171</ele>
        <time>2018-04-27T08:31:50Z</time>
      </trkpt>
      <trkpt lat="45.92513" lon="4.74586">
        <ele>171</ele>
        <time>2018-04-27T08:31:51Z</time>
      </trkpt>
      <trkpt lat="45.92508" lon="4.7459">
        <ele>171</ele>
        <time>2018-04-27T08:31:52Z</time>
      </trkpt>
      <trkpt lat="45.92504" lon="4.74595">
        <ele>171</ele>
        <time>2018-04-27T08:31:53Z</time>
      </trkpt>
      <trkpt lat="45.92498" lon="4.74599">
        <ele>171</ele>
        <time>2018-04-27T08:31:54Z</time>
      </trkpt>
      <trkpt lat="45.92496" lon="4.74606">
        <ele>171</ele>
        <time>2018-04-27T08:31:55Z</time>
      </trkpt>
      <trkpt lat="45.92494" lon="4.74613">
        <ele>171</ele>
        <time>2018-04-27T08:31:56Z</time>
      </trkpt>
      <trkpt lat="45.9249" lon="4.74619">
        <ele>171</ele>
        <time>2018-04-27T08:31:57Z</time>
      </trkpt>
      <trkpt lat="45.92488" lon="4.74624">
        <ele>171</ele>
        <time>2018-04-27T08:31:58Z</time>
      </trkpt>
      <trkpt lat="45.92486" lon="4.74632">
        <ele>171</ele>
        <time>2018-04-27T08:31:59Z</time>
      </trkpt>
      <trkpt lat="45.92482" lon="4.74637">
        <ele>171</ele>
        <time>2018-04-27T08:32:00Z</time>
      </trkpt>
      <trkpt lat="45.92478" lon="4.74643">
        <ele>171</ele>
        <time>2018-04-27T08:32:01Z</time>
      </trkpt>
      <trkpt lat="45.92474" lon="4.74649">
        <ele>171</ele>
        <time>2018-04-27T08:32:02Z</time>
      </trkpt>
      <trkpt lat="45.9247" lon="4.74656">
        <ele>171</ele>
        <time>2018-04-27T08:32:03Z</time>
      </trkpt>
      <trkpt lat="45.92466" lon="4.74662">
        <ele>171</ele>
        <time>2018-04-27T08:32:04Z</time>
      </trkpt>
      <trkpt lat="45.92462" lon="4.74669">
        <ele>171</ele>
        <time>2018-04-27T08:32:05Z</time>
      </trkpt>
      <trkpt lat="45.92459" lon="4.74674">
        <ele>171</ele>
        <time>2018-04-27T08:32:06Z</time>
      </trkpt>
      <trkpt lat="45.92455" lon="4.74679">
        <ele>171</ele>
        <time>2018-04-27T08:32:07Z</time>
      </trkpt>
      <trkpt lat="45.92452" lon="4.74684">
        <ele>171</ele>
        <time>2018-04-27T08:32:08Z</time>
      </trkpt>
      <trkpt lat="45.92448" lon="4.74689">
        <ele>171</ele>
        <time>2018-04-27T08:32:09Z</time>
      </trkpt>
      <trkpt lat="45.92444" lon="4.74696">
        <ele>171</ele>
        <time>2018-04-27T08:32:10Z</time>
      </trkpt>
      <trkpt lat="45.92437" lon="4.74704">
        <ele>171</ele>
        <time>2018-04-27T08:32:12Z</time>
      </trkpt>
      <trkpt lat="45.92434" lon="4.74709">
        <ele>171</ele>
        <time>2018-04-27T08:32:13Z</time>
      </trkpt>
      <trkpt lat="45.92431" lon="4.74715">
        <ele>171</ele>
        <time>2018-04-27T08:32:14Z</time>
      </trkpt>
      <trkpt lat="45.92429" lon="4.74722">
        <ele>171</ele>
        <time>2018-04-27T08:32:15Z</time>
      </trkpt>
      <trkpt lat="45.92426" lon="4.74729">
        <ele>171</ele>
        <time>2018-04-27T08:32:16Z</time>
      </trkpt>
      <trkpt lat="45.92423" lon="4.74735">
        <ele>171</ele>
        <time>2018-04-27T08:32:17Z</time>
      </trkpt>
      <trkpt lat="45.92421" lon="4.74742">
        <ele>172</ele>
        <time>2018-04-27T08:32:18Z</time>
      </trkpt>
      <trkpt lat="45.92418" lon="4.7475">
        <ele>172</ele>
        <time>2018-04-27T08:32:19Z</time>
      </trkpt>
      <trkpt lat="45.92416" lon="4.74759">
        <ele>172</ele>
        <time>2018-04-27T08:32:20Z</time>
      </trkpt>
      <trkpt lat="45.92415" lon="4.74768">
        <ele>172</ele>
        <time>2018-04-27T08:32:21Z</time>
      </trkpt>
      <trkpt lat="45.92413" lon="4.74776">
        <ele>171</ele>
        <time>2018-04-27T08:32:22Z</time>
      </trkpt>
      <trkpt lat="45.92411" lon="4.74785">
        <ele>171</ele>
        <time>2018-04-27T08:32:23Z</time>
      </trkpt>
      <trkpt lat="45.92409" lon="4.74794">
        <ele>171</ele>
        <time>2018-04-27T08:32:24Z</time>
      </trkpt>
      <trkpt lat="45.92407" lon="4.74803">
        <ele>171</ele>
        <time>2018-04-27T08:32:25Z</time>
      </trkpt>
      <trkpt lat="45.92405" lon="4.74812">
        <ele>171</ele>
        <time>2018-04-27T08:32:26Z</time>
      </trkpt>
      <trkpt lat="45.92403" lon="4.74821">
        <ele>171</ele>
        <time>2018-04-27T08:32:27Z</time>
      </trkpt>
      <trkpt lat="45.92401" lon="4.7483">
        <ele>171</ele>
        <time>2018-04-27T08:32:28Z</time>
      </trkpt>
      <trkpt lat="45.92399" lon="4.74839">
        <ele>171</ele>
        <time>2018-04-27T08:32:29Z</time>
      </trkpt>
      <trkpt lat="45.92396" lon="4.74847">
        <ele>171</ele>
        <time>2018-04-27T08:32:30Z</time>
      </trkpt>
      <trkpt lat="45.92393" lon="4.74856">
        <ele>171</ele>
        <time>2018-04-27T08:32:31Z</time>
      </trkpt>
      <trkpt lat="45.9239" lon="4.74864">
        <ele>171</ele>
        <time>2018-04-27T08:32:32Z</time>
      </trkpt>
      <trkpt lat="45.92386" lon="4.74872">
        <ele>171</ele>
        <time>2018-04-27T08:32:33Z</time>
      </trkpt>
      <trkpt lat="45.92383" lon="4.74879">
        <ele>171</ele>
        <time>2018-04-27T08:32:34Z</time>
      </trkpt>
      <trkpt lat="45.92382" lon="4.74889">
        <ele>171</ele>
        <time>2018-04-27T08:32:35Z</time>
      </trkpt>
      <trkpt lat="45.92379" lon="4.74897">
        <ele>171</ele>
        <time>2018-04-27T08:32:36Z</time>
      </trkpt>
      <trkpt lat="45.92377" lon="4.74906">
        <ele>171</ele>
        <time>2018-04-27T08:32:37Z</time>
      </trkpt>
      <trkpt lat="45.92374" lon="4.74914">
        <ele>171</ele>
        <time>2018-04-27T08:32:38Z</time>
      </trkpt>
      <trkpt lat="45.92372" lon="4.74922">
        <ele>170</ele>
        <time>2018-04-27T08:32:39Z</time>
      </trkpt>
      <trkpt lat="45.92369" lon="4.74929">
        <ele>170</ele>
        <time>2018-04-27T08:32:40Z</time>
      </trkpt>
      <trkpt lat="45.92368" lon="4.74939">
        <ele>170</ele>
        <time>2018-04-27T08:32:41Z</time>
      </trkpt>
      <trkpt lat="45.92366" lon="4.74948">
        <ele>170</ele>
        <time>2018-04-27T08:32:42Z</time>
      </trkpt>
      <trkpt lat="45.92363" lon="4.74955">
        <ele>170</ele>
        <time>2018-04-27T08:32:43Z</time>
      </trkpt>
      <trkpt lat="45.9236" lon="4.74962">
        <ele>170</ele>
        <time>2018-04-27T08:32:44Z</time>
      </trkpt>
      <trkpt lat="45.92358" lon="4.74968">
        <ele>170</ele>
        <time>2018-04-27T08:32:45Z</time>
      </trkpt>
      <trkpt lat="45.92356" lon="4.74975">
        <ele>170</ele>
        <time>2018-04-27T08:32:46Z</time>
      </trkpt>
      <trkpt lat="45.92352" lon="4.74982">
        <ele>170</ele>
        <time>2018-04-27T08:32:47Z</time>
      </trkpt>
      <trkpt lat="45.92349" lon="4.74989">
        <ele>170</ele>
        <time>2018-04-27T08:32:48Z</time>
      </trkpt>
      <trkpt lat="45.92345" lon="4.74995">
        <ele>170</ele>
        <time>2018-04-27T08:32:49Z</time>
      </trkpt>
      <trkpt lat="45.92341" lon="4.75001">
        <ele>170</ele>
        <time>2018-04-27T08:32:50Z</time>
      </trkpt>
      <trkpt lat="45.92338" lon="4.75008">
        <ele>170</ele>
        <time>2018-04-27T08:32:51Z</time>
      </trkpt>
      <trkpt lat="45.92335" lon="4.75015">
        <ele>170</ele>
        <time>2018-04-27T08:32:52Z</time>
      </trkpt>
      <trkpt lat="45.92331" lon="4.75021">
        <ele>171</ele>
        <time>2018-04-27T08:32:53Z</time>
      </trkpt>
      <trkpt lat="45.92328" lon="4.75028">
        <ele>171</ele>
        <time>2018-04-27T08:32:54Z</time>
      </trkpt>
      <trkpt lat="45.92324" lon="4.75034">
        <ele>171</ele>
        <time>2018-04-27T08:32:55Z</time>
      </trkpt>
      <trkpt lat="45.92322" lon="4.75041">
        <ele>172</ele>
        <time>2018-04-27T08:32:56Z</time>
      </trkpt>
      <trkpt lat="45.92318" lon="4.75048">
        <ele>172</ele>
        <time>2018-04-27T08:32:57Z</time>
      </trkpt>
      <trkpt lat="45.92315" lon="4.75055">
        <ele>172</ele>
        <time>2018-04-27T08:32:58Z</time>
      </trkpt>
      <trkpt lat="45.92311" lon="4.75061">
        <ele>172</ele>
        <time>2018-04-27T08:32:59Z</time>
      </trkpt>
      <trkpt lat="45.92305" lon="4.75067">
        <ele>172</ele>
        <time>2018-04-27T08:33:00Z</time>
      </trkpt>
      <trkpt lat="45.92301" lon="4.75072">
        <ele>172</ele>
        <time>2018-04-27T08:33:01Z</time>
      </trkpt>
      <trkpt lat="45.92296" lon="4.75076">
        <ele>172</ele>
        <time>2018-04-27T08:33:02Z</time>
      </trkpt>
      <trkpt lat="45.92292" lon="4.75081">
        <ele>172</ele>
        <time>2018-04-27T08:33:03Z</time>
      </trkpt>
      <trkpt lat="45.92288" lon="4.75086">
        <ele>173</ele>
        <time>2018-04-27T08:33:04Z</time>
      </trkpt>
      <trkpt lat="45.92283" lon="4.75091">
        <ele>173</ele>
        <time>2018-04-27T08:33:05Z</time>
      </trkpt>
      <trkpt lat="45.92279" lon="4.75096">
        <ele>173</ele>
        <time>2018-04-27T08:33:06Z</time>
      </trkpt>
      <trkpt lat="45.92274" lon="4.75102">
        <ele>173</ele>
        <time>2018-04-27T08:33:07Z</time>
      </trkpt>
      <trkpt lat="45.92269" lon="4.75107">
        <ele>174</ele>
        <time>2018-04-27T08:33:08Z</time>
      </trkpt>
      <trkpt lat="45.92266" lon="4.75112">
        <ele>174</ele>
        <time>2018-04-27T08:33:09Z</time>
      </trkpt>
      <trkpt lat="45.92262" lon="4.75117">
        <ele>174</ele>
        <time>2018-04-27T08:33:10Z</time>
      </trkpt>
      <trkpt lat="45.92256" lon="4.75121">
        <ele>174</ele>
        <time>2018-04-27T08:33:11Z</time>
      </trkpt>
      <trkpt lat="45.92252" lon="4.75127">
        <ele>174</ele>
        <time>2018-04-27T08:33:12Z</time>
      </trkpt>
      <trkpt lat="45.92247" lon="4.75132">
        <ele>174</ele>
        <time>2018-04-27T08:33:13Z</time>
      </trkpt>
      <trkpt lat="45.92244" lon="4.75137">
        <ele>174</ele>
        <time>2018-04-27T08:33:14Z</time>
      </trkpt>
      <trkpt lat="45.92238" lon="4.75142">
        <ele>174</ele>
        <time>2018-04-27T08:33:15Z</time>
      </trkpt>
      <trkpt lat="45.92235" lon="4.75147">
        <ele>174</ele>
        <time>2018-04-27T08:33:16Z</time>
      </trkpt>
      <trkpt lat="45.92232" lon="4.75154">
        <ele>174</ele>
        <time>2018-04-27T08:33:17Z</time>
      </trkpt>
      <trkpt lat="45.92229" lon="4.75161">
        <ele>174</ele>
        <time>2018-04-27T08:33:18Z</time>
      </trkpt>
      <trkpt lat="45.92226" lon="4.75168">
        <ele>175</ele>
        <time>2018-04-27T08:33:19Z</time>
      </trkpt>
      <trkpt lat="45.92225" lon="4.75175">
        <ele>175</ele>
        <time>2018-04-27T08:33:20Z</time>
      </trkpt>
      <trkpt lat="45.92223" lon="4.75181">
        <ele>175</ele>
        <time>2018-04-27T08:33:21Z</time>
      </trkpt>
      <trkpt lat="45.92221" lon="4.75187">
        <ele>175</ele>
        <time>2018-04-27T08:33:22Z</time>
      </trkpt>
      <trkpt lat="45.9222" lon="4.75195">
        <ele>175</ele>
        <time>2018-04-27T08:33:23Z</time>
      </trkpt>
      <trkpt lat="45.92218" lon="4.75201">
        <ele>175</ele>
        <time>2018-04-27T08:33:24Z</time>
      </trkpt>
      <trkpt lat="45.92217" lon="4.75208">
        <ele>175</ele>
        <time>2018-04-27T08:33:25Z</time>
      </trkpt>
      <trkpt lat="45.92216" lon="4.75215">
        <ele>175</ele>
        <time>2018-04-27T08:33:26Z</time>
      </trkpt>
      <trkpt lat="45.92215" lon="4.75222">
        <ele>175</ele>
        <time>2018-04-27T08:33:27Z</time>
      </trkpt>
      <trkpt lat="45.92216" lon="4.75231">
        <ele>175</ele>
        <time>2018-04-27T08:33:28Z</time>
      </trkpt>
      <trkpt lat="45.92215" lon="4.75238">
        <ele>175</ele>
        <time>2018-04-27T08:33:29Z</time>
      </trkpt>
      <trkpt lat="45.92214" lon="4.75243">
        <ele>175</ele>
        <time>2018-04-27T08:33:30Z</time>
      </trkpt>
      <trkpt lat="45.92213" lon="4.75251">
        <ele>175</ele>
        <time>2018-04-27T08:33:31Z</time>
      </trkpt>
      <trkpt lat="45.92212" lon="4.75257">
        <ele>175</ele>
        <time>2018-04-27T08:33:32Z</time>
      </trkpt>
      <trkpt lat="45.92212" lon="4.75263">
        <ele>176</ele>
        <time>2018-04-27T08:33:33Z</time>
      </trkpt>
      <trkpt lat="45.92211" lon="4.7527">
        <ele>176</ele>
        <time>2018-04-27T08:33:34Z</time>
      </trkpt>
      <trkpt lat="45.92209" lon="4.75276">
        <ele>176</ele>
        <time>2018-04-27T08:33:35Z</time>
      </trkpt>
      <trkpt lat="45.92209" lon="4.75282">
        <ele>176</ele>
        <time>2018-04-27T08:33:36Z</time>
      </trkpt>
      <trkpt lat="45.92209" lon="4.75289">
        <ele>176</ele>
        <time>2018-04-27T08:33:37Z</time>
      </trkpt>
      <trkpt lat="45.92208" lon="4.75301">
        <ele>176</ele>
        <time>2018-04-27T08:33:39Z</time>
      </trkpt>
      <trkpt lat="45.92208" lon="4.75307">
        <ele>176</ele>
        <time>2018-04-27T08:33:40Z</time>
      </trkpt>
      <trkpt lat="45.92207" lon="4.75318">
        <ele>176</ele>
        <time>2018-04-27T08:33:42Z</time>
      </trkpt>
      <trkpt lat="45.92206" lon="4.75324">
        <ele>176</ele>
        <time>2018-04-27T08:33:43Z</time>
      </trkpt>
      <trkpt lat="45.92205" lon="4.75336">
        <ele>177</ele>
        <time>2018-04-27T08:33:45Z</time>
      </trkpt>
      <trkpt lat="45.92204" lon="4.75341">
        <ele>177</ele>
        <time>2018-04-27T08:33:46Z</time>
      </trkpt>
      <trkpt lat="45.92202" lon="4.75349">
        <ele>177</ele>
        <time>2018-04-27T08:33:48Z</time>
      </trkpt>
      <trkpt lat="45.922" lon="4.75357">
        <ele>177</ele>
        <time>2018-04-27T08:33:49Z</time>
      </trkpt>
      <trkpt lat="45.92198" lon="4.75368">
        <ele>177</ele>
        <time>2018-04-27T08:33:51Z</time>
      </trkpt>
      <trkpt lat="45.92197" lon="4.75374">
        <ele>177</ele>
        <time>2018-04-27T08:33:52Z</time>
      </trkpt>
      <trkpt lat="45.92195" lon="4.7538">
        <ele>177</ele>
        <time>2018-04-27T08:33:53Z</time>
      </trkpt>
      <trkpt lat="45.92191" lon="4.75387">
        <ele>177</ele>
        <time>2018-04-27T08:33:54Z</time>
      </trkpt>
      <trkpt lat="45.92187" lon="4.75394">
        <ele>177</ele>
        <time>2018-04-27T08:33:55Z</time>
      </trkpt>
      <trkpt lat="45.92185" lon="4.754">
        <ele>177</ele>
        <time>2018-04-27T08:33:56Z</time>
      </trkpt>
      <trkpt lat="45.92183" lon="4.75407">
        <ele>177</ele>
        <time>2018-04-27T08:33:57Z</time>
      </trkpt>
      <trkpt lat="45.92181" lon="4.75415">
        <ele>177</ele>
        <time>2018-04-27T08:33:58Z</time>
      </trkpt>
      <trkpt lat="45.92179" lon="4.75423">
        <ele>177</ele>
        <time>2018-04-27T08:33:59Z</time>
      </trkpt>
      <trkpt lat="45.92176" lon="4.75429">
        <ele>177</ele>
        <time>2018-04-27T08:34:00Z</time>
      </trkpt>
      <trkpt lat="45.92172" lon="4.75435">
        <ele>177</ele>
        <time>2018-04-27T08:34:01Z</time>
      </trkpt>
      <trkpt lat="45.9217" lon="4.75442">
        <ele>177</ele>
        <time>2018-04-27T08:34:02Z</time>
      </trkpt>
      <trkpt lat="45.92167" lon="4.75447">
        <ele>176</ele>
        <time>2018-04-27T08:34:03Z</time>
      </trkpt>
      <trkpt lat="45.92165" lon="4.75454">
        <ele>176</ele>
        <time>2018-04-27T08:34:04Z</time>
      </trkpt>
      <trkpt lat="45.92163" lon="4.75462">
        <ele>176</ele>
        <time>2018-04-27T08:34:05Z</time>
      </trkpt>
      <trkpt lat="45.9216" lon="4.75467">
        <ele>176</ele>
        <time>2018-04-27T08:34:06Z</time>
      </trkpt>
      <trkpt lat="45.92159" lon="4.75475">
        <ele>176</ele>
        <time>2018-04-27T08:34:07Z</time>
      </trkpt>
      <trkpt lat="45.92157" lon="4.75481">
        <ele>176</ele>
        <time>2018-04-27T08:34:08Z</time>
      </trkpt>
      <trkpt lat="45.92153" lon="4.75486">
        <ele>176</ele>
        <time>2018-04-27T08:34:09Z</time>
      </trkpt>
      <trkpt lat="45.92149" lon="4.75491">
        <ele>176</ele>
        <time>2018-04-27T08:34:10Z</time>
      </trkpt>
      <trkpt lat="45.92146" lon="4.75497">
        <ele>175</ele>
        <time>2018-04-27T08:34:11Z</time>
      </trkpt>
      <trkpt lat="45.92142" lon="4.75502">
        <ele>175</ele>
        <time>2018-04-27T08:34:12Z</time>
      </trkpt>
      <trkpt lat="45.92138" lon="4.75508">
        <ele>174</ele>
        <time>2018-04-27T08:34:13Z</time>
      </trkpt>
      <trkpt lat="45.92135" lon="4.75513">
        <ele>174</ele>
        <time>2018-04-27T08:34:14Z</time>
      </trkpt>
      <trkpt lat="45.92132" lon="4.7552">
        <ele>174</ele>
        <time>2018-04-27T08:34:15Z</time>
      </trkpt>
      <trkpt lat="45.92127" lon="4.75525">
        <ele>174</ele>
        <time>2018-04-27T08:34:16Z</time>
      </trkpt>
      <trkpt lat="45.92123" lon="4.75531">
        <ele>174</ele>
        <time>2018-04-27T08:34:17Z</time>
      </trkpt>
      <trkpt lat="45.92118" lon="4.75537">
        <ele>174</ele>
        <time>2018-04-27T08:34:18Z</time>
      </trkpt>
      <trkpt lat="45.92115" lon="4.75544">
        <ele>174</ele>
        <time>2018-04-27T08:34:19Z</time>
      </trkpt>
      <trkpt lat="45.92113" lon="4.7555">
        <ele>174</ele>
        <time>2018-04-27T08:34:20Z</time>
      </trkpt>
      <trkpt lat="45.9211" lon="4.75556">
        <ele>174</ele>
        <time>2018-04-27T08:34:21Z</time>
      </trkpt>
      <trkpt lat="45.92108" lon="4.75563">
        <ele>174</ele>
        <time>2018-04-27T08:34:22Z</time>
      </trkpt>
      <trkpt lat="45.92104" lon="4.75573">
        <ele>174</ele>
        <time>2018-04-27T08:34:24Z</time>
      </trkpt>
      <trkpt lat="45.92101" lon="4.7558">
        <ele>174</ele>
        <time>2018-04-27T08:34:25Z</time>
      </trkpt>
      <trkpt lat="45.92099" lon="4.75587">
        <ele>174</ele>
        <time>2018-04-27T08:34:26Z</time>
      </trkpt>
      <trkpt lat="45.92095" lon="4.75593">
        <ele>174</ele>
        <time>2018-04-27T08:34:27Z</time>
      </trkpt>
      <trkpt lat="45.92093" lon="4.75601">
        <ele>174</ele>
        <time>2018-04-27T08:34:28Z</time>
      </trkpt>
      <trkpt lat="45.9209" lon="4.75607">
        <ele>174</ele>
        <time>2018-04-27T08:34:29Z</time>
      </trkpt>
      <trkpt lat="45.92085" lon="4.75615">
        <ele>174</ele>
        <time>2018-04-27T08:34:30Z</time>
      </trkpt>
      <trkpt lat="45.92082" lon="4.75622">
        <ele>175</ele>
        <time>2018-04-27T08:34:31Z</time>
      </trkpt>
      <trkpt lat="45.92079" lon="4.75628">
        <ele>175</ele>
        <time>2018-04-27T08:34:32Z</time>
      </trkpt>
      <trkpt lat="45.92075" lon="4.75634">
        <ele>175</ele>
        <time>2018-04-27T08:34:33Z</time>
      </trkpt>
      <trkpt lat="45.92072" lon="4.7564">
        <ele>175</ele>
        <time>2018-04-27T08:34:34Z</time>
      </trkpt>
      <trkpt lat="45.92068" lon="4.75646">
        <ele>175</ele>
        <time>2018-04-27T08:34:35Z</time>
      </trkpt>
      <trkpt lat="45.92066" lon="4.75652">
        <ele>175</ele>
        <time>2018-04-27T08:34:36Z</time>
      </trkpt>
      <trkpt lat="45.92063" lon="4.75658">
        <ele>175</ele>
        <time>2018-04-27T08:34:37Z</time>
      </trkpt>
      <trkpt lat="45.9206" lon="4.75664">
        <ele>175</ele>
        <time>2018-04-27T08:34:38Z</time>
      </trkpt>
      <trkpt lat="45.92056" lon="4.7567">
        <ele>175</ele>
        <time>2018-04-27T08:34:39Z</time>
      </trkpt>
      <trkpt lat="45.92054" lon="4.75678">
        <ele>175</ele>
        <time>2018-04-27T08:34:40Z</time>
      </trkpt>
      <trkpt lat="45.92049" lon="4.75684">
        <ele>175</ele>
        <time>2018-04-27T08:34:41Z</time>
      </trkpt>
      <trkpt lat="45.92046" lon="4.75689">
        <ele>175</ele>
        <time>2018-04-27T08:34:42Z</time>
      </trkpt>
      <trkpt lat="45.92043" lon="4.75696">
        <ele>175</ele>
        <time>2018-04-27T08:34:43Z</time>
      </trkpt>
      <trkpt lat="45.92039" lon="4.75702">
        <ele>175</ele>
        <time>2018-04-27T08:34:44Z</time>
      </trkpt>
      <trkpt lat="45.92037" lon="4.75709">
        <ele>175</ele>
        <time>2018-04-27T08:34:45Z</time>
      </trkpt>
      <trkpt lat="45.92034" lon="4.75718">
        <ele>175</ele>
        <time>2018-04-27T08:34:46Z</time>
      </trkpt>
      <trkpt lat="45.92031" lon="4.75724">
        <ele>175</ele>
        <time>2018-04-27T08:34:47Z</time>
      </trkpt>
      <trkpt lat="45.92028" lon="4.7573">
        <ele>175</ele>
        <time>2018-04-27T08:34:48Z</time>
      </trkpt>
      <trkpt lat="45.92024" lon="4.75737">
        <ele>175</ele>
        <time>2018-04-27T08:34:49Z</time>
      </trkpt>
      <trkpt lat="45.92022" lon="4.75746">
        <ele>174</ele>
        <time>2018-04-27T08:34:50Z</time>
      </trkpt>
      <trkpt lat="45.92019" lon="4.75752">
        <ele>174</ele>
        <time>2018-04-27T08:34:51Z</time>
      </trkpt>
      <trkpt lat="45.92015" lon="4.75759">
        <ele>174</ele>
        <time>2018-04-27T08:34:52Z</time>
      </trkpt>
      <trkpt lat="45.92012" lon="4.75767">
        <ele>173</ele>
        <time>2018-04-27T08:34:53Z</time>
      </trkpt>
      <trkpt lat="45.92008" lon="4.75773">
        <ele>173</ele>
        <time>2018-04-27T08:34:54Z</time>
      </trkpt>
      <trkpt lat="45.92004" lon="4.75778">
        <ele>173</ele>
        <time>2018-04-27T08:34:55Z</time>
      </trkpt>
      <trkpt lat="45.92" lon="4.75784">
        <ele>173</ele>
        <time>2018-04-27T08:34:56Z</time>
      </trkpt>
      <trkpt lat="45.91997" lon="4.7579">
        <ele>173</ele>
        <time>2018-04-27T08:34:57Z</time>
      </trkpt>
      <trkpt lat="45.91993" lon="4.75796">
        <ele>173</ele>
        <time>2018-04-27T08:34:58Z</time>
      </trkpt>
      <trkpt lat="45.91989" lon="4.75802">
        <ele>173</ele>
        <time>2018-04-27T08:34:59Z</time>
      </trkpt>
      <trkpt lat="45.91985" lon="4.75808">
        <ele>173</ele>
        <time>2018-04-27T08:35:00Z</time>
      </trkpt>
      <trkpt lat="45.91981" lon="4.75815">
        <ele>173</ele>
        <time>2018-04-27T08:35:01Z</time>
      </trkpt>
      <trkpt lat="45.9198" lon="4.75825">
        <ele>173</ele>
        <time>2018-04-27T08:35:02Z</time>
      </trkpt>
      <trkpt lat="45.91978" lon="4.75831">
        <ele>173</ele>
        <time>2018-04-27T08:35:03Z</time>
      </trkpt>
      <trkpt lat="45.91974" lon="4.75837">
        <ele>172</ele>
        <time>2018-04-27T08:35:04Z</time>
      </trkpt>
      <trkpt lat="45.91971" lon="4.75843">
        <ele>172</ele>
        <time>2018-04-27T08:35:05Z</time>
      </trkpt>
      <trkpt lat="45.91968" lon="4.75849">
        <ele>172</ele>
        <time>2018-04-27T08:35:06Z</time>
      </trkpt>
      <trkpt lat="45.91965" lon="4.75855">
        <ele>172</ele>
        <time>2018-04-27T08:35:07Z</time>
      </trkpt>
      <trkpt lat="45.91962" lon="4.7586">
        <ele>172</ele>
        <time>2018-04-27T08:35:08Z</time>
      </trkpt>
      <trkpt lat="45.91958" lon="4.75864">
        <ele>172</ele>
        <time>2018-04-27T08:35:09Z</time>
      </trkpt>
      <trkpt lat="45.91954" lon="4.75869">
        <ele>172</ele>
        <time>2018-04-27T08:35:10Z</time>
      </trkpt>
      <trkpt lat="45.91951" lon="4.75875">
        <ele>172</ele>
        <time>2018-04-27T08:35:11Z</time>
      </trkpt>
      <trkpt lat="45.91948" lon="4.7588">
        <ele>172</ele>
        <time>2018-04-27T08:35:12Z</time>
      </trkpt>
      <trkpt lat="45.91945" lon="4.75886">
        <ele>172</ele>
        <time>2018-04-27T08:35:13Z</time>
      </trkpt>
      <trkpt lat="45.91942" lon="4.75891">
        <ele>172</ele>
        <time>2018-04-27T08:35:14Z</time>
      </trkpt>
      <trkpt lat="45.9194" lon="4.75897">
        <ele>172</ele>
        <time>2018-04-27T08:35:15Z</time>
      </trkpt>
      <trkpt lat="45.91938" lon="4.75906">
        <ele>172</ele>
        <time>2018-04-27T08:35:16Z</time>
      </trkpt>
      <trkpt lat="45.91936" lon="4.75912">
        <ele>172</ele>
        <time>2018-04-27T08:35:17Z</time>
      </trkpt>
      <trkpt lat="45.91933" lon="4.75917">
        <ele>172</ele>
        <time>2018-04-27T08:35:18Z</time>
      </trkpt>
      <trkpt lat="45.9193" lon="4.75923">
        <ele>172</ele>
        <time>2018-04-27T08:35:19Z</time>
      </trkpt>
      <trkpt lat="45.91928" lon="4.7593">
        <ele>172</ele>
        <time>2018-04-27T08:35:20Z</time>
      </trkpt>
      <trkpt lat="45.91925" lon="4.75937">
        <ele>172</ele>
        <time>2018-04-27T08:35:21Z</time>
      </trkpt>
      <trkpt lat="45.91923" lon="4.75942">
        <ele>172</ele>
        <time>2018-04-27T08:35:22Z</time>
      </trkpt>
      <trkpt lat="45.91923" lon="4.75949">
        <ele>172</ele>
        <time>2018-04-27T08:35:23Z</time>
      </trkpt>
      <trkpt lat="45.91921" lon="4.75956">
        <ele>172</ele>
        <time>2018-04-27T08:35:24Z</time>
      </trkpt>
      <trkpt lat="45.91919" lon="4.75962">
        <ele>172</ele>
        <time>2018-04-27T08:35:25Z</time>
      </trkpt>
      <trkpt lat="45.91917" lon="4.75968">
        <ele>172</ele>
        <time>2018-04-27T08:35:26Z</time>
      </trkpt>
      <trkpt lat="45.91915" lon="4.75974">
        <ele>173</ele>
        <time>2018-04-27T08:35:27Z</time>
      </trkpt>
      <trkpt lat="45.91913" lon="4.7598">
        <ele>173</ele>
        <time>2018-04-27T08:35:28Z</time>
      </trkpt>
      <trkpt lat="45.91911" lon="4.75986">
        <ele>173</ele>
        <time>2018-04-27T08:35:29Z</time>
      </trkpt>
      <trkpt lat="45.91909" lon="4.75993">
        <ele>173</ele>
        <time>2018-04-27T08:35:30Z</time>
      </trkpt>
      <trkpt lat="45.91908" lon="4.75999">
        <ele>172</ele>
        <time>2018-04-27T08:35:31Z</time>
      </trkpt>
      <trkpt lat="45.91907" lon="4.76005">
        <ele>172</ele>
        <time>2018-04-27T08:35:32Z</time>
      </trkpt>
      <trkpt lat="45.91905" lon="4.76012">
        <ele>173</ele>
        <time>2018-04-27T08:35:33Z</time>
      </trkpt>
      <trkpt lat="45.91903" lon="4.76018">
        <ele>173</ele>
        <time>2018-04-27T08:35:34Z</time>
      </trkpt>
      <trkpt lat="45.91901" lon="4.76025">
        <ele>173</ele>
        <time>2018-04-27T08:35:35Z</time>
      </trkpt>
      <trkpt lat="45.91899" lon="4.76032">
        <ele>173</ele>
        <time>2018-04-27T08:35:36Z</time>
      </trkpt>
      <trkpt lat="45.91898" lon="4.76038">
        <ele>173</ele>
        <time>2018-04-27T08:35:37Z</time>
      </trkpt>
      <trkpt lat="45.91895" lon="4.7605">
        <ele>173</ele>
        <time>2018-04-27T08:35:39Z</time>
      </trkpt>
      <trkpt lat="45.91893" lon="4.76057">
        <ele>173</ele>
        <time>2018-04-27T08:35:40Z</time>
      </trkpt>
      <trkpt lat="45.91892" lon="4.76063">
        <ele>173</ele>
        <time>2018-04-27T08:35:41Z</time>
      </trkpt>
      <trkpt lat="45.9189" lon="4.76069">
        <ele>173</ele>
        <time>2018-04-27T08:35:42Z</time>
      </trkpt>
      <trkpt lat="45.91888" lon="4.76077">
        <ele>173</ele>
        <time>2018-04-27T08:35:43Z</time>
      </trkpt>
      <trkpt lat="45.91886" lon="4.76084">
        <ele>172</ele>
        <time>2018-04-27T08:35:44Z</time>
      </trkpt>
      <trkpt lat="45.91884" lon="4.7609">
        <ele>172</ele>
        <time>2018-04-27T08:35:45Z</time>
      </trkpt>
      <trkpt lat="45.91882" lon="4.76096">
        <ele>172</ele>
        <time>2018-04-27T08:35:46Z</time>
      </trkpt>
      <trkpt lat="45.9188" lon="4.76103">
        <ele>172</ele>
        <time>2018-04-27T08:35:47Z</time>
      </trkpt>
      <trkpt lat="45.91878" lon="4.76108">
        <ele>173</ele>
        <time>2018-04-27T08:35:48Z</time>
      </trkpt>
      <trkpt lat="45.91877" lon="4.76115">
        <ele>173</ele>
        <time>2018-04-27T08:35:49Z</time>
      </trkpt>
      <trkpt lat="45.91876" lon="4.76122">
        <ele>173</ele>
        <time>2018-04-27T08:35:50Z</time>
      </trkpt>
      <trkpt lat="45.91872" lon="4.76133">
        <ele>173</ele>
        <time>2018-04-27T08:35:52Z</time>
      </trkpt>
      <trkpt lat="45.9187" lon="4.7614">
        <ele>172</ele>
        <time>2018-04-27T08:35:53Z</time>
      </trkpt>
      <trkpt lat="45.91869" lon="4.76147">
        <ele>172</ele>
        <time>2018-04-27T08:35:54Z</time>
      </trkpt>
      <trkpt lat="45.91867" lon="4.76155">
        <ele>172</ele>
        <time>2018-04-27T08:35:55Z</time>
      </trkpt>
      <trkpt lat="45.91865" lon="4.76162">
        <ele>173</ele>
        <time>2018-04-27T08:35:56Z</time>
      </trkpt>
      <trkpt lat="45.91863" lon="4.76169">
        <ele>172</ele>
        <time>2018-04-27T08:35:57Z</time>
      </trkpt>
      <trkpt lat="45.9186" lon="4.76178">
        <ele>172</ele>
        <time>2018-04-27T08:35:58Z</time>
      </trkpt>
      <trkpt lat="45.91858" lon="4.76185">
        <ele>172</ele>
        <time>2018-04-27T08:35:59Z</time>
      </trkpt>
      <trkpt lat="45.91857" lon="4.76192">
        <ele>172</ele>
        <time>2018-04-27T08:36:00Z</time>
      </trkpt>
      <trkpt lat="45.91855" lon="4.76198">
        <ele>172</ele>
        <time>2018-04-27T08:36:01Z</time>
      </trkpt>
      <trkpt lat="45.9185" lon="4.76209">
        <ele>172</ele>
        <time>2018-04-27T08:36:03Z</time>
      </trkpt>
      <trkpt lat="45.91848" lon="4.76216">
        <ele>172</ele>
        <time>2018-04-27T08:36:04Z</time>
      </trkpt>
      <trkpt lat="45.91847" lon="4.76222">
        <ele>172</ele>
        <time>2018-04-27T08:36:05Z</time>
      </trkpt>
      <trkpt lat="45.91845" lon="4.76228">
        <ele>172</ele>
        <time>2018-04-27T08:36:06Z</time>
      </trkpt>
      <trkpt lat="45.91843" lon="4.76235">
        <ele>172</ele>
        <time>2018-04-27T08:36:07Z</time>
      </trkpt>
      <trkpt lat="45.91841" lon="4.76241">
        <ele>173</ele>
        <time>2018-04-27T08:36:08Z</time>
      </trkpt>
      <trkpt lat="45.91839" lon="4.76248">
        <ele>173</ele>
        <time>2018-04-27T08:36:09Z</time>
      </trkpt>
      <trkpt lat="45.91837" lon="4.76254">
        <ele>173</ele>
        <time>2018-04-27T08:36:10Z</time>
      </trkpt>
      <trkpt lat="45.91835" lon="4.7626">
        <ele>173</ele>
        <time>2018-04-27T08:36:11Z</time>
      </trkpt>
      <trkpt lat="45.91834" lon="4.76267">
        <ele>172</ele>
        <time>2018-04-27T08:36:12Z</time>
      </trkpt>
      <trkpt lat="45.91832" lon="4.76274">
        <ele>174</ele>
        <time>2018-04-27T08:36:13Z</time>
      </trkpt>
      <trkpt lat="45.9183" lon="4.76281">
        <ele>174</ele>
        <time>2018-04-27T08:36:14Z</time>
      </trkpt>
      <trkpt lat="45.91829" lon="4.76289">
        <ele>174</ele>
        <time>2018-04-27T08:36:15Z</time>
      </trkpt>
      <trkpt lat="45.91827" lon="4.76296">
        <ele>174</ele>
        <time>2018-04-27T08:36:16Z</time>
      </trkpt>
      <trkpt lat="45.91825" lon="4.76302">
        <ele>174</ele>
        <time>2018-04-27T08:36:17Z</time>
      </trkpt>
      <trkpt lat="45.91824" lon="4.76308">
        <ele>174</ele>
        <time>2018-04-27T08:36:18Z</time>
      </trkpt>
      <trkpt lat="45.91821" lon="4.76314">
        <ele>174</ele>
        <time>2018-04-27T08:36:19Z</time>
      </trkpt>
      <trkpt lat="45.9182" lon="4.76321">
        <ele>174</ele>
        <time>2018-04-27T08:36:20Z</time>
      </trkpt>
      <trkpt lat="45.91819" lon="4.76328">
        <ele>174</ele>
        <time>2018-04-27T08:36:21Z</time>
      </trkpt>
      <trkpt lat="45.91817" lon="4.76335">
        <ele>174</ele>
        <time>2018-04-27T08:36:22Z</time>
      </trkpt>
      <trkpt lat="45.91817" lon="4.76343">
        <ele>174</ele>
        <time>2018-04-27T08:36:23Z</time>
      </trkpt>
      <trkpt lat="45.91817" lon="4.7635">
        <ele>174</ele>
        <time>2018-04-27T08:36:24Z</time>
      </trkpt>
      <trkpt lat="45.91814" lon="4.76356">
        <ele>174</ele>
        <time>2018-04-27T08:36:25Z</time>
      </trkpt>
      <trkpt lat="45.91814" lon="4.76364">
        <ele>174</ele>
        <time>2018-04-27T08:36:26Z</time>
      </trkpt>
      <trkpt lat="45.91811" lon="4.76376">
        <ele>174</ele>
        <time>2018-04-27T08:36:28Z</time>
      </trkpt>
      <trkpt lat="45.91811" lon="4.76382">
        <ele>174</ele>
        <time>2018-04-27T08:36:29Z</time>
      </trkpt>
      <trkpt lat="45.9181" lon="4.76389">
        <ele>174</ele>
        <time>2018-04-27T08:36:30Z</time>
      </trkpt>
      <trkpt lat="45.9181" lon="4.76396">
        <ele>173</ele>
        <time>2018-04-27T08:36:31Z</time>
      </trkpt>
      <trkpt lat="45.91809" lon="4.76404">
        <ele>173</ele>
        <time>2018-04-27T08:36:32Z</time>
      </trkpt>
      <trkpt lat="45.91809" lon="4.7641">
        <ele>173</ele>
        <time>2018-04-27T08:36:33Z</time>
      </trkpt>
      <trkpt lat="45.91808" lon="4.76417">
        <ele>173</ele>
        <time>2018-04-27T08:36:34Z</time>
      </trkpt>
      <trkpt lat="45.91807" lon="4.76424">
        <ele>173</ele>
        <time>2018-04-27T08:36:35Z</time>
      </trkpt>
      <trkpt lat="45.91806" lon="4.76431">
        <ele>173</ele>
        <time>2018-04-27T08:36:36Z</time>
      </trkpt>
      <trkpt lat="45.91805" lon="4.76437">
        <ele>173</ele>
        <time>2018-04-27T08:36:37Z</time>
      </trkpt>
      <trkpt lat="45.91806" lon="4.76445">
        <ele>173</ele>
        <time>2018-04-27T08:36:38Z</time>
      </trkpt>
      <trkpt lat="45.91807" lon="4.76451">
        <ele>173</ele>
        <time>2018-04-27T08:36:39Z</time>
      </trkpt>
      <trkpt lat="45.91806" lon="4.76458">
        <ele>173</ele>
        <time>2018-04-27T08:36:40Z</time>
      </trkpt>
      <trkpt lat="45.91805" lon="4.76464">
        <ele>173</ele>
        <time>2018-04-27T08:36:41Z</time>
      </trkpt>
      <trkpt lat="45.91806" lon="4.7647">
        <ele>173</ele>
        <time>2018-04-27T08:36:42Z</time>
      </trkpt>
      <trkpt lat="45.91806" lon="4.76478">
        <ele>173</ele>
        <time>2018-04-27T08:36:43Z</time>
      </trkpt>
      <trkpt lat="45.91805" lon="4.76484">
        <ele>173</ele>
        <time>2018-04-27T08:36:44Z</time>
      </trkpt>
      <trkpt lat="45.91804" lon="4.76491">
        <ele>173</ele>
        <time>2018-04-27T08:36:45Z</time>
      </trkpt>
      <trkpt lat="45.91804" lon="4.76498">
        <ele>173</ele>
        <time>2018-04-27T08:36:46Z</time>
      </trkpt>
      <trkpt lat="45.91804" lon="4.76504">
        <ele>173</ele>
        <time>2018-04-27T08:36:47Z</time>
      </trkpt>
      <trkpt lat="45.91803" lon="4.76512">
        <ele>173</ele>
        <time>2018-04-27T08:36:48Z</time>
      </trkpt>
      <trkpt lat="45.91803" lon="4.76518">
        <ele>173</ele>
        <time>2018-04-27T08:36:49Z</time>
      </trkpt>
      <trkpt lat="45.91802" lon="4.76525">
        <ele>173</ele>
        <time>2018-04-27T08:36:50Z</time>
      </trkpt>
      <trkpt lat="45.91802" lon="4.76531">
        <ele>173</ele>
        <time>2018-04-27T08:36:51Z</time>
      </trkpt>
      <trkpt lat="45.91801" lon="4.76537">
        <ele>173</ele>
        <time>2018-04-27T08:36:52Z</time>
      </trkpt>
      <trkpt lat="45.918" lon="4.76544">
        <ele>173</ele>
        <time>2018-04-27T08:36:53Z</time>
      </trkpt>
      <trkpt lat="45.91799" lon="4.76557">
        <ele>173</ele>
        <time>2018-04-27T08:36:55Z</time>
      </trkpt>
      <trkpt lat="45.91798" lon="4.76564">
        <ele>173</ele>
        <time>2018-04-27T08:36:56Z</time>
      </trkpt>
      <trkpt lat="45.91798" lon="4.76571">
        <ele>173</ele>
        <time>2018-04-27T08:36:57Z</time>
      </trkpt>
      <trkpt lat="45.91796" lon="4.76578">
        <ele>173</ele>
        <time>2018-04-27T08:36:58Z</time>
      </trkpt>
      <trkpt lat="45.91796" lon="4.76584">
        <ele>173</ele>
        <time>2018-04-27T08:36:59Z</time>
      </trkpt>
      <trkpt lat="45.91797" lon="4.76593">
        <ele>173</ele>
        <time>2018-04-27T08:37:00Z</time>
      </trkpt>
      <trkpt lat="45.91796" lon="4.76601">
        <ele>173</ele>
        <time>2018-04-27T08:37:01Z</time>
      </trkpt>
      <trkpt lat="45.91795" lon="4.76608">
        <ele>173</ele>
        <time>2018-04-27T08:37:02Z</time>
      </trkpt>
      <trkpt lat="45.91795" lon="4.76615">
        <ele>173</ele>
        <time>2018-04-27T08:37:03Z</time>
      </trkpt>
      <trkpt lat="45.91794" lon="4.76624">
        <ele>173</ele>
        <time>2018-04-27T08:37:04Z</time>
      </trkpt>
      <trkpt lat="45.91792" lon="4.76631">
        <ele>173</ele>
        <time>2018-04-27T08:37:05Z</time>
      </trkpt>
      <trkpt lat="45.91791" lon="4.76638">
        <ele>173</ele>
        <time>2018-04-27T08:37:06Z</time>
      </trkpt>
      <trkpt lat="45.9179" lon="4.76644">
        <ele>173</ele>
        <time>2018-04-27T08:37:07Z</time>
      </trkpt>
      <trkpt lat="45.91789" lon="4.76651">
        <ele>173</ele>
        <time>2018-04-27T08:37:08Z</time>
      </trkpt>
      <trkpt lat="45.91788" lon="4.76658">
        <ele>173</ele>
        <time>2018-04-27T08:37:09Z</time>
      </trkpt>
      <trkpt lat="45.91787" lon="4.76665">
        <ele>173</ele>
        <time>2018-04-27T08:37:10Z</time>
      </trkpt>
      <trkpt lat="45.91786" lon="4.76673">
        <ele>172</ele>
        <time>2018-04-27T08:37:11Z</time>
      </trkpt>
      <trkpt lat="45.91785" lon="4.76683">
        <ele>172</ele>
        <time>2018-04-27T08:37:12Z</time>
      </trkpt>
      <trkpt lat="45.91784" lon="4.76691">
        <ele>172</ele>
        <time>2018-04-27T08:37:13Z</time>
      </trkpt>
      <trkpt lat="45.91783" lon="4.76699">
        <ele>172</ele>
        <time>2018-04-27T08:37:14Z</time>
      </trkpt>
      <trkpt lat="45.91782" lon="4.76706">
        <ele>172</ele>
        <time>2018-04-27T08:37:15Z</time>
      </trkpt>
      <trkpt lat="45.91782" lon="4.76714">
        <ele>172</ele>
        <time>2018-04-27T08:37:16Z</time>
      </trkpt>
      <trkpt lat="45.91781" lon="4.76722">
        <ele>172</ele>
        <time>2018-04-27T08:37:17Z</time>
      </trkpt>
      <trkpt lat="45.9178" lon="4.76729">
        <ele>172</ele>
        <time>2018-04-27T08:37:18Z</time>
      </trkpt>
      <trkpt lat="45.91779" lon="4.76736">
        <ele>172</ele>
        <time>2018-04-27T08:37:19Z</time>
      </trkpt>
      <trkpt lat="45.9178" lon="4.76742">
        <ele>172</ele>
        <time>2018-04-27T08:37:20Z</time>
      </trkpt>
      <trkpt lat="45.9178" lon="4.7675">
        <ele>171</ele>
        <time>2018-04-27T08:37:21Z</time>
      </trkpt>
      <trkpt lat="45.91779" lon="4.76758">
        <ele>171</ele>
        <time>2018-04-27T08:37:22Z</time>
      </trkpt>
      <trkpt lat="45.91779" lon="4.76768">
        <ele>171</ele>
        <time>2018-04-27T08:37:23Z</time>
      </trkpt>
      <trkpt lat="45.91779" lon="4.76776">
        <ele>171</ele>
        <time>2018-04-27T08:37:24Z</time>
      </trkpt>
      <trkpt lat="45.91779" lon="4.76784">
        <ele>171</ele>
        <time>2018-04-27T08:37:25Z</time>
      </trkpt>
      <trkpt lat="45.9178" lon="4.76792">
        <ele>171</ele>
        <time>2018-04-27T08:37:26Z</time>
      </trkpt>
      <trkpt lat="45.91779" lon="4.76799">
        <ele>171</ele>
        <time>2018-04-27T08:37:27Z</time>
      </trkpt>
      <trkpt lat="45.91779" lon="4.76806">
        <ele>171</ele>
        <time>2018-04-27T08:37:28Z</time>
      </trkpt>
      <trkpt lat="45.91779" lon="4.76815">
        <ele>171</ele>
        <time>2018-04-27T08:37:29Z</time>
      </trkpt>
      <trkpt lat="45.91778" lon="4.76823">
        <ele>171</ele>
        <time>2018-04-27T08:37:30Z</time>
      </trkpt>
      <trkpt lat="45.91778" lon="4.76831">
        <ele>171</ele>
        <time>2018-04-27T08:37:31Z</time>
      </trkpt>
      <trkpt lat="45.91778" lon="4.76839">
        <ele>170</ele>
        <time>2018-04-27T08:37:32Z</time>
      </trkpt>
      <trkpt lat="45.91779" lon="4.76849">
        <ele>170</ele>
        <time>2018-04-27T08:37:33Z</time>
      </trkpt>
      <trkpt lat="45.91779" lon="4.76858">
        <ele>170</ele>
        <time>2018-04-27T08:37:34Z</time>
      </trkpt>
      <trkpt lat="45.91777" lon="4.76866">
        <ele>170</ele>
        <time>2018-04-27T08:37:35Z</time>
      </trkpt>
      <trkpt lat="45.91778" lon="4.76874">
        <ele>170</ele>
        <time>2018-04-27T08:37:36Z</time>
      </trkpt>
      <trkpt lat="45.91778" lon="4.76883">
        <ele>170</ele>
        <time>2018-04-27T08:37:37Z</time>
      </trkpt>
      <trkpt lat="45.91776" lon="4.7689">
        <ele>170</ele>
        <time>2018-04-27T08:37:38Z</time>
      </trkpt>
      <trkpt lat="45.91776" lon="4.769">
        <ele>170</ele>
        <time>2018-04-27T08:37:39Z</time>
      </trkpt>
      <trkpt lat="45.91775" lon="4.76909">
        <ele>170</ele>
        <time>2018-04-27T08:37:40Z</time>
      </trkpt>
      <trkpt lat="45.91776" lon="4.76918">
        <ele>170</ele>
        <time>2018-04-27T08:37:41Z</time>
      </trkpt>
      <trkpt lat="45.91775" lon="4.76925">
        <ele>170</ele>
        <time>2018-04-27T08:37:42Z</time>
      </trkpt>
      <trkpt lat="45.91774" lon="4.76934">
        <ele>169</ele>
        <time>2018-04-27T08:37:43Z</time>
      </trkpt>
      <trkpt lat="45.91774" lon="4.76942">
        <ele>169</ele>
        <time>2018-04-27T08:37:44Z</time>
      </trkpt>
      <trkpt lat="45.91773" lon="4.7695">
        <ele>169</ele>
        <time>2018-04-27T08:37:45Z</time>
      </trkpt>
      <trkpt lat="45.91774" lon="4.76957">
        <ele>169</ele>
        <time>2018-04-27T08:37:46Z</time>
      </trkpt>
      <trkpt lat="45.91773" lon="4.76965">
        <ele>169</ele>
        <time>2018-04-27T08:37:47Z</time>
      </trkpt>
      <trkpt lat="45.91771" lon="4.7697">
        <ele>169</ele>
        <time>2018-04-27T08:37:48Z</time>
      </trkpt>
      <trkpt lat="45.9177" lon="4.7698">
        <ele>169</ele>
        <time>2018-04-27T08:37:49Z</time>
      </trkpt>
      <trkpt lat="45.91769" lon="4.76988">
        <ele>169</ele>
        <time>2018-04-27T08:37:50Z</time>
      </trkpt>
      <trkpt lat="45.91768" lon="4.76995">
        <ele>169</ele>
        <time>2018-04-27T08:37:51Z</time>
      </trkpt>
      <trkpt lat="45.91767" lon="4.77002">
        <ele>169</ele>
        <time>2018-04-27T08:37:52Z</time>
      </trkpt>
      <trkpt lat="45.91767" lon="4.77009">
        <ele>169</ele>
        <time>2018-04-27T08:37:53Z</time>
      </trkpt>
      <trkpt lat="45.91765" lon="4.77016">
        <ele>169</ele>
        <time>2018-04-27T08:37:54Z</time>
      </trkpt>
      <trkpt lat="45.91765" lon="4.77024">
        <ele>168</ele>
        <time>2018-04-27T08:37:55Z</time>
      </trkpt>
      <trkpt lat="45.91764" lon="4.77031">
        <ele>168</ele>
        <time>2018-04-27T08:37:56Z</time>
      </trkpt>
      <trkpt lat="45.91763" lon="4.77037">
        <ele>168</ele>
        <time>2018-04-27T08:37:57Z</time>
      </trkpt>
      <trkpt lat="45.91762" lon="4.77045">
        <ele>168</ele>
        <time>2018-04-27T08:37:58Z</time>
      </trkpt>
      <trkpt lat="45.91762" lon="4.77053">
        <ele>169</ele>
        <time>2018-04-27T08:37:59Z</time>
      </trkpt>
      <trkpt lat="45.91762" lon="4.7706">
        <ele>169</ele>
        <time>2018-04-27T08:38:00Z</time>
      </trkpt>
      <trkpt lat="45.9176" lon="4.77067">
        <ele>169</ele>
        <time>2018-04-27T08:38:01Z</time>
      </trkpt>
      <trkpt lat="45.91759" lon="4.77073">
        <ele>169</ele>
        <time>2018-04-27T08:38:02Z</time>
      </trkpt>
      <trkpt lat="45.9176" lon="4.77082">
        <ele>169</ele>
        <time>2018-04-27T08:38:03Z</time>
      </trkpt>
      <trkpt lat="45.91758" lon="4.77089">
        <ele>169</ele>
        <time>2018-04-27T08:38:04Z</time>
      </trkpt>
      <trkpt lat="45.91757" lon="4.77096">
        <ele>169</ele>
        <time>2018-04-27T08:38:05Z</time>
      </trkpt>
      <trkpt lat="45.91757" lon="4.77102">
        <ele>169</ele>
        <time>2018-04-27T08:38:06Z</time>
      </trkpt>
      <trkpt lat="45.91755" lon="4.77109">
        <ele>169</ele>
        <time>2018-04-27T08:38:07Z</time>
      </trkpt>
      <trkpt lat="45.91754" lon="4.77115">
        <ele>169</ele>
        <time>2018-04-27T08:38:08Z</time>
      </trkpt>
      <trkpt lat="45.91752" lon="4.77122">
        <ele>169</ele>
        <time>2018-04-27T08:38:09Z</time>
      </trkpt>
      <trkpt lat="45.9175" lon="4.77128">
        <ele>169</ele>
        <time>2018-04-27T08:38:10Z</time>
      </trkpt>
      <trkpt lat="45.91749" lon="4.77135">
        <ele>170</ele>
        <time>2018-04-27T08:38:11Z</time>
      </trkpt>
      <trkpt lat="45.91747" lon="4.77141">
        <ele>170</ele>
        <time>2018-04-27T08:38:12Z</time>
      </trkpt>
      <trkpt lat="45.91746" lon="4.77149">
        <ele>170</ele>
        <time>2018-04-27T08:38:13Z</time>
      </trkpt>
      <trkpt lat="45.91745" lon="4.77155">
        <ele>170</ele>
        <time>2018-04-27T08:38:14Z</time>
      </trkpt>
      <trkpt lat="45.91741" lon="4.77165">
        <ele>170</ele>
        <time>2018-04-27T08:38:16Z</time>
      </trkpt>
      <trkpt lat="45.91738" lon="4.77169">
        <ele>170</ele>
        <time>2018-04-27T08:38:17Z</time>
      </trkpt>
      <trkpt lat="45.91732" lon="4.77177">
        <ele>170</ele>
        <time>2018-04-27T08:38:19Z</time>
      </trkpt>
      <trkpt lat="45.9173" lon="4.77183">
        <ele>170</ele>
        <time>2018-04-27T08:38:20Z</time>
      </trkpt>
      <trkpt lat="45.91726" lon="4.77193">
        <ele>170</ele>
        <time>2018-04-27T08:38:22Z</time>
      </trkpt>
      <trkpt lat="45.91723" lon="4.77199">
        <ele>170</ele>
        <time>2018-04-27T08:38:23Z</time>
      </trkpt>
      <trkpt lat="45.91718" lon="4.77209">
        <ele>170</ele>
        <time>2018-04-27T08:38:25Z</time>
      </trkpt>
      <trkpt lat="45.91716" lon="4.77216">
        <ele>170</ele>
        <time>2018-04-27T08:38:26Z</time>
      </trkpt>
      <trkpt lat="45.91711" lon="4.77225">
        <ele>170</ele>
        <time>2018-04-27T08:38:28Z</time>
      </trkpt>
      <trkpt lat="45.91707" lon="4.7723">
        <ele>170</ele>
        <time>2018-04-27T08:38:29Z</time>
      </trkpt>
      <trkpt lat="45.91704" lon="4.77233">
        <ele>170</ele>
        <time>2018-04-27T08:38:30Z</time>
      </trkpt>
      <trkpt lat="45.917" lon="4.77238">
        <ele>170</ele>
        <time>2018-04-27T08:38:31Z</time>
      </trkpt>
      <trkpt lat="45.91696" lon="4.77248">
        <ele>170</ele>
        <time>2018-04-27T08:38:33Z</time>
      </trkpt>
      <trkpt lat="45.91693" lon="4.77253">
        <ele>170</ele>
        <time>2018-04-27T08:38:34Z</time>
      </trkpt>
      <trkpt lat="45.91691" lon="4.77261">
        <ele>170</ele>
        <time>2018-04-27T08:38:35Z</time>
      </trkpt>
      <trkpt lat="45.91688" lon="4.77268">
        <ele>170</ele>
        <time>2018-04-27T08:38:36Z</time>
      </trkpt>
      <trkpt lat="45.91687" lon="4.77275">
        <ele>170</ele>
        <time>2018-04-27T08:38:37Z</time>
      </trkpt>
      <trkpt lat="45.91687" lon="4.77281">
        <ele>170</ele>
        <time>2018-04-27T08:38:38Z</time>
      </trkpt>
      <trkpt lat="45.91685" lon="4.77288">
        <ele>170</ele>
        <time>2018-04-27T08:38:39Z</time>
      </trkpt>
      <trkpt lat="45.91683" lon="4.77294">
        <ele>170</ele>
        <time>2018-04-27T08:38:40Z</time>
      </trkpt>
      <trkpt lat="45.91681" lon="4.77301">
        <ele>170</ele>
        <time>2018-04-27T08:38:41Z</time>
      </trkpt>
      <trkpt lat="45.91681" lon="4.77309">
        <ele>171</ele>
        <time>2018-04-27T08:38:42Z</time>
      </trkpt>
      <trkpt lat="45.91679" lon="4.77317">
        <ele>171</ele>
        <time>2018-04-27T08:38:43Z</time>
      </trkpt>
      <trkpt lat="45.91678" lon="4.77323">
        <ele>171</ele>
        <time>2018-04-27T08:38:44Z</time>
      </trkpt>
      <trkpt lat="45.91675" lon="4.77333">
        <ele>171</ele>
        <time>2018-04-27T08:38:46Z</time>
      </trkpt>
      <trkpt lat="45.91673" lon="4.77339">
        <ele>172</ele>
        <time>2018-04-27T08:38:47Z</time>
      </trkpt>
      <trkpt lat="45.91671" lon="4.77345">
        <ele>172</ele>
        <time>2018-04-27T08:38:48Z</time>
      </trkpt>
      <trkpt lat="45.91669" lon="4.77352">
        <ele>171</ele>
        <time>2018-04-27T08:38:49Z</time>
      </trkpt>
      <trkpt lat="45.91666" lon="4.77357">
        <ele>172</ele>
        <time>2018-04-27T08:38:50Z</time>
      </trkpt>
      <trkpt lat="45.91666" lon="4.77365">
        <ele>172</ele>
        <time>2018-04-27T08:38:51Z</time>
      </trkpt>
      <trkpt lat="45.91665" lon="4.77372">
        <ele>172</ele>
        <time>2018-04-27T08:38:52Z</time>
      </trkpt>
      <trkpt lat="45.91664" lon="4.77378">
        <ele>172</ele>
        <time>2018-04-27T08:38:53Z</time>
      </trkpt>
      <trkpt lat="45.9166" lon="4.77385">
        <ele>172</ele>
        <time>2018-04-27T08:38:54Z</time>
      </trkpt>
      <trkpt lat="45.91658" lon="4.77391">
        <ele>172</ele>
        <time>2018-04-27T08:38:55Z</time>
      </trkpt>
      <trkpt lat="45.91654" lon="4.77402">
        <ele>172</ele>
        <time>2018-04-27T08:38:57Z</time>
      </trkpt>
      <trkpt lat="45.91653" lon="4.77408">
        <ele>172</ele>
        <time>2018-04-27T08:38:58Z</time>
      </trkpt>
      <trkpt lat="45.91648" lon="4.77419">
        <ele>172</ele>
        <time>2018-04-27T08:39:00Z</time>
      </trkpt>
      <trkpt lat="45.91647" lon="4.77425">
        <ele>172</ele>
        <time>2018-04-27T08:39:01Z</time>
      </trkpt>
      <trkpt lat="45.91646" lon="4.77432">
        <ele>172</ele>
        <time>2018-04-27T08:39:02Z</time>
      </trkpt>
      <trkpt lat="45.91644" lon="4.77439">
        <ele>172</ele>
        <time>2018-04-27T08:39:03Z</time>
      </trkpt>
      <trkpt lat="45.9164" lon="4.7745">
        <ele>171</ele>
        <time>2018-04-27T08:39:05Z</time>
      </trkpt>
      <trkpt lat="45.91638" lon="4.77455">
        <ele>171</ele>
        <time>2018-04-27T08:39:06Z</time>
      </trkpt>
      <trkpt lat="45.91638" lon="4.77463">
        <ele>171</ele>
        <time>2018-04-27T08:39:07Z</time>
      </trkpt>
      <trkpt lat="45.91636" lon="4.77468">
        <ele>171</ele>
        <time>2018-04-27T08:39:08Z</time>
      </trkpt>
      <trkpt lat="45.91634" lon="4.77479">
        <ele>171</ele>
        <time>2018-04-27T08:39:10Z</time>
      </trkpt>
      <trkpt lat="45.91632" lon="4.77486">
        <ele>171</ele>
        <time>2018-04-27T08:39:11Z</time>
      </trkpt>
      <trkpt lat="45.91631" lon="4.77497">
        <ele>171</ele>
        <time>2018-04-27T08:39:13Z</time>
      </trkpt>
      <trkpt lat="45.91631" lon="4.77503">
        <ele>171</ele>
        <time>2018-04-27T08:39:14Z</time>
      </trkpt>
      <trkpt lat="45.91629" lon="4.77514">
        <ele>171</ele>
        <time>2018-04-27T08:39:16Z</time>
      </trkpt>
      <trkpt lat="45.91627" lon="4.77519">
        <ele>171</ele>
        <time>2018-04-27T08:39:17Z</time>
      </trkpt>
      <trkpt lat="45.91622" lon="4.77528">
        <ele>171</ele>
        <time>2018-04-27T08:39:19Z</time>
      </trkpt>
      <trkpt lat="45.91619" lon="4.77532">
        <ele>171</ele>
        <time>2018-04-27T08:39:20Z</time>
      </trkpt>
      <trkpt lat="45.91613" lon="4.77542">
        <ele>171</ele>
        <time>2018-04-27T08:39:22Z</time>
      </trkpt>
      <trkpt lat="45.9161" lon="4.77546">
        <ele>171</ele>
        <time>2018-04-27T08:39:23Z</time>
      </trkpt>
      <trkpt lat="45.91604" lon="4.77555">
        <ele>171</ele>
        <time>2018-04-27T08:39:25Z</time>
      </trkpt>
      <trkpt lat="45.91602" lon="4.77559">
        <ele>172</ele>
        <time>2018-04-27T08:39:26Z</time>
      </trkpt>
      <trkpt lat="45.91596" lon="4.77569">
        <ele>172</ele>
        <time>2018-04-27T08:39:28Z</time>
      </trkpt>
      <trkpt lat="45.91594" lon="4.77573">
        <ele>172</ele>
        <time>2018-04-27T08:39:29Z</time>
      </trkpt>
      <trkpt lat="45.91588" lon="4.77581">
        <ele>173</ele>
        <time>2018-04-27T08:39:31Z</time>
      </trkpt>
      <trkpt lat="45.91585" lon="4.77586">
        <ele>173</ele>
        <time>2018-04-27T08:39:32Z</time>
      </trkpt>
      <trkpt lat="45.9158" lon="4.77594">
        <ele>173</ele>
        <time>2018-04-27T08:39:34Z</time>
      </trkpt>
      <trkpt lat="45.91577" lon="4.77599">
        <ele>173</ele>
        <time>2018-04-27T08:39:35Z</time>
      </trkpt>
      <trkpt lat="45.91572" lon="4.77607">
        <ele>174</ele>
        <time>2018-04-27T08:39:37Z</time>
      </trkpt>
      <trkpt lat="45.91569" lon="4.77612">
        <ele>174</ele>
        <time>2018-04-27T08:39:38Z</time>
      </trkpt>
      <trkpt lat="45.91564" lon="4.77621">
        <ele>174</ele>
        <time>2018-04-27T08:39:40Z</time>
      </trkpt>
      <trkpt lat="45.91562" lon="4.77626">
        <ele>174</ele>
        <time>2018-04-27T08:39:41Z</time>
      </trkpt>
      <trkpt lat="45.91557" lon="4.77634">
        <ele>174</ele>
        <time>2018-04-27T08:39:43Z</time>
      </trkpt>
      <trkpt lat="45.91555" lon="4.77638">
        <ele>174</ele>
        <time>2018-04-27T08:39:44Z</time>
      </trkpt>
      <trkpt lat="45.91552" lon="4.77644">
        <ele>174</ele>
        <time>2018-04-27T08:39:46Z</time>
      </trkpt>
      <trkpt lat="45.91549" lon="4.7765">
        <ele>174</ele>
        <time>2018-04-27T08:39:47Z</time>
      </trkpt>
      <trkpt lat="45.91543" lon="4.77658">
        <ele>174</ele>
        <time>2018-04-27T08:39:49Z</time>
      </trkpt>
      <trkpt lat="45.9154" lon="4.77661">
        <ele>174</ele>
        <time>2018-04-27T08:39:50Z</time>
      </trkpt>
      <trkpt lat="45.91535" lon="4.77669">
        <ele>175</ele>
        <time>2018-04-27T08:39:53Z</time>
      </trkpt>
      <trkpt lat="45.9153" lon="4.77675">
        <ele>175</ele>
        <time>2018-04-27T08:39:54Z</time>
      </trkpt>
      <trkpt lat="45.91524" lon="4.77682">
        <ele>175</ele>
        <time>2018-04-27T08:39:57Z</time>
      </trkpt>
      <trkpt lat="45.91522" lon="4.77685">
        <ele>175</ele>
        <time>2018-04-27T08:39:58Z</time>
      </trkpt>
      <trkpt lat="45.91517" lon="4.77693">
        <ele>176</ele>
        <time>2018-04-27T08:40:01Z</time>
      </trkpt>
      <trkpt lat="45.91515" lon="4.77696">
        <ele>176</ele>
        <time>2018-04-27T08:40:02Z</time>
      </trkpt>
      <trkpt lat="45.91509" lon="4.77701">
        <ele>176</ele>
        <time>2018-04-27T08:40:03Z</time>
      </trkpt>
      <trkpt lat="45.91505" lon="4.77701">
        <ele>176</ele>
        <time>2018-04-27T08:40:04Z</time>
      </trkpt>
      <trkpt lat="45.91497" lon="4.77701">
        <ele>177</ele>
        <time>2018-04-27T08:40:08Z</time>
      </trkpt>
      <trkpt lat="45.9149" lon="4.777">
        <ele>177</ele>
        <time>2018-04-27T08:40:09Z</time>
      </trkpt>
      <trkpt lat="45.91482" lon="4.77701">
        <ele>177</ele>
        <time>2018-04-27T08:40:12Z</time>
      </trkpt>
      <trkpt lat="45.91475" lon="4.77703">
        <ele>177</ele>
        <time>2018-04-27T08:40:13Z</time>
      </trkpt>
      <trkpt lat="45.91469" lon="4.77704">
        <ele>177</ele>
        <time>2018-04-27T08:40:14Z</time>
      </trkpt>
      <trkpt lat="45.91462" lon="4.77705">
        <ele>177</ele>
        <time>2018-04-27T08:40:15Z</time>
      </trkpt>
      <trkpt lat="45.91457" lon="4.77705">
        <ele>177</ele>
        <time>2018-04-27T08:40:16Z</time>
      </trkpt>
      <trkpt lat="45.91453" lon="4.77706">
        <ele>177</ele>
        <time>2018-04-27T08:40:17Z</time>
      </trkpt>
      <trkpt lat="45.91444" lon="4.77707">
        <ele>177</ele>
        <time>2018-04-27T08:40:19Z</time>
      </trkpt>
      <trkpt lat="45.9144" lon="4.77709">
        <ele>177</ele>
        <time>2018-04-27T08:40:20Z</time>
      </trkpt>
      <trkpt lat="45.91432" lon="4.7771">
        <ele>177</ele>
        <time>2018-04-27T08:40:22Z</time>
      </trkpt>
      <trkpt lat="45.91427" lon="4.77711">
        <ele>177</ele>
        <time>2018-04-27T08:40:23Z</time>
      </trkpt>
      <trkpt lat="45.91418" lon="4.77711">
        <ele>177</ele>
        <time>2018-04-27T08:40:25Z</time>
      </trkpt>
      <trkpt lat="45.91416" lon="4.77711">
        <ele>177</ele>
        <time>2018-04-27T08:40:26Z</time>
      </trkpt>
      <trkpt lat="45.9141" lon="4.77712">
        <ele>177</ele>
        <time>2018-04-27T08:40:27Z</time>
      </trkpt>
      <trkpt lat="45.91406" lon="4.77713">
        <ele>177</ele>
        <time>2018-04-27T08:40:28Z</time>
      </trkpt>
      <trkpt lat="45.91398" lon="4.77715">
        <ele>177</ele>
        <time>2018-04-27T08:40:30Z</time>
      </trkpt>
      <trkpt lat="45.91394" lon="4.77716">
        <ele>177</ele>
        <time>2018-04-27T08:40:31Z</time>
      </trkpt>
      <trkpt lat="45.91386" lon="4.77717">
        <ele>176</ele>
        <time>2018-04-27T08:40:33Z</time>
      </trkpt>
      <trkpt lat="45.91382" lon="4.77718">
        <ele>176</ele>
        <time>2018-04-27T08:40:34Z</time>
      </trkpt>
      <trkpt lat="45.91374" lon="4.77719">
        <ele>176</ele>
        <time>2018-04-27T08:40:36Z</time>
      </trkpt>
      <trkpt lat="45.9137" lon="4.77719">
        <ele>176</ele>
        <time>2018-04-27T08:40:37Z</time>
      </trkpt>
      <trkpt lat="45.91364" lon="4.77718">
        <ele>176</ele>
        <time>2018-04-27T08:40:38Z</time>
      </trkpt>
      <trkpt lat="45.9136" lon="4.77719">
        <ele>176</ele>
        <time>2018-04-27T08:40:39Z</time>
      </trkpt>
      <trkpt lat="45.91352" lon="4.77719">
        <ele>176</ele>
        <time>2018-04-27T08:40:41Z</time>
      </trkpt>
      <trkpt lat="45.91347" lon="4.77719">
        <ele>176</ele>
        <time>2018-04-27T08:40:42Z</time>
      </trkpt>
      <trkpt lat="45.91341" lon="4.77718">
        <ele>176</ele>
        <time>2018-04-27T08:40:43Z</time>
      </trkpt>
      <trkpt lat="45.91336" lon="4.77717">
        <ele>176</ele>
        <time>2018-04-27T08:40:44Z</time>
      </trkpt>
      <trkpt lat="45.91331" lon="4.77716">
        <ele>176</ele>
        <time>2018-04-27T08:40:45Z</time>
      </trkpt>
      <trkpt lat="45.91326" lon="4.77716">
        <ele>176</ele>
        <time>2018-04-27T08:40:46Z</time>
      </trkpt>
      <trkpt lat="45.9132" lon="4.77715">
        <ele>176</ele>
        <time>2018-04-27T08:40:47Z</time>
      </trkpt>
      <trkpt lat="45.91316" lon="4.77713">
        <ele>176</ele>
        <time>2018-04-27T08:40:48Z</time>
      </trkpt>
      <trkpt lat="45.91311" lon="4.77711">
        <ele>176</ele>
        <time>2018-04-27T08:40:50Z</time>
      </trkpt>
      <trkpt lat="45.91307" lon="4.77708">
        <ele>176</ele>
        <time>2018-04-27T08:40:51Z</time>
      </trkpt>
      <trkpt lat="45.91302" lon="4.77705">
        <ele>176</ele>
        <time>2018-04-27T08:40:52Z</time>
      </trkpt>
      <trkpt lat="45.91297" lon="4.77702">
        <ele>176</ele>
        <time>2018-04-27T08:40:53Z</time>
      </trkpt>
      <trkpt lat="45.91289" lon="4.77697">
        <ele>176</ele>
        <time>2018-04-27T08:40:55Z</time>
      </trkpt>
      <trkpt lat="45.91283" lon="4.77694">
        <ele>176</ele>
        <time>2018-04-27T08:40:56Z</time>
      </trkpt>
      <trkpt lat="45.91276" lon="4.7769">
        <ele>176</ele>
        <time>2018-04-27T08:40:57Z</time>
      </trkpt>
      <trkpt lat="45.9127" lon="4.77686">
        <ele>176</ele>
        <time>2018-04-27T08:40:58Z</time>
      </trkpt>
      <trkpt lat="45.91265" lon="4.77683">
        <ele>176</ele>
        <time>2018-04-27T08:40:59Z</time>
      </trkpt>
      <trkpt lat="45.91258" lon="4.77682">
        <ele>176</ele>
        <time>2018-04-27T08:41:00Z</time>
      </trkpt>
      <trkpt lat="45.91252" lon="4.7768">
        <ele>175</ele>
        <time>2018-04-27T08:41:01Z</time>
      </trkpt>
      <trkpt lat="45.91242" lon="4.77679">
        <ele>176</ele>
        <time>2018-04-27T08:41:02Z</time>
      </trkpt>
      <trkpt lat="45.91233" lon="4.77677">
        <ele>176</ele>
        <time>2018-04-27T08:41:03Z</time>
      </trkpt>
      <trkpt lat="45.9123" lon="4.77679">
        <ele>176</ele>
        <time>2018-04-27T08:41:04Z</time>
      </trkpt>
      <trkpt lat="45.91224" lon="4.77688">
        <ele>176</ele>
        <time>2018-04-27T08:41:07Z</time>
      </trkpt>
      <trkpt lat="45.91223" lon="4.77691">
        <ele>176</ele>
        <time>2018-04-27T08:41:08Z</time>
      </trkpt>
      <trkpt lat="45.91215" lon="4.77692">
        <ele>176</ele>
        <time>2018-04-27T08:41:10Z</time>
      </trkpt>
      <trkpt lat="45.91211" lon="4.77693">
        <ele>176</ele>
        <time>2018-04-27T08:41:11Z</time>
      </trkpt>
      <trkpt lat="45.91203" lon="4.77698">
        <ele>176</ele>
        <time>2018-04-27T08:41:13Z</time>
      </trkpt>
      <trkpt lat="45.91199" lon="4.77699">
        <ele>176</ele>
        <time>2018-04-27T08:41:14Z</time>
      </trkpt>
      <trkpt lat="45.91191" lon="4.77702">
        <ele>176</ele>
        <time>2018-04-27T08:41:16Z</time>
      </trkpt>
      <trkpt lat="45.91187" lon="4.77704">
        <ele>176</ele>
        <time>2018-04-27T08:41:17Z</time>
      </trkpt>
      <trkpt lat="45.91179" lon="4.77707">
        <ele>176</ele>
        <time>2018-04-27T08:41:19Z</time>
      </trkpt>
      <trkpt lat="45.91175" lon="4.77709">
        <ele>177</ele>
        <time>2018-04-27T08:41:20Z</time>
      </trkpt>
      <trkpt lat="45.91167" lon="4.77711">
        <ele>177</ele>
        <time>2018-04-27T08:41:22Z</time>
      </trkpt>
      <trkpt lat="45.91162" lon="4.77714">
        <ele>177</ele>
        <time>2018-04-27T08:41:23Z</time>
      </trkpt>
      <trkpt lat="45.91157" lon="4.77714">
        <ele>177</ele>
        <time>2018-04-27T08:41:24Z</time>
      </trkpt>
      <trkpt lat="45.91152" lon="4.77715">
        <ele>177</ele>
        <time>2018-04-27T08:41:25Z</time>
      </trkpt>
      <trkpt lat="45.91146" lon="4.77717">
        <ele>177</ele>
        <time>2018-04-27T08:41:26Z</time>
      </trkpt>
      <trkpt lat="45.91143" lon="4.77718">
        <ele>177</ele>
        <time>2018-04-27T08:41:27Z</time>
      </trkpt>
      <trkpt lat="45.91134" lon="4.7772">
        <ele>177</ele>
        <time>2018-04-27T08:41:29Z</time>
      </trkpt>
      <trkpt lat="45.91129" lon="4.77722">
        <ele>177</ele>
        <time>2018-04-27T08:41:30Z</time>
      </trkpt>
      <trkpt lat="45.91121" lon="4.77726">
        <ele>178</ele>
        <time>2018-04-27T08:41:32Z</time>
      </trkpt>
      <trkpt lat="45.91115" lon="4.77728">
        <ele>178</ele>
        <time>2018-04-27T08:41:33Z</time>
      </trkpt>
      <trkpt lat="45.9111" lon="4.77731">
        <ele>178</ele>
        <time>2018-04-27T08:41:35Z</time>
      </trkpt>
      <trkpt lat="45.91104" lon="4.77734">
        <ele>178</ele>
        <time>2018-04-27T08:41:36Z</time>
      </trkpt>
      <trkpt lat="45.91096" lon="4.77739">
        <ele>178</ele>
        <time>2018-04-27T08:41:38Z</time>
      </trkpt>
      <trkpt lat="45.91091" lon="4.77742">
        <ele>178</ele>
        <time>2018-04-27T08:41:39Z</time>
      </trkpt>
      <trkpt lat="45.91087" lon="4.77747">
        <ele>179</ele>
        <time>2018-04-27T08:41:41Z</time>
      </trkpt>
      <trkpt lat="45.91084" lon="4.77751">
        <ele>179</ele>
        <time>2018-04-27T08:41:42Z</time>
      </trkpt>
      <trkpt lat="45.91076" lon="4.77757">
        <ele>179</ele>
        <time>2018-04-27T08:41:44Z</time>
      </trkpt>
      <trkpt lat="45.91071" lon="4.77759">
        <ele>179</ele>
        <time>2018-04-27T08:41:45Z</time>
      </trkpt>
      <trkpt lat="45.91064" lon="4.77765">
        <ele>178</ele>
        <time>2018-04-27T08:41:47Z</time>
      </trkpt>
      <trkpt lat="45.91059" lon="4.77767">
        <ele>178</ele>
        <time>2018-04-27T08:41:48Z</time>
      </trkpt>
      <trkpt lat="45.91055" lon="4.77769">
        <ele>178</ele>
        <time>2018-04-27T08:41:49Z</time>
      </trkpt>
      <trkpt lat="45.91049" lon="4.77771">
        <ele>178</ele>
        <time>2018-04-27T08:41:50Z</time>
      </trkpt>
      <trkpt lat="45.91041" lon="4.77775">
        <ele>178</ele>
        <time>2018-04-27T08:41:52Z</time>
      </trkpt>
      <trkpt lat="45.91036" lon="4.77777">
        <ele>178</ele>
        <time>2018-04-27T08:41:53Z</time>
      </trkpt>
      <trkpt lat="45.91028" lon="4.77778">
        <ele>178</ele>
        <time>2018-04-27T08:41:55Z</time>
      </trkpt>
      <trkpt lat="45.91024" lon="4.77779">
        <ele>178</ele>
        <time>2018-04-27T08:41:56Z</time>
      </trkpt>
      <trkpt lat="45.91015" lon="4.77781">
        <ele>178</ele>
        <time>2018-04-27T08:41:58Z</time>
      </trkpt>
      <trkpt lat="45.91011" lon="4.77783">
        <ele>178</ele>
        <time>2018-04-27T08:41:59Z</time>
      </trkpt>
      <trkpt lat="45.91002" lon="4.77785">
        <ele>178</ele>
        <time>2018-04-27T08:42:01Z</time>
      </trkpt>
      <trkpt lat="45.90996" lon="4.77788">
        <ele>177</ele>
        <time>2018-04-27T08:42:02Z</time>
      </trkpt>
      <trkpt lat="45.90987" lon="4.77789">
        <ele>177</ele>
        <time>2018-04-27T08:42:04Z</time>
      </trkpt>
      <trkpt lat="45.90983" lon="4.7779">
        <ele>177</ele>
        <time>2018-04-27T08:42:05Z</time>
      </trkpt>
      <trkpt lat="45.90976" lon="4.7779">
        <ele>177</ele>
        <time>2018-04-27T08:42:07Z</time>
      </trkpt>
      <trkpt lat="45.90972" lon="4.7779">
        <ele>177</ele>
        <time>2018-04-27T08:42:08Z</time>
      </trkpt>
      <trkpt lat="45.90963" lon="4.7779">
        <ele>177</ele>
        <time>2018-04-27T08:42:10Z</time>
      </trkpt>
      <trkpt lat="45.90961" lon="4.77789">
        <ele>177</ele>
        <time>2018-04-27T08:42:11Z</time>
      </trkpt>
      <trkpt lat="45.90956" lon="4.77782">
        <ele>177</ele>
        <time>2018-04-27T08:42:13Z</time>
      </trkpt>
      <trkpt lat="45.90953" lon="4.77778">
        <ele>177</ele>
        <time>2018-04-27T08:42:14Z</time>
      </trkpt>
      <trkpt lat="45.90945" lon="4.77775">
        <ele>177</ele>
        <time>2018-04-27T08:42:16Z</time>
      </trkpt>
      <trkpt lat="45.9094" lon="4.77775">
        <ele>177</ele>
        <time>2018-04-27T08:42:17Z</time>
      </trkpt>
      <trkpt lat="45.90933" lon="4.77774">
        <ele>177</ele>
        <time>2018-04-27T08:42:19Z</time>
      </trkpt>
      <trkpt lat="45.90929" lon="4.77772">
        <ele>177</ele>
        <time>2018-04-27T08:42:20Z</time>
      </trkpt>
      <trkpt lat="45.90923" lon="4.77765">
        <ele>177</ele>
        <time>2018-04-27T08:42:22Z</time>
      </trkpt>
      <trkpt lat="45.9092" lon="4.77761">
        <ele>176</ele>
        <time>2018-04-27T08:42:23Z</time>
      </trkpt>
      <trkpt lat="45.90916" lon="4.77755">
        <ele>176</ele>
        <time>2018-04-27T08:42:25Z</time>
      </trkpt>
      <trkpt lat="45.90912" lon="4.77749">
        <ele>176</ele>
        <time>2018-04-27T08:42:26Z</time>
      </trkpt>
      <trkpt lat="45.90905" lon="4.77741">
        <ele>177</ele>
        <time>2018-04-27T08:42:28Z</time>
      </trkpt>
      <trkpt lat="45.90904" lon="4.77739">
        <ele>177</ele>
        <time>2018-04-27T08:42:29Z</time>
      </trkpt>
      <trkpt lat="45.90899" lon="4.77732">
        <ele>177</ele>
        <time>2018-04-27T08:42:31Z</time>
      </trkpt>
      <trkpt lat="45.90895" lon="4.77727">
        <ele>177</ele>
        <time>2018-04-27T08:42:32Z</time>
      </trkpt>
      <trkpt lat="45.9089" lon="4.7772">
        <ele>177</ele>
        <time>2018-04-27T08:42:35Z</time>
      </trkpt>
      <trkpt lat="45.90888" lon="4.77717">
        <ele>177</ele>
        <time>2018-04-27T08:42:36Z</time>
      </trkpt>
      <trkpt lat="45.90882" lon="4.7771">
        <ele>177</ele>
        <time>2018-04-27T08:42:39Z</time>
      </trkpt>
      <trkpt lat="45.9088" lon="4.77708">
        <ele>177</ele>
        <time>2018-04-27T08:42:40Z</time>
      </trkpt>
      <trkpt lat="45.90873" lon="4.77702">
        <ele>178</ele>
        <time>2018-04-27T08:42:43Z</time>
      </trkpt>
      <trkpt lat="45.90871" lon="4.777">
        <ele>178</ele>
        <time>2018-04-27T08:42:44Z</time>
      </trkpt>
      <trkpt lat="45.90864" lon="4.77695">
        <ele>178</ele>
        <time>2018-04-27T08:42:47Z</time>
      </trkpt>
      <trkpt lat="45.90862" lon="4.77694">
        <ele>178</ele>
        <time>2018-04-27T08:42:48Z</time>
      </trkpt>
      <trkpt lat="45.90859" lon="4.77692">
        <ele>178</ele>
        <time>2018-04-27T08:42:49Z</time>
      </trkpt>
      <trkpt lat="45.9085" lon="4.77686">
        <ele>178</ele>
        <time>2018-04-27T08:42:50Z</time>
      </trkpt>
      <trkpt lat="45.90843" lon="4.77682">
        <ele>178</ele>
        <time>2018-04-27T08:42:54Z</time>
      </trkpt>
      <trkpt lat="45.90841" lon="4.77681">
        <ele>178</ele>
        <time>2018-04-27T08:42:55Z</time>
      </trkpt>
      <trkpt lat="45.90832" lon="4.77677">
        <ele>179</ele>
        <time>2018-04-27T08:42:58Z</time>
      </trkpt>
      <trkpt lat="45.9083" lon="4.77676">
        <ele>179</ele>
        <time>2018-04-27T08:42:59Z</time>
      </trkpt>
      <trkpt lat="45.90821" lon="4.77674">
        <ele>179</ele>
        <time>2018-04-27T08:43:02Z</time>
      </trkpt>
      <trkpt lat="45.90817" lon="4.77673">
        <ele>179</ele>
        <time>2018-04-27T08:43:03Z</time>
      </trkpt>
      <trkpt lat="45.9081" lon="4.77672">
        <ele>179</ele>
        <time>2018-04-27T08:43:05Z</time>
      </trkpt>
      <trkpt lat="45.90807" lon="4.77671">
        <ele>179</ele>
        <time>2018-04-27T08:43:06Z</time>
      </trkpt>
      <trkpt lat="45.908" lon="4.7767">
        <ele>179</ele>
        <time>2018-04-27T08:43:08Z</time>
      </trkpt>
      <trkpt lat="45.9079" lon="4.77667">
        <ele>180</ele>
        <time>2018-04-27T08:43:09Z</time>
      </trkpt>
      <trkpt lat="45.90784" lon="4.77665">
        <ele>180</ele>
        <time>2018-04-27T08:43:12Z</time>
      </trkpt>
      <trkpt lat="45.90776" lon="4.77663">
        <ele>180</ele>
        <time>2018-04-27T08:43:13Z</time>
      </trkpt>
      <trkpt lat="45.90768" lon="4.77659">
        <ele>180</ele>
        <time>2018-04-27T08:43:15Z</time>
      </trkpt>
      <trkpt lat="45.90764" lon="4.77656">
        <ele>180</ele>
        <time>2018-04-27T08:43:16Z</time>
      </trkpt>
      <trkpt lat="45.90757" lon="4.77649">
        <ele>180</ele>
        <time>2018-04-27T08:43:18Z</time>
      </trkpt>
      <trkpt lat="45.90753" lon="4.77646">
        <ele>180</ele>
        <time>2018-04-27T08:43:19Z</time>
      </trkpt>
      <trkpt lat="45.90749" lon="4.77644">
        <ele>180</ele>
        <time>2018-04-27T08:43:20Z</time>
      </trkpt>
      <trkpt lat="45.90744" lon="4.77644">
        <ele>180</ele>
        <time>2018-04-27T08:43:21Z</time>
      </trkpt>
      <trkpt lat="45.90738" lon="4.77649">
        <ele>180</ele>
        <time>2018-04-27T08:43:22Z</time>
      </trkpt>
      <trkpt lat="45.90732" lon="4.77649">
        <ele>180</ele>
        <time>2018-04-27T08:43:23Z</time>
      </trkpt>
      <trkpt lat="45.90724" lon="4.77647">
        <ele>180</ele>
        <time>2018-04-27T08:43:25Z</time>
      </trkpt>
      <trkpt lat="45.90719" lon="4.77646">
        <ele>180</ele>
        <time>2018-04-27T08:43:26Z</time>
      </trkpt>
      <trkpt lat="45.90713" lon="4.77644">
        <ele>180</ele>
        <time>2018-04-27T08:43:27Z</time>
      </trkpt>
      <trkpt lat="45.90706" lon="4.77642">
        <ele>179</ele>
        <time>2018-04-27T08:43:28Z</time>
      </trkpt>
      <trkpt lat="45.90701" lon="4.7764">
        <ele>179</ele>
        <time>2018-04-27T08:43:29Z</time>
      </trkpt>
      <trkpt lat="45.90695" lon="4.77638">
        <ele>179</ele>
        <time>2018-04-27T08:43:30Z</time>
      </trkpt>
      <trkpt lat="45.90689" lon="4.77636">
        <ele>179</ele>
        <time>2018-04-27T08:43:31Z</time>
      </trkpt>
      <trkpt lat="45.90683" lon="4.77635">
        <ele>179</ele>
        <time>2018-04-27T08:43:32Z</time>
      </trkpt>
      <trkpt lat="45.90678" lon="4.77633">
        <ele>179</ele>
        <time>2018-04-27T08:43:33Z</time>
      </trkpt>
      <trkpt lat="45.90673" lon="4.77631">
        <ele>179</ele>
        <time>2018-04-27T08:43:34Z</time>
      </trkpt>
      <trkpt lat="45.90667" lon="4.77629">
        <ele>179</ele>
        <time>2018-04-27T08:43:35Z</time>
      </trkpt>
      <trkpt lat="45.90661" lon="4.77628">
        <ele>179</ele>
        <time>2018-04-27T08:43:36Z</time>
      </trkpt>
      <trkpt lat="45.90655" lon="4.77627">
        <ele>179</ele>
        <time>2018-04-27T08:43:37Z</time>
      </trkpt>
      <trkpt lat="45.90649" lon="4.77626">
        <ele>179</ele>
        <time>2018-04-27T08:43:38Z</time>
      </trkpt>
      <trkpt lat="45.90643" lon="4.77626">
        <ele>179</ele>
        <time>2018-04-27T08:43:39Z</time>
      </trkpt>
      <trkpt lat="45.90636" lon="4.77625">
        <ele>179</ele>
        <time>2018-04-27T08:43:40Z</time>
      </trkpt>
      <trkpt lat="45.90631" lon="4.77624">
        <ele>179</ele>
        <time>2018-04-27T08:43:41Z</time>
      </trkpt>
      <trkpt lat="45.90624" lon="4.77624">
        <ele>179</ele>
        <time>2018-04-27T08:43:42Z</time>
      </trkpt>
      <trkpt lat="45.90619" lon="4.77623">
        <ele>179</ele>
        <time>2018-04-27T08:43:43Z</time>
      </trkpt>
      <trkpt lat="45.90613" lon="4.77624">
        <ele>179</ele>
        <time>2018-04-27T08:43:44Z</time>
      </trkpt>
      <trkpt lat="45.90606" lon="4.77623">
        <ele>179</ele>
        <time>2018-04-27T08:43:45Z</time>
      </trkpt>
      <trkpt lat="45.90599" lon="4.77627">
        <ele>179</ele>
        <time>2018-04-27T08:43:46Z</time>
      </trkpt>
      <trkpt lat="45.90594" lon="4.77628">
        <ele>179</ele>
        <time>2018-04-27T08:43:47Z</time>
      </trkpt>
      <trkpt lat="45.90588" lon="4.77629">
        <ele>179</ele>
        <time>2018-04-27T08:43:48Z</time>
      </trkpt>
      <trkpt lat="45.90582" lon="4.7763">
        <ele>178</ele>
        <time>2018-04-27T08:43:49Z</time>
      </trkpt>
      <trkpt lat="45.90577" lon="4.77632">
        <ele>178</ele>
        <time>2018-04-27T08:43:50Z</time>
      </trkpt>
      <trkpt lat="45.9057" lon="4.77632">
        <ele>178</ele>
        <time>2018-04-27T08:43:51Z</time>
      </trkpt>
      <trkpt lat="45.90564" lon="4.77635">
        <ele>178</ele>
        <time>2018-04-27T08:43:52Z</time>
      </trkpt>
      <trkpt lat="45.90559" lon="4.77636">
        <ele>178</ele>
        <time>2018-04-27T08:43:53Z</time>
      </trkpt>
      <trkpt lat="45.90552" lon="4.77636">
        <ele>178</ele>
        <time>2018-04-27T08:43:54Z</time>
      </trkpt>
      <trkpt lat="45.90546" lon="4.77637">
        <ele>178</ele>
        <time>2018-04-27T08:43:55Z</time>
      </trkpt>
      <trkpt lat="45.90541" lon="4.77642">
        <ele>178</ele>
        <time>2018-04-27T08:43:56Z</time>
      </trkpt>
      <trkpt lat="45.90536" lon="4.77643">
        <ele>178</ele>
        <time>2018-04-27T08:43:57Z</time>
      </trkpt>
      <trkpt lat="45.9053" lon="4.77646">
        <ele>178</ele>
        <time>2018-04-27T08:43:58Z</time>
      </trkpt>
      <trkpt lat="45.90525" lon="4.77647">
        <ele>178</ele>
        <time>2018-04-27T08:43:59Z</time>
      </trkpt>
      <trkpt lat="45.9052" lon="4.77649">
        <ele>178</ele>
        <time>2018-04-27T08:44:00Z</time>
      </trkpt>
      <trkpt lat="45.90515" lon="4.7765">
        <ele>178</ele>
        <time>2018-04-27T08:44:01Z</time>
      </trkpt>
      <trkpt lat="45.90511" lon="4.7765">
        <ele>178</ele>
        <time>2018-04-27T08:44:02Z</time>
      </trkpt>
      <trkpt lat="45.90505" lon="4.77651">
        <ele>178</ele>
        <time>2018-04-27T08:44:03Z</time>
      </trkpt>
      <trkpt lat="45.905" lon="4.77651">
        <ele>178</ele>
        <time>2018-04-27T08:44:04Z</time>
      </trkpt>
      <trkpt lat="45.90496" lon="4.77652">
        <ele>178</ele>
        <time>2018-04-27T08:44:05Z</time>
      </trkpt>
      <trkpt lat="45.90489" lon="4.77651">
        <ele>179</ele>
        <time>2018-04-27T08:44:06Z</time>
      </trkpt>
      <trkpt lat="45.90482" lon="4.77655">
        <ele>179</ele>
        <time>2018-04-27T08:44:08Z</time>
      </trkpt>
      <trkpt lat="45.90477" lon="4.77654">
        <ele>179</ele>
        <time>2018-04-27T08:44:09Z</time>
      </trkpt>
      <trkpt lat="45.90469" lon="4.77657">
        <ele>179</ele>
        <time>2018-04-27T08:44:11Z</time>
      </trkpt>
      <trkpt lat="45.90464" lon="4.77657">
        <ele>179</ele>
        <time>2018-04-27T08:44:12Z</time>
      </trkpt>
      <trkpt lat="45.90458" lon="4.77658">
        <ele>179</ele>
        <time>2018-04-27T08:44:13Z</time>
      </trkpt>
      <trkpt lat="45.90454" lon="4.77659">
        <ele>179</ele>
        <time>2018-04-27T08:44:14Z</time>
      </trkpt>
      <trkpt lat="45.90449" lon="4.7766">
        <ele>179</ele>
        <time>2018-04-27T08:44:15Z</time>
      </trkpt>
      <trkpt lat="45.90444" lon="4.7766">
        <ele>180</ele>
        <time>2018-04-27T08:44:16Z</time>
      </trkpt>
      <trkpt lat="45.90439" lon="4.7766">
        <ele>180</ele>
        <time>2018-04-27T08:44:17Z</time>
      </trkpt>
      <trkpt lat="45.90434" lon="4.7766">
        <ele>180</ele>
        <time>2018-04-27T08:44:18Z</time>
      </trkpt>
      <trkpt lat="45.90426" lon="4.77662">
        <ele>180</ele>
        <time>2018-04-27T08:44:20Z</time>
      </trkpt>
      <trkpt lat="45.90422" lon="4.77663">
        <ele>181</ele>
        <time>2018-04-27T08:44:21Z</time>
      </trkpt>
      <trkpt lat="45.90413" lon="4.77664">
        <ele>181</ele>
        <time>2018-04-27T08:44:23Z</time>
      </trkpt>
      <trkpt lat="45.90409" lon="4.77664">
        <ele>181</ele>
        <time>2018-04-27T08:44:24Z</time>
      </trkpt>
      <trkpt lat="45.90405" lon="4.77663">
        <ele>181</ele>
        <time>2018-04-27T08:44:25Z</time>
      </trkpt>
      <trkpt lat="45.90398" lon="4.77663">
        <ele>181</ele>
        <time>2018-04-27T08:44:26Z</time>
      </trkpt>
      <trkpt lat="45.90392" lon="4.77667">
        <ele>181</ele>
        <time>2018-04-27T08:44:28Z</time>
      </trkpt>
      <trkpt lat="45.90388" lon="4.77667">
        <ele>181</ele>
        <time>2018-04-27T08:44:29Z</time>
      </trkpt>
      <trkpt lat="45.90384" lon="4.77668">
        <ele>181</ele>
        <time>2018-04-27T08:44:31Z</time>
      </trkpt>
      <trkpt lat="45.90377" lon="4.77667">
        <ele>181</ele>
        <time>2018-04-27T08:44:32Z</time>
      </trkpt>
      <trkpt lat="45.90369" lon="4.7767">
        <ele>182</ele>
        <time>2018-04-27T08:44:34Z</time>
      </trkpt>
      <trkpt lat="45.90365" lon="4.7767">
        <ele>182</ele>
        <time>2018-04-27T08:44:35Z</time>
      </trkpt>
      <trkpt lat="45.9036" lon="4.7767">
        <ele>182</ele>
        <time>2018-04-27T08:44:36Z</time>
      </trkpt>
      <trkpt lat="45.90356" lon="4.7767">
        <ele>182</ele>
        <time>2018-04-27T08:44:37Z</time>
      </trkpt>
      <trkpt lat="45.90347" lon="4.77668">
        <ele>182</ele>
        <time>2018-04-27T08:44:39Z</time>
      </trkpt>
      <trkpt lat="45.90344" lon="4.7767">
        <ele>182</ele>
        <time>2018-04-27T08:44:40Z</time>
      </trkpt>
      <trkpt lat="45.90335" lon="4.7767">
        <ele>182</ele>
        <time>2018-04-27T08:44:42Z</time>
      </trkpt>
      <trkpt lat="45.90332" lon="4.77672">
        <ele>182</ele>
        <time>2018-04-27T08:44:43Z</time>
      </trkpt>
      <trkpt lat="45.90327" lon="4.77673">
        <ele>182</ele>
        <time>2018-04-27T08:44:44Z</time>
      </trkpt>
      <trkpt lat="45.90323" lon="4.77675">
        <ele>182</ele>
        <time>2018-04-27T08:44:45Z</time>
      </trkpt>
      <trkpt lat="45.90318" lon="4.77675">
        <ele>182</ele>
        <time>2018-04-27T08:44:46Z</time>
      </trkpt>
      <trkpt lat="45.90313" lon="4.77676">
        <ele>182</ele>
        <time>2018-04-27T08:44:47Z</time>
      </trkpt>
      <trkpt lat="45.90309" lon="4.77676">
        <ele>182</ele>
        <time>2018-04-27T08:44:48Z</time>
      </trkpt>
      <trkpt lat="45.90303" lon="4.77676">
        <ele>182</ele>
        <time>2018-04-27T08:44:49Z</time>
      </trkpt>
      <trkpt lat="45.90295" lon="4.77677">
        <ele>182</ele>
        <time>2018-04-27T08:44:51Z</time>
      </trkpt>
      <trkpt lat="45.9029" lon="4.77676">
        <ele>182</ele>
        <time>2018-04-27T08:44:52Z</time>
      </trkpt>
      <trkpt lat="45.90282" lon="4.77679">
        <ele>182</ele>
        <time>2018-04-27T08:44:54Z</time>
      </trkpt>
      <trkpt lat="45.90278" lon="4.77679">
        <ele>182</ele>
        <time>2018-04-27T08:44:55Z</time>
      </trkpt>
      <trkpt lat="45.90269" lon="4.77679">
        <ele>182</ele>
        <time>2018-04-27T08:44:57Z</time>
      </trkpt>
      <trkpt lat="45.90265" lon="4.77679">
        <ele>182</ele>
        <time>2018-04-27T08:44:58Z</time>
      </trkpt>
      <trkpt lat="45.90256" lon="4.77678">
        <ele>182</ele>
        <time>2018-04-27T08:45:00Z</time>
      </trkpt>
      <trkpt lat="45.9025" lon="4.77677">
        <ele>182</ele>
        <time>2018-04-27T08:45:01Z</time>
      </trkpt>
      <trkpt lat="45.90242" lon="4.77677">
        <ele>183</ele>
        <time>2018-04-27T08:45:03Z</time>
      </trkpt>
      <trkpt lat="45.90238" lon="4.77676">
        <ele>183</ele>
        <time>2018-04-27T08:45:04Z</time>
      </trkpt>
      <trkpt lat="45.90235" lon="4.77676">
        <ele>183</ele>
        <time>2018-04-27T08:45:05Z</time>
      </trkpt>
      <trkpt lat="45.90229" lon="4.77675">
        <ele>184</ele>
        <time>2018-04-27T08:45:06Z</time>
      </trkpt>
      <trkpt lat="45.90222" lon="4.77678">
        <ele>184</ele>
        <time>2018-04-27T08:45:08Z</time>
      </trkpt>
      <trkpt lat="45.90217" lon="4.77677">
        <ele>184</ele>
        <time>2018-04-27T08:45:09Z</time>
      </trkpt>
      <trkpt lat="45.90208" lon="4.77677">
        <ele>184</ele>
        <time>2018-04-27T08:45:11Z</time>
      </trkpt>
      <trkpt lat="45.90204" lon="4.77677">
        <ele>184</ele>
        <time>2018-04-27T08:45:12Z</time>
      </trkpt>
      <trkpt lat="45.90197" lon="4.77678">
        <ele>184</ele>
        <time>2018-04-27T08:45:14Z</time>
      </trkpt>
      <trkpt lat="45.90192" lon="4.77678">
        <ele>185</ele>
        <time>2018-04-27T08:45:15Z</time>
      </trkpt>
      <trkpt lat="45.90184" lon="4.77677">
        <ele>185</ele>
        <time>2018-04-27T08:45:17Z</time>
      </trkpt>
      <trkpt lat="45.90179" lon="4.77676">
        <ele>185</ele>
        <time>2018-04-27T08:45:18Z</time>
      </trkpt>
      <trkpt lat="45.9017" lon="4.77675">
        <ele>185</ele>
        <time>2018-04-27T08:45:20Z</time>
      </trkpt>
      <trkpt lat="45.90166" lon="4.77675">
        <ele>185</ele>
        <time>2018-04-27T08:45:21Z</time>
      </trkpt>
      <trkpt lat="45.90161" lon="4.77675">
        <ele>185</ele>
        <time>2018-04-27T08:45:22Z</time>
      </trkpt>
      <trkpt lat="45.90157" lon="4.77674">
        <ele>185</ele>
        <time>2018-04-27T08:45:23Z</time>
      </trkpt>
      <trkpt lat="45.90151" lon="4.77673">
        <ele>185</ele>
        <time>2018-04-27T08:45:24Z</time>
      </trkpt>
      <trkpt lat="45.90147" lon="4.77673">
        <ele>185</ele>
        <time>2018-04-27T08:45:25Z</time>
      </trkpt>
      <trkpt lat="45.90138" lon="4.77673">
        <ele>185</ele>
        <time>2018-04-27T08:45:27Z</time>
      </trkpt>
      <trkpt lat="45.90134" lon="4.7767">
        <ele>185</ele>
        <time>2018-04-27T08:45:28Z</time>
      </trkpt>
      <trkpt lat="45.9013" lon="4.7767">
        <ele>185</ele>
        <time>2018-04-27T08:45:29Z</time>
      </trkpt>
      <trkpt lat="45.90125" lon="4.77672">
        <ele>184</ele>
        <time>2018-04-27T08:45:30Z</time>
      </trkpt>
      <trkpt lat="45.9012" lon="4.77672">
        <ele>184</ele>
        <time>2018-04-27T08:45:31Z</time>
      </trkpt>
      <trkpt lat="45.90115" lon="4.77672">
        <ele>184</ele>
        <time>2018-04-27T08:45:32Z</time>
      </trkpt>
      <trkpt lat="45.90106" lon="4.77673">
        <ele>184</ele>
        <time>2018-04-27T08:45:34Z</time>
      </trkpt>
      <trkpt lat="45.90102" lon="4.77674">
        <ele>184</ele>
        <time>2018-04-27T08:45:35Z</time>
      </trkpt>
      <trkpt lat="45.90097" lon="4.77674">
        <ele>184</ele>
        <time>2018-04-27T08:45:36Z</time>
      </trkpt>
      <trkpt lat="45.90093" lon="4.77675">
        <ele>184</ele>
        <time>2018-04-27T08:45:37Z</time>
      </trkpt>
      <trkpt lat="45.90087" lon="4.77674">
        <ele>183</ele>
        <time>2018-04-27T08:45:38Z</time>
      </trkpt>
      <trkpt lat="45.90082" lon="4.77676">
        <ele>184</ele>
        <time>2018-04-27T08:45:39Z</time>
      </trkpt>
      <trkpt lat="45.90074" lon="4.77677">
        <ele>184</ele>
        <time>2018-04-27T08:45:41Z</time>
      </trkpt>
      <trkpt lat="45.9007" lon="4.77678">
        <ele>184</ele>
        <time>2018-04-27T08:45:42Z</time>
      </trkpt>
      <trkpt lat="45.90061" lon="4.77676">
        <ele>184</ele>
        <time>2018-04-27T08:45:44Z</time>
      </trkpt>
      <trkpt lat="45.90056" lon="4.77676">
        <ele>184</ele>
        <time>2018-04-27T08:45:45Z</time>
      </trkpt>
      <trkpt lat="45.90051" lon="4.77676">
        <ele>184</ele>
        <time>2018-04-27T08:45:46Z</time>
      </trkpt>
      <trkpt lat="45.90046" lon="4.77673">
        <ele>185</ele>
        <time>2018-04-27T08:45:47Z</time>
      </trkpt>
      <trkpt lat="45.90037" lon="4.77672">
        <ele>185</ele>
        <time>2018-04-27T08:45:49Z</time>
      </trkpt>
      <trkpt lat="45.90034" lon="4.77672">
        <ele>185</ele>
        <time>2018-04-27T08:45:50Z</time>
      </trkpt>
      <trkpt lat="45.90028" lon="4.77673">
        <ele>185</ele>
        <time>2018-04-27T08:45:52Z</time>
      </trkpt>
      <trkpt lat="45.90023" lon="4.77673">
        <ele>185</ele>
        <time>2018-04-27T08:45:53Z</time>
      </trkpt>
      <trkpt lat="45.90018" lon="4.77673">
        <ele>185</ele>
        <time>2018-04-27T08:45:54Z</time>
      </trkpt>
      <trkpt lat="45.90013" lon="4.77673">
        <ele>185</ele>
        <time>2018-04-27T08:45:55Z</time>
      </trkpt>
      <trkpt lat="45.90004" lon="4.77673">
        <ele>186</ele>
        <time>2018-04-27T08:45:57Z</time>
      </trkpt>
      <trkpt lat="45.89997" lon="4.77674">
        <ele>186</ele>
        <time>2018-04-27T08:45:58Z</time>
      </trkpt>
      <trkpt lat="45.8999" lon="4.77673">
        <ele>186</ele>
        <time>2018-04-27T08:46:00Z</time>
      </trkpt>
      <trkpt lat="45.89986" lon="4.77673">
        <ele>187</ele>
        <time>2018-04-27T08:46:01Z</time>
      </trkpt>
      <trkpt lat="45.8998" lon="4.77668">
        <ele>187</ele>
        <time>2018-04-27T08:46:04Z</time>
      </trkpt>
      <trkpt lat="45.89969" lon="4.77664">
        <ele>185</ele>
        <time>2018-04-27T08:46:05Z</time>
      </trkpt>
      <trkpt lat="45.89963" lon="4.77663">
        <ele>185</ele>
        <time>2018-04-27T08:46:06Z</time>
      </trkpt>
      <trkpt lat="45.89956" lon="4.77663">
        <ele>185</ele>
        <time>2018-04-27T08:46:07Z</time>
      </trkpt>
      <trkpt lat="45.89949" lon="4.77663">
        <ele>185</ele>
        <time>2018-04-27T08:46:09Z</time>
      </trkpt>
      <trkpt lat="45.89943" lon="4.77662">
        <ele>185</ele>
        <time>2018-04-27T08:46:10Z</time>
      </trkpt>
      <trkpt lat="45.89938" lon="4.77661">
        <ele>186</ele>
        <time>2018-04-27T08:46:12Z</time>
      </trkpt>
      <trkpt lat="45.89932" lon="4.7766">
        <ele>186</ele>
        <time>2018-04-27T08:46:13Z</time>
      </trkpt>
      <trkpt lat="45.89927" lon="4.7766">
        <ele>186</ele>
        <time>2018-04-27T08:46:14Z</time>
      </trkpt>
      <trkpt lat="45.89922" lon="4.7766">
        <ele>186</ele>
        <time>2018-04-27T08:46:15Z</time>
      </trkpt>
      <trkpt lat="45.89917" lon="4.7766">
        <ele>186</ele>
        <time>2018-04-27T08:46:16Z</time>
      </trkpt>
      <trkpt lat="45.89913" lon="4.7766">
        <ele>187</ele>
        <time>2018-04-27T08:46:17Z</time>
      </trkpt>
      <trkpt lat="45.89904" lon="4.77662">
        <ele>186</ele>
        <time>2018-04-27T08:46:19Z</time>
      </trkpt>
      <trkpt lat="45.899" lon="4.77663">
        <ele>186</ele>
        <time>2018-04-27T08:46:20Z</time>
      </trkpt>
      <trkpt lat="45.89896" lon="4.77663">
        <ele>186</ele>
        <time>2018-04-27T08:46:21Z</time>
      </trkpt>
      <trkpt lat="45.8989" lon="4.77662">
        <ele>186</ele>
        <time>2018-04-27T08:46:22Z</time>
      </trkpt>
      <trkpt lat="45.89881" lon="4.77662">
        <ele>186</ele>
        <time>2018-04-27T08:46:24Z</time>
      </trkpt>
      <trkpt lat="45.89877" lon="4.77663">
        <ele>186</ele>
        <time>2018-04-27T08:46:25Z</time>
      </trkpt>
      <trkpt lat="45.89873" lon="4.77664">
        <ele>186</ele>
        <time>2018-04-27T08:46:26Z</time>
      </trkpt>
      <trkpt lat="45.89867" lon="4.77666">
        <ele>186</ele>
        <time>2018-04-27T08:46:27Z</time>
      </trkpt>
      <trkpt lat="45.89858" lon="4.77667">
        <ele>189</ele>
        <time>2018-04-27T08:46:29Z</time>
      </trkpt>
      <trkpt lat="45.89854" lon="4.77668">
        <ele>189</ele>
        <time>2018-04-27T08:46:30Z</time>
      </trkpt>
      <trkpt lat="45.89846" lon="4.77667">
        <ele>189</ele>
        <time>2018-04-27T08:46:32Z</time>
      </trkpt>
      <trkpt lat="45.89841" lon="4.77667">
        <ele>189</ele>
        <time>2018-04-27T08:46:33Z</time>
      </trkpt>
      <trkpt lat="45.89833" lon="4.77666">
        <ele>189</ele>
        <time>2018-04-27T08:46:35Z</time>
      </trkpt>
      <trkpt lat="45.8983" lon="4.77666">
        <ele>189</ele>
        <time>2018-04-27T08:46:36Z</time>
      </trkpt>
      <trkpt lat="45.89821" lon="4.77667">
        <ele>190</ele>
        <time>2018-04-27T08:46:39Z</time>
      </trkpt>
      <trkpt lat="45.89816" lon="4.77668">
        <ele>190</ele>
        <time>2018-04-27T08:46:40Z</time>
      </trkpt>
      <trkpt lat="45.89808" lon="4.77668">
        <ele>190</ele>
        <time>2018-04-27T08:46:43Z</time>
      </trkpt>
      <trkpt lat="45.89806" lon="4.77667">
        <ele>190</ele>
        <time>2018-04-27T08:46:44Z</time>
      </trkpt>
      <trkpt lat="45.89798" lon="4.77666">
        <ele>189</ele>
        <time>2018-04-27T08:46:46Z</time>
      </trkpt>
      <trkpt lat="45.89796" lon="4.77666">
        <ele>189</ele>
        <time>2018-04-27T08:46:47Z</time>
      </trkpt>
      <trkpt lat="45.89788" lon="4.77665">
        <ele>189</ele>
        <time>2018-04-27T08:46:50Z</time>
      </trkpt>
      <trkpt lat="45.89786" lon="4.77665">
        <ele>189</ele>
        <time>2018-04-27T08:46:51Z</time>
      </trkpt>
      <trkpt lat="45.89777" lon="4.77664">
        <ele>189</ele>
        <time>2018-04-27T08:46:54Z</time>
      </trkpt>
      <trkpt lat="45.89774" lon="4.77664">
        <ele>190</ele>
        <time>2018-04-27T08:46:55Z</time>
      </trkpt>
      <trkpt lat="45.89766" lon="4.77664">
        <ele>190</ele>
        <time>2018-04-27T08:46:58Z</time>
      </trkpt>
      <trkpt lat="45.89763" lon="4.77663">
        <ele>190</ele>
        <time>2018-04-27T08:46:59Z</time>
      </trkpt>
      <trkpt lat="45.89754" lon="4.77662">
        <ele>191</ele>
        <time>2018-04-27T08:47:00Z</time>
      </trkpt>
      <trkpt lat="45.89747" lon="4.7766">
        <ele>191</ele>
        <time>2018-04-27T08:47:02Z</time>
      </trkpt>
      <trkpt lat="45.89742" lon="4.7766">
        <ele>191</ele>
        <time>2018-04-27T08:47:03Z</time>
      </trkpt>
      <trkpt lat="45.89734" lon="4.77658">
        <ele>191</ele>
        <time>2018-04-27T08:47:05Z</time>
      </trkpt>
      <trkpt lat="45.89729" lon="4.77657">
        <ele>191</ele>
        <time>2018-04-27T08:47:06Z</time>
      </trkpt>
      <trkpt lat="45.89724" lon="4.77656">
        <ele>190</ele>
        <time>2018-04-27T08:47:07Z</time>
      </trkpt>
      <trkpt lat="45.8972" lon="4.77655">
        <ele>190</ele>
        <time>2018-04-27T08:47:08Z</time>
      </trkpt>
      <trkpt lat="45.89715" lon="4.77654">
        <ele>190</ele>
        <time>2018-04-27T08:47:09Z</time>
      </trkpt>
      <trkpt lat="45.8971" lon="4.77654">
        <ele>190</ele>
        <time>2018-04-27T08:47:10Z</time>
      </trkpt>
      <trkpt lat="45.89706" lon="4.77653">
        <ele>190</ele>
        <time>2018-04-27T08:47:11Z</time>
      </trkpt>
      <trkpt lat="45.89701" lon="4.77652">
        <ele>190</ele>
        <time>2018-04-27T08:47:12Z</time>
      </trkpt>
      <trkpt lat="45.89693" lon="4.77651">
        <ele>190</ele>
        <time>2018-04-27T08:47:14Z</time>
      </trkpt>
      <trkpt lat="45.89691" lon="4.77649">
        <ele>190</ele>
        <time>2018-04-27T08:47:15Z</time>
      </trkpt>
      <trkpt lat="45.89686" lon="4.77647">
        <ele>190</ele>
        <time>2018-04-27T08:47:17Z</time>
      </trkpt>
      <trkpt lat="45.89681" lon="4.77644">
        <ele>190</ele>
        <time>2018-04-27T08:47:18Z</time>
      </trkpt>
      <trkpt lat="45.89674" lon="4.77644">
        <ele>190</ele>
        <time>2018-04-27T08:47:20Z</time>
      </trkpt>
      <trkpt lat="45.89668" lon="4.77642">
        <ele>190</ele>
        <time>2018-04-27T08:47:21Z</time>
      </trkpt>
      <trkpt lat="45.89663" lon="4.77642">
        <ele>190</ele>
        <time>2018-04-27T08:47:22Z</time>
      </trkpt>
      <trkpt lat="45.89658" lon="4.77641">
        <ele>190</ele>
        <time>2018-04-27T08:47:23Z</time>
      </trkpt>
      <trkpt lat="45.8965" lon="4.77639">
        <ele>190</ele>
        <time>2018-04-27T08:47:25Z</time>
      </trkpt>
      <trkpt lat="45.89645" lon="4.77639">
        <ele>190</ele>
        <time>2018-04-27T08:47:26Z</time>
      </trkpt>
      <trkpt lat="45.89637" lon="4.77638">
        <ele>190</ele>
        <time>2018-04-27T08:47:28Z</time>
      </trkpt>
      <trkpt lat="45.89633" lon="4.77637">
        <ele>190</ele>
        <time>2018-04-27T08:47:29Z</time>
      </trkpt>
      <trkpt lat="45.89625" lon="4.77636">
        <ele>191</ele>
        <time>2018-04-27T08:47:31Z</time>
      </trkpt>
      <trkpt lat="45.89617" lon="4.77636">
        <ele>191</ele>
        <time>2018-04-27T08:47:32Z</time>
      </trkpt>
      <trkpt lat="45.89611" lon="4.77633">
        <ele>191</ele>
        <time>2018-04-27T08:47:34Z</time>
      </trkpt>
      <trkpt lat="45.89607" lon="4.77633">
        <ele>191</ele>
        <time>2018-04-27T08:47:35Z</time>
      </trkpt>
      <trkpt lat="45.89603" lon="4.77632">
        <ele>191</ele>
        <time>2018-04-27T08:47:36Z</time>
      </trkpt>
      <trkpt lat="45.89598" lon="4.77631">
        <ele>191</ele>
        <time>2018-04-27T08:47:37Z</time>
      </trkpt>
      <trkpt lat="45.89593" lon="4.77633">
        <ele>191</ele>
        <time>2018-04-27T08:47:38Z</time>
      </trkpt>
      <trkpt lat="45.89589" lon="4.77632">
        <ele>191</ele>
        <time>2018-04-27T08:47:39Z</time>
      </trkpt>
      <trkpt lat="45.89584" lon="4.77631">
        <ele>191</ele>
        <time>2018-04-27T08:47:40Z</time>
      </trkpt>
      <trkpt lat="45.89577" lon="4.7763">
        <ele>192</ele>
        <time>2018-04-27T08:47:41Z</time>
      </trkpt>
      <trkpt lat="45.89573" lon="4.77629">
        <ele>192</ele>
        <time>2018-04-27T08:47:42Z</time>
      </trkpt>
      <trkpt lat="45.89567" lon="4.77628">
        <ele>192</ele>
        <time>2018-04-27T08:47:43Z</time>
      </trkpt>
      <trkpt lat="45.89562" lon="4.77628">
        <ele>192</ele>
        <time>2018-04-27T08:47:44Z</time>
      </trkpt>
      <trkpt lat="45.89556" lon="4.77628">
        <ele>192</ele>
        <time>2018-04-27T08:47:45Z</time>
      </trkpt>
      <trkpt lat="45.89547" lon="4.77626">
        <ele>192</ele>
        <time>2018-04-27T08:47:47Z</time>
      </trkpt>
      <trkpt lat="45.89542" lon="4.77625">
        <ele>192</ele>
        <time>2018-04-27T08:47:48Z</time>
      </trkpt>
      <trkpt lat="45.89535" lon="4.77626">
        <ele>192</ele>
        <time>2018-04-27T08:47:50Z</time>
      </trkpt>
      <trkpt lat="45.89531" lon="4.77624">
        <ele>192</ele>
        <time>2018-04-27T08:47:51Z</time>
      </trkpt>
      <trkpt lat="45.89523" lon="4.77619">
        <ele>192</ele>
        <time>2018-04-27T08:47:53Z</time>
      </trkpt>
      <trkpt lat="45.89519" lon="4.77618">
        <ele>192</ele>
        <time>2018-04-27T08:47:54Z</time>
      </trkpt>
      <trkpt lat="45.89514" lon="4.77616">
        <ele>192</ele>
        <time>2018-04-27T08:47:55Z</time>
      </trkpt>
      <trkpt lat="45.8951" lon="4.77615">
        <ele>192</ele>
        <time>2018-04-27T08:47:56Z</time>
      </trkpt>
      <trkpt lat="45.89505" lon="4.77614">
        <ele>192</ele>
        <time>2018-04-27T08:47:57Z</time>
      </trkpt>
      <trkpt lat="45.895" lon="4.77613">
        <ele>192</ele>
        <time>2018-04-27T08:47:58Z</time>
      </trkpt>
      <trkpt lat="45.89493" lon="4.77611">
        <ele>193</ele>
        <time>2018-04-27T08:47:59Z</time>
      </trkpt>
      <trkpt lat="45.89488" lon="4.7761">
        <ele>193</ele>
        <time>2018-04-27T08:48:00Z</time>
      </trkpt>
      <trkpt lat="45.89481" lon="4.77608">
        <ele>193</ele>
        <time>2018-04-27T08:48:02Z</time>
      </trkpt>
      <trkpt lat="45.89479" lon="4.77607">
        <ele>193</ele>
        <time>2018-04-27T08:48:03Z</time>
      </trkpt>
      <trkpt lat="45.89475" lon="4.77604">
        <ele>193</ele>
        <time>2018-04-27T08:48:04Z</time>
      </trkpt>
      <trkpt lat="45.8947" lon="4.77602">
        <ele>193</ele>
        <time>2018-04-27T08:48:05Z</time>
      </trkpt>
      <trkpt lat="45.89464" lon="4.77602">
        <ele>193</ele>
        <time>2018-04-27T08:48:06Z</time>
      </trkpt>
      <trkpt lat="45.8946" lon="4.77601">
        <ele>193</ele>
        <time>2018-04-27T08:48:07Z</time>
      </trkpt>
      <trkpt lat="45.89453" lon="4.77597">
        <ele>193</ele>
        <time>2018-04-27T08:48:09Z</time>
      </trkpt>
      <trkpt lat="45.8945" lon="4.77596">
        <ele>193</ele>
        <time>2018-04-27T08:48:10Z</time>
      </trkpt>
      <trkpt lat="45.89445" lon="4.77594">
        <ele>193</ele>
        <time>2018-04-27T08:48:11Z</time>
      </trkpt>
      <trkpt lat="45.89441" lon="4.77593">
        <ele>193</ele>
        <time>2018-04-27T08:48:12Z</time>
      </trkpt>
      <trkpt lat="45.89432" lon="4.77589">
        <ele>193</ele>
        <time>2018-04-27T08:48:14Z</time>
      </trkpt>
      <trkpt lat="45.89427" lon="4.77587">
        <ele>194</ele>
        <time>2018-04-27T08:48:15Z</time>
      </trkpt>
      <trkpt lat="45.89421" lon="4.77585">
        <ele>194</ele>
        <time>2018-04-27T08:48:16Z</time>
      </trkpt>
      <trkpt lat="45.89413" lon="4.77585">
        <ele>194</ele>
        <time>2018-04-27T08:48:17Z</time>
      </trkpt>
      <trkpt lat="45.89408" lon="4.77583">
        <ele>194</ele>
        <time>2018-04-27T08:48:18Z</time>
      </trkpt>
      <trkpt lat="45.89404" lon="4.77582">
        <ele>194</ele>
        <time>2018-04-27T08:48:19Z</time>
      </trkpt>
      <trkpt lat="45.89399" lon="4.77581">
        <ele>194</ele>
        <time>2018-04-27T08:48:20Z</time>
      </trkpt>
      <trkpt lat="45.89395" lon="4.77578">
        <ele>194</ele>
        <time>2018-04-27T08:48:21Z</time>
      </trkpt>
      <trkpt lat="45.89389" lon="4.77574">
        <ele>194</ele>
        <time>2018-04-27T08:48:23Z</time>
      </trkpt>
      <trkpt lat="45.89384" lon="4.77572">
        <ele>194</ele>
        <time>2018-04-27T08:48:24Z</time>
      </trkpt>
      <trkpt lat="45.89376" lon="4.77567">
        <ele>194</ele>
        <time>2018-04-27T08:48:26Z</time>
      </trkpt>
      <trkpt lat="45.89372" lon="4.77566">
        <ele>194</ele>
        <time>2018-04-27T08:48:27Z</time>
      </trkpt>
      <trkpt lat="45.89366" lon="4.77563">
        <ele>194</ele>
        <time>2018-04-27T08:48:29Z</time>
      </trkpt>
      <trkpt lat="45.8936" lon="4.77561">
        <ele>194</ele>
        <time>2018-04-27T08:48:30Z</time>
      </trkpt>
      <trkpt lat="45.89356" lon="4.77559">
        <ele>194</ele>
        <time>2018-04-27T08:48:31Z</time>
      </trkpt>
      <trkpt lat="45.89351" lon="4.77558">
        <ele>194</ele>
        <time>2018-04-27T08:48:32Z</time>
      </trkpt>
      <trkpt lat="45.89343" lon="4.77555">
        <ele>194</ele>
        <time>2018-04-27T08:48:34Z</time>
      </trkpt>
      <trkpt lat="45.89339" lon="4.77552">
        <ele>194</ele>
        <time>2018-04-27T08:48:35Z</time>
      </trkpt>
      <trkpt lat="45.89333" lon="4.77551">
        <ele>194</ele>
        <time>2018-04-27T08:48:36Z</time>
      </trkpt>
      <trkpt lat="45.89326" lon="4.77552">
        <ele>194</ele>
        <time>2018-04-27T08:48:37Z</time>
      </trkpt>
      <trkpt lat="45.89321" lon="4.7755">
        <ele>194</ele>
        <time>2018-04-27T08:48:38Z</time>
      </trkpt>
      <trkpt lat="45.89317" lon="4.77548">
        <ele>194</ele>
        <time>2018-04-27T08:48:39Z</time>
      </trkpt>
      <trkpt lat="45.8931" lon="4.77546">
        <ele>194</ele>
        <time>2018-04-27T08:48:41Z</time>
      </trkpt>
      <trkpt lat="45.89304" lon="4.77543">
        <ele>194</ele>
        <time>2018-04-27T08:48:42Z</time>
      </trkpt>
      <trkpt lat="45.89298" lon="4.77538">
        <ele>194</ele>
        <time>2018-04-27T08:48:44Z</time>
      </trkpt>
      <trkpt lat="45.89296" lon="4.77536">
        <ele>194</ele>
        <time>2018-04-27T08:48:45Z</time>
      </trkpt>
      <trkpt lat="45.89288" lon="4.77533">
        <ele>193</ele>
        <time>2018-04-27T08:48:47Z</time>
      </trkpt>
      <trkpt lat="45.89283" lon="4.77534">
        <ele>193</ele>
        <time>2018-04-27T08:48:48Z</time>
      </trkpt>
      <trkpt lat="45.89278" lon="4.77533">
        <ele>193</ele>
        <time>2018-04-27T08:48:49Z</time>
      </trkpt>
      <trkpt lat="45.89274" lon="4.77532">
        <ele>193</ele>
        <time>2018-04-27T08:48:50Z</time>
      </trkpt>
      <trkpt lat="45.89269" lon="4.77529">
        <ele>193</ele>
        <time>2018-04-27T08:48:51Z</time>
      </trkpt>
      <trkpt lat="45.89264" lon="4.77529">
        <ele>193</ele>
        <time>2018-04-27T08:48:52Z</time>
      </trkpt>
      <trkpt lat="45.89259" lon="4.77529">
        <ele>193</ele>
        <time>2018-04-27T08:48:53Z</time>
      </trkpt>
      <trkpt lat="45.89252" lon="4.77528">
        <ele>193</ele>
        <time>2018-04-27T08:48:54Z</time>
      </trkpt>
      <trkpt lat="45.89244" lon="4.77528">
        <ele>193</ele>
        <time>2018-04-27T08:48:56Z</time>
      </trkpt>
      <trkpt lat="45.89242" lon="4.7753">
        <ele>193</ele>
        <time>2018-04-27T08:48:57Z</time>
      </trkpt>
      <trkpt lat="45.89238" lon="4.7753">
        <ele>193</ele>
        <time>2018-04-27T08:48:58Z</time>
      </trkpt>
      <trkpt lat="45.89233" lon="4.77531">
        <ele>194</ele>
        <time>2018-04-27T08:48:59Z</time>
      </trkpt>
      <trkpt lat="45.89228" lon="4.7753">
        <ele>194</ele>
        <time>2018-04-27T08:49:00Z</time>
      </trkpt>
      <trkpt lat="45.89223" lon="4.77531">
        <ele>194</ele>
        <time>2018-04-27T08:49:01Z</time>
      </trkpt>
      <trkpt lat="45.89215" lon="4.77533">
        <ele>194</ele>
        <time>2018-04-27T08:49:03Z</time>
      </trkpt>
      <trkpt lat="45.89211" lon="4.77535">
        <ele>194</ele>
        <time>2018-04-27T08:49:04Z</time>
      </trkpt>
      <trkpt lat="45.89205" lon="4.77535">
        <ele>194</ele>
        <time>2018-04-27T08:49:05Z</time>
      </trkpt>
      <trkpt lat="45.89201" lon="4.77536">
        <ele>194</ele>
        <time>2018-04-27T08:49:06Z</time>
      </trkpt>
      <trkpt lat="45.89196" lon="4.77539">
        <ele>194</ele>
        <time>2018-04-27T08:49:07Z</time>
      </trkpt>
      <trkpt lat="45.89192" lon="4.77541">
        <ele>194</ele>
        <time>2018-04-27T08:49:08Z</time>
      </trkpt>
      <trkpt lat="45.89187" lon="4.77541">
        <ele>194</ele>
        <time>2018-04-27T08:49:09Z</time>
      </trkpt>
      <trkpt lat="45.8918" lon="4.77543">
        <ele>194</ele>
        <time>2018-04-27T08:49:10Z</time>
      </trkpt>
      <trkpt lat="45.89172" lon="4.77546">
        <ele>194</ele>
        <time>2018-04-27T08:49:12Z</time>
      </trkpt>
      <trkpt lat="45.89167" lon="4.77546">
        <ele>194</ele>
        <time>2018-04-27T08:49:13Z</time>
      </trkpt>
      <trkpt lat="45.89163" lon="4.77547">
        <ele>195</ele>
        <time>2018-04-27T08:49:14Z</time>
      </trkpt>
      <trkpt lat="45.89158" lon="4.77548">
        <ele>195</ele>
        <time>2018-04-27T08:49:15Z</time>
      </trkpt>
      <trkpt lat="45.89152" lon="4.77551">
        <ele>195</ele>
        <time>2018-04-27T08:49:16Z</time>
      </trkpt>
      <trkpt lat="45.89148" lon="4.77551">
        <ele>195</ele>
        <time>2018-04-27T08:49:17Z</time>
      </trkpt>
      <trkpt lat="45.89142" lon="4.77553">
        <ele>195</ele>
        <time>2018-04-27T08:49:18Z</time>
      </trkpt>
      <trkpt lat="45.89138" lon="4.77555">
        <ele>195</ele>
        <time>2018-04-27T08:49:19Z</time>
      </trkpt>
      <trkpt lat="45.89132" lon="4.77557">
        <ele>195</ele>
        <time>2018-04-27T08:49:20Z</time>
      </trkpt>
      <trkpt lat="45.89128" lon="4.77558">
        <ele>195</ele>
        <time>2018-04-27T08:49:21Z</time>
      </trkpt>
      <trkpt lat="45.89124" lon="4.7756">
        <ele>195</ele>
        <time>2018-04-27T08:49:22Z</time>
      </trkpt>
      <trkpt lat="45.89118" lon="4.77562">
        <ele>195</ele>
        <time>2018-04-27T08:49:23Z</time>
      </trkpt>
      <trkpt lat="45.8911" lon="4.77565">
        <ele>195</ele>
        <time>2018-04-27T08:49:25Z</time>
      </trkpt>
      <trkpt lat="45.89105" lon="4.77567">
        <ele>196</ele>
        <time>2018-04-27T08:49:26Z</time>
      </trkpt>
      <trkpt lat="45.89101" lon="4.77569">
        <ele>196</ele>
        <time>2018-04-27T08:49:27Z</time>
      </trkpt>
      <trkpt lat="45.89096" lon="4.77572">
        <ele>196</ele>
        <time>2018-04-27T08:49:28Z</time>
      </trkpt>
      <trkpt lat="45.89092" lon="4.77575">
        <ele>196</ele>
        <time>2018-04-27T08:49:29Z</time>
      </trkpt>
      <trkpt lat="45.89088" lon="4.77578">
        <ele>196</ele>
        <time>2018-04-27T08:49:30Z</time>
      </trkpt>
      <trkpt lat="45.89083" lon="4.77582">
        <ele>196</ele>
        <time>2018-04-27T08:49:31Z</time>
      </trkpt>
      <trkpt lat="45.89079" lon="4.77585">
        <ele>196</ele>
        <time>2018-04-27T08:49:32Z</time>
      </trkpt>
      <trkpt lat="45.89072" lon="4.77591">
        <ele>196</ele>
        <time>2018-04-27T08:49:34Z</time>
      </trkpt>
      <trkpt lat="45.89067" lon="4.77595">
        <ele>196</ele>
        <time>2018-04-27T08:49:35Z</time>
      </trkpt>
      <trkpt lat="45.89063" lon="4.77599">
        <ele>197</ele>
        <time>2018-04-27T08:49:36Z</time>
      </trkpt>
      <trkpt lat="45.89059" lon="4.77602">
        <ele>197</ele>
        <time>2018-04-27T08:49:37Z</time>
      </trkpt>
      <trkpt lat="45.89051" lon="4.77607">
        <ele>197</ele>
        <time>2018-04-27T08:49:39Z</time>
      </trkpt>
      <trkpt lat="45.89048" lon="4.77611">
        <ele>197</ele>
        <time>2018-04-27T08:49:40Z</time>
      </trkpt>
      <trkpt lat="45.89043" lon="4.7762">
        <ele>197</ele>
        <time>2018-04-27T08:49:42Z</time>
      </trkpt>
      <trkpt lat="45.89039" lon="4.77624">
        <ele>197</ele>
        <time>2018-04-27T08:49:43Z</time>
      </trkpt>
      <trkpt lat="45.89031" lon="4.7763">
        <ele>197</ele>
        <time>2018-04-27T08:49:45Z</time>
      </trkpt>
      <trkpt lat="45.89028" lon="4.77633">
        <ele>197</ele>
        <time>2018-04-27T08:49:46Z</time>
      </trkpt>
      <trkpt lat="45.89021" lon="4.77639">
        <ele>197</ele>
        <time>2018-04-27T08:49:48Z</time>
      </trkpt>
      <trkpt lat="45.89017" lon="4.77643">
        <ele>197</ele>
        <time>2018-04-27T08:49:49Z</time>
      </trkpt>
      <trkpt lat="45.8901" lon="4.77649">
        <ele>197</ele>
        <time>2018-04-27T08:49:51Z</time>
      </trkpt>
      <trkpt lat="45.89006" lon="4.77652">
        <ele>197</ele>
        <time>2018-04-27T08:49:52Z</time>
      </trkpt>
      <trkpt lat="45.88999" lon="4.77658">
        <ele>197</ele>
        <time>2018-04-27T08:49:54Z</time>
      </trkpt>
      <trkpt lat="45.88995" lon="4.77661">
        <ele>197</ele>
        <time>2018-04-27T08:49:55Z</time>
      </trkpt>
      <trkpt lat="45.88988" lon="4.77667">
        <ele>198</ele>
        <time>2018-04-27T08:49:57Z</time>
      </trkpt>
      <trkpt lat="45.88985" lon="4.7767">
        <ele>198</ele>
        <time>2018-04-27T08:49:58Z</time>
      </trkpt>
      <trkpt lat="45.88979" lon="4.77675">
        <ele>198</ele>
        <time>2018-04-27T08:50:00Z</time>
      </trkpt>
      <trkpt lat="45.88975" lon="4.77678">
        <ele>198</ele>
        <time>2018-04-27T08:50:01Z</time>
      </trkpt>
      <trkpt lat="45.88968" lon="4.77681">
        <ele>198</ele>
        <time>2018-04-27T08:50:03Z</time>
      </trkpt>
      <trkpt lat="45.88965" lon="4.77683">
        <ele>198</ele>
        <time>2018-04-27T08:50:04Z</time>
      </trkpt>
      <trkpt lat="45.88957" lon="4.77687">
        <ele>199</ele>
        <time>2018-04-27T08:50:06Z</time>
      </trkpt>
      <trkpt lat="45.88953" lon="4.77688">
        <ele>199</ele>
        <time>2018-04-27T08:50:07Z</time>
      </trkpt>
      <trkpt lat="45.88945" lon="4.77692">
        <ele>199</ele>
        <time>2018-04-27T08:50:09Z</time>
      </trkpt>
      <trkpt lat="45.88941" lon="4.77694">
        <ele>199</ele>
        <time>2018-04-27T08:50:10Z</time>
      </trkpt>
      <trkpt lat="45.88934" lon="4.77698">
        <ele>199</ele>
        <time>2018-04-27T08:50:12Z</time>
      </trkpt>
      <trkpt lat="45.8893" lon="4.77699">
        <ele>199</ele>
        <time>2018-04-27T08:50:13Z</time>
      </trkpt>
      <trkpt lat="45.88921" lon="4.77702">
        <ele>199</ele>
        <time>2018-04-27T08:50:15Z</time>
      </trkpt>
      <trkpt lat="45.88917" lon="4.77703">
        <ele>199</ele>
        <time>2018-04-27T08:50:16Z</time>
      </trkpt>
      <trkpt lat="45.88909" lon="4.77705">
        <ele>200</ele>
        <time>2018-04-27T08:50:18Z</time>
      </trkpt>
      <trkpt lat="45.88906" lon="4.77705">
        <ele>200</ele>
        <time>2018-04-27T08:50:19Z</time>
      </trkpt>
      <trkpt lat="45.88898" lon="4.77706">
        <ele>200</ele>
        <time>2018-04-27T08:50:21Z</time>
      </trkpt>
      <trkpt lat="45.88894" lon="4.77707">
        <ele>200</ele>
        <time>2018-04-27T08:50:22Z</time>
      </trkpt>
      <trkpt lat="45.88886" lon="4.77707">
        <ele>200</ele>
        <time>2018-04-27T08:50:24Z</time>
      </trkpt>
      <trkpt lat="45.88884" lon="4.77707">
        <ele>200</ele>
        <time>2018-04-27T08:50:25Z</time>
      </trkpt>
      <trkpt lat="45.88877" lon="4.77708">
        <ele>200</ele>
        <time>2018-04-27T08:50:27Z</time>
      </trkpt>
      <trkpt lat="45.88874" lon="4.77708">
        <ele>201</ele>
        <time>2018-04-27T08:50:28Z</time>
      </trkpt>
      <trkpt lat="45.88868" lon="4.77708">
        <ele>201</ele>
        <time>2018-04-27T08:50:29Z</time>
      </trkpt>
      <trkpt lat="45.88864" lon="4.77709">
        <ele>201</ele>
        <time>2018-04-27T08:50:30Z</time>
      </trkpt>
      <trkpt lat="45.88856" lon="4.7771">
        <ele>201</ele>
        <time>2018-04-27T08:50:32Z</time>
      </trkpt>
      <trkpt lat="45.88852" lon="4.7771">
        <ele>201</ele>
        <time>2018-04-27T08:50:33Z</time>
      </trkpt>
      <trkpt lat="45.88845" lon="4.7771">
        <ele>201</ele>
        <time>2018-04-27T08:50:35Z</time>
      </trkpt>
      <trkpt lat="45.88841" lon="4.7771">
        <ele>201</ele>
        <time>2018-04-27T08:50:36Z</time>
      </trkpt>
      <trkpt lat="45.88833" lon="4.7771">
        <ele>201</ele>
        <time>2018-04-27T08:50:38Z</time>
      </trkpt>
      <trkpt lat="45.88829" lon="4.77711">
        <ele>201</ele>
        <time>2018-04-27T08:50:39Z</time>
      </trkpt>
      <trkpt lat="45.88821" lon="4.77711">
        <ele>202</ele>
        <time>2018-04-27T08:50:41Z</time>
      </trkpt>
      <trkpt lat="45.88817" lon="4.77711">
        <ele>202</ele>
        <time>2018-04-27T08:50:42Z</time>
      </trkpt>
      <trkpt lat="45.88809" lon="4.77712">
        <ele>202</ele>
        <time>2018-04-27T08:50:44Z</time>
      </trkpt>
      <trkpt lat="45.88806" lon="4.77712">
        <ele>202</ele>
        <time>2018-04-27T08:50:45Z</time>
      </trkpt>
      <trkpt lat="45.88798" lon="4.77712">
        <ele>202</ele>
        <time>2018-04-27T08:50:47Z</time>
      </trkpt>
      <trkpt lat="45.88794" lon="4.77712">
        <ele>202</ele>
        <time>2018-04-27T08:50:48Z</time>
      </trkpt>
      <trkpt lat="45.88786" lon="4.77712">
        <ele>202</ele>
        <time>2018-04-27T08:50:50Z</time>
      </trkpt>
      <trkpt lat="45.88783" lon="4.77712">
        <ele>202</ele>
        <time>2018-04-27T08:50:51Z</time>
      </trkpt>
      <trkpt lat="45.88775" lon="4.77711">
        <ele>202</ele>
        <time>2018-04-27T08:50:53Z</time>
      </trkpt>
      <trkpt lat="45.88772" lon="4.77711">
        <ele>202</ele>
        <time>2018-04-27T08:50:54Z</time>
      </trkpt>
      <trkpt lat="45.88764" lon="4.77712">
        <ele>202</ele>
        <time>2018-04-27T08:50:56Z</time>
      </trkpt>
      <trkpt lat="45.8876" lon="4.77712">
        <ele>202</ele>
        <time>2018-04-27T08:50:57Z</time>
      </trkpt>
      <trkpt lat="45.88752" lon="4.77713">
        <ele>202</ele>
        <time>2018-04-27T08:50:59Z</time>
      </trkpt>
      <trkpt lat="45.88748" lon="4.77713">
        <ele>203</ele>
        <time>2018-04-27T08:51:00Z</time>
      </trkpt>
      <trkpt lat="45.88739" lon="4.77713">
        <ele>203</ele>
        <time>2018-04-27T08:51:02Z</time>
      </trkpt>
      <trkpt lat="45.88735" lon="4.77714">
        <ele>203</ele>
        <time>2018-04-27T08:51:03Z</time>
      </trkpt>
      <trkpt lat="45.88727" lon="4.77714">
        <ele>203</ele>
        <time>2018-04-27T08:51:05Z</time>
      </trkpt>
      <trkpt lat="45.88723" lon="4.77714">
        <ele>203</ele>
        <time>2018-04-27T08:51:06Z</time>
      </trkpt>
      <trkpt lat="45.88714" lon="4.77715">
        <ele>203</ele>
        <time>2018-04-27T08:51:08Z</time>
      </trkpt>
      <trkpt lat="45.8871" lon="4.77716">
        <ele>203</ele>
        <time>2018-04-27T08:51:09Z</time>
      </trkpt>
      <trkpt lat="45.88702" lon="4.77717">
        <ele>203</ele>
        <time>2018-04-27T08:51:11Z</time>
      </trkpt>
      <trkpt lat="45.88699" lon="4.77717">
        <ele>203</ele>
        <time>2018-04-27T08:51:12Z</time>
      </trkpt>
      <trkpt lat="45.88691" lon="4.77717">
        <ele>203</ele>
        <time>2018-04-27T08:51:14Z</time>
      </trkpt>
      <trkpt lat="45.88688" lon="4.77718">
        <ele>203</ele>
        <time>2018-04-27T08:51:15Z</time>
      </trkpt>
      <trkpt lat="45.8868" lon="4.77718">
        <ele>203</ele>
        <time>2018-04-27T08:51:17Z</time>
      </trkpt>
      <trkpt lat="45.88678" lon="4.77717">
        <ele>203</ele>
        <time>2018-04-27T08:51:18Z</time>
      </trkpt>
      <trkpt lat="45.8867" lon="4.77717">
        <ele>203</ele>
        <time>2018-04-27T08:51:20Z</time>
      </trkpt>
      <trkpt lat="45.88666" lon="4.77716">
        <ele>203</ele>
        <time>2018-04-27T08:51:21Z</time>
      </trkpt>
      <trkpt lat="45.88659" lon="4.77716">
        <ele>203</ele>
        <time>2018-04-27T08:51:23Z</time>
      </trkpt>
      <trkpt lat="45.88655" lon="4.77716">
        <ele>203</ele>
        <time>2018-04-27T08:51:24Z</time>
      </trkpt>
      <trkpt lat="45.88647" lon="4.77715">
        <ele>203</ele>
        <time>2018-04-27T08:51:26Z</time>
      </trkpt>
      <trkpt lat="45.88643" lon="4.77715">
        <ele>203</ele>
        <time>2018-04-27T08:51:27Z</time>
      </trkpt>
      <trkpt lat="45.88635" lon="4.77714">
        <ele>203</ele>
        <time>2018-04-27T08:51:29Z</time>
      </trkpt>
      <trkpt lat="45.88631" lon="4.77713">
        <ele>203</ele>
        <time>2018-04-27T08:51:30Z</time>
      </trkpt>
      <trkpt lat="45.88623" lon="4.77712">
        <ele>203</ele>
        <time>2018-04-27T08:51:32Z</time>
      </trkpt>
      <trkpt lat="45.88619" lon="4.77711">
        <ele>203</ele>
        <time>2018-04-27T08:51:33Z</time>
      </trkpt>
      <trkpt lat="45.88611" lon="4.7771">
        <ele>203</ele>
        <time>2018-04-27T08:51:35Z</time>
      </trkpt>
      <trkpt lat="45.88609" lon="4.7771">
        <ele>203</ele>
        <time>2018-04-27T08:51:36Z</time>
      </trkpt>
      <trkpt lat="45.88602" lon="4.77708">
        <ele>203</ele>
        <time>2018-04-27T08:51:39Z</time>
      </trkpt>
      <trkpt lat="45.88599" lon="4.77707">
        <ele>203</ele>
        <time>2018-04-27T08:51:40Z</time>
      </trkpt>
      <trkpt lat="45.88593" lon="4.77705">
        <ele>203</ele>
        <time>2018-04-27T08:51:42Z</time>
      </trkpt>
      <trkpt lat="45.8859" lon="4.77705">
        <ele>203</ele>
        <time>2018-04-27T08:51:43Z</time>
      </trkpt>
      <trkpt lat="45.88581" lon="4.77702">
        <ele>204</ele>
        <time>2018-04-27T08:51:44Z</time>
      </trkpt>
      <trkpt lat="45.88574" lon="4.777">
        <ele>204</ele>
        <time>2018-04-27T08:51:46Z</time>
      </trkpt>
      <trkpt lat="45.8857" lon="4.77698">
        <ele>204</ele>
        <time>2018-04-27T08:51:47Z</time>
      </trkpt>
      <trkpt lat="45.88562" lon="4.77695">
        <ele>204</ele>
        <time>2018-04-27T08:51:49Z</time>
      </trkpt>
      <trkpt lat="45.88558" lon="4.77694">
        <ele>204</ele>
        <time>2018-04-27T08:51:50Z</time>
      </trkpt>
      <trkpt lat="45.88554" lon="4.77693">
        <ele>204</ele>
        <time>2018-04-27T08:51:51Z</time>
      </trkpt>
      <trkpt lat="45.88549" lon="4.77692">
        <ele>204</ele>
        <time>2018-04-27T08:51:52Z</time>
      </trkpt>
      <trkpt lat="45.88541" lon="4.77689">
        <ele>204</ele>
        <time>2018-04-27T08:51:54Z</time>
      </trkpt>
      <trkpt lat="45.88537" lon="4.77688">
        <ele>204</ele>
        <time>2018-04-27T08:51:55Z</time>
      </trkpt>
      <trkpt lat="45.88529" lon="4.77687">
        <ele>204</ele>
        <time>2018-04-27T08:51:57Z</time>
      </trkpt>
      <trkpt lat="45.88524" lon="4.77687">
        <ele>204</ele>
        <time>2018-04-27T08:51:58Z</time>
      </trkpt>
      <trkpt lat="45.88516" lon="4.77684">
        <ele>205</ele>
        <time>2018-04-27T08:52:00Z</time>
      </trkpt>
      <trkpt lat="45.88512" lon="4.77683">
        <ele>205</ele>
        <time>2018-04-27T08:52:01Z</time>
      </trkpt>
      <trkpt lat="45.88506" lon="4.77681">
        <ele>205</ele>
        <time>2018-04-27T08:52:03Z</time>
      </trkpt>
      <trkpt lat="45.88501" lon="4.7768">
        <ele>205</ele>
        <time>2018-04-27T08:52:04Z</time>
      </trkpt>
      <trkpt lat="45.88493" lon="4.77678">
        <ele>205</ele>
        <time>2018-04-27T08:52:06Z</time>
      </trkpt>
      <trkpt lat="45.88489" lon="4.77677">
        <ele>205</ele>
        <time>2018-04-27T08:52:07Z</time>
      </trkpt>
      <trkpt lat="45.8848" lon="4.77676">
        <ele>206</ele>
        <time>2018-04-27T08:52:09Z</time>
      </trkpt>
      <trkpt lat="45.88475" lon="4.77675">
        <ele>206</ele>
        <time>2018-04-27T08:52:10Z</time>
      </trkpt>
      <trkpt lat="45.88466" lon="4.77673">
        <ele>206</ele>
        <time>2018-04-27T08:52:12Z</time>
      </trkpt>
      <trkpt lat="45.88462" lon="4.77671">
        <ele>206</ele>
        <time>2018-04-27T08:52:13Z</time>
      </trkpt>
      <trkpt lat="45.88457" lon="4.7767">
        <ele>206</ele>
        <time>2018-04-27T08:52:14Z</time>
      </trkpt>
      <trkpt lat="45.88453" lon="4.77669">
        <ele>206</ele>
        <time>2018-04-27T08:52:15Z</time>
      </trkpt>
      <trkpt lat="45.88445" lon="4.7767">
        <ele>206</ele>
        <time>2018-04-27T08:52:17Z</time>
      </trkpt>
      <trkpt lat="45.88442" lon="4.7767">
        <ele>206</ele>
        <time>2018-04-27T08:52:18Z</time>
      </trkpt>
      <trkpt lat="45.88433" lon="4.77668">
        <ele>206</ele>
        <time>2018-04-27T08:52:20Z</time>
      </trkpt>
      <trkpt lat="45.88429" lon="4.77668">
        <ele>206</ele>
        <time>2018-04-27T08:52:21Z</time>
      </trkpt>
      <trkpt lat="45.88422" lon="4.77668">
        <ele>206</ele>
        <time>2018-04-27T08:52:23Z</time>
      </trkpt>
      <trkpt lat="45.88419" lon="4.77666">
        <ele>206</ele>
        <time>2018-04-27T08:52:24Z</time>
      </trkpt>
      <trkpt lat="45.88411" lon="4.77663">
        <ele>206</ele>
        <time>2018-04-27T08:52:26Z</time>
      </trkpt>
      <trkpt lat="45.88407" lon="4.77662">
        <ele>207</ele>
        <time>2018-04-27T08:52:27Z</time>
      </trkpt>
      <trkpt lat="45.88402" lon="4.77662">
        <ele>207</ele>
        <time>2018-04-27T08:52:28Z</time>
      </trkpt>
      <trkpt lat="45.88398" lon="4.77661">
        <ele>207</ele>
        <time>2018-04-27T08:52:29Z</time>
      </trkpt>
      <trkpt lat="45.8839" lon="4.77661">
        <ele>207</ele>
        <time>2018-04-27T08:52:31Z</time>
      </trkpt>
      <trkpt lat="45.88386" lon="4.7766">
        <ele>207</ele>
        <time>2018-04-27T08:52:32Z</time>
      </trkpt>
      <trkpt lat="45.88378" lon="4.7766">
        <ele>207</ele>
        <time>2018-04-27T08:52:34Z</time>
      </trkpt>
      <trkpt lat="45.88374" lon="4.77659">
        <ele>207</ele>
        <time>2018-04-27T08:52:35Z</time>
      </trkpt>
      <trkpt lat="45.88366" lon="4.77658">
        <ele>207</ele>
        <time>2018-04-27T08:52:37Z</time>
      </trkpt>
      <trkpt lat="45.88362" lon="4.77658">
        <ele>208</ele>
        <time>2018-04-27T08:52:38Z</time>
      </trkpt>
      <trkpt lat="45.88354" lon="4.77657">
        <ele>208</ele>
        <time>2018-04-27T08:52:41Z</time>
      </trkpt>
      <trkpt lat="45.88351" lon="4.77657">
        <ele>208</ele>
        <time>2018-04-27T08:52:42Z</time>
      </trkpt>
      <trkpt lat="45.88348" lon="4.77657">
        <ele>208</ele>
        <time>2018-04-27T08:52:43Z</time>
      </trkpt>
      <trkpt lat="45.88341" lon="4.77657">
        <ele>208</ele>
        <time>2018-04-27T08:52:44Z</time>
      </trkpt>
      <trkpt lat="45.88333" lon="4.77658">
        <ele>208</ele>
        <time>2018-04-27T08:52:46Z</time>
      </trkpt>
      <trkpt lat="45.8833" lon="4.77658">
        <ele>208</ele>
        <time>2018-04-27T08:52:47Z</time>
      </trkpt>
      <trkpt lat="45.88322" lon="4.77658">
        <ele>209</ele>
        <time>2018-04-27T08:52:49Z</time>
      </trkpt>
      <trkpt lat="45.88318" lon="4.77658">
        <ele>209</ele>
        <time>2018-04-27T08:52:50Z</time>
      </trkpt>
      <trkpt lat="45.8831" lon="4.77658">
        <ele>209</ele>
        <time>2018-04-27T08:52:52Z</time>
      </trkpt>
      <trkpt lat="45.88306" lon="4.77658">
        <ele>209</ele>
        <time>2018-04-27T08:52:53Z</time>
      </trkpt>
      <trkpt lat="45.88299" lon="4.77658">
        <ele>209</ele>
        <time>2018-04-27T08:52:55Z</time>
      </trkpt>
      <trkpt lat="45.88295" lon="4.77657">
        <ele>209</ele>
        <time>2018-04-27T08:52:56Z</time>
      </trkpt>
      <trkpt lat="45.88287" lon="4.77657">
        <ele>209</ele>
        <time>2018-04-27T08:52:58Z</time>
      </trkpt>
      <trkpt lat="45.88283" lon="4.77657">
        <ele>210</ele>
        <time>2018-04-27T08:52:59Z</time>
      </trkpt>
      <trkpt lat="45.88275" lon="4.77657">
        <ele>210</ele>
        <time>2018-04-27T08:53:01Z</time>
      </trkpt>
      <trkpt lat="45.88271" lon="4.77658">
        <ele>210</ele>
        <time>2018-04-27T08:53:02Z</time>
      </trkpt>
      <trkpt lat="45.88264" lon="4.77658">
        <ele>210</ele>
        <time>2018-04-27T08:53:04Z</time>
      </trkpt>
      <trkpt lat="45.8826" lon="4.77658">
        <ele>210</ele>
        <time>2018-04-27T08:53:05Z</time>
      </trkpt>
      <trkpt lat="45.88253" lon="4.77658">
        <ele>210</ele>
        <time>2018-04-27T08:53:07Z</time>
      </trkpt>
      <trkpt lat="45.88249" lon="4.77659">
        <ele>211</ele>
        <time>2018-04-27T08:53:08Z</time>
      </trkpt>
      <trkpt lat="45.88242" lon="4.7766">
        <ele>211</ele>
        <time>2018-04-27T08:53:11Z</time>
      </trkpt>
      <trkpt lat="45.88234" lon="4.77661">
        <ele>211</ele>
        <time>2018-04-27T08:53:12Z</time>
      </trkpt>
      <trkpt lat="45.88227" lon="4.77662">
        <ele>211</ele>
        <time>2018-04-27T08:53:14Z</time>
      </trkpt>
      <trkpt lat="45.88223" lon="4.77662">
        <ele>211</ele>
        <time>2018-04-27T08:53:15Z</time>
      </trkpt>
      <trkpt lat="45.88215" lon="4.77663">
        <ele>211</ele>
        <time>2018-04-27T08:53:17Z</time>
      </trkpt>
      <trkpt lat="45.88211" lon="4.77664">
        <ele>211</ele>
        <time>2018-04-27T08:53:18Z</time>
      </trkpt>
      <trkpt lat="45.88203" lon="4.77665">
        <ele>211</ele>
        <time>2018-04-27T08:53:20Z</time>
      </trkpt>
      <trkpt lat="45.88199" lon="4.77665">
        <ele>211</ele>
        <time>2018-04-27T08:53:21Z</time>
      </trkpt>
      <trkpt lat="45.88191" lon="4.77667">
        <ele>212</ele>
        <time>2018-04-27T08:53:23Z</time>
      </trkpt>
      <trkpt lat="45.88187" lon="4.77667">
        <ele>212</ele>
        <time>2018-04-27T08:53:24Z</time>
      </trkpt>
      <trkpt lat="45.88182" lon="4.77668">
        <ele>212</ele>
        <time>2018-04-27T08:53:26Z</time>
      </trkpt>
      <trkpt lat="45.88177" lon="4.77669">
        <ele>212</ele>
        <time>2018-04-27T08:53:27Z</time>
      </trkpt>
      <trkpt lat="45.88169" lon="4.77671">
        <ele>212</ele>
        <time>2018-04-27T08:53:29Z</time>
      </trkpt>
      <trkpt lat="45.88165" lon="4.77672">
        <ele>212</ele>
        <time>2018-04-27T08:53:30Z</time>
      </trkpt>
      <trkpt lat="45.88158" lon="4.77673">
        <ele>213</ele>
        <time>2018-04-27T08:53:32Z</time>
      </trkpt>
      <trkpt lat="45.88156" lon="4.77673">
        <ele>213</ele>
        <time>2018-04-27T08:53:33Z</time>
      </trkpt>
      <trkpt lat="45.88147" lon="4.77674">
        <ele>213</ele>
        <time>2018-04-27T08:53:35Z</time>
      </trkpt>
      <trkpt lat="45.88143" lon="4.77674">
        <ele>213</ele>
        <time>2018-04-27T08:53:36Z</time>
      </trkpt>
      <trkpt lat="45.88135" lon="4.77676">
        <ele>213</ele>
        <time>2018-04-27T08:53:38Z</time>
      </trkpt>
      <trkpt lat="45.88131" lon="4.77678">
        <ele>214</ele>
        <time>2018-04-27T08:53:39Z</time>
      </trkpt>
      <trkpt lat="45.88123" lon="4.77679">
        <ele>214</ele>
        <time>2018-04-27T08:53:41Z</time>
      </trkpt>
      <trkpt lat="45.88118" lon="4.7768">
        <ele>214</ele>
        <time>2018-04-27T08:53:42Z</time>
      </trkpt>
      <trkpt lat="45.8811" lon="4.7768">
        <ele>214</ele>
        <time>2018-04-27T08:53:44Z</time>
      </trkpt>
      <trkpt lat="45.88105" lon="4.77681">
        <ele>214</ele>
        <time>2018-04-27T08:53:45Z</time>
      </trkpt>
      <trkpt lat="45.88096" lon="4.77682">
        <ele>214</ele>
        <time>2018-04-27T08:53:47Z</time>
      </trkpt>
      <trkpt lat="45.88092" lon="4.77683">
        <ele>214</ele>
        <time>2018-04-27T08:53:48Z</time>
      </trkpt>
      <trkpt lat="45.88083" lon="4.77685">
        <ele>214</ele>
        <time>2018-04-27T08:53:50Z</time>
      </trkpt>
      <trkpt lat="45.88082" lon="4.77686">
        <ele>215</ele>
        <time>2018-04-27T08:53:51Z</time>
      </trkpt>
      <trkpt lat="45.88074" lon="4.77687">
        <ele>215</ele>
        <time>2018-04-27T08:53:53Z</time>
      </trkpt>
      <trkpt lat="45.88069" lon="4.77688">
        <ele>216</ele>
        <time>2018-04-27T08:53:54Z</time>
      </trkpt>
      <trkpt lat="45.88062" lon="4.77689">
        <ele>216</ele>
        <time>2018-04-27T08:53:56Z</time>
      </trkpt>
      <trkpt lat="45.88058" lon="4.7769">
        <ele>216</ele>
        <time>2018-04-27T08:53:57Z</time>
      </trkpt>
      <trkpt lat="45.88054" lon="4.77691">
        <ele>216</ele>
        <time>2018-04-27T08:53:59Z</time>
      </trkpt>
      <trkpt lat="45.88049" lon="4.77693">
        <ele>216</ele>
        <time>2018-04-27T08:54:00Z</time>
      </trkpt>
      <trkpt lat="45.8804" lon="4.77694">
        <ele>216</ele>
        <time>2018-04-27T08:54:02Z</time>
      </trkpt>
      <trkpt lat="45.88038" lon="4.77694">
        <ele>216</ele>
        <time>2018-04-27T08:54:03Z</time>
      </trkpt>
      <trkpt lat="45.88032" lon="4.77695">
        <ele>216</ele>
        <time>2018-04-27T08:54:04Z</time>
      </trkpt>
      <trkpt lat="45.88027" lon="4.77695">
        <ele>216</ele>
        <time>2018-04-27T08:54:05Z</time>
      </trkpt>
      <trkpt lat="45.88019" lon="4.77695">
        <ele>216</ele>
        <time>2018-04-27T08:54:09Z</time>
      </trkpt>
      <trkpt lat="45.8801" lon="4.77695">
        <ele>216</ele>
        <time>2018-04-27T08:54:10Z</time>
      </trkpt>
      <trkpt lat="45.88003" lon="4.77694">
        <ele>216</ele>
        <time>2018-04-27T08:54:12Z</time>
      </trkpt>
      <trkpt lat="45.87999" lon="4.77693">
        <ele>217</ele>
        <time>2018-04-27T08:54:13Z</time>
      </trkpt>
      <trkpt lat="45.87992" lon="4.77694">
        <ele>217</ele>
        <time>2018-04-27T08:54:15Z</time>
      </trkpt>
      <trkpt lat="45.87988" lon="4.77693">
        <ele>217</ele>
        <time>2018-04-27T08:54:16Z</time>
      </trkpt>
      <trkpt lat="45.87981" lon="4.7769">
        <ele>218</ele>
        <time>2018-04-27T08:54:18Z</time>
      </trkpt>
      <trkpt lat="45.87977" lon="4.77688">
        <ele>218</ele>
        <time>2018-04-27T08:54:19Z</time>
      </trkpt>
      <trkpt lat="45.8797" lon="4.77682">
        <ele>218</ele>
        <time>2018-04-27T08:54:21Z</time>
      </trkpt>
      <trkpt lat="45.87967" lon="4.77678">
        <ele>218</ele>
        <time>2018-04-27T08:54:22Z</time>
      </trkpt>
      <trkpt lat="45.87964" lon="4.77675">
        <ele>218</ele>
        <time>2018-04-27T08:54:24Z</time>
      </trkpt>
      <trkpt lat="45.87958" lon="4.77671">
        <ele>218</ele>
        <time>2018-04-27T08:54:25Z</time>
      </trkpt>
      <trkpt lat="45.87951" lon="4.77668">
        <ele>218</ele>
        <time>2018-04-27T08:54:27Z</time>
      </trkpt>
      <trkpt lat="45.87947" lon="4.77666">
        <ele>218</ele>
        <time>2018-04-27T08:54:28Z</time>
      </trkpt>
      <trkpt lat="45.8794" lon="4.77661">
        <ele>219</ele>
        <time>2018-04-27T08:54:30Z</time>
      </trkpt>
      <trkpt lat="45.87936" lon="4.77657">
        <ele>219</ele>
        <time>2018-04-27T08:54:31Z</time>
      </trkpt>
      <trkpt lat="45.87929" lon="4.7765">
        <ele>219</ele>
        <time>2018-04-27T08:54:33Z</time>
      </trkpt>
      <trkpt lat="45.87926" lon="4.77647">
        <ele>219</ele>
        <time>2018-04-27T08:54:34Z</time>
      </trkpt>
      <trkpt lat="45.87919" lon="4.77641">
        <ele>219</ele>
        <time>2018-04-27T08:54:36Z</time>
      </trkpt>
      <trkpt lat="45.87915" lon="4.77637">
        <ele>220</ele>
        <time>2018-04-27T08:54:37Z</time>
      </trkpt>
      <trkpt lat="45.87908" lon="4.77631">
        <ele>221</ele>
        <time>2018-04-27T08:54:39Z</time>
      </trkpt>
      <trkpt lat="45.87905" lon="4.77628">
        <ele>221</ele>
        <time>2018-04-27T08:54:40Z</time>
      </trkpt>
      <trkpt lat="45.87898" lon="4.77623">
        <ele>221</ele>
        <time>2018-04-27T08:54:42Z</time>
      </trkpt>
      <trkpt lat="45.87894" lon="4.7762">
        <ele>221</ele>
        <time>2018-04-27T08:54:43Z</time>
      </trkpt>
      <trkpt lat="45.87887" lon="4.77614">
        <ele>221</ele>
        <time>2018-04-27T08:54:45Z</time>
      </trkpt>
      <trkpt lat="45.87884" lon="4.77611">
        <ele>221</ele>
        <time>2018-04-27T08:54:46Z</time>
      </trkpt>
      <trkpt lat="45.87877" lon="4.77604">
        <ele>221</ele>
        <time>2018-04-27T08:54:48Z</time>
      </trkpt>
      <trkpt lat="45.87874" lon="4.77601">
        <ele>221</ele>
        <time>2018-04-27T08:54:49Z</time>
      </trkpt>
      <trkpt lat="45.87868" lon="4.77597">
        <ele>221</ele>
        <time>2018-04-27T08:54:51Z</time>
      </trkpt>
      <trkpt lat="45.87864" lon="4.77594">
        <ele>221</ele>
        <time>2018-04-27T08:54:52Z</time>
      </trkpt>
      <trkpt lat="45.87858" lon="4.77588">
        <ele>221</ele>
        <time>2018-04-27T08:54:54Z</time>
      </trkpt>
      <trkpt lat="45.87854" lon="4.77585">
        <ele>221</ele>
        <time>2018-04-27T08:54:55Z</time>
      </trkpt>
      <trkpt lat="45.87848" lon="4.7758">
        <ele>221</ele>
        <time>2018-04-27T08:54:57Z</time>
      </trkpt>
      <trkpt lat="45.87844" lon="4.77578">
        <ele>221</ele>
        <time>2018-04-27T08:54:58Z</time>
      </trkpt>
      <trkpt lat="45.87838" lon="4.77571">
        <ele>221</ele>
        <time>2018-04-27T08:55:00Z</time>
      </trkpt>
      <trkpt lat="45.87834" lon="4.77568">
        <ele>221</ele>
        <time>2018-04-27T08:55:01Z</time>
      </trkpt>
      <trkpt lat="45.87828" lon="4.77562">
        <ele>222</ele>
        <time>2018-04-27T08:55:03Z</time>
      </trkpt>
      <trkpt lat="45.87824" lon="4.77559">
        <ele>223</ele>
        <time>2018-04-27T08:55:04Z</time>
      </trkpt>
      <trkpt lat="45.8782" lon="4.77556">
        <ele>223</ele>
        <time>2018-04-27T08:55:05Z</time>
      </trkpt>
      <trkpt lat="45.87816" lon="4.77552">
        <ele>223</ele>
        <time>2018-04-27T08:55:06Z</time>
      </trkpt>
      <trkpt lat="45.87808" lon="4.77545">
        <ele>223</ele>
        <time>2018-04-27T08:55:08Z</time>
      </trkpt>
      <trkpt lat="45.87804" lon="4.77542">
        <ele>223</ele>
        <time>2018-04-27T08:55:09Z</time>
      </trkpt>
      <trkpt lat="45.87797" lon="4.77537">
        <ele>223</ele>
        <time>2018-04-27T08:55:11Z</time>
      </trkpt>
      <trkpt lat="45.87793" lon="4.77535">
        <ele>223</ele>
        <time>2018-04-27T08:55:12Z</time>
      </trkpt>
      <trkpt lat="45.87786" lon="4.7753">
        <ele>223</ele>
        <time>2018-04-27T08:55:14Z</time>
      </trkpt>
      <trkpt lat="45.87784" lon="4.77528">
        <ele>223</ele>
        <time>2018-04-27T08:55:15Z</time>
      </trkpt>
      <trkpt lat="45.87776" lon="4.77524">
        <ele>223</ele>
        <time>2018-04-27T08:55:18Z</time>
      </trkpt>
      <trkpt lat="45.87769" lon="4.77519">
        <ele>223</ele>
        <time>2018-04-27T08:55:19Z</time>
      </trkpt>
      <trkpt lat="45.87762" lon="4.77513">
        <ele>224</ele>
        <time>2018-04-27T08:55:21Z</time>
      </trkpt>
      <trkpt lat="45.87758" lon="4.77511">
        <ele>224</ele>
        <time>2018-04-27T08:55:22Z</time>
      </trkpt>
      <trkpt lat="45.87752" lon="4.77506">
        <ele>224</ele>
        <time>2018-04-27T08:55:24Z</time>
      </trkpt>
      <trkpt lat="45.87748" lon="4.77504">
        <ele>224</ele>
        <time>2018-04-27T08:55:25Z</time>
      </trkpt>
      <trkpt lat="45.87743" lon="4.77499">
        <ele>225</ele>
        <time>2018-04-27T08:55:27Z</time>
      </trkpt>
      <trkpt lat="45.8774" lon="4.77497">
        <ele>225</ele>
        <time>2018-04-27T08:55:28Z</time>
      </trkpt>
      <trkpt lat="45.87733" lon="4.77493">
        <ele>225</ele>
        <time>2018-04-27T08:55:31Z</time>
      </trkpt>
      <trkpt lat="45.87731" lon="4.77491">
        <ele>225</ele>
        <time>2018-04-27T08:55:32Z</time>
      </trkpt>
      <trkpt lat="45.87723" lon="4.77487">
        <ele>226</ele>
        <time>2018-04-27T08:55:33Z</time>
      </trkpt>
      <trkpt lat="45.87719" lon="4.77485">
        <ele>226</ele>
        <time>2018-04-27T08:55:34Z</time>
      </trkpt>
      <trkpt lat="45.87715" lon="4.77484">
        <ele>226</ele>
        <time>2018-04-27T08:55:36Z</time>
      </trkpt>
      <trkpt lat="45.87709" lon="4.77484">
        <ele>226</ele>
        <time>2018-04-27T08:55:37Z</time>
      </trkpt>
      <trkpt lat="45.87701" lon="4.77484">
        <ele>227</ele>
        <time>2018-04-27T08:55:40Z</time>
      </trkpt>
      <trkpt lat="45.87699" lon="4.77484">
        <ele>227</ele>
        <time>2018-04-27T08:55:41Z</time>
      </trkpt>
      <trkpt lat="45.8769" lon="4.77486">
        <ele>227</ele>
        <time>2018-04-27T08:55:44Z</time>
      </trkpt>
      <trkpt lat="45.87687" lon="4.77486">
        <ele>227</ele>
        <time>2018-04-27T08:55:45Z</time>
      </trkpt>
      <trkpt lat="45.87678" lon="4.77487">
        <ele>228</ele>
        <time>2018-04-27T08:55:48Z</time>
      </trkpt>
      <trkpt lat="45.87676" lon="4.77487">
        <ele>228</ele>
        <time>2018-04-27T08:55:49Z</time>
      </trkpt>
      <trkpt lat="45.87669" lon="4.77487">
        <ele>228</ele>
        <time>2018-04-27T08:55:51Z</time>
      </trkpt>
      <trkpt lat="45.8766" lon="4.77488">
        <ele>230</ele>
        <time>2018-04-27T08:55:52Z</time>
      </trkpt>
      <trkpt lat="45.87653" lon="4.77488">
        <ele>230</ele>
        <time>2018-04-27T08:55:55Z</time>
      </trkpt>
      <trkpt lat="45.87651" lon="4.77488">
        <ele>230</ele>
        <time>2018-04-27T08:55:56Z</time>
      </trkpt>
      <trkpt lat="45.87645" lon="4.77489">
        <ele>230</ele>
        <time>2018-04-27T08:55:58Z</time>
      </trkpt>
      <trkpt lat="45.87637" lon="4.7749">
        <ele>230</ele>
        <time>2018-04-27T08:55:59Z</time>
      </trkpt>
      <trkpt lat="45.8763" lon="4.77492">
        <ele>231</ele>
        <time>2018-04-27T08:56:02Z</time>
      </trkpt>
      <trkpt lat="45.87627" lon="4.77492">
        <ele>231</ele>
        <time>2018-04-27T08:56:03Z</time>
      </trkpt>
      <trkpt lat="45.87625" lon="4.77492">
        <ele>231</ele>
        <time>2018-04-27T08:56:04Z</time>
      </trkpt>
      <trkpt lat="45.87615" lon="4.77493">
        <ele>231</ele>
        <time>2018-04-27T08:56:05Z</time>
      </trkpt>
      <trkpt lat="45.87608" lon="4.77493">
        <ele>231</ele>
        <time>2018-04-27T08:56:08Z</time>
      </trkpt>
      <trkpt lat="45.87606" lon="4.77494">
        <ele>231</ele>
        <time>2018-04-27T08:56:09Z</time>
      </trkpt>
      <trkpt lat="45.87603" lon="4.77495">
        <ele>231</ele>
        <time>2018-04-27T08:56:10Z</time>
      </trkpt>
      <trkpt lat="45.87596" lon="4.77496">
        <ele>232</ele>
        <time>2018-04-27T08:56:11Z</time>
      </trkpt>
      <trkpt lat="45.87588" lon="4.77497">
        <ele>232</ele>
        <time>2018-04-27T08:56:15Z</time>
      </trkpt>
      <trkpt lat="45.87585" lon="4.77497">
        <ele>232</ele>
        <time>2018-04-27T08:56:16Z</time>
      </trkpt>
      <trkpt lat="45.87576" lon="4.775">
        <ele>232</ele>
        <time>2018-04-27T08:56:19Z</time>
      </trkpt>
      <trkpt lat="45.87573" lon="4.775">
        <ele>233</ele>
        <time>2018-04-27T08:56:20Z</time>
      </trkpt>
      <trkpt lat="45.87565" lon="4.77497">
        <ele>233</ele>
        <time>2018-04-27T08:56:23Z</time>
      </trkpt>
      <trkpt lat="45.87562" lon="4.77495">
        <ele>233</ele>
        <time>2018-04-27T08:56:24Z</time>
      </trkpt>
      <trkpt lat="45.87555" lon="4.77488">
        <ele>233</ele>
        <time>2018-04-27T08:56:27Z</time>
      </trkpt>
      <trkpt lat="45.87553" lon="4.77486">
        <ele>233</ele>
        <time>2018-04-27T08:56:28Z</time>
      </trkpt>
      <trkpt lat="45.87548" lon="4.77479">
        <ele>233</ele>
        <time>2018-04-27T08:56:30Z</time>
      </trkpt>
      <trkpt lat="45.87545" lon="4.77476">
        <ele>233</ele>
        <time>2018-04-27T08:56:31Z</time>
      </trkpt>
      <trkpt lat="45.87539" lon="4.77466">
        <ele>233</ele>
        <time>2018-04-27T08:56:32Z</time>
      </trkpt>
      <trkpt lat="45.87534" lon="4.77458">
        <ele>233</ele>
        <time>2018-04-27T08:56:35Z</time>
      </trkpt>
      <trkpt lat="45.8753" lon="4.77452">
        <ele>234</ele>
        <time>2018-04-27T08:56:36Z</time>
      </trkpt>
      <trkpt lat="45.87527" lon="4.77448">
        <ele>234</ele>
        <time>2018-04-27T08:56:38Z</time>
      </trkpt>
      <trkpt lat="45.87522" lon="4.77442">
        <ele>233</ele>
        <time>2018-04-27T08:56:39Z</time>
      </trkpt>
      <trkpt lat="45.87516" lon="4.77435">
        <ele>233</ele>
        <time>2018-04-27T08:56:41Z</time>
      </trkpt>
      <trkpt lat="45.87514" lon="4.77431">
        <ele>233</ele>
        <time>2018-04-27T08:56:42Z</time>
      </trkpt>
      <trkpt lat="45.87508" lon="4.77423">
        <ele>233</ele>
        <time>2018-04-27T08:56:44Z</time>
      </trkpt>
      <trkpt lat="45.87506" lon="4.77421">
        <ele>233</ele>
        <time>2018-04-27T08:56:45Z</time>
      </trkpt>
      <trkpt lat="45.87501" lon="4.77413">
        <ele>233</ele>
        <time>2018-04-27T08:56:48Z</time>
      </trkpt>
      <trkpt lat="45.87496" lon="4.77405">
        <ele>234</ele>
        <time>2018-04-27T08:56:49Z</time>
      </trkpt>
      <trkpt lat="45.87492" lon="4.77396">
        <ele>235</ele>
        <time>2018-04-27T08:56:51Z</time>
      </trkpt>
      <trkpt lat="45.8749" lon="4.77391">
        <ele>235</ele>
        <time>2018-04-27T08:56:52Z</time>
      </trkpt>
      <trkpt lat="45.87489" lon="4.77381">
        <ele>235</ele>
        <time>2018-04-27T08:56:54Z</time>
      </trkpt>
      <trkpt lat="45.87488" lon="4.77376">
        <ele>235</ele>
        <time>2018-04-27T08:56:55Z</time>
      </trkpt>
      <trkpt lat="45.87485" lon="4.77365">
        <ele>235</ele>
        <time>2018-04-27T08:56:57Z</time>
      </trkpt>
      <trkpt lat="45.87483" lon="4.77359">
        <ele>235</ele>
        <time>2018-04-27T08:56:58Z</time>
      </trkpt>
      <trkpt lat="45.87481" lon="4.77353">
        <ele>235</ele>
        <time>2018-04-27T08:57:00Z</time>
      </trkpt>
      <trkpt lat="45.87479" lon="4.77344">
        <ele>235</ele>
        <time>2018-04-27T08:57:01Z</time>
      </trkpt>
      <trkpt lat="45.87477" lon="4.77334">
        <ele>235</ele>
        <time>2018-04-27T08:57:03Z</time>
      </trkpt>
      <trkpt lat="45.87476" lon="4.77331">
        <ele>235</ele>
        <time>2018-04-27T08:57:04Z</time>
      </trkpt>
      <trkpt lat="45.87473" lon="4.7732">
        <ele>235</ele>
        <time>2018-04-27T08:57:06Z</time>
      </trkpt>
      <trkpt lat="45.87473" lon="4.77317">
        <ele>235</ele>
        <time>2018-04-27T08:57:07Z</time>
      </trkpt>
      <trkpt lat="45.87471" lon="4.77308">
        <ele>235</ele>
        <time>2018-04-27T08:57:08Z</time>
      </trkpt>
      <trkpt lat="45.8747" lon="4.77303">
        <ele>235</ele>
        <time>2018-04-27T08:57:09Z</time>
      </trkpt>
      <trkpt lat="45.87468" lon="4.77296">
        <ele>235</ele>
        <time>2018-04-27T08:57:11Z</time>
      </trkpt>
      <trkpt lat="45.87466" lon="4.77288">
        <ele>235</ele>
        <time>2018-04-27T08:57:12Z</time>
      </trkpt>
      <trkpt lat="45.87464" lon="4.77278">
        <ele>235</ele>
        <time>2018-04-27T08:57:14Z</time>
      </trkpt>
      <trkpt lat="45.87462" lon="4.77273">
        <ele>235</ele>
        <time>2018-04-27T08:57:15Z</time>
      </trkpt>
      <trkpt lat="45.87458" lon="4.77263">
        <ele>235</ele>
        <time>2018-04-27T08:57:17Z</time>
      </trkpt>
      <trkpt lat="45.87455" lon="4.77259">
        <ele>235</ele>
        <time>2018-04-27T08:57:18Z</time>
      </trkpt>
      <trkpt lat="45.8745" lon="4.7725">
        <ele>235</ele>
        <time>2018-04-27T08:57:20Z</time>
      </trkpt>
      <trkpt lat="45.87447" lon="4.77245">
        <ele>235</ele>
        <time>2018-04-27T08:57:21Z</time>
      </trkpt>
      <trkpt lat="45.87441" lon="4.77238">
        <ele>235</ele>
        <time>2018-04-27T08:57:23Z</time>
      </trkpt>
      <trkpt lat="45.87437" lon="4.77235">
        <ele>235</ele>
        <time>2018-04-27T08:57:24Z</time>
      </trkpt>
      <trkpt lat="45.8743" lon="4.77229">
        <ele>235</ele>
        <time>2018-04-27T08:57:26Z</time>
      </trkpt>
      <trkpt lat="45.87426" lon="4.77227">
        <ele>235</ele>
        <time>2018-04-27T08:57:27Z</time>
      </trkpt>
      <trkpt lat="45.87417" lon="4.77223">
        <ele>235</ele>
        <time>2018-04-27T08:57:29Z</time>
      </trkpt>
      <trkpt lat="45.87412" lon="4.77221">
        <ele>238</ele>
        <time>2018-04-27T08:57:30Z</time>
      </trkpt>
      <trkpt lat="45.87404" lon="4.77217">
        <ele>238</ele>
        <time>2018-04-27T08:57:32Z</time>
      </trkpt>
      <trkpt lat="45.87403" lon="4.77217">
        <ele>238</ele>
        <time>2018-04-27T08:57:33Z</time>
      </trkpt>
      <trkpt lat="45.87401" lon="4.77216">
        <ele>238</ele>
        <time>2018-04-27T08:57:34Z</time>
      </trkpt>
      <trkpt lat="45.87394" lon="4.77214">
        <ele>239</ele>
        <time>2018-04-27T08:57:35Z</time>
      </trkpt>
      <trkpt lat="45.87387" lon="4.77215">
        <ele>239</ele>
        <time>2018-04-27T08:57:36Z</time>
      </trkpt>
      <trkpt lat="45.87381" lon="4.77215">
        <ele>239</ele>
        <time>2018-04-27T08:57:37Z</time>
      </trkpt>
      <trkpt lat="45.87372" lon="4.77215">
        <ele>239</ele>
        <time>2018-04-27T08:57:39Z</time>
      </trkpt>
      <trkpt lat="45.87367" lon="4.77215">
        <ele>240</ele>
        <time>2018-04-27T08:57:40Z</time>
      </trkpt>
      <trkpt lat="45.87362" lon="4.77215">
        <ele>240</ele>
        <time>2018-04-27T08:57:41Z</time>
      </trkpt>
      <trkpt lat="45.87357" lon="4.77215">
        <ele>240</ele>
        <time>2018-04-27T08:57:42Z</time>
      </trkpt>
      <trkpt lat="45.87351" lon="4.77218">
        <ele>240</ele>
        <time>2018-04-27T08:57:44Z</time>
      </trkpt>
      <trkpt lat="45.87346" lon="4.77219">
        <ele>240</ele>
        <time>2018-04-27T08:57:45Z</time>
      </trkpt>
      <trkpt lat="45.87337" lon="4.7722">
        <ele>241</ele>
        <time>2018-04-27T08:57:47Z</time>
      </trkpt>
      <trkpt lat="45.87333" lon="4.77221">
        <ele>243</ele>
        <time>2018-04-27T08:57:48Z</time>
      </trkpt>
      <trkpt lat="45.87328" lon="4.77222">
        <ele>243</ele>
        <time>2018-04-27T08:57:49Z</time>
      </trkpt>
      <trkpt lat="45.87324" lon="4.77222">
        <ele>244</ele>
        <time>2018-04-27T08:57:50Z</time>
      </trkpt>
      <trkpt lat="45.87316" lon="4.77223">
        <ele>244</ele>
        <time>2018-04-27T08:57:52Z</time>
      </trkpt>
      <trkpt lat="45.87315" lon="4.77224">
        <ele>244</ele>
        <time>2018-04-27T08:57:53Z</time>
      </trkpt>
      <trkpt lat="45.8731" lon="4.77221">
        <ele>244</ele>
        <time>2018-04-27T08:57:54Z</time>
      </trkpt>
      <trkpt lat="45.87304" lon="4.77218">
        <ele>244</ele>
        <time>2018-04-27T08:57:55Z</time>
      </trkpt>
      <trkpt lat="45.87299" lon="4.77215">
        <ele>244</ele>
        <time>2018-04-27T08:57:56Z</time>
      </trkpt>
      <trkpt lat="45.87295" lon="4.77214">
        <ele>244</ele>
        <time>2018-04-27T08:57:57Z</time>
      </trkpt>
      <trkpt lat="45.87288" lon="4.77213">
        <ele>244</ele>
        <time>2018-04-27T08:57:58Z</time>
      </trkpt>
      <trkpt lat="45.87284" lon="4.77209">
        <ele>244</ele>
        <time>2018-04-27T08:57:59Z</time>
      </trkpt>
      <trkpt lat="45.87279" lon="4.77201">
        <ele>244</ele>
        <time>2018-04-27T08:58:01Z</time>
      </trkpt>
      <trkpt lat="45.87276" lon="4.77195">
        <ele>244</ele>
        <time>2018-04-27T08:58:02Z</time>
      </trkpt>
      <trkpt lat="45.87271" lon="4.77185">
        <ele>244</ele>
        <time>2018-04-27T08:58:04Z</time>
      </trkpt>
      <trkpt lat="45.87272" lon="4.77181">
        <ele>244</ele>
        <time>2018-04-27T08:58:05Z</time>
      </trkpt>
      <trkpt lat="45.87271" lon="4.77173">
        <ele>244</ele>
        <time>2018-04-27T08:58:06Z</time>
      </trkpt>
      <trkpt lat="45.8727" lon="4.77167">
        <ele>244</ele>
        <time>2018-04-27T08:58:07Z</time>
      </trkpt>
      <trkpt lat="45.87271" lon="4.77155">
        <ele>242</ele>
        <time>2018-04-27T08:58:09Z</time>
      </trkpt>
      <trkpt lat="45.87271" lon="4.77148">
        <ele>241</ele>
        <time>2018-04-27T08:58:10Z</time>
      </trkpt>
      <trkpt lat="45.8727" lon="4.7714">
        <ele>241</ele>
        <time>2018-04-27T08:58:12Z</time>
      </trkpt>
      <trkpt lat="45.87271" lon="4.77133">
        <ele>241</ele>
        <time>2018-04-27T08:58:13Z</time>
      </trkpt>
      <trkpt lat="45.87273" lon="4.77123">
        <ele>241</ele>
        <time>2018-04-27T08:58:15Z</time>
      </trkpt>
      <trkpt lat="45.87272" lon="4.77115">
        <ele>240</ele>
        <time>2018-04-27T08:58:16Z</time>
      </trkpt>
      <trkpt lat="45.87272" lon="4.77106">
        <ele>240</ele>
        <time>2018-04-27T08:58:17Z</time>
      </trkpt>
      <trkpt lat="45.87272" lon="4.771">
        <ele>240</ele>
        <time>2018-04-27T08:58:18Z</time>
      </trkpt>
      <trkpt lat="45.8727" lon="4.77091">
        <ele>240</ele>
        <time>2018-04-27T08:58:19Z</time>
      </trkpt>
      <trkpt lat="45.8727" lon="4.77084">
        <ele>240</ele>
        <time>2018-04-27T08:58:20Z</time>
      </trkpt>
      <trkpt lat="45.8727" lon="4.77077">
        <ele>239</ele>
        <time>2018-04-27T08:58:21Z</time>
      </trkpt>
      <trkpt lat="45.8727" lon="4.7707">
        <ele>239</ele>
        <time>2018-04-27T08:58:22Z</time>
      </trkpt>
      <trkpt lat="45.87271" lon="4.77063">
        <ele>239</ele>
        <time>2018-04-27T08:58:23Z</time>
      </trkpt>
      <trkpt lat="45.87271" lon="4.77055">
        <ele>239</ele>
        <time>2018-04-27T08:58:24Z</time>
      </trkpt>
      <trkpt lat="45.87271" lon="4.77047">
        <ele>239</ele>
        <time>2018-04-27T08:58:25Z</time>
      </trkpt>
      <trkpt lat="45.87271" lon="4.77041">
        <ele>239</ele>
        <time>2018-04-27T08:58:26Z</time>
      </trkpt>
      <trkpt lat="45.87271" lon="4.77035">
        <ele>239</ele>
        <time>2018-04-27T08:58:27Z</time>
      </trkpt>
      <trkpt lat="45.87271" lon="4.77027">
        <ele>239</ele>
        <time>2018-04-27T08:58:28Z</time>
      </trkpt>
      <trkpt lat="45.87272" lon="4.77019">
        <ele>239</ele>
        <time>2018-04-27T08:58:29Z</time>
      </trkpt>
      <trkpt lat="45.8727" lon="4.77011">
        <ele>239</ele>
        <time>2018-04-27T08:58:30Z</time>
      </trkpt>
      <trkpt lat="45.87271" lon="4.77004">
        <ele>239</ele>
        <time>2018-04-27T08:58:31Z</time>
      </trkpt>
      <trkpt lat="45.87271" lon="4.76997">
        <ele>240</ele>
        <time>2018-04-27T08:58:32Z</time>
      </trkpt>
      <trkpt lat="45.87271" lon="4.76989">
        <ele>240</ele>
        <time>2018-04-27T08:58:33Z</time>
      </trkpt>
      <trkpt lat="45.87271" lon="4.76983">
        <ele>240</ele>
        <time>2018-04-27T08:58:34Z</time>
      </trkpt>
      <trkpt lat="45.87271" lon="4.76975">
        <ele>240</ele>
        <time>2018-04-27T08:58:35Z</time>
      </trkpt>
      <trkpt lat="45.87272" lon="4.76967">
        <ele>240</ele>
        <time>2018-04-27T08:58:36Z</time>
      </trkpt>
      <trkpt lat="45.87273" lon="4.7696">
        <ele>240</ele>
        <time>2018-04-27T08:58:37Z</time>
      </trkpt>
      <trkpt lat="45.87273" lon="4.76953">
        <ele>240</ele>
        <time>2018-04-27T08:58:38Z</time>
      </trkpt>
      <trkpt lat="45.87273" lon="4.76946">
        <ele>240</ele>
        <time>2018-04-27T08:58:39Z</time>
      </trkpt>
      <trkpt lat="45.87272" lon="4.76939">
        <ele>241</ele>
        <time>2018-04-27T08:58:40Z</time>
      </trkpt>
      <trkpt lat="45.87273" lon="4.76931">
        <ele>241</ele>
        <time>2018-04-27T08:58:41Z</time>
      </trkpt>
      <trkpt lat="45.87272" lon="4.76922">
        <ele>241</ele>
        <time>2018-04-27T08:58:42Z</time>
      </trkpt>
      <trkpt lat="45.87268" lon="4.76912">
        <ele>241</ele>
        <time>2018-04-27T08:58:43Z</time>
      </trkpt>
      <trkpt lat="45.87268" lon="4.76905">
        <ele>241</ele>
        <time>2018-04-27T08:58:44Z</time>
      </trkpt>
      <trkpt lat="45.8727" lon="4.76897">
        <ele>240</ele>
        <time>2018-04-27T08:58:45Z</time>
      </trkpt>
      <trkpt lat="45.87269" lon="4.76889">
        <ele>240</ele>
        <time>2018-04-27T08:58:46Z</time>
      </trkpt>
      <trkpt lat="45.8727" lon="4.76882">
        <ele>240</ele>
        <time>2018-04-27T08:58:47Z</time>
      </trkpt>
      <trkpt lat="45.8727" lon="4.76875">
        <ele>240</ele>
        <time>2018-04-27T08:58:48Z</time>
      </trkpt>
      <trkpt lat="45.87269" lon="4.76868">
        <ele>239</ele>
        <time>2018-04-27T08:58:49Z</time>
      </trkpt>
      <trkpt lat="45.87268" lon="4.76859">
        <ele>239</ele>
        <time>2018-04-27T08:58:50Z</time>
      </trkpt>
      <trkpt lat="45.87268" lon="4.76851">
        <ele>239</ele>
        <time>2018-04-27T08:58:51Z</time>
      </trkpt>
      <trkpt lat="45.87267" lon="4.76842">
        <ele>239</ele>
        <time>2018-04-27T08:58:52Z</time>
      </trkpt>
      <trkpt lat="45.87267" lon="4.76832">
        <ele>237</ele>
        <time>2018-04-27T08:58:53Z</time>
      </trkpt>
      <trkpt lat="45.87267" lon="4.76824">
        <ele>237</ele>
        <time>2018-04-27T08:58:54Z</time>
      </trkpt>
      <trkpt lat="45.87265" lon="4.76815">
        <ele>237</ele>
        <time>2018-04-27T08:58:55Z</time>
      </trkpt>
      <trkpt lat="45.87267" lon="4.76807">
        <ele>237</ele>
        <time>2018-04-27T08:58:56Z</time>
      </trkpt>
      <trkpt lat="45.87267" lon="4.76799">
        <ele>236</ele>
        <time>2018-04-27T08:58:57Z</time>
      </trkpt>
      <trkpt lat="45.87268" lon="4.76791">
        <ele>236</ele>
        <time>2018-04-27T08:58:58Z</time>
      </trkpt>
      <trkpt lat="45.87268" lon="4.76782">
        <ele>236</ele>
        <time>2018-04-27T08:58:59Z</time>
      </trkpt>
      <trkpt lat="45.87268" lon="4.76773">
        <ele>236</ele>
        <time>2018-04-27T08:59:00Z</time>
      </trkpt>
      <trkpt lat="45.87266" lon="4.76764">
        <ele>236</ele>
        <time>2018-04-27T08:59:01Z</time>
      </trkpt>
      <trkpt lat="45.87267" lon="4.76757">
        <ele>236</ele>
        <time>2018-04-27T08:59:02Z</time>
      </trkpt>
      <trkpt lat="45.87266" lon="4.76747">
        <ele>235</ele>
        <time>2018-04-27T08:59:03Z</time>
      </trkpt>
      <trkpt lat="45.87265" lon="4.76739">
        <ele>235</ele>
        <time>2018-04-27T08:59:04Z</time>
      </trkpt>
      <trkpt lat="45.87265" lon="4.76729">
        <ele>234</ele>
        <time>2018-04-27T08:59:05Z</time>
      </trkpt>
      <trkpt lat="45.87265" lon="4.76721">
        <ele>234</ele>
        <time>2018-04-27T08:59:06Z</time>
      </trkpt>
      <trkpt lat="45.87263" lon="4.76712">
        <ele>234</ele>
        <time>2018-04-27T08:59:07Z</time>
      </trkpt>
      <trkpt lat="45.87262" lon="4.76703">
        <ele>234</ele>
        <time>2018-04-27T08:59:08Z</time>
      </trkpt>
      <trkpt lat="45.87262" lon="4.76694">
        <ele>234</ele>
        <time>2018-04-27T08:59:09Z</time>
      </trkpt>
      <trkpt lat="45.87262" lon="4.76685">
        <ele>234</ele>
        <time>2018-04-27T08:59:10Z</time>
      </trkpt>
      <trkpt lat="45.87262" lon="4.76676">
        <ele>234</ele>
        <time>2018-04-27T08:59:11Z</time>
      </trkpt>
      <trkpt lat="45.87262" lon="4.76667">
        <ele>234</ele>
        <time>2018-04-27T08:59:12Z</time>
      </trkpt>
      <trkpt lat="45.87262" lon="4.76659">
        <ele>234</ele>
        <time>2018-04-27T08:59:13Z</time>
      </trkpt>
      <trkpt lat="45.87262" lon="4.7665">
        <ele>234</ele>
        <time>2018-04-27T08:59:14Z</time>
      </trkpt>
      <trkpt lat="45.87261" lon="4.76643">
        <ele>234</ele>
        <time>2018-04-27T08:59:15Z</time>
      </trkpt>
      <trkpt lat="45.87259" lon="4.76634">
        <ele>234</ele>
        <time>2018-04-27T08:59:16Z</time>
      </trkpt>
      <trkpt lat="45.87259" lon="4.76626">
        <ele>234</ele>
        <time>2018-04-27T08:59:17Z</time>
      </trkpt>
      <trkpt lat="45.87259" lon="4.7662">
        <ele>234</ele>
        <time>2018-04-27T08:59:18Z</time>
      </trkpt>
      <trkpt lat="45.87258" lon="4.76612">
        <ele>235</ele>
        <time>2018-04-27T08:59:19Z</time>
      </trkpt>
      <trkpt lat="45.87258" lon="4.76605">
        <ele>235</ele>
        <time>2018-04-27T08:59:20Z</time>
      </trkpt>
      <trkpt lat="45.87257" lon="4.76596">
        <ele>235</ele>
        <time>2018-04-27T08:59:21Z</time>
      </trkpt>
      <trkpt lat="45.87256" lon="4.76588">
        <ele>235</ele>
        <time>2018-04-27T08:59:22Z</time>
      </trkpt>
      <trkpt lat="45.87256" lon="4.76581">
        <ele>236</ele>
        <time>2018-04-27T08:59:23Z</time>
      </trkpt>
      <trkpt lat="45.87255" lon="4.76575">
        <ele>236</ele>
        <time>2018-04-27T08:59:24Z</time>
      </trkpt>
      <trkpt lat="45.87256" lon="4.76567">
        <ele>236</ele>
        <time>2018-04-27T08:59:25Z</time>
      </trkpt>
      <trkpt lat="45.87256" lon="4.76561">
        <ele>235</ele>
        <time>2018-04-27T08:59:26Z</time>
      </trkpt>
      <trkpt lat="45.87256" lon="4.76554">
        <ele>235</ele>
        <time>2018-04-27T08:59:27Z</time>
      </trkpt>
      <trkpt lat="45.87255" lon="4.76547">
        <ele>235</ele>
        <time>2018-04-27T08:59:28Z</time>
      </trkpt>
      <trkpt lat="45.87256" lon="4.7654">
        <ele>236</ele>
        <time>2018-04-27T08:59:29Z</time>
      </trkpt>
      <trkpt lat="45.87254" lon="4.76533">
        <ele>236</ele>
        <time>2018-04-27T08:59:30Z</time>
      </trkpt>
      <trkpt lat="45.87254" lon="4.76526">
        <ele>236</ele>
        <time>2018-04-27T08:59:31Z</time>
      </trkpt>
      <trkpt lat="45.87254" lon="4.7652">
        <ele>236</ele>
        <time>2018-04-27T08:59:32Z</time>
      </trkpt>
      <trkpt lat="45.87254" lon="4.76512">
        <ele>236</ele>
        <time>2018-04-27T08:59:33Z</time>
      </trkpt>
      <trkpt lat="45.87254" lon="4.76505">
        <ele>237</ele>
        <time>2018-04-27T08:59:34Z</time>
      </trkpt>
      <trkpt lat="45.87254" lon="4.76498">
        <ele>237</ele>
        <time>2018-04-27T08:59:35Z</time>
      </trkpt>
      <trkpt lat="45.87254" lon="4.76491">
        <ele>236</ele>
        <time>2018-04-27T08:59:36Z</time>
      </trkpt>
      <trkpt lat="45.87255" lon="4.76483">
        <ele>236</ele>
        <time>2018-04-27T08:59:37Z</time>
      </trkpt>
      <trkpt lat="45.87255" lon="4.76476">
        <ele>236</ele>
        <time>2018-04-27T08:59:38Z</time>
      </trkpt>
      <trkpt lat="45.87256" lon="4.76469">
        <ele>236</ele>
        <time>2018-04-27T08:59:39Z</time>
      </trkpt>
      <trkpt lat="45.87256" lon="4.76461">
        <ele>235</ele>
        <time>2018-04-27T08:59:40Z</time>
      </trkpt>
      <trkpt lat="45.87255" lon="4.76452">
        <ele>235</ele>
        <time>2018-04-27T08:59:41Z</time>
      </trkpt>
      <trkpt lat="45.87256" lon="4.76444">
        <ele>235</ele>
        <time>2018-04-27T08:59:42Z</time>
      </trkpt>
      <trkpt lat="45.87256" lon="4.76436">
        <ele>235</ele>
        <time>2018-04-27T08:59:43Z</time>
      </trkpt>
      <trkpt lat="45.87256" lon="4.76428">
        <ele>236</ele>
        <time>2018-04-27T08:59:44Z</time>
      </trkpt>
      <trkpt lat="45.87256" lon="4.7642">
        <ele>236</ele>
        <time>2018-04-27T08:59:45Z</time>
      </trkpt>
      <trkpt lat="45.87255" lon="4.76411">
        <ele>235</ele>
        <time>2018-04-27T08:59:46Z</time>
      </trkpt>
      <trkpt lat="45.87256" lon="4.76403">
        <ele>235</ele>
        <time>2018-04-27T08:59:47Z</time>
      </trkpt>
      <trkpt lat="45.87255" lon="4.76394">
        <ele>234</ele>
        <time>2018-04-27T08:59:48Z</time>
      </trkpt>
      <trkpt lat="45.87255" lon="4.76386">
        <ele>234</ele>
        <time>2018-04-27T08:59:49Z</time>
      </trkpt>
      <trkpt lat="45.87254" lon="4.76378">
        <ele>234</ele>
        <time>2018-04-27T08:59:50Z</time>
      </trkpt>
      <trkpt lat="45.87254" lon="4.7637">
        <ele>234</ele>
        <time>2018-04-27T08:59:51Z</time>
      </trkpt>
      <trkpt lat="45.87254" lon="4.76361">
        <ele>234</ele>
        <time>2018-04-27T08:59:52Z</time>
      </trkpt>
      <trkpt lat="45.87254" lon="4.76352">
        <ele>234</ele>
        <time>2018-04-27T08:59:53Z</time>
      </trkpt>
      <trkpt lat="45.87254" lon="4.76343">
        <ele>234</ele>
        <time>2018-04-27T08:59:54Z</time>
      </trkpt>
      <trkpt lat="45.87253" lon="4.76333">
        <ele>234</ele>
        <time>2018-04-27T08:59:55Z</time>
      </trkpt>
      <trkpt lat="45.87252" lon="4.76323">
        <ele>233</ele>
        <time>2018-04-27T08:59:56Z</time>
      </trkpt>
      <trkpt lat="45.87251" lon="4.76315">
        <ele>233</ele>
        <time>2018-04-27T08:59:57Z</time>
      </trkpt>
      <trkpt lat="45.87252" lon="4.76306">
        <ele>233</ele>
        <time>2018-04-27T08:59:58Z</time>
      </trkpt>
      <trkpt lat="45.87251" lon="4.76296">
        <ele>233</ele>
        <time>2018-04-27T08:59:59Z</time>
      </trkpt>
      <trkpt lat="45.87251" lon="4.76288">
        <ele>233</ele>
        <time>2018-04-27T09:00:00Z</time>
      </trkpt>
      <trkpt lat="45.8725" lon="4.7628">
        <ele>236</ele>
        <time>2018-04-27T09:00:01Z</time>
      </trkpt>
      <trkpt lat="45.87249" lon="4.7627">
        <ele>236</ele>
        <time>2018-04-27T09:00:02Z</time>
      </trkpt>
      <trkpt lat="45.87248" lon="4.7626">
        <ele>235</ele>
        <time>2018-04-27T09:00:03Z</time>
      </trkpt>
      <trkpt lat="45.8725" lon="4.76252">
        <ele>235</ele>
        <time>2018-04-27T09:00:04Z</time>
      </trkpt>
      <trkpt lat="45.8725" lon="4.76245">
        <ele>234</ele>
        <time>2018-04-27T09:00:05Z</time>
      </trkpt>
      <trkpt lat="45.87249" lon="4.76237">
        <ele>235</ele>
        <time>2018-04-27T09:00:06Z</time>
      </trkpt>
      <trkpt lat="45.87247" lon="4.76228">
        <ele>235</ele>
        <time>2018-04-27T09:00:07Z</time>
      </trkpt>
      <trkpt lat="45.87249" lon="4.76221">
        <ele>235</ele>
        <time>2018-04-27T09:00:08Z</time>
      </trkpt>
      <trkpt lat="45.87249" lon="4.76212">
        <ele>234</ele>
        <time>2018-04-27T09:00:09Z</time>
      </trkpt>
      <trkpt lat="45.87249" lon="4.76204">
        <ele>234</ele>
        <time>2018-04-27T09:00:10Z</time>
      </trkpt>
      <trkpt lat="45.87248" lon="4.76196">
        <ele>234</ele>
        <time>2018-04-27T09:00:11Z</time>
      </trkpt>
      <trkpt lat="45.87247" lon="4.76187">
        <ele>234</ele>
        <time>2018-04-27T09:00:12Z</time>
      </trkpt>
      <trkpt lat="45.87246" lon="4.76178">
        <ele>233</ele>
        <time>2018-04-27T09:00:13Z</time>
      </trkpt>
      <trkpt lat="45.87245" lon="4.7617">
        <ele>233</ele>
        <time>2018-04-27T09:00:14Z</time>
      </trkpt>
      <trkpt lat="45.87244" lon="4.76161">
        <ele>232</ele>
        <time>2018-04-27T09:00:15Z</time>
      </trkpt>
      <trkpt lat="45.87243" lon="4.76151">
        <ele>232</ele>
        <time>2018-04-27T09:00:16Z</time>
      </trkpt>
      <trkpt lat="45.87243" lon="4.76141">
        <ele>232</ele>
        <time>2018-04-27T09:00:17Z</time>
      </trkpt>
      <trkpt lat="45.87242" lon="4.76132">
        <ele>232</ele>
        <time>2018-04-27T09:00:18Z</time>
      </trkpt>
      <trkpt lat="45.87242" lon="4.76122">
        <ele>232</ele>
        <time>2018-04-27T09:00:19Z</time>
      </trkpt>
      <trkpt lat="45.87242" lon="4.76113">
        <ele>232</ele>
        <time>2018-04-27T09:00:20Z</time>
      </trkpt>
      <trkpt lat="45.8724" lon="4.76104">
        <ele>232</ele>
        <time>2018-04-27T09:00:21Z</time>
      </trkpt>
      <trkpt lat="45.87239" lon="4.76095">
        <ele>231</ele>
        <time>2018-04-27T09:00:22Z</time>
      </trkpt>
      <trkpt lat="45.87238" lon="4.76087">
        <ele>231</ele>
        <time>2018-04-27T09:00:23Z</time>
      </trkpt>
      <trkpt lat="45.87238" lon="4.76078">
        <ele>230</ele>
        <time>2018-04-27T09:00:24Z</time>
      </trkpt>
      <trkpt lat="45.87238" lon="4.76069">
        <ele>230</ele>
        <time>2018-04-27T09:00:25Z</time>
      </trkpt>
      <trkpt lat="45.87238" lon="4.76061">
        <ele>230</ele>
        <time>2018-04-27T09:00:26Z</time>
      </trkpt>
      <trkpt lat="45.87237" lon="4.76052">
        <ele>230</ele>
        <time>2018-04-27T09:00:27Z</time>
      </trkpt>
      <trkpt lat="45.87236" lon="4.76044">
        <ele>230</ele>
        <time>2018-04-27T09:00:28Z</time>
      </trkpt>
      <trkpt lat="45.87236" lon="4.76035">
        <ele>230</ele>
        <time>2018-04-27T09:00:29Z</time>
      </trkpt>
      <trkpt lat="45.87235" lon="4.76026">
        <ele>230</ele>
        <time>2018-04-27T09:00:30Z</time>
      </trkpt>
      <trkpt lat="45.87234" lon="4.76017">
        <ele>230</ele>
        <time>2018-04-27T09:00:31Z</time>
      </trkpt>
      <trkpt lat="45.87234" lon="4.76008">
        <ele>229</ele>
        <time>2018-04-27T09:00:32Z</time>
      </trkpt>
      <trkpt lat="45.87233" lon="4.75999">
        <ele>228</ele>
        <time>2018-04-27T09:00:33Z</time>
      </trkpt>
      <trkpt lat="45.87233" lon="4.7599">
        <ele>228</ele>
        <time>2018-04-27T09:00:34Z</time>
      </trkpt>
      <trkpt lat="45.87231" lon="4.75981">
        <ele>228</ele>
        <time>2018-04-27T09:00:35Z</time>
      </trkpt>
      <trkpt lat="45.8723" lon="4.75971">
        <ele>228</ele>
        <time>2018-04-27T09:00:36Z</time>
      </trkpt>
      <trkpt lat="45.87229" lon="4.75961">
        <ele>228</ele>
        <time>2018-04-27T09:00:37Z</time>
      </trkpt>
      <trkpt lat="45.87228" lon="4.75951">
        <ele>228</ele>
        <time>2018-04-27T09:00:38Z</time>
      </trkpt>
      <trkpt lat="45.87228" lon="4.75941">
        <ele>228</ele>
        <time>2018-04-27T09:00:39Z</time>
      </trkpt>
      <trkpt lat="45.87227" lon="4.75932">
        <ele>228</ele>
        <time>2018-04-27T09:00:40Z</time>
      </trkpt>
      <trkpt lat="45.87227" lon="4.75922">
        <ele>228</ele>
        <time>2018-04-27T09:00:41Z</time>
      </trkpt>
      <trkpt lat="45.87225" lon="4.75912">
        <ele>227</ele>
        <time>2018-04-27T09:00:42Z</time>
      </trkpt>
      <trkpt lat="45.87224" lon="4.75901">
        <ele>227</ele>
        <time>2018-04-27T09:00:43Z</time>
      </trkpt>
      <trkpt lat="45.87223" lon="4.7589">
        <ele>227</ele>
        <time>2018-04-27T09:00:44Z</time>
      </trkpt>
      <trkpt lat="45.87222" lon="4.75881">
        <ele>226</ele>
        <time>2018-04-27T09:00:45Z</time>
      </trkpt>
      <trkpt lat="45.87221" lon="4.7587">
        <ele>226</ele>
        <time>2018-04-27T09:00:46Z</time>
      </trkpt>
      <trkpt lat="45.8722" lon="4.7586">
        <ele>226</ele>
        <time>2018-04-27T09:00:47Z</time>
      </trkpt>
      <trkpt lat="45.87218" lon="4.75849">
        <ele>226</ele>
        <time>2018-04-27T09:00:48Z</time>
      </trkpt>
      <trkpt lat="45.87216" lon="4.75838">
        <ele>226</ele>
        <time>2018-04-27T09:00:49Z</time>
      </trkpt>
      <trkpt lat="45.87215" lon="4.75827">
        <ele>225</ele>
        <time>2018-04-27T09:00:50Z</time>
      </trkpt>
      <trkpt lat="45.87213" lon="4.75816">
        <ele>224</ele>
        <time>2018-04-27T09:00:51Z</time>
      </trkpt>
      <trkpt lat="45.8721" lon="4.75806">
        <ele>224</ele>
        <time>2018-04-27T09:00:52Z</time>
      </trkpt>
      <trkpt lat="45.87207" lon="4.75795">
        <ele>224</ele>
        <time>2018-04-27T09:00:53Z</time>
      </trkpt>
      <trkpt lat="45.87204" lon="4.75784">
        <ele>224</ele>
        <time>2018-04-27T09:00:54Z</time>
      </trkpt>
      <trkpt lat="45.87201" lon="4.75775">
        <ele>224</ele>
        <time>2018-04-27T09:00:55Z</time>
      </trkpt>
      <trkpt lat="45.87199" lon="4.75766">
        <ele>224</ele>
        <time>2018-04-27T09:00:56Z</time>
      </trkpt>
      <trkpt lat="45.87197" lon="4.75757">
        <ele>224</ele>
        <time>2018-04-27T09:00:57Z</time>
      </trkpt>
      <trkpt lat="45.87194" lon="4.75749">
        <ele>223</ele>
        <time>2018-04-27T09:00:58Z</time>
      </trkpt>
      <trkpt lat="45.87192" lon="4.7574">
        <ele>223</ele>
        <time>2018-04-27T09:00:59Z</time>
      </trkpt>
      <trkpt lat="45.87189" lon="4.75731">
        <ele>223</ele>
        <time>2018-04-27T09:01:00Z</time>
      </trkpt>
      <trkpt lat="45.87187" lon="4.75722">
        <ele>223</ele>
        <time>2018-04-27T09:01:01Z</time>
      </trkpt>
      <trkpt lat="45.87184" lon="4.75715">
        <ele>223</ele>
        <time>2018-04-27T09:01:02Z</time>
      </trkpt>
      <trkpt lat="45.87182" lon="4.75706">
        <ele>223</ele>
        <time>2018-04-27T09:01:03Z</time>
      </trkpt>
      <trkpt lat="45.87181" lon="4.75698">
        <ele>223</ele>
        <time>2018-04-27T09:01:04Z</time>
      </trkpt>
      <trkpt lat="45.87179" lon="4.75691">
        <ele>223</ele>
        <time>2018-04-27T09:01:05Z</time>
      </trkpt>
      <trkpt lat="45.87178" lon="4.75683">
        <ele>223</ele>
        <time>2018-04-27T09:01:06Z</time>
      </trkpt>
      <trkpt lat="45.87178" lon="4.75675">
        <ele>223</ele>
        <time>2018-04-27T09:01:07Z</time>
      </trkpt>
      <trkpt lat="45.87178" lon="4.75667">
        <ele>223</ele>
        <time>2018-04-27T09:01:08Z</time>
      </trkpt>
      <trkpt lat="45.87177" lon="4.75659">
        <ele>223</ele>
        <time>2018-04-27T09:01:09Z</time>
      </trkpt>
      <trkpt lat="45.87177" lon="4.75652">
        <ele>222</ele>
        <time>2018-04-27T09:01:10Z</time>
      </trkpt>
      <trkpt lat="45.87177" lon="4.75645">
        <ele>222</ele>
        <time>2018-04-27T09:01:11Z</time>
      </trkpt>
      <trkpt lat="45.87177" lon="4.75636">
        <ele>222</ele>
        <time>2018-04-27T09:01:12Z</time>
      </trkpt>
      <trkpt lat="45.87177" lon="4.75628">
        <ele>222</ele>
        <time>2018-04-27T09:01:13Z</time>
      </trkpt>
      <trkpt lat="45.87177" lon="4.7562">
        <ele>222</ele>
        <time>2018-04-27T09:01:14Z</time>
      </trkpt>
      <trkpt lat="45.87178" lon="4.75613">
        <ele>222</ele>
        <time>2018-04-27T09:01:15Z</time>
      </trkpt>
      <trkpt lat="45.87178" lon="4.75604">
        <ele>222</ele>
        <time>2018-04-27T09:01:16Z</time>
      </trkpt>
      <trkpt lat="45.87178" lon="4.75595">
        <ele>222</ele>
        <time>2018-04-27T09:01:17Z</time>
      </trkpt>
      <trkpt lat="45.87178" lon="4.75586">
        <ele>223</ele>
        <time>2018-04-27T09:01:18Z</time>
      </trkpt>
      <trkpt lat="45.87178" lon="4.75579">
        <ele>222</ele>
        <time>2018-04-27T09:01:19Z</time>
      </trkpt>
      <trkpt lat="45.87178" lon="4.7557">
        <ele>222</ele>
        <time>2018-04-27T09:01:20Z</time>
      </trkpt>
      <trkpt lat="45.87178" lon="4.75562">
        <ele>222</ele>
        <time>2018-04-27T09:01:21Z</time>
      </trkpt>
      <trkpt lat="45.87177" lon="4.75553">
        <ele>222</ele>
        <time>2018-04-27T09:01:22Z</time>
      </trkpt>
      <trkpt lat="45.87178" lon="4.75546">
        <ele>222</ele>
        <time>2018-04-27T09:01:23Z</time>
      </trkpt>
      <trkpt lat="45.87178" lon="4.75538">
        <ele>222</ele>
        <time>2018-04-27T09:01:24Z</time>
      </trkpt>
      <trkpt lat="45.87178" lon="4.7553">
        <ele>222</ele>
        <time>2018-04-27T09:01:25Z</time>
      </trkpt>
      <trkpt lat="45.87178" lon="4.75523">
        <ele>222</ele>
        <time>2018-04-27T09:01:26Z</time>
      </trkpt>
      <trkpt lat="45.87179" lon="4.75514">
        <ele>222</ele>
        <time>2018-04-27T09:01:27Z</time>
      </trkpt>
      <trkpt lat="45.87178" lon="4.75505">
        <ele>223</ele>
        <time>2018-04-27T09:01:28Z</time>
      </trkpt>
      <trkpt lat="45.87176" lon="4.75495">
        <ele>223</ele>
        <time>2018-04-27T09:01:29Z</time>
      </trkpt>
      <trkpt lat="45.87174" lon="4.75488">
        <ele>223</ele>
        <time>2018-04-27T09:01:30Z</time>
      </trkpt>
      <trkpt lat="45.87175" lon="4.75478">
        <ele>222</ele>
        <time>2018-04-27T09:01:31Z</time>
      </trkpt>
      <trkpt lat="45.87175" lon="4.75468">
        <ele>222</ele>
        <time>2018-04-27T09:01:32Z</time>
      </trkpt>
      <trkpt lat="45.87175" lon="4.75458">
        <ele>222</ele>
        <time>2018-04-27T09:01:33Z</time>
      </trkpt>
      <trkpt lat="45.87175" lon="4.7545">
        <ele>222</ele>
        <time>2018-04-27T09:01:34Z</time>
      </trkpt>
      <trkpt lat="45.87175" lon="4.75441">
        <ele>222</ele>
        <time>2018-04-27T09:01:35Z</time>
      </trkpt>
      <trkpt lat="45.87174" lon="4.75433">
        <ele>223</ele>
        <time>2018-04-27T09:01:36Z</time>
      </trkpt>
      <trkpt lat="45.87174" lon="4.75427">
        <ele>223</ele>
        <time>2018-04-27T09:01:37Z</time>
      </trkpt>
      <trkpt lat="45.87173" lon="4.7542">
        <ele>223</ele>
        <time>2018-04-27T09:01:38Z</time>
      </trkpt>
      <trkpt lat="45.87173" lon="4.75412">
        <ele>223</ele>
        <time>2018-04-27T09:01:39Z</time>
      </trkpt>
      <trkpt lat="45.87173" lon="4.75405">
        <ele>223</ele>
        <time>2018-04-27T09:01:40Z</time>
      </trkpt>
      <trkpt lat="45.87173" lon="4.75398">
        <ele>223</ele>
        <time>2018-04-27T09:01:41Z</time>
      </trkpt>
      <trkpt lat="45.87173" lon="4.75391">
        <ele>223</ele>
        <time>2018-04-27T09:01:42Z</time>
      </trkpt>
      <trkpt lat="45.87175" lon="4.75385">
        <ele>223</ele>
        <time>2018-04-27T09:01:43Z</time>
      </trkpt>
      <trkpt lat="45.87176" lon="4.75377">
        <ele>223</ele>
        <time>2018-04-27T09:01:44Z</time>
      </trkpt>
      <trkpt lat="45.87176" lon="4.7537">
        <ele>223</ele>
        <time>2018-04-27T09:01:45Z</time>
      </trkpt>
      <trkpt lat="45.87175" lon="4.75363">
        <ele>223</ele>
        <time>2018-04-27T09:01:46Z</time>
      </trkpt>
      <trkpt lat="45.87174" lon="4.7535">
        <ele>223</ele>
        <time>2018-04-27T09:01:48Z</time>
      </trkpt>
      <trkpt lat="45.87173" lon="4.75343">
        <ele>223</ele>
        <time>2018-04-27T09:01:49Z</time>
      </trkpt>
      <trkpt lat="45.87173" lon="4.75335">
        <ele>224</ele>
        <time>2018-04-27T09:01:50Z</time>
      </trkpt>
      <trkpt lat="45.87173" lon="4.75327">
        <ele>224</ele>
        <time>2018-04-27T09:01:51Z</time>
      </trkpt>
      <trkpt lat="45.87173" lon="4.7532">
        <ele>223</ele>
        <time>2018-04-27T09:01:52Z</time>
      </trkpt>
      <trkpt lat="45.87172" lon="4.75314">
        <ele>223</ele>
        <time>2018-04-27T09:01:53Z</time>
      </trkpt>
      <trkpt lat="45.87172" lon="4.75306">
        <ele>223</ele>
        <time>2018-04-27T09:01:54Z</time>
      </trkpt>
      <trkpt lat="45.8717" lon="4.753">
        <ele>223</ele>
        <time>2018-04-27T09:01:55Z</time>
      </trkpt>
      <trkpt lat="45.87168" lon="4.75291">
        <ele>223</ele>
        <time>2018-04-27T09:01:56Z</time>
      </trkpt>
      <trkpt lat="45.87167" lon="4.75284">
        <ele>223</ele>
        <time>2018-04-27T09:01:57Z</time>
      </trkpt>
      <trkpt lat="45.87166" lon="4.75278">
        <ele>224</ele>
        <time>2018-04-27T09:01:58Z</time>
      </trkpt>
      <trkpt lat="45.87166" lon="4.75271">
        <ele>224</ele>
        <time>2018-04-27T09:01:59Z</time>
      </trkpt>
      <trkpt lat="45.87164" lon="4.75263">
        <ele>224</ele>
        <time>2018-04-27T09:02:00Z</time>
      </trkpt>
      <trkpt lat="45.87162" lon="4.75255">
        <ele>223</ele>
        <time>2018-04-27T09:02:01Z</time>
      </trkpt>
      <trkpt lat="45.87162" lon="4.75248">
        <ele>223</ele>
        <time>2018-04-27T09:02:02Z</time>
      </trkpt>
      <trkpt lat="45.87161" lon="4.75241">
        <ele>224</ele>
        <time>2018-04-27T09:02:03Z</time>
      </trkpt>
      <trkpt lat="45.87159" lon="4.75235">
        <ele>224</ele>
        <time>2018-04-27T09:02:04Z</time>
      </trkpt>
      <trkpt lat="45.87158" lon="4.75227">
        <ele>224</ele>
        <time>2018-04-27T09:02:05Z</time>
      </trkpt>
      <trkpt lat="45.87156" lon="4.75218">
        <ele>225</ele>
        <time>2018-04-27T09:02:06Z</time>
      </trkpt>
      <trkpt lat="45.87156" lon="4.75211">
        <ele>225</ele>
        <time>2018-04-27T09:02:07Z</time>
      </trkpt>
      <trkpt lat="45.87153" lon="4.75202">
        <ele>225</ele>
        <time>2018-04-27T09:02:08Z</time>
      </trkpt>
      <trkpt lat="45.87152" lon="4.75197">
        <ele>225</ele>
        <time>2018-04-27T09:02:09Z</time>
      </trkpt>
      <trkpt lat="45.8715" lon="4.75188">
        <ele>225</ele>
        <time>2018-04-27T09:02:10Z</time>
      </trkpt>
      <trkpt lat="45.87148" lon="4.75181">
        <ele>225</ele>
        <time>2018-04-27T09:02:11Z</time>
      </trkpt>
      <trkpt lat="45.87147" lon="4.75169">
        <ele>225</ele>
        <time>2018-04-27T09:02:13Z</time>
      </trkpt>
      <trkpt lat="45.87146" lon="4.75163">
        <ele>225</ele>
        <time>2018-04-27T09:02:14Z</time>
      </trkpt>
      <trkpt lat="45.87146" lon="4.75156">
        <ele>225</ele>
        <time>2018-04-27T09:02:15Z</time>
      </trkpt>
      <trkpt lat="45.87146" lon="4.75149">
        <ele>225</ele>
        <time>2018-04-27T09:02:16Z</time>
      </trkpt>
      <trkpt lat="45.87144" lon="4.75142">
        <ele>225</ele>
        <time>2018-04-27T09:02:17Z</time>
      </trkpt>
      <trkpt lat="45.87143" lon="4.75135">
        <ele>225</ele>
        <time>2018-04-27T09:02:18Z</time>
      </trkpt>
      <trkpt lat="45.87142" lon="4.75128">
        <ele>225</ele>
        <time>2018-04-27T09:02:19Z</time>
      </trkpt>
      <trkpt lat="45.87141" lon="4.75121">
        <ele>225</ele>
        <time>2018-04-27T09:02:20Z</time>
      </trkpt>
      <trkpt lat="45.87139" lon="4.75115">
        <ele>225</ele>
        <time>2018-04-27T09:02:21Z</time>
      </trkpt>
      <trkpt lat="45.87138" lon="4.75107">
        <ele>225</ele>
        <time>2018-04-27T09:02:22Z</time>
      </trkpt>
      <trkpt lat="45.87136" lon="4.75099">
        <ele>225</ele>
        <time>2018-04-27T09:02:23Z</time>
      </trkpt>
      <trkpt lat="45.87135" lon="4.75092">
        <ele>225</ele>
        <time>2018-04-27T09:02:24Z</time>
      </trkpt>
      <trkpt lat="45.87134" lon="4.75084">
        <ele>225</ele>
        <time>2018-04-27T09:02:25Z</time>
      </trkpt>
      <trkpt lat="45.87132" lon="4.75077">
        <ele>225</ele>
        <time>2018-04-27T09:02:26Z</time>
      </trkpt>
      <trkpt lat="45.87131" lon="4.7507">
        <ele>225</ele>
        <time>2018-04-27T09:02:27Z</time>
      </trkpt>
      <trkpt lat="45.8713" lon="4.75062">
        <ele>225</ele>
        <time>2018-04-27T09:02:28Z</time>
      </trkpt>
      <trkpt lat="45.87129" lon="4.75055">
        <ele>225</ele>
        <time>2018-04-27T09:02:29Z</time>
      </trkpt>
      <trkpt lat="45.87129" lon="4.75046">
        <ele>225</ele>
        <time>2018-04-27T09:02:30Z</time>
      </trkpt>
      <trkpt lat="45.87127" lon="4.75039">
        <ele>225</ele>
        <time>2018-04-27T09:02:31Z</time>
      </trkpt>
      <trkpt lat="45.87127" lon="4.75032">
        <ele>226</ele>
        <time>2018-04-27T09:02:32Z</time>
      </trkpt>
      <trkpt lat="45.87126" lon="4.75027">
        <ele>226</ele>
        <time>2018-04-27T09:02:33Z</time>
      </trkpt>
      <trkpt lat="45.87126" lon="4.75018">
        <ele>226</ele>
        <time>2018-04-27T09:02:34Z</time>
      </trkpt>
      <trkpt lat="45.87126" lon="4.75009">
        <ele>226</ele>
        <time>2018-04-27T09:02:35Z</time>
      </trkpt>
      <trkpt lat="45.87126" lon="4.75001">
        <ele>226</ele>
        <time>2018-04-27T09:02:36Z</time>
      </trkpt>
      <trkpt lat="45.87127" lon="4.74992">
        <ele>226</ele>
        <time>2018-04-27T09:02:37Z</time>
      </trkpt>
      <trkpt lat="45.87127" lon="4.74983">
        <ele>226</ele>
        <time>2018-04-27T09:02:38Z</time>
      </trkpt>
      <trkpt lat="45.87128" lon="4.74976">
        <ele>226</ele>
        <time>2018-04-27T09:02:39Z</time>
      </trkpt>
      <trkpt lat="45.8713" lon="4.74968">
        <ele>226</ele>
        <time>2018-04-27T09:02:40Z</time>
      </trkpt>
      <trkpt lat="45.87131" lon="4.7496">
        <ele>226</ele>
        <time>2018-04-27T09:02:41Z</time>
      </trkpt>
      <trkpt lat="45.87132" lon="4.74953">
        <ele>226</ele>
        <time>2018-04-27T09:02:42Z</time>
      </trkpt>
      <trkpt lat="45.87135" lon="4.74945">
        <ele>226</ele>
        <time>2018-04-27T09:02:43Z</time>
      </trkpt>
      <trkpt lat="45.87139" lon="4.74938">
        <ele>226</ele>
        <time>2018-04-27T09:02:44Z</time>
      </trkpt>
      <trkpt lat="45.8714" lon="4.74927">
        <ele>226</ele>
        <time>2018-04-27T09:02:45Z</time>
      </trkpt>
      <trkpt lat="45.8714" lon="4.74919">
        <ele>226</ele>
        <time>2018-04-27T09:02:46Z</time>
      </trkpt>
      <trkpt lat="45.87138" lon="4.74908">
        <ele>225</ele>
        <time>2018-04-27T09:02:47Z</time>
      </trkpt>
      <trkpt lat="45.87135" lon="4.749">
        <ele>225</ele>
        <time>2018-04-27T09:02:48Z</time>
      </trkpt>
      <trkpt lat="45.87133" lon="4.74891">
        <ele>225</ele>
        <time>2018-04-27T09:02:49Z</time>
      </trkpt>
      <trkpt lat="45.87132" lon="4.74883">
        <ele>225</ele>
        <time>2018-04-27T09:02:50Z</time>
      </trkpt>
      <trkpt lat="45.87133" lon="4.74875">
        <ele>225</ele>
        <time>2018-04-27T09:02:51Z</time>
      </trkpt>
      <trkpt lat="45.87133" lon="4.74865">
        <ele>225</ele>
        <time>2018-04-27T09:02:52Z</time>
      </trkpt>
      <trkpt lat="45.87132" lon="4.74856">
        <ele>224</ele>
        <time>2018-04-27T09:02:53Z</time>
      </trkpt>
      <trkpt lat="45.8713" lon="4.74845">
        <ele>224</ele>
        <time>2018-04-27T09:02:54Z</time>
      </trkpt>
      <trkpt lat="45.87129" lon="4.74836">
        <ele>224</ele>
        <time>2018-04-27T09:02:55Z</time>
      </trkpt>
      <trkpt lat="45.87129" lon="4.74827">
        <ele>223</ele>
        <time>2018-04-27T09:02:56Z</time>
      </trkpt>
      <trkpt lat="45.87129" lon="4.74816">
        <ele>223</ele>
        <time>2018-04-27T09:02:57Z</time>
      </trkpt>
      <trkpt lat="45.8713" lon="4.74807">
        <ele>222</ele>
        <time>2018-04-27T09:02:58Z</time>
      </trkpt>
      <trkpt lat="45.8713" lon="4.74798">
        <ele>222</ele>
        <time>2018-04-27T09:02:59Z</time>
      </trkpt>
      <trkpt lat="45.87129" lon="4.74787">
        <ele>222</ele>
        <time>2018-04-27T09:03:00Z</time>
      </trkpt>
      <trkpt lat="45.87128" lon="4.74777">
        <ele>222</ele>
        <time>2018-04-27T09:03:01Z</time>
      </trkpt>
      <trkpt lat="45.87129" lon="4.74768">
        <ele>222</ele>
        <time>2018-04-27T09:03:02Z</time>
      </trkpt>
      <trkpt lat="45.87127" lon="4.74757">
        <ele>222</ele>
        <time>2018-04-27T09:03:03Z</time>
      </trkpt>
      <trkpt lat="45.87126" lon="4.74747">
        <ele>221</ele>
        <time>2018-04-27T09:03:04Z</time>
      </trkpt>
      <trkpt lat="45.87124" lon="4.74737">
        <ele>221</ele>
        <time>2018-04-27T09:03:05Z</time>
      </trkpt>
      <trkpt lat="45.87122" lon="4.74727">
        <ele>221</ele>
        <time>2018-04-27T09:03:06Z</time>
      </trkpt>
      <trkpt lat="45.87123" lon="4.74719">
        <ele>221</ele>
        <time>2018-04-27T09:03:07Z</time>
      </trkpt>
      <trkpt lat="45.87123" lon="4.7471">
        <ele>221</ele>
        <time>2018-04-27T09:03:08Z</time>
      </trkpt>
      <trkpt lat="45.87122" lon="4.747">
        <ele>221</ele>
        <time>2018-04-27T09:03:09Z</time>
      </trkpt>
      <trkpt lat="45.87121" lon="4.7469">
        <ele>221</ele>
        <time>2018-04-27T09:03:10Z</time>
      </trkpt>
      <trkpt lat="45.8712" lon="4.74681">
        <ele>221</ele>
        <time>2018-04-27T09:03:11Z</time>
      </trkpt>
      <trkpt lat="45.8712" lon="4.74672">
        <ele>221</ele>
        <time>2018-04-27T09:03:12Z</time>
      </trkpt>
      <trkpt lat="45.87119" lon="4.74662">
        <ele>222</ele>
        <time>2018-04-27T09:03:13Z</time>
      </trkpt>
      <trkpt lat="45.87119" lon="4.74654">
        <ele>222</ele>
        <time>2018-04-27T09:03:14Z</time>
      </trkpt>
      <trkpt lat="45.8712" lon="4.74644">
        <ele>222</ele>
        <time>2018-04-27T09:03:15Z</time>
      </trkpt>
      <trkpt lat="45.8712" lon="4.74635">
        <ele>222</ele>
        <time>2018-04-27T09:03:16Z</time>
      </trkpt>
      <trkpt lat="45.87119" lon="4.74627">
        <ele>222</ele>
        <time>2018-04-27T09:03:17Z</time>
      </trkpt>
      <trkpt lat="45.87119" lon="4.74618">
        <ele>222</ele>
        <time>2018-04-27T09:03:18Z</time>
      </trkpt>
      <trkpt lat="45.87117" lon="4.74609">
        <ele>222</ele>
        <time>2018-04-27T09:03:19Z</time>
      </trkpt>
      <trkpt lat="45.87117" lon="4.74601">
        <ele>222</ele>
        <time>2018-04-27T09:03:20Z</time>
      </trkpt>
      <trkpt lat="45.87116" lon="4.74592">
        <ele>222</ele>
        <time>2018-04-27T09:03:21Z</time>
      </trkpt>
      <trkpt lat="45.87114" lon="4.74583">
        <ele>221</ele>
        <time>2018-04-27T09:03:22Z</time>
      </trkpt>
      <trkpt lat="45.87111" lon="4.74573">
        <ele>221</ele>
        <time>2018-04-27T09:03:23Z</time>
      </trkpt>
      <trkpt lat="45.87109" lon="4.74565">
        <ele>220</ele>
        <time>2018-04-27T09:03:24Z</time>
      </trkpt>
      <trkpt lat="45.87107" lon="4.74559">
        <ele>220</ele>
        <time>2018-04-27T09:03:25Z</time>
      </trkpt>
      <trkpt lat="45.87105" lon="4.74553">
        <ele>220</ele>
        <time>2018-04-27T09:03:26Z</time>
      </trkpt>
      <trkpt lat="45.87103" lon="4.74544">
        <ele>220</ele>
        <time>2018-04-27T09:03:29Z</time>
      </trkpt>
      <trkpt lat="45.87104" lon="4.74536">
        <ele>220</ele>
        <time>2018-04-27T09:03:30Z</time>
      </trkpt>
      <trkpt lat="45.87109" lon="4.74526">
        <ele>220</ele>
        <time>2018-04-27T09:03:32Z</time>
      </trkpt>
      <trkpt lat="45.87111" lon="4.7452">
        <ele>219</ele>
        <time>2018-04-27T09:03:33Z</time>
      </trkpt>
      <trkpt lat="45.87114" lon="4.74512">
        <ele>219</ele>
        <time>2018-04-27T09:03:34Z</time>
      </trkpt>
      <trkpt lat="45.87115" lon="4.74506">
        <ele>219</ele>
        <time>2018-04-27T09:03:35Z</time>
      </trkpt>
      <trkpt lat="45.87114" lon="4.74498">
        <ele>218</ele>
        <time>2018-04-27T09:03:36Z</time>
      </trkpt>
      <trkpt lat="45.87114" lon="4.74491">
        <ele>218</ele>
        <time>2018-04-27T09:03:37Z</time>
      </trkpt>
      <trkpt lat="45.87112" lon="4.74484">
        <ele>218</ele>
        <time>2018-04-27T09:03:38Z</time>
      </trkpt>
      <trkpt lat="45.8711" lon="4.74476">
        <ele>218</ele>
        <time>2018-04-27T09:03:39Z</time>
      </trkpt>
      <trkpt lat="45.87108" lon="4.74468">
        <ele>218</ele>
        <time>2018-04-27T09:03:40Z</time>
      </trkpt>
      <trkpt lat="45.87106" lon="4.74459">
        <ele>218</ele>
        <time>2018-04-27T09:03:41Z</time>
      </trkpt>
      <trkpt lat="45.87106" lon="4.7445">
        <ele>218</ele>
        <time>2018-04-27T09:03:42Z</time>
      </trkpt>
      <trkpt lat="45.87104" lon="4.74441">
        <ele>218</ele>
        <time>2018-04-27T09:03:43Z</time>
      </trkpt>
      <trkpt lat="45.87102" lon="4.74431">
        <ele>218</ele>
        <time>2018-04-27T09:03:44Z</time>
      </trkpt>
      <trkpt lat="45.87101" lon="4.74422">
        <ele>218</ele>
        <time>2018-04-27T09:03:45Z</time>
      </trkpt>
      <trkpt lat="45.87098" lon="4.74413">
        <ele>218</ele>
        <time>2018-04-27T09:03:46Z</time>
      </trkpt>
      <trkpt lat="45.87096" lon="4.74405">
        <ele>218</ele>
        <time>2018-04-27T09:03:47Z</time>
      </trkpt>
      <trkpt lat="45.87094" lon="4.74397">
        <ele>218</ele>
        <time>2018-04-27T09:03:48Z</time>
      </trkpt>
      <trkpt lat="45.87093" lon="4.74388">
        <ele>218</ele>
        <time>2018-04-27T09:03:49Z</time>
      </trkpt>
      <trkpt lat="45.8709" lon="4.7438">
        <ele>218</ele>
        <time>2018-04-27T09:03:50Z</time>
      </trkpt>
      <trkpt lat="45.87089" lon="4.74373">
        <ele>218</ele>
        <time>2018-04-27T09:03:51Z</time>
      </trkpt>
      <trkpt lat="45.87087" lon="4.74366">
        <ele>218</ele>
        <time>2018-04-27T09:03:52Z</time>
      </trkpt>
      <trkpt lat="45.87086" lon="4.74358">
        <ele>218</ele>
        <time>2018-04-27T09:03:53Z</time>
      </trkpt>
      <trkpt lat="45.87084" lon="4.7435">
        <ele>218</ele>
        <time>2018-04-27T09:03:54Z</time>
      </trkpt>
      <trkpt lat="45.87082" lon="4.74342">
        <ele>219</ele>
        <time>2018-04-27T09:03:55Z</time>
      </trkpt>
      <trkpt lat="45.87081" lon="4.74333">
        <ele>219</ele>
        <time>2018-04-27T09:03:56Z</time>
      </trkpt>
      <trkpt lat="45.87079" lon="4.74325">
        <ele>219</ele>
        <time>2018-04-27T09:03:57Z</time>
      </trkpt>
      <trkpt lat="45.87077" lon="4.74316">
        <ele>218</ele>
        <time>2018-04-27T09:03:58Z</time>
      </trkpt>
      <trkpt lat="45.87076" lon="4.74308">
        <ele>218</ele>
        <time>2018-04-27T09:03:59Z</time>
      </trkpt>
      <trkpt lat="45.87078" lon="4.74299">
        <ele>218</ele>
        <time>2018-04-27T09:04:00Z</time>
      </trkpt>
      <trkpt lat="45.87078" lon="4.74291">
        <ele>217</ele>
        <time>2018-04-27T09:04:01Z</time>
      </trkpt>
      <trkpt lat="45.87078" lon="4.74281">
        <ele>217</ele>
        <time>2018-04-27T09:04:02Z</time>
      </trkpt>
      <trkpt lat="45.87077" lon="4.74273">
        <ele>216</ele>
        <time>2018-04-27T09:04:03Z</time>
      </trkpt>
      <trkpt lat="45.87076" lon="4.74263">
        <ele>216</ele>
        <time>2018-04-27T09:04:04Z</time>
      </trkpt>
      <trkpt lat="45.87075" lon="4.74254">
        <ele>215</ele>
        <time>2018-04-27T09:04:05Z</time>
      </trkpt>
      <trkpt lat="45.87075" lon="4.74244">
        <ele>214</ele>
        <time>2018-04-27T09:04:06Z</time>
      </trkpt>
      <trkpt lat="45.87075" lon="4.74235">
        <ele>214</ele>
        <time>2018-04-27T09:04:07Z</time>
      </trkpt>
      <trkpt lat="45.87075" lon="4.74225">
        <ele>214</ele>
        <time>2018-04-27T09:04:08Z</time>
      </trkpt>
      <trkpt lat="45.87075" lon="4.74216">
        <ele>214</ele>
        <time>2018-04-27T09:04:09Z</time>
      </trkpt>
      <trkpt lat="45.87074" lon="4.74204">
        <ele>213</ele>
        <time>2018-04-27T09:04:10Z</time>
      </trkpt>
      <trkpt lat="45.87074" lon="4.74194">
        <ele>213</ele>
        <time>2018-04-27T09:04:11Z</time>
      </trkpt>
      <trkpt lat="45.87075" lon="4.74185">
        <ele>213</ele>
        <time>2018-04-27T09:04:12Z</time>
      </trkpt>
      <trkpt lat="45.87074" lon="4.74176">
        <ele>212</ele>
        <time>2018-04-27T09:04:13Z</time>
      </trkpt>
      <trkpt lat="45.87074" lon="4.74166">
        <ele>211</ele>
        <time>2018-04-27T09:04:14Z</time>
      </trkpt>
      <trkpt lat="45.87074" lon="4.74157">
        <ele>212</ele>
        <time>2018-04-27T09:04:15Z</time>
      </trkpt>
      <trkpt lat="45.87074" lon="4.74149">
        <ele>212</ele>
        <time>2018-04-27T09:04:16Z</time>
      </trkpt>
      <trkpt lat="45.87075" lon="4.74141">
        <ele>212</ele>
        <time>2018-04-27T09:04:17Z</time>
      </trkpt>
      <trkpt lat="45.87076" lon="4.74133">
        <ele>212</ele>
        <time>2018-04-27T09:04:18Z</time>
      </trkpt>
      <trkpt lat="45.87076" lon="4.74125">
        <ele>212</ele>
        <time>2018-04-27T09:04:19Z</time>
      </trkpt>
      <trkpt lat="45.87076" lon="4.74117">
        <ele>212</ele>
        <time>2018-04-27T09:04:20Z</time>
      </trkpt>
      <trkpt lat="45.87074" lon="4.74108">
        <ele>212</ele>
        <time>2018-04-27T09:04:21Z</time>
      </trkpt>
      <trkpt lat="45.87075" lon="4.74101">
        <ele>212</ele>
        <time>2018-04-27T09:04:22Z</time>
      </trkpt>
      <trkpt lat="45.87075" lon="4.74092">
        <ele>212</ele>
        <time>2018-04-27T09:04:23Z</time>
      </trkpt>
      <trkpt lat="45.87075" lon="4.74084">
        <ele>212</ele>
        <time>2018-04-27T09:04:24Z</time>
      </trkpt>
      <trkpt lat="45.87075" lon="4.74076">
        <ele>213</ele>
        <time>2018-04-27T09:04:25Z</time>
      </trkpt>
      <trkpt lat="45.87075" lon="4.74067">
        <ele>214</ele>
        <time>2018-04-27T09:04:26Z</time>
      </trkpt>
      <trkpt lat="45.87076" lon="4.74059">
        <ele>214</ele>
        <time>2018-04-27T09:04:27Z</time>
      </trkpt>
      <trkpt lat="45.87074" lon="4.74048">
        <ele>214</ele>
        <time>2018-04-27T09:04:28Z</time>
      </trkpt>
      <trkpt lat="45.87073" lon="4.74041">
        <ele>215</ele>
        <time>2018-04-27T09:04:29Z</time>
      </trkpt>
      <trkpt lat="45.87073" lon="4.74033">
        <ele>215</ele>
        <time>2018-04-27T09:04:30Z</time>
      </trkpt>
      <trkpt lat="45.87073" lon="4.74025">
        <ele>215</ele>
        <time>2018-04-27T09:04:31Z</time>
      </trkpt>
      <trkpt lat="45.87073" lon="4.74018">
        <ele>215</ele>
        <time>2018-04-27T09:04:32Z</time>
      </trkpt>
      <trkpt lat="45.87073" lon="4.7401">
        <ele>216</ele>
        <time>2018-04-27T09:04:33Z</time>
      </trkpt>
      <trkpt lat="45.87074" lon="4.74002">
        <ele>216</ele>
        <time>2018-04-27T09:04:34Z</time>
      </trkpt>
      <trkpt lat="45.87074" lon="4.73994">
        <ele>217</ele>
        <time>2018-04-27T09:04:35Z</time>
      </trkpt>
      <trkpt lat="45.87075" lon="4.73982">
        <ele>217</ele>
        <time>2018-04-27T09:04:37Z</time>
      </trkpt>
      <trkpt lat="45.87075" lon="4.73976">
        <ele>217</ele>
        <time>2018-04-27T09:04:38Z</time>
      </trkpt>
      <trkpt lat="45.87075" lon="4.73968">
        <ele>217</ele>
        <time>2018-04-27T09:04:39Z</time>
      </trkpt>
      <trkpt lat="45.87074" lon="4.73961">
        <ele>217</ele>
        <time>2018-04-27T09:04:40Z</time>
      </trkpt>
      <trkpt lat="45.87074" lon="4.73954">
        <ele>218</ele>
        <time>2018-04-27T09:04:41Z</time>
      </trkpt>
      <trkpt lat="45.87075" lon="4.73948">
        <ele>218</ele>
        <time>2018-04-27T09:04:42Z</time>
      </trkpt>
      <trkpt lat="45.87075" lon="4.7394">
        <ele>218</ele>
        <time>2018-04-27T09:04:43Z</time>
      </trkpt>
      <trkpt lat="45.87075" lon="4.73931">
        <ele>218</ele>
        <time>2018-04-27T09:04:44Z</time>
      </trkpt>
      <trkpt lat="45.87074" lon="4.73922">
        <ele>218</ele>
        <time>2018-04-27T09:04:45Z</time>
      </trkpt>
      <trkpt lat="45.87074" lon="4.73914">
        <ele>218</ele>
        <time>2018-04-27T09:04:46Z</time>
      </trkpt>
      <trkpt lat="45.87074" lon="4.73906">
        <ele>218</ele>
        <time>2018-04-27T09:04:47Z</time>
      </trkpt>
      <trkpt lat="45.87074" lon="4.73896">
        <ele>218</ele>
        <time>2018-04-27T09:04:48Z</time>
      </trkpt>
      <trkpt lat="45.87074" lon="4.73887">
        <ele>218</ele>
        <time>2018-04-27T09:04:49Z</time>
      </trkpt>
      <trkpt lat="45.87074" lon="4.73878">
        <ele>218</ele>
        <time>2018-04-27T09:04:50Z</time>
      </trkpt>
      <trkpt lat="45.87074" lon="4.7387">
        <ele>218</ele>
        <time>2018-04-27T09:04:51Z</time>
      </trkpt>
      <trkpt lat="45.87074" lon="4.7386">
        <ele>218</ele>
        <time>2018-04-27T09:04:52Z</time>
      </trkpt>
      <trkpt lat="45.87075" lon="4.73851">
        <ele>218</ele>
        <time>2018-04-27T09:04:53Z</time>
      </trkpt>
      <trkpt lat="45.87075" lon="4.73842">
        <ele>217</ele>
        <time>2018-04-27T09:04:54Z</time>
      </trkpt>
      <trkpt lat="45.87075" lon="4.73832">
        <ele>217</ele>
        <time>2018-04-27T09:04:55Z</time>
      </trkpt>
      <trkpt lat="45.87075" lon="4.73823">
        <ele>217</ele>
        <time>2018-04-27T09:04:56Z</time>
      </trkpt>
      <trkpt lat="45.87074" lon="4.73813">
        <ele>217</ele>
        <time>2018-04-27T09:04:57Z</time>
      </trkpt>
      <trkpt lat="45.87074" lon="4.73804">
        <ele>217</ele>
        <time>2018-04-27T09:04:58Z</time>
      </trkpt>
      <trkpt lat="45.87074" lon="4.73794">
        <ele>217</ele>
        <time>2018-04-27T09:04:59Z</time>
      </trkpt>
      <trkpt lat="45.87074" lon="4.73785">
        <ele>217</ele>
        <time>2018-04-27T09:05:00Z</time>
      </trkpt>
      <trkpt lat="45.87075" lon="4.73775">
        <ele>217</ele>
        <time>2018-04-27T09:05:01Z</time>
      </trkpt>
      <trkpt lat="45.87076" lon="4.73766">
        <ele>216</ele>
        <time>2018-04-27T09:05:02Z</time>
      </trkpt>
      <trkpt lat="45.87075" lon="4.73755">
        <ele>216</ele>
        <time>2018-04-27T09:05:03Z</time>
      </trkpt>
      <trkpt lat="45.87076" lon="4.73746">
        <ele>216</ele>
        <time>2018-04-27T09:05:04Z</time>
      </trkpt>
      <trkpt lat="45.87077" lon="4.73736">
        <ele>216</ele>
        <time>2018-04-27T09:05:05Z</time>
      </trkpt>
      <trkpt lat="45.87078" lon="4.73727">
        <ele>216</ele>
        <time>2018-04-27T09:05:06Z</time>
      </trkpt>
      <trkpt lat="45.87079" lon="4.73718">
        <ele>217</ele>
        <time>2018-04-27T09:05:07Z</time>
      </trkpt>
      <trkpt lat="45.8708" lon="4.73706">
        <ele>217</ele>
        <time>2018-04-27T09:05:08Z</time>
      </trkpt>
      <trkpt lat="45.87082" lon="4.73696">
        <ele>217</ele>
        <time>2018-04-27T09:05:09Z</time>
      </trkpt>
      <trkpt lat="45.87083" lon="4.73688">
        <ele>217</ele>
        <time>2018-04-27T09:05:10Z</time>
      </trkpt>
      <trkpt lat="45.87084" lon="4.73678">
        <ele>215</ele>
        <time>2018-04-27T09:05:11Z</time>
      </trkpt>
      <trkpt lat="45.87085" lon="4.73668">
        <ele>216</ele>
        <time>2018-04-27T09:05:12Z</time>
      </trkpt>
      <trkpt lat="45.87086" lon="4.73658">
        <ele>215</ele>
        <time>2018-04-27T09:05:13Z</time>
      </trkpt>
      <trkpt lat="45.87086" lon="4.73648">
        <ele>214</ele>
        <time>2018-04-27T09:05:14Z</time>
      </trkpt>
      <trkpt lat="45.87088" lon="4.73638">
        <ele>214</ele>
        <time>2018-04-27T09:05:15Z</time>
      </trkpt>
      <trkpt lat="45.8709" lon="4.73629">
        <ele>214</ele>
        <time>2018-04-27T09:05:16Z</time>
      </trkpt>
      <trkpt lat="45.8709" lon="4.7362">
        <ele>214</ele>
        <time>2018-04-27T09:05:17Z</time>
      </trkpt>
      <trkpt lat="45.87091" lon="4.73611">
        <ele>214</ele>
        <time>2018-04-27T09:05:18Z</time>
      </trkpt>
      <trkpt lat="45.87092" lon="4.736">
        <ele>214</ele>
        <time>2018-04-27T09:05:19Z</time>
      </trkpt>
      <trkpt lat="45.87094" lon="4.73589">
        <ele>214</ele>
        <time>2018-04-27T09:05:20Z</time>
      </trkpt>
      <trkpt lat="45.87096" lon="4.7358">
        <ele>214</ele>
        <time>2018-04-27T09:05:21Z</time>
      </trkpt>
      <trkpt lat="45.87097" lon="4.73571">
        <ele>213</ele>
        <time>2018-04-27T09:05:22Z</time>
      </trkpt>
      <trkpt lat="45.87098" lon="4.73562">
        <ele>213</ele>
        <time>2018-04-27T09:05:23Z</time>
      </trkpt>
      <trkpt lat="45.871" lon="4.73552">
        <ele>213</ele>
        <time>2018-04-27T09:05:24Z</time>
      </trkpt>
      <trkpt lat="45.87101" lon="4.73542">
        <ele>213</ele>
        <time>2018-04-27T09:05:25Z</time>
      </trkpt>
      <trkpt lat="45.87102" lon="4.73533">
        <ele>213</ele>
        <time>2018-04-27T09:05:26Z</time>
      </trkpt>
      <trkpt lat="45.87103" lon="4.73523">
        <ele>213</ele>
        <time>2018-04-27T09:05:27Z</time>
      </trkpt>
      <trkpt lat="45.87104" lon="4.73514">
        <ele>213</ele>
        <time>2018-04-27T09:05:28Z</time>
      </trkpt>
      <trkpt lat="45.87104" lon="4.73504">
        <ele>213</ele>
        <time>2018-04-27T09:05:29Z</time>
      </trkpt>
      <trkpt lat="45.87105" lon="4.73495">
        <ele>212</ele>
        <time>2018-04-27T09:05:30Z</time>
      </trkpt>
      <trkpt lat="45.87103" lon="4.73484">
        <ele>212</ele>
        <time>2018-04-27T09:05:31Z</time>
      </trkpt>
      <trkpt lat="45.87104" lon="4.73475">
        <ele>212</ele>
        <time>2018-04-27T09:05:32Z</time>
      </trkpt>
      <trkpt lat="45.87104" lon="4.73463">
        <ele>212</ele>
        <time>2018-04-27T09:05:33Z</time>
      </trkpt>
      <trkpt lat="45.87104" lon="4.73455">
        <ele>212</ele>
        <time>2018-04-27T09:05:34Z</time>
      </trkpt>
      <trkpt lat="45.87105" lon="4.73444">
        <ele>212</ele>
        <time>2018-04-27T09:05:35Z</time>
      </trkpt>
      <trkpt lat="45.87105" lon="4.73434">
        <ele>212</ele>
        <time>2018-04-27T09:05:36Z</time>
      </trkpt>
      <trkpt lat="45.87107" lon="4.73424">
        <ele>212</ele>
        <time>2018-04-27T09:05:37Z</time>
      </trkpt>
      <trkpt lat="45.87108" lon="4.73415">
        <ele>212</ele>
        <time>2018-04-27T09:05:38Z</time>
      </trkpt>
      <trkpt lat="45.87109" lon="4.73404">
        <ele>211</ele>
        <time>2018-04-27T09:05:39Z</time>
      </trkpt>
      <trkpt lat="45.87109" lon="4.73394">
        <ele>211</ele>
        <time>2018-04-27T09:05:40Z</time>
      </trkpt>
      <trkpt lat="45.8711" lon="4.73385">
        <ele>211</ele>
        <time>2018-04-27T09:05:41Z</time>
      </trkpt>
      <trkpt lat="45.8711" lon="4.73374">
        <ele>211</ele>
        <time>2018-04-27T09:05:42Z</time>
      </trkpt>
      <trkpt lat="45.87111" lon="4.73364">
        <ele>211</ele>
        <time>2018-04-27T09:05:43Z</time>
      </trkpt>
      <trkpt lat="45.87111" lon="4.73354">
        <ele>211</ele>
        <time>2018-04-27T09:05:44Z</time>
      </trkpt>
      <trkpt lat="45.87114" lon="4.73345">
        <ele>210</ele>
        <time>2018-04-27T09:05:45Z</time>
      </trkpt>
      <trkpt lat="45.87114" lon="4.73332">
        <ele>209</ele>
        <time>2018-04-27T09:05:46Z</time>
      </trkpt>
      <trkpt lat="45.87116" lon="4.73323">
        <ele>209</ele>
        <time>2018-04-27T09:05:47Z</time>
      </trkpt>
      <trkpt lat="45.87118" lon="4.73312">
        <ele>209</ele>
        <time>2018-04-27T09:05:48Z</time>
      </trkpt>
      <trkpt lat="45.87119" lon="4.73301">
        <ele>208</ele>
        <time>2018-04-27T09:05:49Z</time>
      </trkpt>
      <trkpt lat="45.87121" lon="4.73291">
        <ele>208</ele>
        <time>2018-04-27T09:05:50Z</time>
      </trkpt>
      <trkpt lat="45.87122" lon="4.73282">
        <ele>208</ele>
        <time>2018-04-27T09:05:51Z</time>
      </trkpt>
      <trkpt lat="45.87124" lon="4.73273">
        <ele>208</ele>
        <time>2018-04-27T09:05:52Z</time>
      </trkpt>
      <trkpt lat="45.87126" lon="4.73263">
        <ele>208</ele>
        <time>2018-04-27T09:05:53Z</time>
      </trkpt>
      <trkpt lat="45.87129" lon="4.73252">
        <ele>207</ele>
        <time>2018-04-27T09:05:54Z</time>
      </trkpt>
      <trkpt lat="45.87131" lon="4.73241">
        <ele>206</ele>
        <time>2018-04-27T09:05:55Z</time>
      </trkpt>
      <trkpt lat="45.87134" lon="4.73232">
        <ele>206</ele>
        <time>2018-04-27T09:05:56Z</time>
      </trkpt>
      <trkpt lat="45.87138" lon="4.73221">
        <ele>206</ele>
        <time>2018-04-27T09:05:57Z</time>
      </trkpt>
      <trkpt lat="45.87141" lon="4.73209">
        <ele>206</ele>
        <time>2018-04-27T09:05:58Z</time>
      </trkpt>
      <trkpt lat="45.87145" lon="4.73199">
        <ele>205</ele>
        <time>2018-04-27T09:05:59Z</time>
      </trkpt>
      <trkpt lat="45.8715" lon="4.73188">
        <ele>205</ele>
        <time>2018-04-27T09:06:00Z</time>
      </trkpt>
      <trkpt lat="45.87154" lon="4.73179">
        <ele>205</ele>
        <time>2018-04-27T09:06:01Z</time>
      </trkpt>
      <trkpt lat="45.87158" lon="4.73168">
        <ele>204</ele>
        <time>2018-04-27T09:06:02Z</time>
      </trkpt>
      <trkpt lat="45.87161" lon="4.73158">
        <ele>204</ele>
        <time>2018-04-27T09:06:03Z</time>
      </trkpt>
      <trkpt lat="45.87164" lon="4.73149">
        <ele>204</ele>
        <time>2018-04-27T09:06:04Z</time>
      </trkpt>
      <trkpt lat="45.87166" lon="4.73139">
        <ele>204</ele>
        <time>2018-04-27T09:06:05Z</time>
      </trkpt>
      <trkpt lat="45.87168" lon="4.73129">
        <ele>202</ele>
        <time>2018-04-27T09:06:06Z</time>
      </trkpt>
      <trkpt lat="45.87169" lon="4.73118">
        <ele>202</ele>
        <time>2018-04-27T09:06:07Z</time>
      </trkpt>
      <trkpt lat="45.87169" lon="4.73107">
        <ele>202</ele>
        <time>2018-04-27T09:06:08Z</time>
      </trkpt>
      <trkpt lat="45.87169" lon="4.73096">
        <ele>202</ele>
        <time>2018-04-27T09:06:09Z</time>
      </trkpt>
      <trkpt lat="45.87169" lon="4.73084">
        <ele>203</ele>
        <time>2018-04-27T09:06:10Z</time>
      </trkpt>
      <trkpt lat="45.8717" lon="4.73073">
        <ele>202</ele>
        <time>2018-04-27T09:06:11Z</time>
      </trkpt>
      <trkpt lat="45.8717" lon="4.73064">
        <ele>202</ele>
        <time>2018-04-27T09:06:12Z</time>
      </trkpt>
      <trkpt lat="45.8717" lon="4.73054">
        <ele>201</ele>
        <time>2018-04-27T09:06:13Z</time>
      </trkpt>
      <trkpt lat="45.8717" lon="4.73043">
        <ele>201</ele>
        <time>2018-04-27T09:06:14Z</time>
      </trkpt>
      <trkpt lat="45.8717" lon="4.73032">
        <ele>201</ele>
        <time>2018-04-27T09:06:15Z</time>
      </trkpt>
      <trkpt lat="45.87171" lon="4.73022">
        <ele>202</ele>
        <time>2018-04-27T09:06:16Z</time>
      </trkpt>
      <trkpt lat="45.87171" lon="4.73012">
        <ele>202</ele>
        <time>2018-04-27T09:06:17Z</time>
      </trkpt>
      <trkpt lat="45.8717" lon="4.73">
        <ele>203</ele>
        <time>2018-04-27T09:06:18Z</time>
      </trkpt>
      <trkpt lat="45.87171" lon="4.7299">
        <ele>203</ele>
        <time>2018-04-27T09:06:19Z</time>
      </trkpt>
      <trkpt lat="45.87171" lon="4.7298">
        <ele>202</ele>
        <time>2018-04-27T09:06:20Z</time>
      </trkpt>
      <trkpt lat="45.87172" lon="4.72971">
        <ele>202</ele>
        <time>2018-04-27T09:06:21Z</time>
      </trkpt>
      <trkpt lat="45.87172" lon="4.72961">
        <ele>201</ele>
        <time>2018-04-27T09:06:22Z</time>
      </trkpt>
      <trkpt lat="45.87171" lon="4.72952">
        <ele>201</ele>
        <time>2018-04-27T09:06:23Z</time>
      </trkpt>
      <trkpt lat="45.87172" lon="4.72941">
        <ele>202</ele>
        <time>2018-04-27T09:06:24Z</time>
      </trkpt>
      <trkpt lat="45.87172" lon="4.72929">
        <ele>202</ele>
        <time>2018-04-27T09:06:25Z</time>
      </trkpt>
      <trkpt lat="45.87172" lon="4.7292">
        <ele>203</ele>
        <time>2018-04-27T09:06:26Z</time>
      </trkpt>
      <trkpt lat="45.87173" lon="4.72911">
        <ele>202</ele>
        <time>2018-04-27T09:06:27Z</time>
      </trkpt>
      <trkpt lat="45.87173" lon="4.72899">
        <ele>201</ele>
        <time>2018-04-27T09:06:28Z</time>
      </trkpt>
      <trkpt lat="45.87173" lon="4.72889">
        <ele>201</ele>
        <time>2018-04-27T09:06:29Z</time>
      </trkpt>
      <trkpt lat="45.87175" lon="4.72879">
        <ele>200</ele>
        <time>2018-04-27T09:06:30Z</time>
      </trkpt>
      <trkpt lat="45.87174" lon="4.72867">
        <ele>200</ele>
        <time>2018-04-27T09:06:31Z</time>
      </trkpt>
      <trkpt lat="45.87174" lon="4.72853">
        <ele>200</ele>
        <time>2018-04-27T09:06:32Z</time>
      </trkpt>
      <trkpt lat="45.87174" lon="4.72841">
        <ele>201</ele>
        <time>2018-04-27T09:06:33Z</time>
      </trkpt>
      <trkpt lat="45.87174" lon="4.72829">
        <ele>201</ele>
        <time>2018-04-27T09:06:34Z</time>
      </trkpt>
      <trkpt lat="45.87175" lon="4.72817">
        <ele>200</ele>
        <time>2018-04-27T09:06:35Z</time>
      </trkpt>
      <trkpt lat="45.87175" lon="4.72805">
        <ele>199</ele>
        <time>2018-04-27T09:06:36Z</time>
      </trkpt>
      <trkpt lat="45.87172" lon="4.72792">
        <ele>199</ele>
        <time>2018-04-27T09:06:37Z</time>
      </trkpt>
      <trkpt lat="45.87173" lon="4.72779">
        <ele>199</ele>
        <time>2018-04-27T09:06:38Z</time>
      </trkpt>
      <trkpt lat="45.87174" lon="4.72767">
        <ele>200</ele>
        <time>2018-04-27T09:06:39Z</time>
      </trkpt>
      <trkpt lat="45.87175" lon="4.72755">
        <ele>200</ele>
        <time>2018-04-27T09:06:40Z</time>
      </trkpt>
      <trkpt lat="45.87176" lon="4.72743">
        <ele>200</ele>
        <time>2018-04-27T09:06:41Z</time>
      </trkpt>
      <trkpt lat="45.87178" lon="4.72731">
        <ele>199</ele>
        <time>2018-04-27T09:06:42Z</time>
      </trkpt>
      <trkpt lat="45.8718" lon="4.7272">
        <ele>199</ele>
        <time>2018-04-27T09:06:43Z</time>
      </trkpt>
      <trkpt lat="45.87182" lon="4.72707">
        <ele>199</ele>
        <time>2018-04-27T09:06:44Z</time>
      </trkpt>
      <trkpt lat="45.87185" lon="4.72695">
        <ele>199</ele>
        <time>2018-04-27T09:06:45Z</time>
      </trkpt>
      <trkpt lat="45.87187" lon="4.72684">
        <ele>199</ele>
        <time>2018-04-27T09:06:46Z</time>
      </trkpt>
      <trkpt lat="45.87189" lon="4.72674">
        <ele>199</ele>
        <time>2018-04-27T09:06:47Z</time>
      </trkpt>
      <trkpt lat="45.87192" lon="4.72663">
        <ele>199</ele>
        <time>2018-04-27T09:06:48Z</time>
      </trkpt>
      <trkpt lat="45.87195" lon="4.72653">
        <ele>199</ele>
        <time>2018-04-27T09:06:49Z</time>
      </trkpt>
      <trkpt lat="45.87198" lon="4.72641">
        <ele>199</ele>
        <time>2018-04-27T09:06:50Z</time>
      </trkpt>
      <trkpt lat="45.87203" lon="4.72631">
        <ele>199</ele>
        <time>2018-04-27T09:06:51Z</time>
      </trkpt>
      <trkpt lat="45.87206" lon="4.72619">
        <ele>199</ele>
        <time>2018-04-27T09:06:52Z</time>
      </trkpt>
      <trkpt lat="45.87209" lon="4.72609">
        <ele>199</ele>
        <time>2018-04-27T09:06:53Z</time>
      </trkpt>
      <trkpt lat="45.87213" lon="4.72596">
        <ele>199</ele>
        <time>2018-04-27T09:06:54Z</time>
      </trkpt>
      <trkpt lat="45.87215" lon="4.72587">
        <ele>199</ele>
        <time>2018-04-27T09:06:55Z</time>
      </trkpt>
      <trkpt lat="45.87218" lon="4.72576">
        <ele>198</ele>
        <time>2018-04-27T09:06:56Z</time>
      </trkpt>
      <trkpt lat="45.87219" lon="4.72564">
        <ele>198</ele>
        <time>2018-04-27T09:06:57Z</time>
      </trkpt>
      <trkpt lat="45.8722" lon="4.72553">
        <ele>198</ele>
        <time>2018-04-27T09:06:58Z</time>
      </trkpt>
      <trkpt lat="45.87216" lon="4.72541">
        <ele>198</ele>
        <time>2018-04-27T09:06:59Z</time>
      </trkpt>
      <trkpt lat="45.87216" lon="4.7253">
        <ele>198</ele>
        <time>2018-04-27T09:07:00Z</time>
      </trkpt>
      <trkpt lat="45.87214" lon="4.7252">
        <ele>198</ele>
        <time>2018-04-27T09:07:01Z</time>
      </trkpt>
      <trkpt lat="45.87211" lon="4.72508">
        <ele>198</ele>
        <time>2018-04-27T09:07:02Z</time>
      </trkpt>
      <trkpt lat="45.87208" lon="4.72497">
        <ele>195</ele>
        <time>2018-04-27T09:07:03Z</time>
      </trkpt>
      <trkpt lat="45.87205" lon="4.72488">
        <ele>195</ele>
        <time>2018-04-27T09:07:04Z</time>
      </trkpt>
      <trkpt lat="45.87201" lon="4.72478">
        <ele>195</ele>
        <time>2018-04-27T09:07:05Z</time>
      </trkpt>
      <trkpt lat="45.87198" lon="4.72468">
        <ele>195</ele>
        <time>2018-04-27T09:07:06Z</time>
      </trkpt>
      <trkpt lat="45.87194" lon="4.72459">
        <ele>195</ele>
        <time>2018-04-27T09:07:07Z</time>
      </trkpt>
      <trkpt lat="45.8719" lon="4.72451">
        <ele>194</ele>
        <time>2018-04-27T09:07:08Z</time>
      </trkpt>
      <trkpt lat="45.87186" lon="4.72441">
        <ele>194</ele>
        <time>2018-04-27T09:07:09Z</time>
      </trkpt>
      <trkpt lat="45.87182" lon="4.72432">
        <ele>194</ele>
        <time>2018-04-27T09:07:10Z</time>
      </trkpt>
      <trkpt lat="45.87178" lon="4.72424">
        <ele>194</ele>
        <time>2018-04-27T09:07:11Z</time>
      </trkpt>
      <trkpt lat="45.87174" lon="4.72416">
        <ele>193</ele>
        <time>2018-04-27T09:07:12Z</time>
      </trkpt>
      <trkpt lat="45.8717" lon="4.72406">
        <ele>192</ele>
        <time>2018-04-27T09:07:13Z</time>
      </trkpt>
      <trkpt lat="45.87167" lon="4.72399">
        <ele>191</ele>
        <time>2018-04-27T09:07:14Z</time>
      </trkpt>
      <trkpt lat="45.87163" lon="4.7239">
        <ele>197</ele>
        <time>2018-04-27T09:07:15Z</time>
      </trkpt>
      <trkpt lat="45.87159" lon="4.72382">
        <ele>197</ele>
        <time>2018-04-27T09:07:16Z</time>
      </trkpt>
      <trkpt lat="45.87156" lon="4.72373">
        <ele>197</ele>
        <time>2018-04-27T09:07:17Z</time>
      </trkpt>
      <trkpt lat="45.87152" lon="4.72365">
        <ele>197</ele>
        <time>2018-04-27T09:07:18Z</time>
      </trkpt>
      <trkpt lat="45.87148" lon="4.72356">
        <ele>196</ele>
        <time>2018-04-27T09:07:19Z</time>
      </trkpt>
      <trkpt lat="45.87145" lon="4.72348">
        <ele>196</ele>
        <time>2018-04-27T09:07:20Z</time>
      </trkpt>
      <trkpt lat="45.87142" lon="4.72339">
        <ele>196</ele>
        <time>2018-04-27T09:07:21Z</time>
      </trkpt>
      <trkpt lat="45.87138" lon="4.7233">
        <ele>195</ele>
        <time>2018-04-27T09:07:22Z</time>
      </trkpt>
      <trkpt lat="45.87135" lon="4.72321">
        <ele>195</ele>
        <time>2018-04-27T09:07:23Z</time>
      </trkpt>
      <trkpt lat="45.8713" lon="4.72313">
        <ele>196</ele>
        <time>2018-04-27T09:07:24Z</time>
      </trkpt>
      <trkpt lat="45.87125" lon="4.72305">
        <ele>196</ele>
        <time>2018-04-27T09:07:25Z</time>
      </trkpt>
      <trkpt lat="45.87121" lon="4.72297">
        <ele>197</ele>
        <time>2018-04-27T09:07:26Z</time>
      </trkpt>
      <trkpt lat="45.87116" lon="4.7229">
        <ele>197</ele>
        <time>2018-04-27T09:07:27Z</time>
      </trkpt>
      <trkpt lat="45.87111" lon="4.72282">
        <ele>197</ele>
        <time>2018-04-27T09:07:28Z</time>
      </trkpt>
      <trkpt lat="45.87105" lon="4.72275">
        <ele>197</ele>
        <time>2018-04-27T09:07:29Z</time>
      </trkpt>
      <trkpt lat="45.871" lon="4.72268">
        <ele>197</ele>
        <time>2018-04-27T09:07:30Z</time>
      </trkpt>
      <trkpt lat="45.87093" lon="4.7226">
        <ele>198</ele>
        <time>2018-04-27T09:07:31Z</time>
      </trkpt>
      <trkpt lat="45.87088" lon="4.72253">
        <ele>198</ele>
        <time>2018-04-27T09:07:32Z</time>
      </trkpt>
      <trkpt lat="45.87082" lon="4.72246">
        <ele>199</ele>
        <time>2018-04-27T09:07:33Z</time>
      </trkpt>
      <trkpt lat="45.87076" lon="4.7224">
        <ele>200</ele>
        <time>2018-04-27T09:07:34Z</time>
      </trkpt>
      <trkpt lat="45.87068" lon="4.72234">
        <ele>200</ele>
        <time>2018-04-27T09:07:35Z</time>
      </trkpt>
      <trkpt lat="45.87062" lon="4.72228">
        <ele>200</ele>
        <time>2018-04-27T09:07:36Z</time>
      </trkpt>
      <trkpt lat="45.87055" lon="4.72222">
        <ele>201</ele>
        <time>2018-04-27T09:07:37Z</time>
      </trkpt>
      <trkpt lat="45.87048" lon="4.72217">
        <ele>201</ele>
        <time>2018-04-27T09:07:38Z</time>
      </trkpt>
      <trkpt lat="45.87042" lon="4.72213">
        <ele>201</ele>
        <time>2018-04-27T09:07:39Z</time>
      </trkpt>
      <trkpt lat="45.87037" lon="4.72208">
        <ele>201</ele>
        <time>2018-04-27T09:07:40Z</time>
      </trkpt>
      <trkpt lat="45.8703" lon="4.72203">
        <ele>201</ele>
        <time>2018-04-27T09:07:41Z</time>
      </trkpt>
      <trkpt lat="45.87023" lon="4.72198">
        <ele>201</ele>
        <time>2018-04-27T09:07:42Z</time>
      </trkpt>
      <trkpt lat="45.87017" lon="4.72192">
        <ele>201</ele>
        <time>2018-04-27T09:07:43Z</time>
      </trkpt>
      <trkpt lat="45.87009" lon="4.72188">
        <ele>201</ele>
        <time>2018-04-27T09:07:44Z</time>
      </trkpt>
      <trkpt lat="45.87002" lon="4.72184">
        <ele>201</ele>
        <time>2018-04-27T09:07:45Z</time>
      </trkpt>
      <trkpt lat="45.86995" lon="4.72179">
        <ele>206</ele>
        <time>2018-04-27T09:07:46Z</time>
      </trkpt>
      <trkpt lat="45.8699" lon="4.72176">
        <ele>206</ele>
        <time>2018-04-27T09:07:47Z</time>
      </trkpt>
      <trkpt lat="45.86982" lon="4.72171">
        <ele>207</ele>
        <time>2018-04-27T09:07:48Z</time>
      </trkpt>
      <trkpt lat="45.86975" lon="4.72167">
        <ele>208</ele>
        <time>2018-04-27T09:07:49Z</time>
      </trkpt>
      <trkpt lat="45.86969" lon="4.72163">
        <ele>201</ele>
        <time>2018-04-27T09:07:50Z</time>
      </trkpt>
      <trkpt lat="45.86962" lon="4.72158">
        <ele>201</ele>
        <time>2018-04-27T09:07:51Z</time>
      </trkpt>
      <trkpt lat="45.86955" lon="4.72153">
        <ele>201</ele>
        <time>2018-04-27T09:07:52Z</time>
      </trkpt>
      <trkpt lat="45.86949" lon="4.72149">
        <ele>202</ele>
        <time>2018-04-27T09:07:53Z</time>
      </trkpt>
      <trkpt lat="45.86941" lon="4.72146">
        <ele>202</ele>
        <time>2018-04-27T09:07:54Z</time>
      </trkpt>
      <trkpt lat="45.86934" lon="4.72142">
        <ele>202</ele>
        <time>2018-04-27T09:07:55Z</time>
      </trkpt>
      <trkpt lat="45.86928" lon="4.72138">
        <ele>202</ele>
        <time>2018-04-27T09:07:56Z</time>
      </trkpt>
      <trkpt lat="45.86922" lon="4.72136">
        <ele>202</ele>
        <time>2018-04-27T09:07:57Z</time>
      </trkpt>
      <trkpt lat="45.86918" lon="4.72135">
        <ele>202</ele>
        <time>2018-04-27T09:07:58Z</time>
      </trkpt>
      <trkpt lat="45.8691" lon="4.72132">
        <ele>204</ele>
        <time>2018-04-27T09:07:59Z</time>
      </trkpt>
      <trkpt lat="45.86904" lon="4.72129">
        <ele>203</ele>
        <time>2018-04-27T09:08:00Z</time>
      </trkpt>
      <trkpt lat="45.86898" lon="4.72125">
        <ele>202</ele>
        <time>2018-04-27T09:08:01Z</time>
      </trkpt>
      <trkpt lat="45.86892" lon="4.72123">
        <ele>202</ele>
        <time>2018-04-27T09:08:02Z</time>
      </trkpt>
      <trkpt lat="45.86887" lon="4.72121">
        <ele>202</ele>
        <time>2018-04-27T09:08:03Z</time>
      </trkpt>
      <trkpt lat="45.86881" lon="4.72119">
        <ele>202</ele>
        <time>2018-04-27T09:08:04Z</time>
      </trkpt>
      <trkpt lat="45.86874" lon="4.72116">
        <ele>202</ele>
        <time>2018-04-27T09:08:05Z</time>
      </trkpt>
      <trkpt lat="45.86866" lon="4.72113">
        <ele>201</ele>
        <time>2018-04-27T09:08:06Z</time>
      </trkpt>
      <trkpt lat="45.86861" lon="4.72114">
        <ele>201</ele>
        <time>2018-04-27T09:08:07Z</time>
      </trkpt>
      <trkpt lat="45.86855" lon="4.72112">
        <ele>201</ele>
        <time>2018-04-27T09:08:08Z</time>
      </trkpt>
      <trkpt lat="45.8685" lon="4.72106">
        <ele>200</ele>
        <time>2018-04-27T09:08:09Z</time>
      </trkpt>
      <trkpt lat="45.86843" lon="4.72103">
        <ele>199</ele>
        <time>2018-04-27T09:08:10Z</time>
      </trkpt>
      <trkpt lat="45.86837" lon="4.721">
        <ele>198</ele>
        <time>2018-04-27T09:08:11Z</time>
      </trkpt>
      <trkpt lat="45.8683" lon="4.72097">
        <ele>198</ele>
        <time>2018-04-27T09:08:12Z</time>
      </trkpt>
      <trkpt lat="45.86824" lon="4.72095">
        <ele>198</ele>
        <time>2018-04-27T09:08:13Z</time>
      </trkpt>
      <trkpt lat="45.86818" lon="4.72091">
        <ele>199</ele>
        <time>2018-04-27T09:08:14Z</time>
      </trkpt>
      <trkpt lat="45.86813" lon="4.72091">
        <ele>200</ele>
        <time>2018-04-27T09:08:15Z</time>
      </trkpt>
      <trkpt lat="45.86807" lon="4.72089">
        <ele>200</ele>
        <time>2018-04-27T09:08:16Z</time>
      </trkpt>
      <trkpt lat="45.86801" lon="4.72085">
        <ele>201</ele>
        <time>2018-04-27T09:08:17Z</time>
      </trkpt>
      <trkpt lat="45.86795" lon="4.72082">
        <ele>194</ele>
        <time>2018-04-27T09:08:18Z</time>
      </trkpt>
      <trkpt lat="45.86789" lon="4.72078">
        <ele>194</ele>
        <time>2018-04-27T09:08:19Z</time>
      </trkpt>
      <trkpt lat="45.86783" lon="4.72074">
        <ele>194</ele>
        <time>2018-04-27T09:08:20Z</time>
      </trkpt>
      <trkpt lat="45.86776" lon="4.72071">
        <ele>195</ele>
        <time>2018-04-27T09:08:21Z</time>
      </trkpt>
      <trkpt lat="45.8677" lon="4.72069">
        <ele>195</ele>
        <time>2018-04-27T09:08:22Z</time>
      </trkpt>
      <trkpt lat="45.86764" lon="4.72066">
        <ele>195</ele>
        <time>2018-04-27T09:08:23Z</time>
      </trkpt>
      <trkpt lat="45.86758" lon="4.72063">
        <ele>195</ele>
        <time>2018-04-27T09:08:24Z</time>
      </trkpt>
      <trkpt lat="45.86753" lon="4.7206">
        <ele>195</ele>
        <time>2018-04-27T09:08:25Z</time>
      </trkpt>
      <trkpt lat="45.86746" lon="4.72058">
        <ele>197</ele>
        <time>2018-04-27T09:08:26Z</time>
      </trkpt>
      <trkpt lat="45.8674" lon="4.72056">
        <ele>197</ele>
        <time>2018-04-27T09:08:27Z</time>
      </trkpt>
      <trkpt lat="45.86734" lon="4.72053">
        <ele>197</ele>
        <time>2018-04-27T09:08:28Z</time>
      </trkpt>
      <trkpt lat="45.86727" lon="4.7205">
        <ele>197</ele>
        <time>2018-04-27T09:08:29Z</time>
      </trkpt>
      <trkpt lat="45.86723" lon="4.72047">
        <ele>197</ele>
        <time>2018-04-27T09:08:30Z</time>
      </trkpt>
      <trkpt lat="45.86717" lon="4.72044">
        <ele>197</ele>
        <time>2018-04-27T09:08:31Z</time>
      </trkpt>
      <trkpt lat="45.86713" lon="4.7204">
        <ele>197</ele>
        <time>2018-04-27T09:08:32Z</time>
      </trkpt>
      <trkpt lat="45.86708" lon="4.72036">
        <ele>197</ele>
        <time>2018-04-27T09:08:33Z</time>
      </trkpt>
      <trkpt lat="45.86702" lon="4.72033">
        <ele>197</ele>
        <time>2018-04-27T09:08:34Z</time>
      </trkpt>
      <trkpt lat="45.86696" lon="4.72028">
        <ele>197</ele>
        <time>2018-04-27T09:08:35Z</time>
      </trkpt>
      <trkpt lat="45.86692" lon="4.72025">
        <ele>197</ele>
        <time>2018-04-27T09:08:36Z</time>
      </trkpt>
      <trkpt lat="45.86687" lon="4.72021">
        <ele>197</ele>
        <time>2018-04-27T09:08:37Z</time>
      </trkpt>
      <trkpt lat="45.86684" lon="4.72018">
        <ele>196</ele>
        <time>2018-04-27T09:08:38Z</time>
      </trkpt>
      <trkpt lat="45.86679" lon="4.72015">
        <ele>196</ele>
        <time>2018-04-27T09:08:39Z</time>
      </trkpt>
      <trkpt lat="45.86675" lon="4.72011">
        <ele>196</ele>
        <time>2018-04-27T09:08:40Z</time>
      </trkpt>
      <trkpt lat="45.8667" lon="4.72006">
        <ele>196</ele>
        <time>2018-04-27T09:08:41Z</time>
      </trkpt>
      <trkpt lat="45.86666" lon="4.72002">
        <ele>195</ele>
        <time>2018-04-27T09:08:42Z</time>
      </trkpt>
      <trkpt lat="45.86661" lon="4.71999">
        <ele>195</ele>
        <time>2018-04-27T09:08:43Z</time>
      </trkpt>
      <trkpt lat="45.86656" lon="4.71996">
        <ele>195</ele>
        <time>2018-04-27T09:08:44Z</time>
      </trkpt>
      <trkpt lat="45.86651" lon="4.71991">
        <ele>195</ele>
        <time>2018-04-27T09:08:45Z</time>
      </trkpt>
      <trkpt lat="45.86646" lon="4.71986">
        <ele>195</ele>
        <time>2018-04-27T09:08:46Z</time>
      </trkpt>
      <trkpt lat="45.86641" lon="4.71982">
        <ele>195</ele>
        <time>2018-04-27T09:08:47Z</time>
      </trkpt>
      <trkpt lat="45.86636" lon="4.71978">
        <ele>195</ele>
        <time>2018-04-27T09:08:48Z</time>
      </trkpt>
      <trkpt lat="45.86631" lon="4.71974">
        <ele>195</ele>
        <time>2018-04-27T09:08:49Z</time>
      </trkpt>
      <trkpt lat="45.86626" lon="4.71969">
        <ele>195</ele>
        <time>2018-04-27T09:08:50Z</time>
      </trkpt>
      <trkpt lat="45.86621" lon="4.71965">
        <ele>195</ele>
        <time>2018-04-27T09:08:51Z</time>
      </trkpt>
      <trkpt lat="45.86616" lon="4.71962">
        <ele>195</ele>
        <time>2018-04-27T09:08:52Z</time>
      </trkpt>
      <trkpt lat="45.86611" lon="4.71958">
        <ele>194</ele>
        <time>2018-04-27T09:08:53Z</time>
      </trkpt>
      <trkpt lat="45.86606" lon="4.71954">
        <ele>194</ele>
        <time>2018-04-27T09:08:54Z</time>
      </trkpt>
      <trkpt lat="45.86601" lon="4.7195">
        <ele>194</ele>
        <time>2018-04-27T09:08:55Z</time>
      </trkpt>
      <trkpt lat="45.86596" lon="4.71946">
        <ele>194</ele>
        <time>2018-04-27T09:08:56Z</time>
      </trkpt>
      <trkpt lat="45.86591" lon="4.71942">
        <ele>194</ele>
        <time>2018-04-27T09:08:57Z</time>
      </trkpt>
      <trkpt lat="45.86586" lon="4.71939">
        <ele>194</ele>
        <time>2018-04-27T09:08:58Z</time>
      </trkpt>
      <trkpt lat="45.86582" lon="4.71936">
        <ele>195</ele>
        <time>2018-04-27T09:08:59Z</time>
      </trkpt>
      <trkpt lat="45.86577" lon="4.71932">
        <ele>195</ele>
        <time>2018-04-27T09:09:00Z</time>
      </trkpt>
      <trkpt lat="45.86572" lon="4.71928">
        <ele>195</ele>
        <time>2018-04-27T09:09:01Z</time>
      </trkpt>
      <trkpt lat="45.86567" lon="4.71924">
        <ele>195</ele>
        <time>2018-04-27T09:09:02Z</time>
      </trkpt>
      <trkpt lat="45.86562" lon="4.7192">
        <ele>196</ele>
        <time>2018-04-27T09:09:03Z</time>
      </trkpt>
      <trkpt lat="45.86559" lon="4.71915">
        <ele>195</ele>
        <time>2018-04-27T09:09:04Z</time>
      </trkpt>
      <trkpt lat="45.86553" lon="4.71911">
        <ele>195</ele>
        <time>2018-04-27T09:09:05Z</time>
      </trkpt>
      <trkpt lat="45.86548" lon="4.71907">
        <ele>195</ele>
        <time>2018-04-27T09:09:06Z</time>
      </trkpt>
      <trkpt lat="45.86543" lon="4.71903">
        <ele>195</ele>
        <time>2018-04-27T09:09:07Z</time>
      </trkpt>
      <trkpt lat="45.86538" lon="4.71899">
        <ele>195</ele>
        <time>2018-04-27T09:09:08Z</time>
      </trkpt>
      <trkpt lat="45.86534" lon="4.71897">
        <ele>195</ele>
        <time>2018-04-27T09:09:09Z</time>
      </trkpt>
      <trkpt lat="45.86529" lon="4.71893">
        <ele>195</ele>
        <time>2018-04-27T09:09:10Z</time>
      </trkpt>
      <trkpt lat="45.86525" lon="4.71889">
        <ele>195</ele>
        <time>2018-04-27T09:09:11Z</time>
      </trkpt>
      <trkpt lat="45.8652" lon="4.71887">
        <ele>195</ele>
        <time>2018-04-27T09:09:12Z</time>
      </trkpt>
      <trkpt lat="45.86516" lon="4.71883">
        <ele>195</ele>
        <time>2018-04-27T09:09:13Z</time>
      </trkpt>
      <trkpt lat="45.86511" lon="4.71879">
        <ele>195</ele>
        <time>2018-04-27T09:09:14Z</time>
      </trkpt>
      <trkpt lat="45.86507" lon="4.71875">
        <ele>195</ele>
        <time>2018-04-27T09:09:15Z</time>
      </trkpt>
      <trkpt lat="45.86502" lon="4.71871">
        <ele>195</ele>
        <time>2018-04-27T09:09:16Z</time>
      </trkpt>
      <trkpt lat="45.86498" lon="4.71866">
        <ele>198</ele>
        <time>2018-04-27T09:09:17Z</time>
      </trkpt>
      <trkpt lat="45.86492" lon="4.71865">
        <ele>198</ele>
        <time>2018-04-27T09:09:18Z</time>
      </trkpt>
      <trkpt lat="45.86487" lon="4.71861">
        <ele>198</ele>
        <time>2018-04-27T09:09:19Z</time>
      </trkpt>
      <trkpt lat="45.86482" lon="4.71857">
        <ele>198</ele>
        <time>2018-04-27T09:09:20Z</time>
      </trkpt>
      <trkpt lat="45.86478" lon="4.71854">
        <ele>199</ele>
        <time>2018-04-27T09:09:21Z</time>
      </trkpt>
      <trkpt lat="45.86474" lon="4.71851">
        <ele>199</ele>
        <time>2018-04-27T09:09:22Z</time>
      </trkpt>
      <trkpt lat="45.86469" lon="4.71846">
        <ele>199</ele>
        <time>2018-04-27T09:09:23Z</time>
      </trkpt>
      <trkpt lat="45.86465" lon="4.71843">
        <ele>199</ele>
        <time>2018-04-27T09:09:24Z</time>
      </trkpt>
      <trkpt lat="45.86461" lon="4.71838">
        <ele>199</ele>
        <time>2018-04-27T09:09:25Z</time>
      </trkpt>
      <trkpt lat="45.86457" lon="4.71835">
        <ele>200</ele>
        <time>2018-04-27T09:09:26Z</time>
      </trkpt>
      <trkpt lat="45.86452" lon="4.71831">
        <ele>197</ele>
        <time>2018-04-27T09:09:27Z</time>
      </trkpt>
      <trkpt lat="45.86447" lon="4.71826">
        <ele>197</ele>
        <time>2018-04-27T09:09:28Z</time>
      </trkpt>
      <trkpt lat="45.86442" lon="4.71822">
        <ele>197</ele>
        <time>2018-04-27T09:09:29Z</time>
      </trkpt>
      <trkpt lat="45.86437" lon="4.71817">
        <ele>198</ele>
        <time>2018-04-27T09:09:30Z</time>
      </trkpt>
      <trkpt lat="45.86433" lon="4.71814">
        <ele>198</ele>
        <time>2018-04-27T09:09:31Z</time>
      </trkpt>
      <trkpt lat="45.86428" lon="4.7181">
        <ele>198</ele>
        <time>2018-04-27T09:09:32Z</time>
      </trkpt>
      <trkpt lat="45.86423" lon="4.71807">
        <ele>197</ele>
        <time>2018-04-27T09:09:33Z</time>
      </trkpt>
      <trkpt lat="45.86418" lon="4.71804">
        <ele>197</ele>
        <time>2018-04-27T09:09:34Z</time>
      </trkpt>
      <trkpt lat="45.86413" lon="4.71799">
        <ele>199</ele>
        <time>2018-04-27T09:09:35Z</time>
      </trkpt>
      <trkpt lat="45.86409" lon="4.71795">
        <ele>199</ele>
        <time>2018-04-27T09:09:36Z</time>
      </trkpt>
      <trkpt lat="45.86404" lon="4.71791">
        <ele>199</ele>
        <time>2018-04-27T09:09:37Z</time>
      </trkpt>
      <trkpt lat="45.86399" lon="4.71787">
        <ele>198</ele>
        <time>2018-04-27T09:09:38Z</time>
      </trkpt>
      <trkpt lat="45.86395" lon="4.71784">
        <ele>198</ele>
        <time>2018-04-27T09:09:39Z</time>
      </trkpt>
      <trkpt lat="45.8639" lon="4.71781">
        <ele>198</ele>
        <time>2018-04-27T09:09:40Z</time>
      </trkpt>
      <trkpt lat="45.86385" lon="4.71777">
        <ele>198</ele>
        <time>2018-04-27T09:09:41Z</time>
      </trkpt>
      <trkpt lat="45.8638" lon="4.71773">
        <ele>198</ele>
        <time>2018-04-27T09:09:42Z</time>
      </trkpt>
      <trkpt lat="45.86376" lon="4.7177">
        <ele>198</ele>
        <time>2018-04-27T09:09:43Z</time>
      </trkpt>
      <trkpt lat="45.86371" lon="4.71766">
        <ele>198</ele>
        <time>2018-04-27T09:09:44Z</time>
      </trkpt>
      <trkpt lat="45.86366" lon="4.71762">
        <ele>198</ele>
        <time>2018-04-27T09:09:45Z</time>
      </trkpt>
      <trkpt lat="45.86361" lon="4.71758">
        <ele>198</ele>
        <time>2018-04-27T09:09:46Z</time>
      </trkpt>
      <trkpt lat="45.86356" lon="4.71755">
        <ele>197</ele>
        <time>2018-04-27T09:09:47Z</time>
      </trkpt>
      <trkpt lat="45.86351" lon="4.71751">
        <ele>197</ele>
        <time>2018-04-27T09:09:48Z</time>
      </trkpt>
      <trkpt lat="45.86346" lon="4.71747">
        <ele>195</ele>
        <time>2018-04-27T09:09:49Z</time>
      </trkpt>
      <trkpt lat="45.86341" lon="4.71744">
        <ele>195</ele>
        <time>2018-04-27T09:09:50Z</time>
      </trkpt>
      <trkpt lat="45.86337" lon="4.71741">
        <ele>195</ele>
        <time>2018-04-27T09:09:51Z</time>
      </trkpt>
      <trkpt lat="45.86332" lon="4.71738">
        <ele>196</ele>
        <time>2018-04-27T09:09:52Z</time>
      </trkpt>
      <trkpt lat="45.86327" lon="4.71734">
        <ele>196</ele>
        <time>2018-04-27T09:09:53Z</time>
      </trkpt>
      <trkpt lat="45.86323" lon="4.7173">
        <ele>196</ele>
        <time>2018-04-27T09:09:54Z</time>
      </trkpt>
      <trkpt lat="45.86318" lon="4.71728">
        <ele>196</ele>
        <time>2018-04-27T09:09:55Z</time>
      </trkpt>
      <trkpt lat="45.86312" lon="4.71724">
        <ele>196</ele>
        <time>2018-04-27T09:09:56Z</time>
      </trkpt>
      <trkpt lat="45.86307" lon="4.7172">
        <ele>196</ele>
        <time>2018-04-27T09:09:57Z</time>
      </trkpt>
      <trkpt lat="45.86303" lon="4.71716">
        <ele>196</ele>
        <time>2018-04-27T09:09:58Z</time>
      </trkpt>
      <trkpt lat="45.86299" lon="4.71712">
        <ele>195</ele>
        <time>2018-04-27T09:09:59Z</time>
      </trkpt>
      <trkpt lat="45.86294" lon="4.71708">
        <ele>195</ele>
        <time>2018-04-27T09:10:00Z</time>
      </trkpt>
      <trkpt lat="45.8629" lon="4.71704">
        <ele>195</ele>
        <time>2018-04-27T09:10:01Z</time>
      </trkpt>
      <trkpt lat="45.86284" lon="4.717">
        <ele>195</ele>
        <time>2018-04-27T09:10:02Z</time>
      </trkpt>
      <trkpt lat="45.86279" lon="4.71697">
        <ele>195</ele>
        <time>2018-04-27T09:10:03Z</time>
      </trkpt>
      <trkpt lat="45.86274" lon="4.71693">
        <ele>195</ele>
        <time>2018-04-27T09:10:04Z</time>
      </trkpt>
      <trkpt lat="45.86267" lon="4.71686">
        <ele>195</ele>
        <time>2018-04-27T09:10:06Z</time>
      </trkpt>
      <trkpt lat="45.86262" lon="4.71682">
        <ele>195</ele>
        <time>2018-04-27T09:10:07Z</time>
      </trkpt>
      <trkpt lat="45.86258" lon="4.71678">
        <ele>195</ele>
        <time>2018-04-27T09:10:08Z</time>
      </trkpt>
      <trkpt lat="45.86253" lon="4.71674">
        <ele>195</ele>
        <time>2018-04-27T09:10:09Z</time>
      </trkpt>
      <trkpt lat="45.8625" lon="4.7167">
        <ele>195</ele>
        <time>2018-04-27T09:10:10Z</time>
      </trkpt>
      <trkpt lat="45.86245" lon="4.71665">
        <ele>195</ele>
        <time>2018-04-27T09:10:11Z</time>
      </trkpt>
      <trkpt lat="45.8624" lon="4.71662">
        <ele>195</ele>
        <time>2018-04-27T09:10:12Z</time>
      </trkpt>
      <trkpt lat="45.86235" lon="4.71658">
        <ele>195</ele>
        <time>2018-04-27T09:10:13Z</time>
      </trkpt>
      <trkpt lat="45.86232" lon="4.71656">
        <ele>195</ele>
        <time>2018-04-27T09:10:14Z</time>
      </trkpt>
      <trkpt lat="45.86226" lon="4.71652">
        <ele>195</ele>
        <time>2018-04-27T09:10:15Z</time>
      </trkpt>
      <trkpt lat="45.86222" lon="4.71648">
        <ele>195</ele>
        <time>2018-04-27T09:10:16Z</time>
      </trkpt>
      <trkpt lat="45.86218" lon="4.71643">
        <ele>195</ele>
        <time>2018-04-27T09:10:17Z</time>
      </trkpt>
      <trkpt lat="45.86214" lon="4.71637">
        <ele>195</ele>
        <time>2018-04-27T09:10:18Z</time>
      </trkpt>
      <trkpt lat="45.86213" lon="4.7163">
        <ele>195</ele>
        <time>2018-04-27T09:10:19Z</time>
      </trkpt>
      <trkpt lat="45.86212" lon="4.71623">
        <ele>195</ele>
        <time>2018-04-27T09:10:20Z</time>
      </trkpt>
      <trkpt lat="45.86209" lon="4.71614">
        <ele>195</ele>
        <time>2018-04-27T09:10:21Z</time>
      </trkpt>
      <trkpt lat="45.86205" lon="4.71606">
        <ele>195</ele>
        <time>2018-04-27T09:10:22Z</time>
      </trkpt>
      <trkpt lat="45.86202" lon="4.71601">
        <ele>195</ele>
        <time>2018-04-27T09:10:23Z</time>
      </trkpt>
      <trkpt lat="45.86198" lon="4.71596">
        <ele>195</ele>
        <time>2018-04-27T09:10:24Z</time>
      </trkpt>
      <trkpt lat="45.86194" lon="4.7159">
        <ele>195</ele>
        <time>2018-04-27T09:10:25Z</time>
      </trkpt>
      <trkpt lat="45.8619" lon="4.71585">
        <ele>195</ele>
        <time>2018-04-27T09:10:26Z</time>
      </trkpt>
      <trkpt lat="45.86187" lon="4.7158">
        <ele>195</ele>
        <time>2018-04-27T09:10:27Z</time>
      </trkpt>
      <trkpt lat="45.86183" lon="4.71575">
        <ele>195</ele>
        <time>2018-04-27T09:10:28Z</time>
      </trkpt>
      <trkpt lat="45.86179" lon="4.7157">
        <ele>195</ele>
        <time>2018-04-27T09:10:29Z</time>
      </trkpt>
      <trkpt lat="45.86176" lon="4.71563">
        <ele>195</ele>
        <time>2018-04-27T09:10:30Z</time>
      </trkpt>
      <trkpt lat="45.86173" lon="4.71558">
        <ele>195</ele>
        <time>2018-04-27T09:10:31Z</time>
      </trkpt>
      <trkpt lat="45.86169" lon="4.71552">
        <ele>195</ele>
        <time>2018-04-27T09:10:32Z</time>
      </trkpt>
      <trkpt lat="45.86167" lon="4.71546">
        <ele>195</ele>
        <time>2018-04-27T09:10:33Z</time>
      </trkpt>
      <trkpt lat="45.86162" lon="4.71536">
        <ele>195</ele>
        <time>2018-04-27T09:10:35Z</time>
      </trkpt>
      <trkpt lat="45.86159" lon="4.71531">
        <ele>195</ele>
        <time>2018-04-27T09:10:36Z</time>
      </trkpt>
      <trkpt lat="45.86156" lon="4.71526">
        <ele>195</ele>
        <time>2018-04-27T09:10:37Z</time>
      </trkpt>
      <trkpt lat="45.86153" lon="4.71521">
        <ele>195</ele>
        <time>2018-04-27T09:10:38Z</time>
      </trkpt>
      <trkpt lat="45.86152" lon="4.71514">
        <ele>195</ele>
        <time>2018-04-27T09:10:39Z</time>
      </trkpt>
      <trkpt lat="45.86149" lon="4.71509">
        <ele>195</ele>
        <time>2018-04-27T09:10:40Z</time>
      </trkpt>
      <trkpt lat="45.86146" lon="4.71497">
        <ele>195</ele>
        <time>2018-04-27T09:10:42Z</time>
      </trkpt>
      <trkpt lat="45.86145" lon="4.71491">
        <ele>195</ele>
        <time>2018-04-27T09:10:43Z</time>
      </trkpt>
      <trkpt lat="45.86141" lon="4.71485">
        <ele>195</ele>
        <time>2018-04-27T09:10:44Z</time>
      </trkpt>
      <trkpt lat="45.86138" lon="4.71479">
        <ele>195</ele>
        <time>2018-04-27T09:10:45Z</time>
      </trkpt>
      <trkpt lat="45.86136" lon="4.71473">
        <ele>195</ele>
        <time>2018-04-27T09:10:46Z</time>
      </trkpt>
      <trkpt lat="45.86131" lon="4.71465">
        <ele>195</ele>
        <time>2018-04-27T09:10:47Z</time>
      </trkpt>
      <trkpt lat="45.8613" lon="4.71452">
        <ele>195</ele>
        <time>2018-04-27T09:10:49Z</time>
      </trkpt>
      <trkpt lat="45.86126" lon="4.71446">
        <ele>195</ele>
        <time>2018-04-27T09:10:50Z</time>
      </trkpt>
      <trkpt lat="45.86126" lon="4.71439">
        <ele>195</ele>
        <time>2018-04-27T09:10:51Z</time>
      </trkpt>
      <trkpt lat="45.86125" lon="4.71432">
        <ele>195</ele>
        <time>2018-04-27T09:10:52Z</time>
      </trkpt>
      <trkpt lat="45.86125" lon="4.71424">
        <ele>195</ele>
        <time>2018-04-27T09:10:53Z</time>
      </trkpt>
      <trkpt lat="45.86123" lon="4.71416">
        <ele>196</ele>
        <time>2018-04-27T09:10:54Z</time>
      </trkpt>
      <trkpt lat="45.86121" lon="4.7141">
        <ele>196</ele>
        <time>2018-04-27T09:10:55Z</time>
      </trkpt>
      <trkpt lat="45.8612" lon="4.71404">
        <ele>196</ele>
        <time>2018-04-27T09:10:56Z</time>
      </trkpt>
      <trkpt lat="45.8612" lon="4.71397">
        <ele>196</ele>
        <time>2018-04-27T09:10:57Z</time>
      </trkpt>
      <trkpt lat="45.86119" lon="4.71389">
        <ele>196</ele>
        <time>2018-04-27T09:10:58Z</time>
      </trkpt>
      <trkpt lat="45.86118" lon="4.71383">
        <ele>196</ele>
        <time>2018-04-27T09:10:59Z</time>
      </trkpt>
      <trkpt lat="45.86118" lon="4.71376">
        <ele>196</ele>
        <time>2018-04-27T09:11:00Z</time>
      </trkpt>
      <trkpt lat="45.86117" lon="4.71369">
        <ele>196</ele>
        <time>2018-04-27T09:11:01Z</time>
      </trkpt>
      <trkpt lat="45.86115" lon="4.71361">
        <ele>196</ele>
        <time>2018-04-27T09:11:02Z</time>
      </trkpt>
      <trkpt lat="45.86115" lon="4.71355">
        <ele>196</ele>
        <time>2018-04-27T09:11:03Z</time>
      </trkpt>
      <trkpt lat="45.86112" lon="4.71349">
        <ele>196</ele>
        <time>2018-04-27T09:11:04Z</time>
      </trkpt>
      <trkpt lat="45.86113" lon="4.71343">
        <ele>196</ele>
        <time>2018-04-27T09:11:05Z</time>
      </trkpt>
      <trkpt lat="45.86113" lon="4.71335">
        <ele>196</ele>
        <time>2018-04-27T09:11:06Z</time>
      </trkpt>
      <trkpt lat="45.86112" lon="4.71327">
        <ele>196</ele>
        <time>2018-04-27T09:11:07Z</time>
      </trkpt>
      <trkpt lat="45.86111" lon="4.7132">
        <ele>196</ele>
        <time>2018-04-27T09:11:08Z</time>
      </trkpt>
      <trkpt lat="45.8611" lon="4.71313">
        <ele>196</ele>
        <time>2018-04-27T09:11:09Z</time>
      </trkpt>
      <trkpt lat="45.86107" lon="4.71306">
        <ele>196</ele>
        <time>2018-04-27T09:11:10Z</time>
      </trkpt>
      <trkpt lat="45.86105" lon="4.71293">
        <ele>197</ele>
        <time>2018-04-27T09:11:12Z</time>
      </trkpt>
      <trkpt lat="45.86103" lon="4.71286">
        <ele>197</ele>
        <time>2018-04-27T09:11:13Z</time>
      </trkpt>
      <trkpt lat="45.86098" lon="4.71276">
        <ele>197</ele>
        <time>2018-04-27T09:11:15Z</time>
      </trkpt>
      <trkpt lat="45.86097" lon="4.71271">
        <ele>197</ele>
        <time>2018-04-27T09:11:16Z</time>
      </trkpt>
      <trkpt lat="45.86093" lon="4.71265">
        <ele>197</ele>
        <time>2018-04-27T09:11:17Z</time>
      </trkpt>
      <trkpt lat="45.8609" lon="4.71259">
        <ele>197</ele>
        <time>2018-04-27T09:11:18Z</time>
      </trkpt>
      <trkpt lat="45.86088" lon="4.71252">
        <ele>198</ele>
        <time>2018-04-27T09:11:19Z</time>
      </trkpt>
      <trkpt lat="45.86086" lon="4.71244">
        <ele>198</ele>
        <time>2018-04-27T09:11:20Z</time>
      </trkpt>
      <trkpt lat="45.86085" lon="4.71237">
        <ele>197</ele>
        <time>2018-04-27T09:11:21Z</time>
      </trkpt>
      <trkpt lat="45.86084" lon="4.71231">
        <ele>197</ele>
        <time>2018-04-27T09:11:22Z</time>
      </trkpt>
      <trkpt lat="45.86085" lon="4.71224">
        <ele>197</ele>
        <time>2018-04-27T09:11:23Z</time>
      </trkpt>
      <trkpt lat="45.86086" lon="4.71218">
        <ele>197</ele>
        <time>2018-04-27T09:11:24Z</time>
      </trkpt>
      <trkpt lat="45.86087" lon="4.7121">
        <ele>197</ele>
        <time>2018-04-27T09:11:25Z</time>
      </trkpt>
      <trkpt lat="45.86088" lon="4.71203">
        <ele>197</ele>
        <time>2018-04-27T09:11:26Z</time>
      </trkpt>
      <trkpt lat="45.8609" lon="4.71196">
        <ele>197</ele>
        <time>2018-04-27T09:11:27Z</time>
      </trkpt>
      <trkpt lat="45.86091" lon="4.71189">
        <ele>197</ele>
        <time>2018-04-27T09:11:28Z</time>
      </trkpt>
      <trkpt lat="45.86092" lon="4.71181">
        <ele>197</ele>
        <time>2018-04-27T09:11:29Z</time>
      </trkpt>
      <trkpt lat="45.86092" lon="4.71174">
        <ele>197</ele>
        <time>2018-04-27T09:11:30Z</time>
      </trkpt>
      <trkpt lat="45.86093" lon="4.71168">
        <ele>198</ele>
        <time>2018-04-27T09:11:31Z</time>
      </trkpt>
      <trkpt lat="45.86094" lon="4.7116">
        <ele>197</ele>
        <time>2018-04-27T09:11:32Z</time>
      </trkpt>
      <trkpt lat="45.86094" lon="4.71153">
        <ele>197</ele>
        <time>2018-04-27T09:11:33Z</time>
      </trkpt>
      <trkpt lat="45.86093" lon="4.71147">
        <ele>197</ele>
        <time>2018-04-27T09:11:34Z</time>
      </trkpt>
      <trkpt lat="45.86091" lon="4.7114">
        <ele>197</ele>
        <time>2018-04-27T09:11:35Z</time>
      </trkpt>
      <trkpt lat="45.86086" lon="4.71136">
        <ele>197</ele>
        <time>2018-04-27T09:11:36Z</time>
      </trkpt>
      <trkpt lat="45.86082" lon="4.71131">
        <ele>197</ele>
        <time>2018-04-27T09:11:37Z</time>
      </trkpt>
      <trkpt lat="45.86076" lon="4.71128">
        <ele>197</ele>
        <time>2018-04-27T09:11:38Z</time>
      </trkpt>
      <trkpt lat="45.86073" lon="4.71123">
        <ele>197</ele>
        <time>2018-04-27T09:11:39Z</time>
      </trkpt>
      <trkpt lat="45.8607" lon="4.71118">
        <ele>197</ele>
        <time>2018-04-27T09:11:40Z</time>
      </trkpt>
      <trkpt lat="45.86064" lon="4.71114">
        <ele>197</ele>
        <time>2018-04-27T09:11:41Z</time>
      </trkpt>
      <trkpt lat="45.86059" lon="4.7111">
        <ele>197</ele>
        <time>2018-04-27T09:11:42Z</time>
      </trkpt>
      <trkpt lat="45.86055" lon="4.71105">
        <ele>197</ele>
        <time>2018-04-27T09:11:43Z</time>
      </trkpt>
      <trkpt lat="45.86051" lon="4.711">
        <ele>197</ele>
        <time>2018-04-27T09:11:44Z</time>
      </trkpt>
      <trkpt lat="45.86047" lon="4.71097">
        <ele>197</ele>
        <time>2018-04-27T09:11:45Z</time>
      </trkpt>
      <trkpt lat="45.86044" lon="4.71092">
        <ele>197</ele>
        <time>2018-04-27T09:11:46Z</time>
      </trkpt>
      <trkpt lat="45.86042" lon="4.71079">
        <ele>197</ele>
        <time>2018-04-27T09:11:48Z</time>
      </trkpt>
      <trkpt lat="45.8604" lon="4.71073">
        <ele>197</ele>
        <time>2018-04-27T09:11:49Z</time>
      </trkpt>
      <trkpt lat="45.86036" lon="4.71066">
        <ele>197</ele>
        <time>2018-04-27T09:11:50Z</time>
      </trkpt>
      <trkpt lat="45.86035" lon="4.71059">
        <ele>197</ele>
        <time>2018-04-27T09:11:51Z</time>
      </trkpt>
      <trkpt lat="45.86032" lon="4.71053">
        <ele>197</ele>
        <time>2018-04-27T09:11:52Z</time>
      </trkpt>
      <trkpt lat="45.86033" lon="4.71046">
        <ele>197</ele>
        <time>2018-04-27T09:11:53Z</time>
      </trkpt>
      <trkpt lat="45.86031" lon="4.71038">
        <ele>197</ele>
        <time>2018-04-27T09:11:54Z</time>
      </trkpt>
      <trkpt lat="45.8603" lon="4.71031">
        <ele>197</ele>
        <time>2018-04-27T09:11:55Z</time>
      </trkpt>
      <trkpt lat="45.86025" lon="4.71022">
        <ele>197</ele>
        <time>2018-04-27T09:11:57Z</time>
      </trkpt>
      <trkpt lat="45.86022" lon="4.71016">
        <ele>197</ele>
        <time>2018-04-27T09:11:58Z</time>
      </trkpt>
      <trkpt lat="45.86018" lon="4.71013">
        <ele>197</ele>
        <time>2018-04-27T09:11:59Z</time>
      </trkpt>
      <trkpt lat="45.86015" lon="4.71007">
        <ele>197</ele>
        <time>2018-04-27T09:12:00Z</time>
      </trkpt>
      <trkpt lat="45.86009" lon="4.70998">
        <ele>197</ele>
        <time>2018-04-27T09:12:02Z</time>
      </trkpt>
      <trkpt lat="45.86004" lon="4.70994">
        <ele>197</ele>
        <time>2018-04-27T09:12:03Z</time>
      </trkpt>
      <trkpt lat="45.85999" lon="4.70989">
        <ele>197</ele>
        <time>2018-04-27T09:12:04Z</time>
      </trkpt>
      <trkpt lat="45.85993" lon="4.70985">
        <ele>197</ele>
        <time>2018-04-27T09:12:05Z</time>
      </trkpt>
      <trkpt lat="45.85989" lon="4.70982">
        <ele>197</ele>
        <time>2018-04-27T09:12:06Z</time>
      </trkpt>
      <trkpt lat="45.85984" lon="4.70979">
        <ele>197</ele>
        <time>2018-04-27T09:12:07Z</time>
      </trkpt>
      <trkpt lat="45.85979" lon="4.70977">
        <ele>197</ele>
        <time>2018-04-27T09:12:08Z</time>
      </trkpt>
      <trkpt lat="45.85975" lon="4.70975">
        <ele>197</ele>
        <time>2018-04-27T09:12:09Z</time>
      </trkpt>
      <trkpt lat="45.85971" lon="4.70973">
        <ele>197</ele>
        <time>2018-04-27T09:12:10Z</time>
      </trkpt>
      <trkpt lat="45.85965" lon="4.70972">
        <ele>197</ele>
        <time>2018-04-27T09:12:11Z</time>
      </trkpt>
      <trkpt lat="45.85957" lon="4.70971">
        <ele>197</ele>
        <time>2018-04-27T09:12:13Z</time>
      </trkpt>
      <trkpt lat="45.85954" lon="4.70972">
        <ele>197</ele>
        <time>2018-04-27T09:12:14Z</time>
      </trkpt>
      <trkpt lat="45.85946" lon="4.7097">
        <ele>197</ele>
        <time>2018-04-27T09:12:16Z</time>
      </trkpt>
      <trkpt lat="45.85943" lon="4.70968">
        <ele>197</ele>
        <time>2018-04-27T09:12:17Z</time>
      </trkpt>
      <trkpt lat="45.85939" lon="4.70958">
        <ele>197</ele>
        <time>2018-04-27T09:12:19Z</time>
      </trkpt>
      <trkpt lat="45.8594" lon="4.70953">
        <ele>197</ele>
        <time>2018-04-27T09:12:20Z</time>
      </trkpt>
      <trkpt lat="45.85942" lon="4.70942">
        <ele>197</ele>
        <time>2018-04-27T09:12:22Z</time>
      </trkpt>
      <trkpt lat="45.85945" lon="4.70935">
        <ele>197</ele>
        <time>2018-04-27T09:12:23Z</time>
      </trkpt>
      <trkpt lat="45.85947" lon="4.70928">
        <ele>197</ele>
        <time>2018-04-27T09:12:24Z</time>
      </trkpt>
      <trkpt lat="45.85949" lon="4.7092">
        <ele>197</ele>
        <time>2018-04-27T09:12:25Z</time>
      </trkpt>
      <trkpt lat="45.8595" lon="4.70912">
        <ele>197</ele>
        <time>2018-04-27T09:12:26Z</time>
      </trkpt>
      <trkpt lat="45.85952" lon="4.70905">
        <ele>197</ele>
        <time>2018-04-27T09:12:27Z</time>
      </trkpt>
      <trkpt lat="45.85954" lon="4.70898">
        <ele>197</ele>
        <time>2018-04-27T09:12:28Z</time>
      </trkpt>
      <trkpt lat="45.85955" lon="4.70891">
        <ele>197</ele>
        <time>2018-04-27T09:12:29Z</time>
      </trkpt>
      <trkpt lat="45.85957" lon="4.70882">
        <ele>197</ele>
        <time>2018-04-27T09:12:30Z</time>
      </trkpt>
      <trkpt lat="45.85958" lon="4.70875">
        <ele>196</ele>
        <time>2018-04-27T09:12:31Z</time>
      </trkpt>
      <trkpt lat="45.85959" lon="4.70868">
        <ele>196</ele>
        <time>2018-04-27T09:12:32Z</time>
      </trkpt>
      <trkpt lat="45.8596" lon="4.7086">
        <ele>196</ele>
        <time>2018-04-27T09:12:33Z</time>
      </trkpt>
      <trkpt lat="45.8596" lon="4.70853">
        <ele>196</ele>
        <time>2018-04-27T09:12:34Z</time>
      </trkpt>
      <trkpt lat="45.8596" lon="4.70845">
        <ele>196</ele>
        <time>2018-04-27T09:12:35Z</time>
      </trkpt>
      <trkpt lat="45.8596" lon="4.70838">
        <ele>196</ele>
        <time>2018-04-27T09:12:36Z</time>
      </trkpt>
      <trkpt lat="45.8596" lon="4.70831">
        <ele>196</ele>
        <time>2018-04-27T09:12:37Z</time>
      </trkpt>
      <trkpt lat="45.8596" lon="4.70823">
        <ele>195</ele>
        <time>2018-04-27T09:12:38Z</time>
      </trkpt>
      <trkpt lat="45.85959" lon="4.70816">
        <ele>195</ele>
        <time>2018-04-27T09:12:39Z</time>
      </trkpt>
      <trkpt lat="45.85958" lon="4.70807">
        <ele>195</ele>
        <time>2018-04-27T09:12:40Z</time>
      </trkpt>
      <trkpt lat="45.85957" lon="4.70799">
        <ele>195</ele>
        <time>2018-04-27T09:12:41Z</time>
      </trkpt>
      <trkpt lat="45.85956" lon="4.70787">
        <ele>195</ele>
        <time>2018-04-27T09:12:43Z</time>
      </trkpt>
      <trkpt lat="45.85957" lon="4.7078">
        <ele>195</ele>
        <time>2018-04-27T09:12:44Z</time>
      </trkpt>
      <trkpt lat="45.85957" lon="4.70772">
        <ele>195</ele>
        <time>2018-04-27T09:12:45Z</time>
      </trkpt>
      <trkpt lat="45.85958" lon="4.70763">
        <ele>195</ele>
        <time>2018-04-27T09:12:46Z</time>
      </trkpt>
      <trkpt lat="45.85959" lon="4.70755">
        <ele>195</ele>
        <time>2018-04-27T09:12:47Z</time>
      </trkpt>
      <trkpt lat="45.85959" lon="4.70746">
        <ele>194</ele>
        <time>2018-04-27T09:12:48Z</time>
      </trkpt>
      <trkpt lat="45.8596" lon="4.70738">
        <ele>194</ele>
        <time>2018-04-27T09:12:49Z</time>
      </trkpt>
      <trkpt lat="45.85961" lon="4.70729">
        <ele>194</ele>
        <time>2018-04-27T09:12:50Z</time>
      </trkpt>
      <trkpt lat="45.85962" lon="4.70721">
        <ele>194</ele>
        <time>2018-04-27T09:12:51Z</time>
      </trkpt>
      <trkpt lat="45.85963" lon="4.70714">
        <ele>194</ele>
        <time>2018-04-27T09:12:52Z</time>
      </trkpt>
      <trkpt lat="45.85964" lon="4.70702">
        <ele>194</ele>
        <time>2018-04-27T09:12:54Z</time>
      </trkpt>
      <trkpt lat="45.85964" lon="4.70694">
        <ele>194</ele>
        <time>2018-04-27T09:12:55Z</time>
      </trkpt>
      <trkpt lat="45.85965" lon="4.70687">
        <ele>194</ele>
        <time>2018-04-27T09:12:56Z</time>
      </trkpt>
      <trkpt lat="45.85964" lon="4.70681">
        <ele>194</ele>
        <time>2018-04-27T09:12:57Z</time>
      </trkpt>
      <trkpt lat="45.85957" lon="4.7067">
        <ele>194</ele>
        <time>2018-04-27T09:12:58Z</time>
      </trkpt>
      <trkpt lat="45.85954" lon="4.70664">
        <ele>194</ele>
        <time>2018-04-27T09:12:59Z</time>
      </trkpt>
      <trkpt lat="45.8595" lon="4.70657">
        <ele>194</ele>
        <time>2018-04-27T09:13:00Z</time>
      </trkpt>
      <trkpt lat="45.85947" lon="4.70652">
        <ele>194</ele>
        <time>2018-04-27T09:13:01Z</time>
      </trkpt>
      <trkpt lat="45.85944" lon="4.70647">
        <ele>194</ele>
        <time>2018-04-27T09:13:02Z</time>
      </trkpt>
      <trkpt lat="45.8594" lon="4.70641">
        <ele>194</ele>
        <time>2018-04-27T09:13:03Z</time>
      </trkpt>
      <trkpt lat="45.85937" lon="4.70637">
        <ele>194</ele>
        <time>2018-04-27T09:13:04Z</time>
      </trkpt>
      <trkpt lat="45.85932" lon="4.70631">
        <ele>194</ele>
        <time>2018-04-27T09:13:05Z</time>
      </trkpt>
      <trkpt lat="45.85929" lon="4.70628">
        <ele>194</ele>
        <time>2018-04-27T09:13:06Z</time>
      </trkpt>
      <trkpt lat="45.85926" lon="4.70622">
        <ele>194</ele>
        <time>2018-04-27T09:13:07Z</time>
      </trkpt>
      <trkpt lat="45.85922" lon="4.70617">
        <ele>194</ele>
        <time>2018-04-27T09:13:08Z</time>
      </trkpt>
      <trkpt lat="45.85918" lon="4.70612">
        <ele>194</ele>
        <time>2018-04-27T09:13:09Z</time>
      </trkpt>
      <trkpt lat="45.85916" lon="4.70606">
        <ele>195</ele>
        <time>2018-04-27T09:13:10Z</time>
      </trkpt>
      <trkpt lat="45.85912" lon="4.706">
        <ele>195</ele>
        <time>2018-04-27T09:13:11Z</time>
      </trkpt>
      <trkpt lat="45.85909" lon="4.70596">
        <ele>195</ele>
        <time>2018-04-27T09:13:12Z</time>
      </trkpt>
      <trkpt lat="45.85906" lon="4.70591">
        <ele>195</ele>
        <time>2018-04-27T09:13:13Z</time>
      </trkpt>
      <trkpt lat="45.85902" lon="4.70586">
        <ele>195</ele>
        <time>2018-04-27T09:13:14Z</time>
      </trkpt>
      <trkpt lat="45.85897" lon="4.70583">
        <ele>195</ele>
        <time>2018-04-27T09:13:15Z</time>
      </trkpt>
      <trkpt lat="45.85893" lon="4.7058">
        <ele>195</ele>
        <time>2018-04-27T09:13:16Z</time>
      </trkpt>
      <trkpt lat="45.85885" lon="4.70579">
        <ele>195</ele>
        <time>2018-04-27T09:13:18Z</time>
      </trkpt>
      <trkpt lat="45.8588" lon="4.70578">
        <ele>195</ele>
        <time>2018-04-27T09:13:19Z</time>
      </trkpt>
      <trkpt lat="45.85876" lon="4.70575">
        <ele>195</ele>
        <time>2018-04-27T09:13:20Z</time>
      </trkpt>
      <trkpt lat="45.85871" lon="4.70574">
        <ele>195</ele>
        <time>2018-04-27T09:13:21Z</time>
      </trkpt>
      <trkpt lat="45.85867" lon="4.70573">
        <ele>195</ele>
        <time>2018-04-27T09:13:22Z</time>
      </trkpt>
      <trkpt lat="45.85863" lon="4.70571">
        <ele>195</ele>
        <time>2018-04-27T09:13:23Z</time>
      </trkpt>
      <trkpt lat="45.85857" lon="4.70569">
        <ele>195</ele>
        <time>2018-04-27T09:13:24Z</time>
      </trkpt>
      <trkpt lat="45.85853" lon="4.70568">
        <ele>195</ele>
        <time>2018-04-27T09:13:25Z</time>
      </trkpt>
      <trkpt lat="45.85846" lon="4.70564">
        <ele>195</ele>
        <time>2018-04-27T09:13:27Z</time>
      </trkpt>
      <trkpt lat="45.8584" lon="4.70561">
        <ele>195</ele>
        <time>2018-04-27T09:13:28Z</time>
      </trkpt>
      <trkpt lat="45.85835" lon="4.70559">
        <ele>195</ele>
        <time>2018-04-27T09:13:29Z</time>
      </trkpt>
      <trkpt lat="45.85829" lon="4.70556">
        <ele>195</ele>
        <time>2018-04-27T09:13:30Z</time>
      </trkpt>
      <trkpt lat="45.85824" lon="4.70554">
        <ele>195</ele>
        <time>2018-04-27T09:13:31Z</time>
      </trkpt>
      <trkpt lat="45.85819" lon="4.70551">
        <ele>195</ele>
        <time>2018-04-27T09:13:32Z</time>
      </trkpt>
      <trkpt lat="45.85812" lon="4.70548">
        <ele>195</ele>
        <time>2018-04-27T09:13:33Z</time>
      </trkpt>
      <trkpt lat="45.85806" lon="4.70546">
        <ele>195</ele>
        <time>2018-04-27T09:13:34Z</time>
      </trkpt>
      <trkpt lat="45.85801" lon="4.70545">
        <ele>195</ele>
        <time>2018-04-27T09:13:35Z</time>
      </trkpt>
      <trkpt lat="45.85794" lon="4.70543">
        <ele>195</ele>
        <time>2018-04-27T09:13:36Z</time>
      </trkpt>
      <trkpt lat="45.85789" lon="4.7054">
        <ele>196</ele>
        <time>2018-04-27T09:13:37Z</time>
      </trkpt>
      <trkpt lat="45.85784" lon="4.70536">
        <ele>196</ele>
        <time>2018-04-27T09:13:38Z</time>
      </trkpt>
      <trkpt lat="45.85779" lon="4.70532">
        <ele>196</ele>
        <time>2018-04-27T09:13:39Z</time>
      </trkpt>
      <trkpt lat="45.85773" lon="4.70529">
        <ele>196</ele>
        <time>2018-04-27T09:13:40Z</time>
      </trkpt>
      <trkpt lat="45.85769" lon="4.70526">
        <ele>196</ele>
        <time>2018-04-27T09:13:41Z</time>
      </trkpt>
      <trkpt lat="45.85765" lon="4.70523">
        <ele>196</ele>
        <time>2018-04-27T09:13:42Z</time>
      </trkpt>
      <trkpt lat="45.8576" lon="4.70519">
        <ele>196</ele>
        <time>2018-04-27T09:13:43Z</time>
      </trkpt>
      <trkpt lat="45.85756" lon="4.70515">
        <ele>196</ele>
        <time>2018-04-27T09:13:44Z</time>
      </trkpt>
      <trkpt lat="45.85751" lon="4.70512">
        <ele>196</ele>
        <time>2018-04-27T09:13:45Z</time>
      </trkpt>
      <trkpt lat="45.85747" lon="4.70509">
        <ele>196</ele>
        <time>2018-04-27T09:13:46Z</time>
      </trkpt>
      <trkpt lat="45.8574" lon="4.70503">
        <ele>196</ele>
        <time>2018-04-27T09:13:48Z</time>
      </trkpt>
      <trkpt lat="45.85737" lon="4.70499">
        <ele>196</ele>
        <time>2018-04-27T09:13:49Z</time>
      </trkpt>
      <trkpt lat="45.85731" lon="4.7049">
        <ele>196</ele>
        <time>2018-04-27T09:13:51Z</time>
      </trkpt>
      <trkpt lat="45.85728" lon="4.70484">
        <ele>196</ele>
        <time>2018-04-27T09:13:52Z</time>
      </trkpt>
      <trkpt lat="45.85726" lon="4.70479">
        <ele>196</ele>
        <time>2018-04-27T09:13:53Z</time>
      </trkpt>
      <trkpt lat="45.85723" lon="4.70472">
        <ele>196</ele>
        <time>2018-04-27T09:13:54Z</time>
      </trkpt>
      <trkpt lat="45.85721" lon="4.70465">
        <ele>196</ele>
        <time>2018-04-27T09:13:55Z</time>
      </trkpt>
      <trkpt lat="45.8572" lon="4.70458">
        <ele>196</ele>
        <time>2018-04-27T09:13:56Z</time>
      </trkpt>
      <trkpt lat="45.85719" lon="4.70446">
        <ele>196</ele>
        <time>2018-04-27T09:13:58Z</time>
      </trkpt>
      <trkpt lat="45.85719" lon="4.70438">
        <ele>196</ele>
        <time>2018-04-27T09:13:59Z</time>
      </trkpt>
      <trkpt lat="45.85717" lon="4.7043">
        <ele>196</ele>
        <time>2018-04-27T09:14:00Z</time>
      </trkpt>
      <trkpt lat="45.85717" lon="4.70422">
        <ele>196</ele>
        <time>2018-04-27T09:14:01Z</time>
      </trkpt>
      <trkpt lat="45.85716" lon="4.70413">
        <ele>196</ele>
        <time>2018-04-27T09:14:02Z</time>
      </trkpt>
      <trkpt lat="45.85715" lon="4.70405">
        <ele>196</ele>
        <time>2018-04-27T09:14:03Z</time>
      </trkpt>
      <trkpt lat="45.85714" lon="4.70398">
        <ele>196</ele>
        <time>2018-04-27T09:14:04Z</time>
      </trkpt>
      <trkpt lat="45.85713" lon="4.7039">
        <ele>196</ele>
        <time>2018-04-27T09:14:05Z</time>
      </trkpt>
      <trkpt lat="45.85712" lon="4.70382">
        <ele>196</ele>
        <time>2018-04-27T09:14:06Z</time>
      </trkpt>
      <trkpt lat="45.85712" lon="4.70375">
        <ele>196</ele>
        <time>2018-04-27T09:14:07Z</time>
      </trkpt>
      <trkpt lat="45.85713" lon="4.70367">
        <ele>196</ele>
        <time>2018-04-27T09:14:08Z</time>
      </trkpt>
      <trkpt lat="45.85713" lon="4.70358">
        <ele>196</ele>
        <time>2018-04-27T09:14:09Z</time>
      </trkpt>
      <trkpt lat="45.85712" lon="4.7035">
        <ele>196</ele>
        <time>2018-04-27T09:14:10Z</time>
      </trkpt>
      <trkpt lat="45.85712" lon="4.70344">
        <ele>196</ele>
        <time>2018-04-27T09:14:11Z</time>
      </trkpt>
      <trkpt lat="45.85712" lon="4.70336">
        <ele>196</ele>
        <time>2018-04-27T09:14:12Z</time>
      </trkpt>
      <trkpt lat="45.85711" lon="4.70327">
        <ele>197</ele>
        <time>2018-04-27T09:14:13Z</time>
      </trkpt>
      <trkpt lat="45.85711" lon="4.7032">
        <ele>197</ele>
        <time>2018-04-27T09:14:14Z</time>
      </trkpt>
      <trkpt lat="45.85709" lon="4.70312">
        <ele>197</ele>
        <time>2018-04-27T09:14:15Z</time>
      </trkpt>
      <trkpt lat="45.8571" lon="4.70303">
        <ele>197</ele>
        <time>2018-04-27T09:14:16Z</time>
      </trkpt>
      <trkpt lat="45.85709" lon="4.70295">
        <ele>197</ele>
        <time>2018-04-27T09:14:17Z</time>
      </trkpt>
      <trkpt lat="45.85709" lon="4.70287">
        <ele>197</ele>
        <time>2018-04-27T09:14:18Z</time>
      </trkpt>
      <trkpt lat="45.85709" lon="4.7028">
        <ele>197</ele>
        <time>2018-04-27T09:14:19Z</time>
      </trkpt>
      <trkpt lat="45.85709" lon="4.70272">
        <ele>197</ele>
        <time>2018-04-27T09:14:20Z</time>
      </trkpt>
      <trkpt lat="45.8571" lon="4.70264">
        <ele>197</ele>
        <time>2018-04-27T09:14:21Z</time>
      </trkpt>
      <trkpt lat="45.85709" lon="4.70257">
        <ele>197</ele>
        <time>2018-04-27T09:14:22Z</time>
      </trkpt>
      <trkpt lat="45.85709" lon="4.7025">
        <ele>198</ele>
        <time>2018-04-27T09:14:23Z</time>
      </trkpt>
      <trkpt lat="45.85708" lon="4.70242">
        <ele>197</ele>
        <time>2018-04-27T09:14:24Z</time>
      </trkpt>
      <trkpt lat="45.85707" lon="4.70235">
        <ele>197</ele>
        <time>2018-04-27T09:14:25Z</time>
      </trkpt>
      <trkpt lat="45.85705" lon="4.70227">
        <ele>197</ele>
        <time>2018-04-27T09:14:26Z</time>
      </trkpt>
      <trkpt lat="45.85705" lon="4.7022">
        <ele>197</ele>
        <time>2018-04-27T09:14:27Z</time>
      </trkpt>
      <trkpt lat="45.85703" lon="4.70213">
        <ele>197</ele>
        <time>2018-04-27T09:14:28Z</time>
      </trkpt>
      <trkpt lat="45.85702" lon="4.70206">
        <ele>197</ele>
        <time>2018-04-27T09:14:29Z</time>
      </trkpt>
      <trkpt lat="45.85702" lon="4.702">
        <ele>197</ele>
        <time>2018-04-27T09:14:30Z</time>
      </trkpt>
      <trkpt lat="45.857" lon="4.7019">
        <ele>197</ele>
        <time>2018-04-27T09:14:31Z</time>
      </trkpt>
      <trkpt lat="45.85698" lon="4.70184">
        <ele>197</ele>
        <time>2018-04-27T09:14:32Z</time>
      </trkpt>
      <trkpt lat="45.85696" lon="4.70176">
        <ele>197</ele>
        <time>2018-04-27T09:14:33Z</time>
      </trkpt>
      <trkpt lat="45.85694" lon="4.70167">
        <ele>197</ele>
        <time>2018-04-27T09:14:34Z</time>
      </trkpt>
      <trkpt lat="45.85692" lon="4.70159">
        <ele>197</ele>
        <time>2018-04-27T09:14:35Z</time>
      </trkpt>
      <trkpt lat="45.85691" lon="4.70153">
        <ele>197</ele>
        <time>2018-04-27T09:14:36Z</time>
      </trkpt>
      <trkpt lat="45.85689" lon="4.70146">
        <ele>197</ele>
        <time>2018-04-27T09:14:37Z</time>
      </trkpt>
      <trkpt lat="45.85686" lon="4.70139">
        <ele>197</ele>
        <time>2018-04-27T09:14:38Z</time>
      </trkpt>
      <trkpt lat="45.85686" lon="4.70133">
        <ele>197</ele>
        <time>2018-04-27T09:14:39Z</time>
      </trkpt>
      <trkpt lat="45.85685" lon="4.70125">
        <ele>197</ele>
        <time>2018-04-27T09:14:40Z</time>
      </trkpt>
      <trkpt lat="45.85684" lon="4.70117">
        <ele>197</ele>
        <time>2018-04-27T09:14:41Z</time>
      </trkpt>
      <trkpt lat="45.85684" lon="4.7011">
        <ele>197</ele>
        <time>2018-04-27T09:14:42Z</time>
      </trkpt>
      <trkpt lat="45.85683" lon="4.70101">
        <ele>196</ele>
        <time>2018-04-27T09:14:43Z</time>
      </trkpt>
      <trkpt lat="45.85684" lon="4.70094">
        <ele>196</ele>
        <time>2018-04-27T09:14:44Z</time>
      </trkpt>
      <trkpt lat="45.85685" lon="4.70086">
        <ele>196</ele>
        <time>2018-04-27T09:14:45Z</time>
      </trkpt>
      <trkpt lat="45.85684" lon="4.70077">
        <ele>196</ele>
        <time>2018-04-27T09:14:46Z</time>
      </trkpt>
      <trkpt lat="45.85684" lon="4.70069">
        <ele>196</ele>
        <time>2018-04-27T09:14:47Z</time>
      </trkpt>
      <trkpt lat="45.85685" lon="4.70061">
        <ele>196</ele>
        <time>2018-04-27T09:14:48Z</time>
      </trkpt>
      <trkpt lat="45.85687" lon="4.70056">
        <ele>195</ele>
        <time>2018-04-27T09:14:49Z</time>
      </trkpt>
      <trkpt lat="45.8569" lon="4.70046">
        <ele>195</ele>
        <time>2018-04-27T09:14:51Z</time>
      </trkpt>
      <trkpt lat="45.85692" lon="4.7004">
        <ele>195</ele>
        <time>2018-04-27T09:14:52Z</time>
      </trkpt>
      <trkpt lat="45.85692" lon="4.70033">
        <ele>195</ele>
        <time>2018-04-27T09:14:53Z</time>
      </trkpt>
      <trkpt lat="45.85693" lon="4.70025">
        <ele>195</ele>
        <time>2018-04-27T09:14:54Z</time>
      </trkpt>
      <trkpt lat="45.85694" lon="4.70017">
        <ele>195</ele>
        <time>2018-04-27T09:14:55Z</time>
      </trkpt>
      <trkpt lat="45.85694" lon="4.7001">
        <ele>195</ele>
        <time>2018-04-27T09:14:56Z</time>
      </trkpt>
      <trkpt lat="45.85694" lon="4.70001">
        <ele>195</ele>
        <time>2018-04-27T09:14:57Z</time>
      </trkpt>
      <trkpt lat="45.85694" lon="4.69992">
        <ele>195</ele>
        <time>2018-04-27T09:14:58Z</time>
      </trkpt>
      <trkpt lat="45.85694" lon="4.69985">
        <ele>195</ele>
        <time>2018-04-27T09:14:59Z</time>
      </trkpt>
      <trkpt lat="45.85692" lon="4.69975">
        <ele>195</ele>
        <time>2018-04-27T09:15:00Z</time>
      </trkpt>
      <trkpt lat="45.8569" lon="4.69967">
        <ele>195</ele>
        <time>2018-04-27T09:15:01Z</time>
      </trkpt>
      <trkpt lat="45.85689" lon="4.69959">
        <ele>195</ele>
        <time>2018-04-27T09:15:02Z</time>
      </trkpt>
      <trkpt lat="45.85686" lon="4.69949">
        <ele>195</ele>
        <time>2018-04-27T09:15:03Z</time>
      </trkpt>
      <trkpt lat="45.85683" lon="4.6994">
        <ele>195</ele>
        <time>2018-04-27T09:15:04Z</time>
      </trkpt>
      <trkpt lat="45.8568" lon="4.69931">
        <ele>195</ele>
        <time>2018-04-27T09:15:05Z</time>
      </trkpt>
      <trkpt lat="45.85678" lon="4.69923">
        <ele>195</ele>
        <time>2018-04-27T09:15:06Z</time>
      </trkpt>
      <trkpt lat="45.85675" lon="4.69915">
        <ele>195</ele>
        <time>2018-04-27T09:15:07Z</time>
      </trkpt>
      <trkpt lat="45.85674" lon="4.69907">
        <ele>195</ele>
        <time>2018-04-27T09:15:08Z</time>
      </trkpt>
      <trkpt lat="45.85672" lon="4.69899">
        <ele>195</ele>
        <time>2018-04-27T09:15:09Z</time>
      </trkpt>
      <trkpt lat="45.8567" lon="4.69892">
        <ele>195</ele>
        <time>2018-04-27T09:15:10Z</time>
      </trkpt>
      <trkpt lat="45.85669" lon="4.69883">
        <ele>195</ele>
        <time>2018-04-27T09:15:11Z</time>
      </trkpt>
      <trkpt lat="45.85668" lon="4.69876">
        <ele>195</ele>
        <time>2018-04-27T09:15:12Z</time>
      </trkpt>
      <trkpt lat="45.85667" lon="4.69869">
        <ele>195</ele>
        <time>2018-04-27T09:15:13Z</time>
      </trkpt>
      <trkpt lat="45.85665" lon="4.69861">
        <ele>195</ele>
        <time>2018-04-27T09:15:14Z</time>
      </trkpt>
      <trkpt lat="45.85665" lon="4.69854">
        <ele>195</ele>
        <time>2018-04-27T09:15:15Z</time>
      </trkpt>
      <trkpt lat="45.85665" lon="4.69845">
        <ele>195</ele>
        <time>2018-04-27T09:15:16Z</time>
      </trkpt>
      <trkpt lat="45.85665" lon="4.69837">
        <ele>195</ele>
        <time>2018-04-27T09:15:17Z</time>
      </trkpt>
      <trkpt lat="45.85664" lon="4.69831">
        <ele>195</ele>
        <time>2018-04-27T09:15:18Z</time>
      </trkpt>
      <trkpt lat="45.85663" lon="4.69823">
        <ele>195</ele>
        <time>2018-04-27T09:15:19Z</time>
      </trkpt>
      <trkpt lat="45.85663" lon="4.69816">
        <ele>195</ele>
        <time>2018-04-27T09:15:20Z</time>
      </trkpt>
      <trkpt lat="45.85662" lon="4.69808">
        <ele>195</ele>
        <time>2018-04-27T09:15:21Z</time>
      </trkpt>
      <trkpt lat="45.85661" lon="4.698">
        <ele>195</ele>
        <time>2018-04-27T09:15:22Z</time>
      </trkpt>
      <trkpt lat="45.8566" lon="4.69793">
        <ele>195</ele>
        <time>2018-04-27T09:15:23Z</time>
      </trkpt>
      <trkpt lat="45.8566" lon="4.69785">
        <ele>195</ele>
        <time>2018-04-27T09:15:24Z</time>
      </trkpt>
      <trkpt lat="45.85659" lon="4.69778">
        <ele>195</ele>
        <time>2018-04-27T09:15:25Z</time>
      </trkpt>
      <trkpt lat="45.85659" lon="4.69771">
        <ele>195</ele>
        <time>2018-04-27T09:15:26Z</time>
      </trkpt>
      <trkpt lat="45.85658" lon="4.69764">
        <ele>195</ele>
        <time>2018-04-27T09:15:27Z</time>
      </trkpt>
      <trkpt lat="45.85658" lon="4.69758">
        <ele>194</ele>
        <time>2018-04-27T09:15:28Z</time>
      </trkpt>
      <trkpt lat="45.85657" lon="4.69749">
        <ele>195</ele>
        <time>2018-04-27T09:15:29Z</time>
      </trkpt>
      <trkpt lat="45.85656" lon="4.69741">
        <ele>195</ele>
        <time>2018-04-27T09:15:30Z</time>
      </trkpt>
      <trkpt lat="45.85654" lon="4.69733">
        <ele>195</ele>
        <time>2018-04-27T09:15:31Z</time>
      </trkpt>
      <trkpt lat="45.85653" lon="4.69727">
        <ele>195</ele>
        <time>2018-04-27T09:15:32Z</time>
      </trkpt>
      <trkpt lat="45.85653" lon="4.69719">
        <ele>196</ele>
        <time>2018-04-27T09:15:33Z</time>
      </trkpt>
      <trkpt lat="45.85652" lon="4.69711">
        <ele>196</ele>
        <time>2018-04-27T09:15:34Z</time>
      </trkpt>
      <trkpt lat="45.8565" lon="4.69703">
        <ele>196</ele>
        <time>2018-04-27T09:15:35Z</time>
      </trkpt>
      <trkpt lat="45.85649" lon="4.69697">
        <ele>196</ele>
        <time>2018-04-27T09:15:36Z</time>
      </trkpt>
      <trkpt lat="45.85649" lon="4.6969">
        <ele>196</ele>
        <time>2018-04-27T09:15:37Z</time>
      </trkpt>
      <trkpt lat="45.85649" lon="4.69683">
        <ele>196</ele>
        <time>2018-04-27T09:15:38Z</time>
      </trkpt>
      <trkpt lat="45.85649" lon="4.69676">
        <ele>196</ele>
        <time>2018-04-27T09:15:39Z</time>
      </trkpt>
      <trkpt lat="45.85649" lon="4.69668">
        <ele>196</ele>
        <time>2018-04-27T09:15:40Z</time>
      </trkpt>
      <trkpt lat="45.85648" lon="4.6966">
        <ele>197</ele>
        <time>2018-04-27T09:15:41Z</time>
      </trkpt>
      <trkpt lat="45.85647" lon="4.69654">
        <ele>197</ele>
        <time>2018-04-27T09:15:42Z</time>
      </trkpt>
      <trkpt lat="45.85646" lon="4.69647">
        <ele>197</ele>
        <time>2018-04-27T09:15:43Z</time>
      </trkpt>
      <trkpt lat="45.85645" lon="4.69639">
        <ele>197</ele>
        <time>2018-04-27T09:15:44Z</time>
      </trkpt>
      <trkpt lat="45.85644" lon="4.69632">
        <ele>197</ele>
        <time>2018-04-27T09:15:45Z</time>
      </trkpt>
      <trkpt lat="45.85643" lon="4.69624">
        <ele>197</ele>
        <time>2018-04-27T09:15:46Z</time>
      </trkpt>
      <trkpt lat="45.85641" lon="4.69616">
        <ele>197</ele>
        <time>2018-04-27T09:15:47Z</time>
      </trkpt>
      <trkpt lat="45.8564" lon="4.69608">
        <ele>197</ele>
        <time>2018-04-27T09:15:48Z</time>
      </trkpt>
      <trkpt lat="45.8564" lon="4.69599">
        <ele>197</ele>
        <time>2018-04-27T09:15:49Z</time>
      </trkpt>
      <trkpt lat="45.8564" lon="4.69591">
        <ele>197</ele>
        <time>2018-04-27T09:15:50Z</time>
      </trkpt>
      <trkpt lat="45.85638" lon="4.69582">
        <ele>198</ele>
        <time>2018-04-27T09:15:51Z</time>
      </trkpt>
      <trkpt lat="45.85637" lon="4.69574">
        <ele>198</ele>
        <time>2018-04-27T09:15:52Z</time>
      </trkpt>
      <trkpt lat="45.85638" lon="4.69566">
        <ele>198</ele>
        <time>2018-04-27T09:15:53Z</time>
      </trkpt>
      <trkpt lat="45.85637" lon="4.69557">
        <ele>198</ele>
        <time>2018-04-27T09:15:54Z</time>
      </trkpt>
      <trkpt lat="45.85636" lon="4.69551">
        <ele>198</ele>
        <time>2018-04-27T09:15:55Z</time>
      </trkpt>
      <trkpt lat="45.85634" lon="4.69543">
        <ele>198</ele>
        <time>2018-04-27T09:15:56Z</time>
      </trkpt>
      <trkpt lat="45.85634" lon="4.69536">
        <ele>198</ele>
        <time>2018-04-27T09:15:57Z</time>
      </trkpt>
      <trkpt lat="45.85634" lon="4.69529">
        <ele>198</ele>
        <time>2018-04-27T09:15:58Z</time>
      </trkpt>
      <trkpt lat="45.85633" lon="4.69516">
        <ele>198</ele>
        <time>2018-04-27T09:16:00Z</time>
      </trkpt>
      <trkpt lat="45.85633" lon="4.69509">
        <ele>198</ele>
        <time>2018-04-27T09:16:01Z</time>
      </trkpt>
      <trkpt lat="45.85632" lon="4.69502">
        <ele>198</ele>
        <time>2018-04-27T09:16:02Z</time>
      </trkpt>
      <trkpt lat="45.85631" lon="4.69494">
        <ele>198</ele>
        <time>2018-04-27T09:16:03Z</time>
      </trkpt>
      <trkpt lat="45.85626" lon="4.69486">
        <ele>198</ele>
        <time>2018-04-27T09:16:04Z</time>
      </trkpt>
      <trkpt lat="45.85625" lon="4.69479">
        <ele>198</ele>
        <time>2018-04-27T09:16:05Z</time>
      </trkpt>
      <trkpt lat="45.85623" lon="4.69473">
        <ele>198</ele>
        <time>2018-04-27T09:16:06Z</time>
      </trkpt>
      <trkpt lat="45.85623" lon="4.69466">
        <ele>198</ele>
        <time>2018-04-27T09:16:07Z</time>
      </trkpt>
      <trkpt lat="45.85624" lon="4.69454">
        <ele>198</ele>
        <time>2018-04-27T09:16:09Z</time>
      </trkpt>
      <trkpt lat="45.85624" lon="4.69447">
        <ele>198</ele>
        <time>2018-04-27T09:16:10Z</time>
      </trkpt>
      <trkpt lat="45.85624" lon="4.69441">
        <ele>198</ele>
        <time>2018-04-27T09:16:11Z</time>
      </trkpt>
      <trkpt lat="45.85623" lon="4.69433">
        <ele>198</ele>
        <time>2018-04-27T09:16:12Z</time>
      </trkpt>
      <trkpt lat="45.85622" lon="4.69424">
        <ele>198</ele>
        <time>2018-04-27T09:16:13Z</time>
      </trkpt>
      <trkpt lat="45.85622" lon="4.69417">
        <ele>198</ele>
        <time>2018-04-27T09:16:14Z</time>
      </trkpt>
      <trkpt lat="45.85621" lon="4.6941">
        <ele>198</ele>
        <time>2018-04-27T09:16:15Z</time>
      </trkpt>
      <trkpt lat="45.8562" lon="4.69402">
        <ele>198</ele>
        <time>2018-04-27T09:16:16Z</time>
      </trkpt>
      <trkpt lat="45.8562" lon="4.69396">
        <ele>198</ele>
        <time>2018-04-27T09:16:17Z</time>
      </trkpt>
      <trkpt lat="45.85618" lon="4.69387">
        <ele>198</ele>
        <time>2018-04-27T09:16:18Z</time>
      </trkpt>
      <trkpt lat="45.85617" lon="4.69375">
        <ele>198</ele>
        <time>2018-04-27T09:16:20Z</time>
      </trkpt>
      <trkpt lat="45.85616" lon="4.69368">
        <ele>198</ele>
        <time>2018-04-27T09:16:21Z</time>
      </trkpt>
      <trkpt lat="45.85615" lon="4.69361">
        <ele>198</ele>
        <time>2018-04-27T09:16:22Z</time>
      </trkpt>
      <trkpt lat="45.85616" lon="4.69354">
        <ele>198</ele>
        <time>2018-04-27T09:16:23Z</time>
      </trkpt>
      <trkpt lat="45.85616" lon="4.69347">
        <ele>198</ele>
        <time>2018-04-27T09:16:24Z</time>
      </trkpt>
      <trkpt lat="45.85615" lon="4.69339">
        <ele>198</ele>
        <time>2018-04-27T09:16:25Z</time>
      </trkpt>
      <trkpt lat="45.85614" lon="4.69332">
        <ele>198</ele>
        <time>2018-04-27T09:16:26Z</time>
      </trkpt>
      <trkpt lat="45.85613" lon="4.69325">
        <ele>198</ele>
        <time>2018-04-27T09:16:27Z</time>
      </trkpt>
      <trkpt lat="45.85613" lon="4.69317">
        <ele>198</ele>
        <time>2018-04-27T09:16:28Z</time>
      </trkpt>
      <trkpt lat="45.85613" lon="4.6931">
        <ele>198</ele>
        <time>2018-04-27T09:16:29Z</time>
      </trkpt>
      <trkpt lat="45.85612" lon="4.69303">
        <ele>198</ele>
        <time>2018-04-27T09:16:30Z</time>
      </trkpt>
      <trkpt lat="45.85611" lon="4.69296">
        <ele>198</ele>
        <time>2018-04-27T09:16:31Z</time>
      </trkpt>
      <trkpt lat="45.85611" lon="4.69287">
        <ele>198</ele>
        <time>2018-04-27T09:16:32Z</time>
      </trkpt>
      <trkpt lat="45.85612" lon="4.69279">
        <ele>198</ele>
        <time>2018-04-27T09:16:33Z</time>
      </trkpt>
      <trkpt lat="45.85613" lon="4.69271">
        <ele>198</ele>
        <time>2018-04-27T09:16:34Z</time>
      </trkpt>
      <trkpt lat="45.85613" lon="4.69262">
        <ele>198</ele>
        <time>2018-04-27T09:16:35Z</time>
      </trkpt>
      <trkpt lat="45.85612" lon="4.69254">
        <ele>198</ele>
        <time>2018-04-27T09:16:36Z</time>
      </trkpt>
      <trkpt lat="45.85609" lon="4.69245">
        <ele>199</ele>
        <time>2018-04-27T09:16:37Z</time>
      </trkpt>
      <trkpt lat="45.85607" lon="4.69238">
        <ele>199</ele>
        <time>2018-04-27T09:16:38Z</time>
      </trkpt>
      <trkpt lat="45.85605" lon="4.69228">
        <ele>199</ele>
        <time>2018-04-27T09:16:39Z</time>
      </trkpt>
      <trkpt lat="45.85603" lon="4.69221">
        <ele>199</ele>
        <time>2018-04-27T09:16:40Z</time>
      </trkpt>
      <trkpt lat="45.85603" lon="4.69214">
        <ele>199</ele>
        <time>2018-04-27T09:16:41Z</time>
      </trkpt>
      <trkpt lat="45.85602" lon="4.69206">
        <ele>199</ele>
        <time>2018-04-27T09:16:42Z</time>
      </trkpt>
      <trkpt lat="45.85602" lon="4.69197">
        <ele>199</ele>
        <time>2018-04-27T09:16:43Z</time>
      </trkpt>
      <trkpt lat="45.85601" lon="4.69188">
        <ele>199</ele>
        <time>2018-04-27T09:16:44Z</time>
      </trkpt>
      <trkpt lat="45.856" lon="4.69179">
        <ele>199</ele>
        <time>2018-04-27T09:16:45Z</time>
      </trkpt>
      <trkpt lat="45.85599" lon="4.6917">
        <ele>199</ele>
        <time>2018-04-27T09:16:46Z</time>
      </trkpt>
      <trkpt lat="45.85598" lon="4.69161">
        <ele>199</ele>
        <time>2018-04-27T09:16:47Z</time>
      </trkpt>
      <trkpt lat="45.85598" lon="4.69154">
        <ele>199</ele>
        <time>2018-04-27T09:16:48Z</time>
      </trkpt>
      <trkpt lat="45.85597" lon="4.69146">
        <ele>199</ele>
        <time>2018-04-27T09:16:49Z</time>
      </trkpt>
      <trkpt lat="45.85597" lon="4.69138">
        <ele>199</ele>
        <time>2018-04-27T09:16:50Z</time>
      </trkpt>
      <trkpt lat="45.85597" lon="4.6913">
        <ele>198</ele>
        <time>2018-04-27T09:16:51Z</time>
      </trkpt>
      <trkpt lat="45.85595" lon="4.69121">
        <ele>198</ele>
        <time>2018-04-27T09:16:52Z</time>
      </trkpt>
      <trkpt lat="45.85595" lon="4.69114">
        <ele>198</ele>
        <time>2018-04-27T09:16:53Z</time>
      </trkpt>
      <trkpt lat="45.85594" lon="4.69106">
        <ele>199</ele>
        <time>2018-04-27T09:16:54Z</time>
      </trkpt>
      <trkpt lat="45.85593" lon="4.69098">
        <ele>199</ele>
        <time>2018-04-27T09:16:55Z</time>
      </trkpt>
      <trkpt lat="45.85592" lon="4.6909">
        <ele>199</ele>
        <time>2018-04-27T09:16:56Z</time>
      </trkpt>
      <trkpt lat="45.85592" lon="4.69082">
        <ele>199</ele>
        <time>2018-04-27T09:16:57Z</time>
      </trkpt>
      <trkpt lat="45.85591" lon="4.69073">
        <ele>199</ele>
        <time>2018-04-27T09:16:58Z</time>
      </trkpt>
      <trkpt lat="45.8559" lon="4.69065">
        <ele>199</ele>
        <time>2018-04-27T09:16:59Z</time>
      </trkpt>
      <trkpt lat="45.85589" lon="4.69057">
        <ele>199</ele>
        <time>2018-04-27T09:17:00Z</time>
      </trkpt>
      <trkpt lat="45.85588" lon="4.69048">
        <ele>199</ele>
        <time>2018-04-27T09:17:01Z</time>
      </trkpt>
      <trkpt lat="45.85588" lon="4.69041">
        <ele>199</ele>
        <time>2018-04-27T09:17:02Z</time>
      </trkpt>
      <trkpt lat="45.85588" lon="4.69032">
        <ele>199</ele>
        <time>2018-04-27T09:17:03Z</time>
      </trkpt>
      <trkpt lat="45.85587" lon="4.69023">
        <ele>199</ele>
        <time>2018-04-27T09:17:04Z</time>
      </trkpt>
      <trkpt lat="45.85585" lon="4.69014">
        <ele>199</ele>
        <time>2018-04-27T09:17:05Z</time>
      </trkpt>
      <trkpt lat="45.85585" lon="4.69005">
        <ele>200</ele>
        <time>2018-04-27T09:17:06Z</time>
      </trkpt>
      <trkpt lat="45.85585" lon="4.68998">
        <ele>200</ele>
        <time>2018-04-27T09:17:07Z</time>
      </trkpt>
      <trkpt lat="45.85585" lon="4.68989">
        <ele>200</ele>
        <time>2018-04-27T09:17:08Z</time>
      </trkpt>
      <trkpt lat="45.85584" lon="4.68979">
        <ele>200</ele>
        <time>2018-04-27T09:17:09Z</time>
      </trkpt>
      <trkpt lat="45.85582" lon="4.6897">
        <ele>200</ele>
        <time>2018-04-27T09:17:10Z</time>
      </trkpt>
      <trkpt lat="45.85582" lon="4.68961">
        <ele>200</ele>
        <time>2018-04-27T09:17:11Z</time>
      </trkpt>
      <trkpt lat="45.85582" lon="4.68953">
        <ele>200</ele>
        <time>2018-04-27T09:17:12Z</time>
      </trkpt>
      <trkpt lat="45.85581" lon="4.68944">
        <ele>200</ele>
        <time>2018-04-27T09:17:13Z</time>
      </trkpt>
      <trkpt lat="45.8558" lon="4.68935">
        <ele>200</ele>
        <time>2018-04-27T09:17:14Z</time>
      </trkpt>
      <trkpt lat="45.8558" lon="4.68926">
        <ele>200</ele>
        <time>2018-04-27T09:17:15Z</time>
      </trkpt>
      <trkpt lat="45.85579" lon="4.68918">
        <ele>200</ele>
        <time>2018-04-27T09:17:16Z</time>
      </trkpt>
      <trkpt lat="45.85578" lon="4.68909">
        <ele>200</ele>
        <time>2018-04-27T09:17:17Z</time>
      </trkpt>
      <trkpt lat="45.85577" lon="4.689">
        <ele>200</ele>
        <time>2018-04-27T09:17:18Z</time>
      </trkpt>
      <trkpt lat="45.85577" lon="4.6889">
        <ele>200</ele>
        <time>2018-04-27T09:17:19Z</time>
      </trkpt>
      <trkpt lat="45.85575" lon="4.68881">
        <ele>200</ele>
        <time>2018-04-27T09:17:20Z</time>
      </trkpt>
      <trkpt lat="45.85574" lon="4.68872">
        <ele>200</ele>
        <time>2018-04-27T09:17:21Z</time>
      </trkpt>
      <trkpt lat="45.85574" lon="4.68862">
        <ele>200</ele>
        <time>2018-04-27T09:17:22Z</time>
      </trkpt>
      <trkpt lat="45.85573" lon="4.68853">
        <ele>200</ele>
        <time>2018-04-27T09:17:23Z</time>
      </trkpt>
      <trkpt lat="45.85572" lon="4.68844">
        <ele>200</ele>
        <time>2018-04-27T09:17:24Z</time>
      </trkpt>
      <trkpt lat="45.85571" lon="4.68836">
        <ele>200</ele>
        <time>2018-04-27T09:17:25Z</time>
      </trkpt>
      <trkpt lat="45.85571" lon="4.68828">
        <ele>200</ele>
        <time>2018-04-27T09:17:26Z</time>
      </trkpt>
      <trkpt lat="45.8557" lon="4.68819">
        <ele>200</ele>
        <time>2018-04-27T09:17:27Z</time>
      </trkpt>
      <trkpt lat="45.85569" lon="4.6881">
        <ele>200</ele>
        <time>2018-04-27T09:17:28Z</time>
      </trkpt>
      <trkpt lat="45.85569" lon="4.68802">
        <ele>200</ele>
        <time>2018-04-27T09:17:29Z</time>
      </trkpt>
      <trkpt lat="45.85568" lon="4.68795">
        <ele>200</ele>
        <time>2018-04-27T09:17:30Z</time>
      </trkpt>
      <trkpt lat="45.85565" lon="4.68789">
        <ele>200</ele>
        <time>2018-04-27T09:17:31Z</time>
      </trkpt>
      <trkpt lat="45.85564" lon="4.68778">
        <ele>200</ele>
        <time>2018-04-27T09:17:35Z</time>
      </trkpt>
      <trkpt lat="45.85564" lon="4.68777">
        <ele>200</ele>
        <time>2018-04-27T09:17:36Z</time>
      </trkpt>
      <trkpt lat="45.85565" lon="4.68775">
        <ele>200</ele>
        <time>2018-04-27T09:17:49Z</time>
      </trkpt>
      <trkpt lat="45.85565" lon="4.68774">
        <ele>200</ele>
        <time>2018-04-27T09:17:50Z</time>
      </trkpt>
      <trkpt lat="45.85565" lon="4.68763">
        <ele>200</ele>
        <time>2018-04-27T09:17:55Z</time>
      </trkpt>
      <trkpt lat="45.85565" lon="4.68759">
        <ele>200</ele>
        <time>2018-04-27T09:17:56Z</time>
      </trkpt>
      <trkpt lat="45.85564" lon="4.68747">
        <ele>200</ele>
        <time>2018-04-27T09:17:59Z</time>
      </trkpt>
      <trkpt lat="45.85562" lon="4.68733">
        <ele>200</ele>
        <time>2018-04-27T09:18:00Z</time>
      </trkpt>
      <trkpt lat="45.8556" lon="4.68722">
        <ele>200</ele>
        <time>2018-04-27T09:18:02Z</time>
      </trkpt>
      <trkpt lat="45.85558" lon="4.68715">
        <ele>200</ele>
        <time>2018-04-27T09:18:03Z</time>
      </trkpt>
      <trkpt lat="45.85557" lon="4.68708">
        <ele>200</ele>
        <time>2018-04-27T09:18:04Z</time>
      </trkpt>
      <trkpt lat="45.85557" lon="4.68701">
        <ele>200</ele>
        <time>2018-04-27T09:18:05Z</time>
      </trkpt>
      <trkpt lat="45.85556" lon="4.68694">
        <ele>200</ele>
        <time>2018-04-27T09:18:06Z</time>
      </trkpt>
      <trkpt lat="45.85555" lon="4.68685">
        <ele>200</ele>
        <time>2018-04-27T09:18:07Z</time>
      </trkpt>
      <trkpt lat="45.85554" lon="4.68676">
        <ele>200</ele>
        <time>2018-04-27T09:18:08Z</time>
      </trkpt>
      <trkpt lat="45.85554" lon="4.68668">
        <ele>200</ele>
        <time>2018-04-27T09:18:09Z</time>
      </trkpt>
      <trkpt lat="45.85553" lon="4.68661">
        <ele>200</ele>
        <time>2018-04-27T09:18:10Z</time>
      </trkpt>
      <trkpt lat="45.85552" lon="4.68653">
        <ele>201</ele>
        <time>2018-04-27T09:18:11Z</time>
      </trkpt>
      <trkpt lat="45.85551" lon="4.68643">
        <ele>201</ele>
        <time>2018-04-27T09:18:12Z</time>
      </trkpt>
      <trkpt lat="45.8555" lon="4.68634">
        <ele>201</ele>
        <time>2018-04-27T09:18:13Z</time>
      </trkpt>
      <trkpt lat="45.85549" lon="4.68626">
        <ele>201</ele>
        <time>2018-04-27T09:18:14Z</time>
      </trkpt>
      <trkpt lat="45.8555" lon="4.68618">
        <ele>201</ele>
        <time>2018-04-27T09:18:15Z</time>
      </trkpt>
      <trkpt lat="45.8555" lon="4.6861">
        <ele>201</ele>
        <time>2018-04-27T09:18:16Z</time>
      </trkpt>
      <trkpt lat="45.85549" lon="4.68601">
        <ele>201</ele>
        <time>2018-04-27T09:18:17Z</time>
      </trkpt>
      <trkpt lat="45.85548" lon="4.68591">
        <ele>201</ele>
        <time>2018-04-27T09:18:18Z</time>
      </trkpt>
      <trkpt lat="45.85548" lon="4.68582">
        <ele>201</ele>
        <time>2018-04-27T09:18:19Z</time>
      </trkpt>
      <trkpt lat="45.85547" lon="4.68572">
        <ele>201</ele>
        <time>2018-04-27T09:18:20Z</time>
      </trkpt>
      <trkpt lat="45.85546" lon="4.68563">
        <ele>201</ele>
        <time>2018-04-27T09:18:21Z</time>
      </trkpt>
      <trkpt lat="45.85546" lon="4.68555">
        <ele>201</ele>
        <time>2018-04-27T09:18:22Z</time>
      </trkpt>
      <trkpt lat="45.85546" lon="4.68546">
        <ele>201</ele>
        <time>2018-04-27T09:18:23Z</time>
      </trkpt>
      <trkpt lat="45.85544" lon="4.68537">
        <ele>201</ele>
        <time>2018-04-27T09:18:24Z</time>
      </trkpt>
      <trkpt lat="45.85543" lon="4.68527">
        <ele>201</ele>
        <time>2018-04-27T09:18:25Z</time>
      </trkpt>
      <trkpt lat="45.85542" lon="4.68518">
        <ele>201</ele>
        <time>2018-04-27T09:18:26Z</time>
      </trkpt>
      <trkpt lat="45.85542" lon="4.6851">
        <ele>201</ele>
        <time>2018-04-27T09:18:27Z</time>
      </trkpt>
      <trkpt lat="45.85541" lon="4.68501">
        <ele>201</ele>
        <time>2018-04-27T09:18:28Z</time>
      </trkpt>
      <trkpt lat="45.8554" lon="4.68494">
        <ele>200</ele>
        <time>2018-04-27T09:18:29Z</time>
      </trkpt>
      <trkpt lat="45.85539" lon="4.68486">
        <ele>200</ele>
        <time>2018-04-27T09:18:30Z</time>
      </trkpt>
      <trkpt lat="45.85538" lon="4.68479">
        <ele>200</ele>
        <time>2018-04-27T09:18:31Z</time>
      </trkpt>
      <trkpt lat="45.85537" lon="4.68472">
        <ele>200</ele>
        <time>2018-04-27T09:18:32Z</time>
      </trkpt>
      <trkpt lat="45.85537" lon="4.68465">
        <ele>200</ele>
        <time>2018-04-27T09:18:33Z</time>
      </trkpt>
      <trkpt lat="45.85536" lon="4.68456">
        <ele>200</ele>
        <time>2018-04-27T09:18:34Z</time>
      </trkpt>
      <trkpt lat="45.85535" lon="4.68448">
        <ele>200</ele>
        <time>2018-04-27T09:18:35Z</time>
      </trkpt>
      <trkpt lat="45.85534" lon="4.68439">
        <ele>200</ele>
        <time>2018-04-27T09:18:36Z</time>
      </trkpt>
      <trkpt lat="45.85533" lon="4.68431">
        <ele>200</ele>
        <time>2018-04-27T09:18:37Z</time>
      </trkpt>
      <trkpt lat="45.85533" lon="4.68423">
        <ele>200</ele>
        <time>2018-04-27T09:18:38Z</time>
      </trkpt>
      <trkpt lat="45.85532" lon="4.68413">
        <ele>200</ele>
        <time>2018-04-27T09:18:39Z</time>
      </trkpt>
      <trkpt lat="45.8553" lon="4.68402">
        <ele>200</ele>
        <time>2018-04-27T09:18:40Z</time>
      </trkpt>
      <trkpt lat="45.8553" lon="4.68397">
        <ele>200</ele>
        <time>2018-04-27T09:18:41Z</time>
      </trkpt>
      <trkpt lat="45.8553" lon="4.68388">
        <ele>200</ele>
        <time>2018-04-27T09:18:42Z</time>
      </trkpt>
      <trkpt lat="45.8553" lon="4.6838">
        <ele>201</ele>
        <time>2018-04-27T09:18:43Z</time>
      </trkpt>
      <trkpt lat="45.8553" lon="4.68372">
        <ele>201</ele>
        <time>2018-04-27T09:18:44Z</time>
      </trkpt>
      <trkpt lat="45.85529" lon="4.68363">
        <ele>201</ele>
        <time>2018-04-27T09:18:45Z</time>
      </trkpt>
      <trkpt lat="45.85529" lon="4.68355">
        <ele>201</ele>
        <time>2018-04-27T09:18:46Z</time>
      </trkpt>
      <trkpt lat="45.85528" lon="4.68345">
        <ele>201</ele>
        <time>2018-04-27T09:18:47Z</time>
      </trkpt>
      <trkpt lat="45.85527" lon="4.68337">
        <ele>201</ele>
        <time>2018-04-27T09:18:48Z</time>
      </trkpt>
      <trkpt lat="45.85527" lon="4.68327">
        <ele>202</ele>
        <time>2018-04-27T09:18:49Z</time>
      </trkpt>
      <trkpt lat="45.85526" lon="4.68318">
        <ele>202</ele>
        <time>2018-04-27T09:18:50Z</time>
      </trkpt>
      <trkpt lat="45.85525" lon="4.68309">
        <ele>202</ele>
        <time>2018-04-27T09:18:51Z</time>
      </trkpt>
      <trkpt lat="45.85524" lon="4.68301">
        <ele>202</ele>
        <time>2018-04-27T09:18:52Z</time>
      </trkpt>
      <trkpt lat="45.85524" lon="4.68294">
        <ele>202</ele>
        <time>2018-04-27T09:18:53Z</time>
      </trkpt>
      <trkpt lat="45.85523" lon="4.68286">
        <ele>202</ele>
        <time>2018-04-27T09:18:54Z</time>
      </trkpt>
      <trkpt lat="45.85523" lon="4.6828">
        <ele>202</ele>
        <time>2018-04-27T09:18:55Z</time>
      </trkpt>
      <trkpt lat="45.85522" lon="4.68271">
        <ele>202</ele>
        <time>2018-04-27T09:18:56Z</time>
      </trkpt>
      <trkpt lat="45.85521" lon="4.68264">
        <ele>202</ele>
        <time>2018-04-27T09:18:57Z</time>
      </trkpt>
      <trkpt lat="45.8552" lon="4.68256">
        <ele>202</ele>
        <time>2018-04-27T09:18:58Z</time>
      </trkpt>
      <trkpt lat="45.85519" lon="4.68248">
        <ele>203</ele>
        <time>2018-04-27T09:18:59Z</time>
      </trkpt>
      <trkpt lat="45.85518" lon="4.68241">
        <ele>203</ele>
        <time>2018-04-27T09:19:00Z</time>
      </trkpt>
      <trkpt lat="45.85517" lon="4.68234">
        <ele>203</ele>
        <time>2018-04-27T09:19:01Z</time>
      </trkpt>
      <trkpt lat="45.85517" lon="4.68228">
        <ele>203</ele>
        <time>2018-04-27T09:19:02Z</time>
      </trkpt>
      <trkpt lat="45.85516" lon="4.68221">
        <ele>203</ele>
        <time>2018-04-27T09:19:03Z</time>
      </trkpt>
      <trkpt lat="45.85517" lon="4.68209">
        <ele>203</ele>
        <time>2018-04-27T09:19:05Z</time>
      </trkpt>
      <trkpt lat="45.85518" lon="4.68204">
        <ele>203</ele>
        <time>2018-04-27T09:19:06Z</time>
      </trkpt>
      <trkpt lat="45.85517" lon="4.68197">
        <ele>203</ele>
        <time>2018-04-27T09:19:07Z</time>
      </trkpt>
      <trkpt lat="45.85515" lon="4.68189">
        <ele>203</ele>
        <time>2018-04-27T09:19:08Z</time>
      </trkpt>
      <trkpt lat="45.85514" lon="4.68181">
        <ele>203</ele>
        <time>2018-04-27T09:19:09Z</time>
      </trkpt>
      <trkpt lat="45.85513" lon="4.68173">
        <ele>204</ele>
        <time>2018-04-27T09:19:10Z</time>
      </trkpt>
      <trkpt lat="45.85512" lon="4.68166">
        <ele>204</ele>
        <time>2018-04-27T09:19:11Z</time>
      </trkpt>
      <trkpt lat="45.85512" lon="4.68158">
        <ele>203</ele>
        <time>2018-04-27T09:19:12Z</time>
      </trkpt>
      <trkpt lat="45.85512" lon="4.68152">
        <ele>203</ele>
        <time>2018-04-27T09:19:13Z</time>
      </trkpt>
      <trkpt lat="45.85509" lon="4.68144">
        <ele>203</ele>
        <time>2018-04-27T09:19:14Z</time>
      </trkpt>
      <trkpt lat="45.8551" lon="4.68138">
        <ele>203</ele>
        <time>2018-04-27T09:19:15Z</time>
      </trkpt>
      <trkpt lat="45.85508" lon="4.6813">
        <ele>203</ele>
        <time>2018-04-27T09:19:16Z</time>
      </trkpt>
      <trkpt lat="45.85507" lon="4.68122">
        <ele>203</ele>
        <time>2018-04-27T09:19:17Z</time>
      </trkpt>
      <trkpt lat="45.85505" lon="4.68112">
        <ele>203</ele>
        <time>2018-04-27T09:19:18Z</time>
      </trkpt>
      <trkpt lat="45.85505" lon="4.68105">
        <ele>203</ele>
        <time>2018-04-27T09:19:19Z</time>
      </trkpt>
      <trkpt lat="45.85503" lon="4.68097">
        <ele>203</ele>
        <time>2018-04-27T09:19:20Z</time>
      </trkpt>
      <trkpt lat="45.85501" lon="4.6809">
        <ele>204</ele>
        <time>2018-04-27T09:19:21Z</time>
      </trkpt>
      <trkpt lat="45.85502" lon="4.68083">
        <ele>204</ele>
        <time>2018-04-27T09:19:22Z</time>
      </trkpt>
      <trkpt lat="45.855" lon="4.68076">
        <ele>205</ele>
        <time>2018-04-27T09:19:23Z</time>
      </trkpt>
      <trkpt lat="45.855" lon="4.68069">
        <ele>205</ele>
        <time>2018-04-27T09:19:24Z</time>
      </trkpt>
      <trkpt lat="45.85499" lon="4.68062">
        <ele>206</ele>
        <time>2018-04-27T09:19:25Z</time>
      </trkpt>
      <trkpt lat="45.85498" lon="4.68053">
        <ele>206</ele>
        <time>2018-04-27T09:19:26Z</time>
      </trkpt>
      <trkpt lat="45.85497" lon="4.68047">
        <ele>206</ele>
        <time>2018-04-27T09:19:27Z</time>
      </trkpt>
      <trkpt lat="45.85496" lon="4.6804">
        <ele>206</ele>
        <time>2018-04-27T09:19:28Z</time>
      </trkpt>
      <trkpt lat="45.85495" lon="4.68033">
        <ele>207</ele>
        <time>2018-04-27T09:19:29Z</time>
      </trkpt>
      <trkpt lat="45.85494" lon="4.68026">
        <ele>207</ele>
        <time>2018-04-27T09:19:30Z</time>
      </trkpt>
      <trkpt lat="45.85494" lon="4.68014">
        <ele>207</ele>
        <time>2018-04-27T09:19:32Z</time>
      </trkpt>
      <trkpt lat="45.85495" lon="4.68008">
        <ele>206</ele>
        <time>2018-04-27T09:19:33Z</time>
      </trkpt>
      <trkpt lat="45.855" lon="4.68">
        <ele>206</ele>
        <time>2018-04-27T09:19:35Z</time>
      </trkpt>
      <trkpt lat="45.85502" lon="4.67995">
        <ele>206</ele>
        <time>2018-04-27T09:19:36Z</time>
      </trkpt>
      <trkpt lat="45.85508" lon="4.67987">
        <ele>206</ele>
        <time>2018-04-27T09:19:38Z</time>
      </trkpt>
      <trkpt lat="45.85512" lon="4.67985">
        <ele>206</ele>
        <time>2018-04-27T09:19:39Z</time>
      </trkpt>
      <trkpt lat="45.85518" lon="4.67979">
        <ele>206</ele>
        <time>2018-04-27T09:19:41Z</time>
      </trkpt>
      <trkpt lat="45.85521" lon="4.67975">
        <ele>206</ele>
        <time>2018-04-27T09:19:42Z</time>
      </trkpt>
      <trkpt lat="45.85525" lon="4.67969">
        <ele>206</ele>
        <time>2018-04-27T09:19:44Z</time>
      </trkpt>
      <trkpt lat="45.85529" lon="4.67965">
        <ele>205</ele>
        <time>2018-04-27T09:19:45Z</time>
      </trkpt>
      <trkpt lat="45.85534" lon="4.67962">
        <ele>205</ele>
        <time>2018-04-27T09:19:46Z</time>
      </trkpt>
      <trkpt lat="45.85538" lon="4.67958">
        <ele>205</ele>
        <time>2018-04-27T09:19:47Z</time>
      </trkpt>
      <trkpt lat="45.85542" lon="4.67953">
        <ele>205</ele>
        <time>2018-04-27T09:19:48Z</time>
      </trkpt>
      <trkpt lat="45.85548" lon="4.67947">
        <ele>205</ele>
        <time>2018-04-27T09:19:49Z</time>
      </trkpt>
      <trkpt lat="45.85551" lon="4.67944">
        <ele>205</ele>
        <time>2018-04-27T09:19:50Z</time>
      </trkpt>
      <trkpt lat="45.85556" lon="4.6794">
        <ele>205</ele>
        <time>2018-04-27T09:19:51Z</time>
      </trkpt>
      <trkpt lat="45.85561" lon="4.67934">
        <ele>205</ele>
        <time>2018-04-27T09:19:53Z</time>
      </trkpt>
      <trkpt lat="45.85567" lon="4.6793">
        <ele>205</ele>
        <time>2018-04-27T09:19:54Z</time>
      </trkpt>
      <trkpt lat="45.85574" lon="4.67935">
        <ele>205</ele>
        <time>2018-04-27T09:19:56Z</time>
      </trkpt>
      <trkpt lat="45.85576" lon="4.67939">
        <ele>205</ele>
        <time>2018-04-27T09:19:57Z</time>
      </trkpt>
      <trkpt lat="45.85582" lon="4.67949">
        <ele>204</ele>
        <time>2018-04-27T09:19:59Z</time>
      </trkpt>
      <trkpt lat="45.85584" lon="4.67956">
        <ele>203</ele>
        <time>2018-04-27T09:20:00Z</time>
      </trkpt>
      <trkpt lat="45.85585" lon="4.67963">
        <ele>203</ele>
        <time>2018-04-27T09:20:01Z</time>
      </trkpt>
      <trkpt lat="45.85588" lon="4.6797">
        <ele>203</ele>
        <time>2018-04-27T09:20:02Z</time>
      </trkpt>
      <trkpt lat="45.85591" lon="4.67976">
        <ele>203</ele>
        <time>2018-04-27T09:20:03Z</time>
      </trkpt>
      <trkpt lat="45.85593" lon="4.67983">
        <ele>202</ele>
        <time>2018-04-27T09:20:04Z</time>
      </trkpt>
      <trkpt lat="45.85596" lon="4.6799">
        <ele>202</ele>
        <time>2018-04-27T09:20:05Z</time>
      </trkpt>
      <trkpt lat="45.85598" lon="4.67997">
        <ele>202</ele>
        <time>2018-04-27T09:20:06Z</time>
      </trkpt>
      <trkpt lat="45.85601" lon="4.68002">
        <ele>201</ele>
        <time>2018-04-27T09:20:07Z</time>
      </trkpt>
      <trkpt lat="45.85604" lon="4.68007">
        <ele>201</ele>
        <time>2018-04-27T09:20:08Z</time>
      </trkpt>
      <trkpt lat="45.85608" lon="4.68014">
        <ele>201</ele>
        <time>2018-04-27T09:20:11Z</time>
      </trkpt>
      <trkpt lat="45.8561" lon="4.68016">
        <ele>201</ele>
        <time>2018-04-27T09:20:12Z</time>
      </trkpt>
      <trkpt lat="45.85614" lon="4.68028">
        <ele>201</ele>
        <time>2018-04-27T09:20:17Z</time>
      </trkpt>
      <trkpt lat="45.85614" lon="4.68029">
        <ele>201</ele>
        <time>2018-04-27T09:20:18Z</time>
      </trkpt>
      <trkpt lat="45.85609" lon="4.68029">
        <ele>201</ele>
        <time>2018-04-27T09:29:54.94Z</time>
      </trkpt>
      <trkpt lat="45.85603" lon="4.68025">
        <ele>201</ele>
        <time>2018-04-27T09:29:55.94Z</time>
      </trkpt>
      <trkpt lat="45.85601" lon="4.68023">
        <ele>201</ele>
        <time>2018-04-27T09:29:56.935Z</time>
      </trkpt>
      <trkpt lat="45.85607" lon="4.68031">
        <ele>201</ele>
        <time>2018-04-27T09:29:58Z</time>
      </trkpt>
      <trkpt lat="45.85609" lon="4.68034">
        <ele>201</ele>
        <time>2018-04-27T09:29:59Z</time>
      </trkpt>
      <trkpt lat="45.85615" lon="4.68035">
        <ele>201</ele>
        <time>2018-04-27T09:32:46Z</time>
      </trkpt>
      <trkpt lat="45.85616" lon="4.68035">
        <ele>201</ele>
        <time>2018-04-27T09:32:47Z</time>
      </trkpt>
      <trkpt lat="45.85616" lon="4.68035">
        <ele>201</ele>
        <time>2018-04-27T09:32:48Z</time>
      </trkpt>
      <trkpt lat="45.85621" lon="4.68043">
        <ele>200</ele>
        <time>2018-04-27T09:33:14Z</time>
      </trkpt>
      <trkpt lat="45.85623" lon="4.68047">
        <ele>200</ele>
        <time>2018-04-27T09:33:15Z</time>
      </trkpt>
      <trkpt lat="45.85626" lon="4.68055">
        <ele>200</ele>
        <time>2018-04-27T09:33:17Z</time>
      </trkpt>
      <trkpt lat="45.85628" lon="4.68058">
        <ele>200</ele>
        <time>2018-04-27T09:33:18Z</time>
      </trkpt>
      <trkpt lat="45.8563" lon="4.68062">
        <ele>200</ele>
        <time>2018-04-27T09:33:19Z</time>
      </trkpt>
      <trkpt lat="45.85636" lon="4.68073">
        <ele>200</ele>
        <time>2018-04-27T09:33:20Z</time>
      </trkpt>
      <trkpt lat="45.85642" lon="4.68082">
        <ele>200</ele>
        <time>2018-04-27T09:33:22Z</time>
      </trkpt>
      <trkpt lat="45.85647" lon="4.68087">
        <ele>200</ele>
        <time>2018-04-27T09:33:23Z</time>
      </trkpt>
      <trkpt lat="45.85652" lon="4.68096">
        <ele>200</ele>
        <time>2018-04-27T09:33:25Z</time>
      </trkpt>
      <trkpt lat="45.85657" lon="4.68099">
        <ele>200</ele>
        <time>2018-04-27T09:33:26Z</time>
      </trkpt>
      <trkpt lat="45.85663" lon="4.68107">
        <ele>200</ele>
        <time>2018-04-27T09:33:28Z</time>
      </trkpt>
      <trkpt lat="45.85667" lon="4.68111">
        <ele>200</ele>
        <time>2018-04-27T09:33:29Z</time>
      </trkpt>
      <trkpt lat="45.85673" lon="4.68119">
        <ele>200</ele>
        <time>2018-04-27T09:33:31Z</time>
      </trkpt>
      <trkpt lat="45.85677" lon="4.68123">
        <ele>200</ele>
        <time>2018-04-27T09:33:32Z</time>
      </trkpt>
      <trkpt lat="45.85683" lon="4.68129">
        <ele>200</ele>
        <time>2018-04-27T09:33:34Z</time>
      </trkpt>
      <trkpt lat="45.85687" lon="4.68133">
        <ele>200</ele>
        <time>2018-04-27T09:33:35Z</time>
      </trkpt>
      <trkpt lat="45.85693" lon="4.6814">
        <ele>200</ele>
        <time>2018-04-27T09:33:37Z</time>
      </trkpt>
      <trkpt lat="45.85696" lon="4.68144">
        <ele>200</ele>
        <time>2018-04-27T09:33:38Z</time>
      </trkpt>
      <trkpt lat="45.85703" lon="4.68152">
        <ele>200</ele>
        <time>2018-04-27T09:33:40Z</time>
      </trkpt>
      <trkpt lat="45.85708" lon="4.68155">
        <ele>200</ele>
        <time>2018-04-27T09:33:41Z</time>
      </trkpt>
      <trkpt lat="45.85712" lon="4.6816">
        <ele>200</ele>
        <time>2018-04-27T09:33:42Z</time>
      </trkpt>
      <trkpt lat="45.85715" lon="4.68164">
        <ele>200</ele>
        <time>2018-04-27T09:33:43Z</time>
      </trkpt>
      <trkpt lat="45.85722" lon="4.68172">
        <ele>199</ele>
        <time>2018-04-27T09:33:45Z</time>
      </trkpt>
      <trkpt lat="45.85725" lon="4.68177">
        <ele>199</ele>
        <time>2018-04-27T09:33:46Z</time>
      </trkpt>
      <trkpt lat="45.8573" lon="4.68181">
        <ele>199</ele>
        <time>2018-04-27T09:33:47Z</time>
      </trkpt>
      <trkpt lat="45.85735" lon="4.68186">
        <ele>199</ele>
        <time>2018-04-27T09:33:48Z</time>
      </trkpt>
      <trkpt lat="45.85739" lon="4.68191">
        <ele>199</ele>
        <time>2018-04-27T09:33:49Z</time>
      </trkpt>
      <trkpt lat="45.85742" lon="4.68196">
        <ele>199</ele>
        <time>2018-04-27T09:33:50Z</time>
      </trkpt>
      <trkpt lat="45.85746" lon="4.682">
        <ele>199</ele>
        <time>2018-04-27T09:33:51Z</time>
      </trkpt>
      <trkpt lat="45.8575" lon="4.68205">
        <ele>199</ele>
        <time>2018-04-27T09:33:52Z</time>
      </trkpt>
      <trkpt lat="45.85753" lon="4.68209">
        <ele>202</ele>
        <time>2018-04-27T09:33:53Z</time>
      </trkpt>
      <trkpt lat="45.85757" lon="4.68213">
        <ele>202</ele>
        <time>2018-04-27T09:33:54Z</time>
      </trkpt>
      <trkpt lat="45.8576" lon="4.68217">
        <ele>202</ele>
        <time>2018-04-27T09:33:55Z</time>
      </trkpt>
      <trkpt lat="45.85764" lon="4.68222">
        <ele>201</ele>
        <time>2018-04-27T09:33:56Z</time>
      </trkpt>
      <trkpt lat="45.85771" lon="4.68229">
        <ele>201</ele>
        <time>2018-04-27T09:33:58Z</time>
      </trkpt>
      <trkpt lat="45.85774" lon="4.68234">
        <ele>201</ele>
        <time>2018-04-27T09:33:59Z</time>
      </trkpt>
      <trkpt lat="45.85777" lon="4.68238">
        <ele>201</ele>
        <time>2018-04-27T09:34:00Z</time>
      </trkpt>
      <trkpt lat="45.8578" lon="4.68243">
        <ele>202</ele>
        <time>2018-04-27T09:34:01Z</time>
      </trkpt>
      <trkpt lat="45.85785" lon="4.68246">
        <ele>202</ele>
        <time>2018-04-27T09:34:02Z</time>
      </trkpt>
      <trkpt lat="45.85788" lon="4.6825">
        <ele>200</ele>
        <time>2018-04-27T09:34:03Z</time>
      </trkpt>
      <trkpt lat="45.85793" lon="4.68257">
        <ele>201</ele>
        <time>2018-04-27T09:34:04Z</time>
      </trkpt>
      <trkpt lat="45.85797" lon="4.68262">
        <ele>201</ele>
        <time>2018-04-27T09:34:05Z</time>
      </trkpt>
      <trkpt lat="45.85799" lon="4.68268">
        <ele>201</ele>
        <time>2018-04-27T09:34:06Z</time>
      </trkpt>
      <trkpt lat="45.85803" lon="4.68273">
        <ele>201</ele>
        <time>2018-04-27T09:34:07Z</time>
      </trkpt>
      <trkpt lat="45.85809" lon="4.68277">
        <ele>201</ele>
        <time>2018-04-27T09:34:08Z</time>
      </trkpt>
      <trkpt lat="45.85812" lon="4.68281">
        <ele>201</ele>
        <time>2018-04-27T09:34:09Z</time>
      </trkpt>
      <trkpt lat="45.85817" lon="4.68285">
        <ele>201</ele>
        <time>2018-04-27T09:34:10Z</time>
      </trkpt>
      <trkpt lat="45.85821" lon="4.6829">
        <ele>201</ele>
        <time>2018-04-27T09:34:11Z</time>
      </trkpt>
      <trkpt lat="45.85823" lon="4.68295">
        <ele>201</ele>
        <time>2018-04-27T09:34:12Z</time>
      </trkpt>
      <trkpt lat="45.85826" lon="4.68302">
        <ele>201</ele>
        <time>2018-04-27T09:34:13Z</time>
      </trkpt>
      <trkpt lat="45.85829" lon="4.68308">
        <ele>200</ele>
        <time>2018-04-27T09:34:14Z</time>
      </trkpt>
      <trkpt lat="45.85832" lon="4.68315">
        <ele>200</ele>
        <time>2018-04-27T09:34:15Z</time>
      </trkpt>
      <trkpt lat="45.85835" lon="4.68322">
        <ele>202</ele>
        <time>2018-04-27T09:34:16Z</time>
      </trkpt>
      <trkpt lat="45.85838" lon="4.68328">
        <ele>201</ele>
        <time>2018-04-27T09:34:17Z</time>
      </trkpt>
      <trkpt lat="45.8584" lon="4.68334">
        <ele>200</ele>
        <time>2018-04-27T09:34:18Z</time>
      </trkpt>
      <trkpt lat="45.85843" lon="4.68341">
        <ele>201</ele>
        <time>2018-04-27T09:34:19Z</time>
      </trkpt>
      <trkpt lat="45.85847" lon="4.68348">
        <ele>201</ele>
        <time>2018-04-27T09:34:20Z</time>
      </trkpt>
      <trkpt lat="45.85852" lon="4.68356">
        <ele>201</ele>
        <time>2018-04-27T09:34:21Z</time>
      </trkpt>
      <trkpt lat="45.85853" lon="4.68363">
        <ele>201</ele>
        <time>2018-04-27T09:34:22Z</time>
      </trkpt>
      <trkpt lat="45.85854" lon="4.68371">
        <ele>201</ele>
        <time>2018-04-27T09:34:23Z</time>
      </trkpt>
      <trkpt lat="45.85857" lon="4.68377">
        <ele>201</ele>
        <time>2018-04-27T09:34:24Z</time>
      </trkpt>
      <trkpt lat="45.85858" lon="4.68385">
        <ele>201</ele>
        <time>2018-04-27T09:34:25Z</time>
      </trkpt>
      <trkpt lat="45.85858" lon="4.68393">
        <ele>201</ele>
        <time>2018-04-27T09:34:26Z</time>
      </trkpt>
      <trkpt lat="45.85861" lon="4.68399">
        <ele>201</ele>
        <time>2018-04-27T09:34:27Z</time>
      </trkpt>
      <trkpt lat="45.85862" lon="4.68407">
        <ele>201</ele>
        <time>2018-04-27T09:34:28Z</time>
      </trkpt>
      <trkpt lat="45.85863" lon="4.68413">
        <ele>201</ele>
        <time>2018-04-27T09:34:29Z</time>
      </trkpt>
      <trkpt lat="45.85864" lon="4.68421">
        <ele>200</ele>
        <time>2018-04-27T09:34:30Z</time>
      </trkpt>
      <trkpt lat="45.85866" lon="4.68428">
        <ele>200</ele>
        <time>2018-04-27T09:34:31Z</time>
      </trkpt>
      <trkpt lat="45.85866" lon="4.68436">
        <ele>200</ele>
        <time>2018-04-27T09:34:32Z</time>
      </trkpt>
      <trkpt lat="45.85867" lon="4.68443">
        <ele>200</ele>
        <time>2018-04-27T09:34:33Z</time>
      </trkpt>
      <trkpt lat="45.85868" lon="4.6845">
        <ele>200</ele>
        <time>2018-04-27T09:34:34Z</time>
      </trkpt>
      <trkpt lat="45.85869" lon="4.68456">
        <ele>200</ele>
        <time>2018-04-27T09:34:35Z</time>
      </trkpt>
      <trkpt lat="45.8587" lon="4.68463">
        <ele>200</ele>
        <time>2018-04-27T09:34:36Z</time>
      </trkpt>
      <trkpt lat="45.8587" lon="4.6847">
        <ele>200</ele>
        <time>2018-04-27T09:34:37Z</time>
      </trkpt>
      <trkpt lat="45.85871" lon="4.68477">
        <ele>200</ele>
        <time>2018-04-27T09:34:38Z</time>
      </trkpt>
      <trkpt lat="45.85873" lon="4.68483">
        <ele>200</ele>
        <time>2018-04-27T09:34:39Z</time>
      </trkpt>
      <trkpt lat="45.85873" lon="4.68491">
        <ele>200</ele>
        <time>2018-04-27T09:34:40Z</time>
      </trkpt>
      <trkpt lat="45.85874" lon="4.68498">
        <ele>200</ele>
        <time>2018-04-27T09:34:41Z</time>
      </trkpt>
      <trkpt lat="45.85876" lon="4.68505">
        <ele>200</ele>
        <time>2018-04-27T09:34:42Z</time>
      </trkpt>
      <trkpt lat="45.85877" lon="4.68512">
        <ele>200</ele>
        <time>2018-04-27T09:34:43Z</time>
      </trkpt>
      <trkpt lat="45.85877" lon="4.68519">
        <ele>200</ele>
        <time>2018-04-27T09:34:44Z</time>
      </trkpt>
      <trkpt lat="45.85878" lon="4.68527">
        <ele>200</ele>
        <time>2018-04-27T09:34:45Z</time>
      </trkpt>
      <trkpt lat="45.85879" lon="4.68535">
        <ele>200</ele>
        <time>2018-04-27T09:34:46Z</time>
      </trkpt>
      <trkpt lat="45.85879" lon="4.68542">
        <ele>200</ele>
        <time>2018-04-27T09:34:47Z</time>
      </trkpt>
      <trkpt lat="45.8588" lon="4.68549">
        <ele>200</ele>
        <time>2018-04-27T09:34:48Z</time>
      </trkpt>
      <trkpt lat="45.8588" lon="4.68557">
        <ele>200</ele>
        <time>2018-04-27T09:34:49Z</time>
      </trkpt>
      <trkpt lat="45.85881" lon="4.68565">
        <ele>200</ele>
        <time>2018-04-27T09:34:50Z</time>
      </trkpt>
      <trkpt lat="45.85882" lon="4.68573">
        <ele>200</ele>
        <time>2018-04-27T09:34:51Z</time>
      </trkpt>
      <trkpt lat="45.8588" lon="4.68581">
        <ele>199</ele>
        <time>2018-04-27T09:34:52Z</time>
      </trkpt>
      <trkpt lat="45.85884" lon="4.68591">
        <ele>199</ele>
        <time>2018-04-27T09:34:53Z</time>
      </trkpt>
      <trkpt lat="45.85885" lon="4.68598">
        <ele>199</ele>
        <time>2018-04-27T09:34:54Z</time>
      </trkpt>
      <trkpt lat="45.85885" lon="4.68606">
        <ele>199</ele>
        <time>2018-04-27T09:34:55Z</time>
      </trkpt>
      <trkpt lat="45.85886" lon="4.68614">
        <ele>199</ele>
        <time>2018-04-27T09:34:56Z</time>
      </trkpt>
      <trkpt lat="45.85885" lon="4.68621">
        <ele>199</ele>
        <time>2018-04-27T09:34:57Z</time>
      </trkpt>
      <trkpt lat="45.85886" lon="4.68629">
        <ele>198</ele>
        <time>2018-04-27T09:34:58Z</time>
      </trkpt>
      <trkpt lat="45.85886" lon="4.68638">
        <ele>198</ele>
        <time>2018-04-27T09:34:59Z</time>
      </trkpt>
      <trkpt lat="45.85887" lon="4.68645">
        <ele>198</ele>
        <time>2018-04-27T09:35:00Z</time>
      </trkpt>
      <trkpt lat="45.85888" lon="4.68651">
        <ele>198</ele>
        <time>2018-04-27T09:35:01Z</time>
      </trkpt>
      <trkpt lat="45.85888" lon="4.68659">
        <ele>198</ele>
        <time>2018-04-27T09:35:02Z</time>
      </trkpt>
      <trkpt lat="45.8589" lon="4.68668">
        <ele>198</ele>
        <time>2018-04-27T09:35:03Z</time>
      </trkpt>
      <trkpt lat="45.8589" lon="4.68677">
        <ele>198</ele>
        <time>2018-04-27T09:35:04Z</time>
      </trkpt>
      <trkpt lat="45.85889" lon="4.68684">
        <ele>198</ele>
        <time>2018-04-27T09:35:05Z</time>
      </trkpt>
      <trkpt lat="45.85888" lon="4.68691">
        <ele>198</ele>
        <time>2018-04-27T09:35:06Z</time>
      </trkpt>
      <trkpt lat="45.85887" lon="4.68698">
        <ele>198</ele>
        <time>2018-04-27T09:35:07Z</time>
      </trkpt>
      <trkpt lat="45.85886" lon="4.68704">
        <ele>198</ele>
        <time>2018-04-27T09:35:08Z</time>
      </trkpt>
      <trkpt lat="45.85886" lon="4.68713">
        <ele>198</ele>
        <time>2018-04-27T09:35:09Z</time>
      </trkpt>
      <trkpt lat="45.85883" lon="4.6872">
        <ele>198</ele>
        <time>2018-04-27T09:35:10Z</time>
      </trkpt>
      <trkpt lat="45.85882" lon="4.68728">
        <ele>198</ele>
        <time>2018-04-27T09:35:11Z</time>
      </trkpt>
      <trkpt lat="45.85882" lon="4.68736">
        <ele>198</ele>
        <time>2018-04-27T09:35:12Z</time>
      </trkpt>
      <trkpt lat="45.85881" lon="4.68744">
        <ele>198</ele>
        <time>2018-04-27T09:35:13Z</time>
      </trkpt>
      <trkpt lat="45.8588" lon="4.68751">
        <ele>198</ele>
        <time>2018-04-27T09:35:14Z</time>
      </trkpt>
      <trkpt lat="45.85878" lon="4.68758">
        <ele>198</ele>
        <time>2018-04-27T09:35:15Z</time>
      </trkpt>
      <trkpt lat="45.85877" lon="4.68766">
        <ele>198</ele>
        <time>2018-04-27T09:35:16Z</time>
      </trkpt>
      <trkpt lat="45.85873" lon="4.68774">
        <ele>198</ele>
        <time>2018-04-27T09:35:17Z</time>
      </trkpt>
      <trkpt lat="45.85873" lon="4.68782">
        <ele>198</ele>
        <time>2018-04-27T09:35:18Z</time>
      </trkpt>
      <trkpt lat="45.85872" lon="4.6879">
        <ele>198</ele>
        <time>2018-04-27T09:35:19Z</time>
      </trkpt>
      <trkpt lat="45.8587" lon="4.68799">
        <ele>198</ele>
        <time>2018-04-27T09:35:20Z</time>
      </trkpt>
      <trkpt lat="45.85869" lon="4.68807">
        <ele>198</ele>
        <time>2018-04-27T09:35:21Z</time>
      </trkpt>
      <trkpt lat="45.85868" lon="4.68815">
        <ele>198</ele>
        <time>2018-04-27T09:35:22Z</time>
      </trkpt>
      <trkpt lat="45.8587" lon="4.68821">
        <ele>198</ele>
        <time>2018-04-27T09:35:23Z</time>
      </trkpt>
      <trkpt lat="45.85868" lon="4.68829">
        <ele>198</ele>
        <time>2018-04-27T09:35:24Z</time>
      </trkpt>
      <trkpt lat="45.85866" lon="4.68836">
        <ele>198</ele>
        <time>2018-04-27T09:35:25Z</time>
      </trkpt>
      <trkpt lat="45.85865" lon="4.68845">
        <ele>198</ele>
        <time>2018-04-27T09:35:26Z</time>
      </trkpt>
      <trkpt lat="45.85865" lon="4.68854">
        <ele>198</ele>
        <time>2018-04-27T09:35:27Z</time>
      </trkpt>
      <trkpt lat="45.85867" lon="4.68862">
        <ele>198</ele>
        <time>2018-04-27T09:35:28Z</time>
      </trkpt>
      <trkpt lat="45.85868" lon="4.68868">
        <ele>198</ele>
        <time>2018-04-27T09:35:29Z</time>
      </trkpt>
      <trkpt lat="45.85866" lon="4.68876">
        <ele>197</ele>
        <time>2018-04-27T09:35:30Z</time>
      </trkpt>
      <trkpt lat="45.85864" lon="4.68883">
        <ele>197</ele>
        <time>2018-04-27T09:35:31Z</time>
      </trkpt>
      <trkpt lat="45.85863" lon="4.68891">
        <ele>197</ele>
        <time>2018-04-27T09:35:32Z</time>
      </trkpt>
      <trkpt lat="45.85862" lon="4.68899">
        <ele>197</ele>
        <time>2018-04-27T09:35:33Z</time>
      </trkpt>
      <trkpt lat="45.85862" lon="4.68906">
        <ele>197</ele>
        <time>2018-04-27T09:35:34Z</time>
      </trkpt>
      <trkpt lat="45.85863" lon="4.68914">
        <ele>197</ele>
        <time>2018-04-27T09:35:35Z</time>
      </trkpt>
      <trkpt lat="45.85863" lon="4.68921">
        <ele>197</ele>
        <time>2018-04-27T09:35:36Z</time>
      </trkpt>
      <trkpt lat="45.85863" lon="4.68928">
        <ele>197</ele>
        <time>2018-04-27T09:35:37Z</time>
      </trkpt>
      <trkpt lat="45.85863" lon="4.68938">
        <ele>197</ele>
        <time>2018-04-27T09:35:38Z</time>
      </trkpt>
      <trkpt lat="45.85861" lon="4.68946">
        <ele>197</ele>
        <time>2018-04-27T09:35:39Z</time>
      </trkpt>
      <trkpt lat="45.85863" lon="4.68956">
        <ele>197</ele>
        <time>2018-04-27T09:35:40Z</time>
      </trkpt>
      <trkpt lat="45.85863" lon="4.68963">
        <ele>197</ele>
        <time>2018-04-27T09:35:41Z</time>
      </trkpt>
      <trkpt lat="45.85864" lon="4.6897">
        <ele>197</ele>
        <time>2018-04-27T09:35:42Z</time>
      </trkpt>
      <trkpt lat="45.85865" lon="4.6898">
        <ele>197</ele>
        <time>2018-04-27T09:35:43Z</time>
      </trkpt>
      <trkpt lat="45.85867" lon="4.68988">
        <ele>197</ele>
        <time>2018-04-27T09:35:44Z</time>
      </trkpt>
      <trkpt lat="45.85868" lon="4.68997">
        <ele>197</ele>
        <time>2018-04-27T09:35:45Z</time>
      </trkpt>
      <trkpt lat="45.85871" lon="4.69007">
        <ele>197</ele>
        <time>2018-04-27T09:35:46Z</time>
      </trkpt>
      <trkpt lat="45.85873" lon="4.69016">
        <ele>197</ele>
        <time>2018-04-27T09:35:47Z</time>
      </trkpt>
      <trkpt lat="45.85876" lon="4.69024">
        <ele>198</ele>
        <time>2018-04-27T09:35:48Z</time>
      </trkpt>
      <trkpt lat="45.85878" lon="4.69031">
        <ele>198</ele>
        <time>2018-04-27T09:35:49Z</time>
      </trkpt>
      <trkpt lat="45.85882" lon="4.69037">
        <ele>198</ele>
        <time>2018-04-27T09:35:50Z</time>
      </trkpt>
      <trkpt lat="45.85886" lon="4.69042">
        <ele>198</ele>
        <time>2018-04-27T09:35:51Z</time>
      </trkpt>
      <trkpt lat="45.8589" lon="4.69048">
        <ele>198</ele>
        <time>2018-04-27T09:35:52Z</time>
      </trkpt>
      <trkpt lat="45.85895" lon="4.69054">
        <ele>198</ele>
        <time>2018-04-27T09:35:53Z</time>
      </trkpt>
      <trkpt lat="45.85899" lon="4.69057">
        <ele>198</ele>
        <time>2018-04-27T09:35:54Z</time>
      </trkpt>
      <trkpt lat="45.85903" lon="4.69062">
        <ele>198</ele>
        <time>2018-04-27T09:35:55Z</time>
      </trkpt>
      <trkpt lat="45.85907" lon="4.69067">
        <ele>198</ele>
        <time>2018-04-27T09:35:56Z</time>
      </trkpt>
      <trkpt lat="45.85911" lon="4.69071">
        <ele>198</ele>
        <time>2018-04-27T09:35:57Z</time>
      </trkpt>
      <trkpt lat="45.85916" lon="4.69074">
        <ele>198</ele>
        <time>2018-04-27T09:35:58Z</time>
      </trkpt>
      <trkpt lat="45.85921" lon="4.69078">
        <ele>198</ele>
        <time>2018-04-27T09:35:59Z</time>
      </trkpt>
      <trkpt lat="45.85926" lon="4.69081">
        <ele>198</ele>
        <time>2018-04-27T09:36:00Z</time>
      </trkpt>
      <trkpt lat="45.85932" lon="4.69084">
        <ele>198</ele>
        <time>2018-04-27T09:36:01Z</time>
      </trkpt>
      <trkpt lat="45.85937" lon="4.69086">
        <ele>197</ele>
        <time>2018-04-27T09:36:02Z</time>
      </trkpt>
      <trkpt lat="45.85943" lon="4.69088">
        <ele>197</ele>
        <time>2018-04-27T09:36:03Z</time>
      </trkpt>
      <trkpt lat="45.85949" lon="4.6909">
        <ele>197</ele>
        <time>2018-04-27T09:36:04Z</time>
      </trkpt>
      <trkpt lat="45.85954" lon="4.69091">
        <ele>197</ele>
        <time>2018-04-27T09:36:05Z</time>
      </trkpt>
      <trkpt lat="45.8596" lon="4.69092">
        <ele>197</ele>
        <time>2018-04-27T09:36:06Z</time>
      </trkpt>
      <trkpt lat="45.85965" lon="4.69092">
        <ele>197</ele>
        <time>2018-04-27T09:36:07Z</time>
      </trkpt>
      <trkpt lat="45.85971" lon="4.69093">
        <ele>197</ele>
        <time>2018-04-27T09:36:08Z</time>
      </trkpt>
      <trkpt lat="45.85976" lon="4.69093">
        <ele>197</ele>
        <time>2018-04-27T09:36:09Z</time>
      </trkpt>
      <trkpt lat="45.85982" lon="4.69093">
        <ele>197</ele>
        <time>2018-04-27T09:36:10Z</time>
      </trkpt>
      <trkpt lat="45.85988" lon="4.69092">
        <ele>196</ele>
        <time>2018-04-27T09:36:11Z</time>
      </trkpt>
      <trkpt lat="45.85994" lon="4.69091">
        <ele>196</ele>
        <time>2018-04-27T09:36:12Z</time>
      </trkpt>
      <trkpt lat="45.86" lon="4.69091">
        <ele>196</ele>
        <time>2018-04-27T09:36:13Z</time>
      </trkpt>
      <trkpt lat="45.86005" lon="4.6909">
        <ele>196</ele>
        <time>2018-04-27T09:36:14Z</time>
      </trkpt>
      <trkpt lat="45.8601" lon="4.6909">
        <ele>196</ele>
        <time>2018-04-27T09:36:15Z</time>
      </trkpt>
      <trkpt lat="45.86015" lon="4.69089">
        <ele>197</ele>
        <time>2018-04-27T09:36:16Z</time>
      </trkpt>
      <trkpt lat="45.86022" lon="4.69088">
        <ele>197</ele>
        <time>2018-04-27T09:36:17Z</time>
      </trkpt>
      <trkpt lat="45.86028" lon="4.69088">
        <ele>197</ele>
        <time>2018-04-27T09:36:18Z</time>
      </trkpt>
      <trkpt lat="45.86034" lon="4.69089">
        <ele>197</ele>
        <time>2018-04-27T09:36:19Z</time>
      </trkpt>
      <trkpt lat="45.86039" lon="4.69089">
        <ele>197</ele>
        <time>2018-04-27T09:36:20Z</time>
      </trkpt>
      <trkpt lat="45.86045" lon="4.6909">
        <ele>197</ele>
        <time>2018-04-27T09:36:21Z</time>
      </trkpt>
      <trkpt lat="45.8605" lon="4.69089">
        <ele>197</ele>
        <time>2018-04-27T09:36:22Z</time>
      </trkpt>
      <trkpt lat="45.86055" lon="4.69088">
        <ele>197</ele>
        <time>2018-04-27T09:36:23Z</time>
      </trkpt>
      <trkpt lat="45.8606" lon="4.69088">
        <ele>197</ele>
        <time>2018-04-27T09:36:24Z</time>
      </trkpt>
      <trkpt lat="45.86065" lon="4.69088">
        <ele>198</ele>
        <time>2018-04-27T09:36:25Z</time>
      </trkpt>
      <trkpt lat="45.86071" lon="4.69086">
        <ele>198</ele>
        <time>2018-04-27T09:36:26Z</time>
      </trkpt>
      <trkpt lat="45.86076" lon="4.69086">
        <ele>198</ele>
        <time>2018-04-27T09:36:27Z</time>
      </trkpt>
      <trkpt lat="45.86081" lon="4.69085">
        <ele>198</ele>
        <time>2018-04-27T09:36:28Z</time>
      </trkpt>
      <trkpt lat="45.86087" lon="4.69084">
        <ele>198</ele>
        <time>2018-04-27T09:36:29Z</time>
      </trkpt>
      <trkpt lat="45.86092" lon="4.69084">
        <ele>199</ele>
        <time>2018-04-27T09:36:30Z</time>
      </trkpt>
      <trkpt lat="45.86097" lon="4.69083">
        <ele>200</ele>
        <time>2018-04-27T09:36:31Z</time>
      </trkpt>
      <trkpt lat="45.86102" lon="4.69083">
        <ele>201</ele>
        <time>2018-04-27T09:36:32Z</time>
      </trkpt>
      <trkpt lat="45.86107" lon="4.69082">
        <ele>201</ele>
        <time>2018-04-27T09:36:33Z</time>
      </trkpt>
      <trkpt lat="45.86113" lon="4.69081">
        <ele>202</ele>
        <time>2018-04-27T09:36:34Z</time>
      </trkpt>
      <trkpt lat="45.86118" lon="4.6908">
        <ele>202</ele>
        <time>2018-04-27T09:36:35Z</time>
      </trkpt>
      <trkpt lat="45.86123" lon="4.6908">
        <ele>202</ele>
        <time>2018-04-27T09:36:36Z</time>
      </trkpt>
      <trkpt lat="45.86128" lon="4.6908">
        <ele>203</ele>
        <time>2018-04-27T09:36:37Z</time>
      </trkpt>
      <trkpt lat="45.86132" lon="4.6908">
        <ele>203</ele>
        <time>2018-04-27T09:36:38Z</time>
      </trkpt>
      <trkpt lat="45.86138" lon="4.69079">
        <ele>203</ele>
        <time>2018-04-27T09:36:39Z</time>
      </trkpt>
      <trkpt lat="45.86142" lon="4.6908">
        <ele>204</ele>
        <time>2018-04-27T09:36:41Z</time>
      </trkpt>
      <trkpt lat="45.86149" lon="4.69079">
        <ele>204</ele>
        <time>2018-04-27T09:36:42Z</time>
      </trkpt>
      <trkpt lat="45.86153" lon="4.69079">
        <ele>204</ele>
        <time>2018-04-27T09:36:43Z</time>
      </trkpt>
      <trkpt lat="45.86158" lon="4.69078">
        <ele>204</ele>
        <time>2018-04-27T09:36:44Z</time>
      </trkpt>
      <trkpt lat="45.86163" lon="4.69077">
        <ele>205</ele>
        <time>2018-04-27T09:36:47Z</time>
      </trkpt>
      <trkpt lat="45.86169" lon="4.69077">
        <ele>206</ele>
        <time>2018-04-27T09:36:48Z</time>
      </trkpt>
      <trkpt lat="45.86173" lon="4.69075">
        <ele>207</ele>
        <time>2018-04-27T09:36:50Z</time>
      </trkpt>
      <trkpt lat="45.86179" lon="4.69075">
        <ele>207</ele>
        <time>2018-04-27T09:36:51Z</time>
      </trkpt>
      <trkpt lat="45.86185" lon="4.69075">
        <ele>208</ele>
        <time>2018-04-27T09:36:54Z</time>
      </trkpt>
      <trkpt lat="45.86188" lon="4.69075">
        <ele>208</ele>
        <time>2018-04-27T09:36:55Z</time>
      </trkpt>
      <trkpt lat="45.86196" lon="4.69075">
        <ele>209</ele>
        <time>2018-04-27T09:36:58Z</time>
      </trkpt>
      <trkpt lat="45.86198" lon="4.69075">
        <ele>209</ele>
        <time>2018-04-27T09:36:59Z</time>
      </trkpt>
      <trkpt lat="45.86207" lon="4.69075">
        <ele>210</ele>
        <time>2018-04-27T09:37:02Z</time>
      </trkpt>
      <trkpt lat="45.8621" lon="4.69075">
        <ele>210</ele>
        <time>2018-04-27T09:37:03Z</time>
      </trkpt>
      <trkpt lat="45.86216" lon="4.69075">
        <ele>210</ele>
        <time>2018-04-27T09:37:05Z</time>
      </trkpt>
      <trkpt lat="45.8622" lon="4.69075">
        <ele>210</ele>
        <time>2018-04-27T09:37:06Z</time>
      </trkpt>
      <trkpt lat="45.86229" lon="4.69076">
        <ele>211</ele>
        <time>2018-04-27T09:37:07Z</time>
      </trkpt>
      <trkpt lat="45.86236" lon="4.69076">
        <ele>211</ele>
        <time>2018-04-27T09:37:10Z</time>
      </trkpt>
      <trkpt lat="45.86239" lon="4.69076">
        <ele>211</ele>
        <time>2018-04-27T09:37:11Z</time>
      </trkpt>
      <trkpt lat="45.86247" lon="4.69078">
        <ele>211</ele>
        <time>2018-04-27T09:37:14Z</time>
      </trkpt>
      <trkpt lat="45.8625" lon="4.69079">
        <ele>211</ele>
        <time>2018-04-27T09:37:15Z</time>
      </trkpt>
      <trkpt lat="45.86258" lon="4.69082">
        <ele>212</ele>
        <time>2018-04-27T09:37:18Z</time>
      </trkpt>
      <trkpt lat="45.86261" lon="4.69083">
        <ele>212</ele>
        <time>2018-04-27T09:37:19Z</time>
      </trkpt>
      <trkpt lat="45.86269" lon="4.69087">
        <ele>213</ele>
        <time>2018-04-27T09:37:22Z</time>
      </trkpt>
      <trkpt lat="45.86272" lon="4.69089">
        <ele>213</ele>
        <time>2018-04-27T09:37:23Z</time>
      </trkpt>
      <trkpt lat="45.86278" lon="4.69092">
        <ele>213</ele>
        <time>2018-04-27T09:37:25Z</time>
      </trkpt>
      <trkpt lat="45.8628" lon="4.69094">
        <ele>213</ele>
        <time>2018-04-27T09:37:26Z</time>
      </trkpt>
      <trkpt lat="45.86286" lon="4.69097">
        <ele>213</ele>
        <time>2018-04-27T09:37:28Z</time>
      </trkpt>
      <trkpt lat="45.86289" lon="4.69099">
        <ele>213</ele>
        <time>2018-04-27T09:37:29Z</time>
      </trkpt>
      <trkpt lat="45.86297" lon="4.69105">
        <ele>214</ele>
        <time>2018-04-27T09:37:32Z</time>
      </trkpt>
      <trkpt lat="45.863" lon="4.69107">
        <ele>214</ele>
        <time>2018-04-27T09:37:33Z</time>
      </trkpt>
      <trkpt lat="45.86307" lon="4.69113">
        <ele>214</ele>
        <time>2018-04-27T09:37:36Z</time>
      </trkpt>
      <trkpt lat="45.8631" lon="4.69115">
        <ele>214</ele>
        <time>2018-04-27T09:37:37Z</time>
      </trkpt>
      <trkpt lat="45.86317" lon="4.69121">
        <ele>214</ele>
        <time>2018-04-27T09:37:40Z</time>
      </trkpt>
      <trkpt lat="45.86319" lon="4.69123">
        <ele>214</ele>
        <time>2018-04-27T09:37:41Z</time>
      </trkpt>
      <trkpt lat="45.86324" lon="4.6913">
        <ele>215</ele>
        <time>2018-04-27T09:37:44Z</time>
      </trkpt>
      <trkpt lat="45.86325" lon="4.69132">
        <ele>215</ele>
        <time>2018-04-27T09:37:45Z</time>
      </trkpt>
      <trkpt lat="45.8633" lon="4.6914">
        <ele>215</ele>
        <time>2018-04-27T09:37:48Z</time>
      </trkpt>
      <trkpt lat="45.86332" lon="4.69143">
        <ele>215</ele>
        <time>2018-04-27T09:37:49Z</time>
      </trkpt>
      <trkpt lat="45.86337" lon="4.69152">
        <ele>217</ele>
        <time>2018-04-27T09:37:52Z</time>
      </trkpt>
      <trkpt lat="45.86338" lon="4.69155">
        <ele>217</ele>
        <time>2018-04-27T09:37:53Z</time>
      </trkpt>
      <trkpt lat="45.86343" lon="4.69164">
        <ele>217</ele>
        <time>2018-04-27T09:37:56Z</time>
      </trkpt>
      <trkpt lat="45.86345" lon="4.69167">
        <ele>217</ele>
        <time>2018-04-27T09:37:57Z</time>
      </trkpt>
      <trkpt lat="45.86349" lon="4.69175">
        <ele>218</ele>
        <time>2018-04-27T09:38:00Z</time>
      </trkpt>
      <trkpt lat="45.86351" lon="4.69178">
        <ele>218</ele>
        <time>2018-04-27T09:38:01Z</time>
      </trkpt>
      <trkpt lat="45.86355" lon="4.69187">
        <ele>218</ele>
        <time>2018-04-27T09:38:04Z</time>
      </trkpt>
      <trkpt lat="45.86357" lon="4.6919">
        <ele>218</ele>
        <time>2018-04-27T09:38:05Z</time>
      </trkpt>
      <trkpt lat="45.86361" lon="4.692">
        <ele>219</ele>
        <time>2018-04-27T09:38:08Z</time>
      </trkpt>
      <trkpt lat="45.86362" lon="4.69203">
        <ele>219</ele>
        <time>2018-04-27T09:38:09Z</time>
      </trkpt>
      <trkpt lat="45.86367" lon="4.69213">
        <ele>219</ele>
        <time>2018-04-27T09:38:12Z</time>
      </trkpt>
      <trkpt lat="45.86368" lon="4.69217">
        <ele>219</ele>
        <time>2018-04-27T09:38:13Z</time>
      </trkpt>
      <trkpt lat="45.86372" lon="4.69224">
        <ele>219</ele>
        <time>2018-04-27T09:38:15Z</time>
      </trkpt>
      <trkpt lat="45.86373" lon="4.69228">
        <ele>219</ele>
        <time>2018-04-27T09:38:16Z</time>
      </trkpt>
      <trkpt lat="45.86377" lon="4.69236">
        <ele>219</ele>
        <time>2018-04-27T09:38:18Z</time>
      </trkpt>
      <trkpt lat="45.86379" lon="4.6924">
        <ele>219</ele>
        <time>2018-04-27T09:38:19Z</time>
      </trkpt>
      <trkpt lat="45.86381" lon="4.69244">
        <ele>219</ele>
        <time>2018-04-27T09:38:20Z</time>
      </trkpt>
      <trkpt lat="45.86386" lon="4.69255">
        <ele>219</ele>
        <time>2018-04-27T09:38:21Z</time>
      </trkpt>
      <trkpt lat="45.8639" lon="4.69265">
        <ele>219</ele>
        <time>2018-04-27T09:38:23Z</time>
      </trkpt>
      <trkpt lat="45.86392" lon="4.6927">
        <ele>219</ele>
        <time>2018-04-27T09:38:24Z</time>
      </trkpt>
      <trkpt lat="45.86396" lon="4.6928">
        <ele>219</ele>
        <time>2018-04-27T09:38:26Z</time>
      </trkpt>
      <trkpt lat="45.86399" lon="4.69285">
        <ele>219</ele>
        <time>2018-04-27T09:38:27Z</time>
      </trkpt>
      <trkpt lat="45.86404" lon="4.69295">
        <ele>219</ele>
        <time>2018-04-27T09:38:29Z</time>
      </trkpt>
      <trkpt lat="45.86406" lon="4.693">
        <ele>219</ele>
        <time>2018-04-27T09:38:30Z</time>
      </trkpt>
      <trkpt lat="45.8641" lon="4.6931">
        <ele>219</ele>
        <time>2018-04-27T09:38:32Z</time>
      </trkpt>
      <trkpt lat="45.86413" lon="4.69314">
        <ele>219</ele>
        <time>2018-04-27T09:38:33Z</time>
      </trkpt>
      <trkpt lat="45.86416" lon="4.69322">
        <ele>219</ele>
        <time>2018-04-27T09:38:35Z</time>
      </trkpt>
      <trkpt lat="45.86419" lon="4.69329">
        <ele>219</ele>
        <time>2018-04-27T09:38:36Z</time>
      </trkpt>
      <trkpt lat="45.86421" lon="4.69334">
        <ele>219</ele>
        <time>2018-04-27T09:38:37Z</time>
      </trkpt>
      <trkpt lat="45.86424" lon="4.6934">
        <ele>219</ele>
        <time>2018-04-27T09:38:38Z</time>
      </trkpt>
      <trkpt lat="45.86427" lon="4.69346">
        <ele>219</ele>
        <time>2018-04-27T09:38:39Z</time>
      </trkpt>
      <trkpt lat="45.8643" lon="4.69352">
        <ele>219</ele>
        <time>2018-04-27T09:38:40Z</time>
      </trkpt>
      <trkpt lat="45.86432" lon="4.69358">
        <ele>219</ele>
        <time>2018-04-27T09:38:41Z</time>
      </trkpt>
      <trkpt lat="45.86435" lon="4.69364">
        <ele>219</ele>
        <time>2018-04-27T09:38:42Z</time>
      </trkpt>
      <trkpt lat="45.86438" lon="4.69371">
        <ele>219</ele>
        <time>2018-04-27T09:38:43Z</time>
      </trkpt>
      <trkpt lat="45.86441" lon="4.69378">
        <ele>219</ele>
        <time>2018-04-27T09:38:44Z</time>
      </trkpt>
      <trkpt lat="45.86444" lon="4.69384">
        <ele>219</ele>
        <time>2018-04-27T09:38:45Z</time>
      </trkpt>
      <trkpt lat="45.86448" lon="4.6939">
        <ele>219</ele>
        <time>2018-04-27T09:38:46Z</time>
      </trkpt>
      <trkpt lat="45.86451" lon="4.69396">
        <ele>219</ele>
        <time>2018-04-27T09:38:47Z</time>
      </trkpt>
      <trkpt lat="45.86454" lon="4.69401">
        <ele>219</ele>
        <time>2018-04-27T09:38:48Z</time>
      </trkpt>
      <trkpt lat="45.86457" lon="4.69406">
        <ele>219</ele>
        <time>2018-04-27T09:38:49Z</time>
      </trkpt>
      <trkpt lat="45.8646" lon="4.69411">
        <ele>219</ele>
        <time>2018-04-27T09:38:50Z</time>
      </trkpt>
      <trkpt lat="45.86466" lon="4.69419">
        <ele>218</ele>
        <time>2018-04-27T09:38:52Z</time>
      </trkpt>
      <trkpt lat="45.86469" lon="4.69424">
        <ele>218</ele>
        <time>2018-04-27T09:38:53Z</time>
      </trkpt>
      <trkpt lat="45.86475" lon="4.69432">
        <ele>218</ele>
        <time>2018-04-27T09:38:55Z</time>
      </trkpt>
      <trkpt lat="45.86479" lon="4.69435">
        <ele>218</ele>
        <time>2018-04-27T09:38:56Z</time>
      </trkpt>
      <trkpt lat="45.86483" lon="4.6944">
        <ele>218</ele>
        <time>2018-04-27T09:38:57Z</time>
      </trkpt>
      <trkpt lat="45.86486" lon="4.69445">
        <ele>218</ele>
        <time>2018-04-27T09:38:58Z</time>
      </trkpt>
      <trkpt lat="45.86489" lon="4.6945">
        <ele>218</ele>
        <time>2018-04-27T09:38:59Z</time>
      </trkpt>
      <trkpt lat="45.86493" lon="4.69455">
        <ele>218</ele>
        <time>2018-04-27T09:39:00Z</time>
      </trkpt>
      <trkpt lat="45.86497" lon="4.6946">
        <ele>218</ele>
        <time>2018-04-27T09:39:01Z</time>
      </trkpt>
      <trkpt lat="45.865" lon="4.69465">
        <ele>219</ele>
        <time>2018-04-27T09:39:02Z</time>
      </trkpt>
      <trkpt lat="45.86504" lon="4.6947">
        <ele>219</ele>
        <time>2018-04-27T09:39:03Z</time>
      </trkpt>
      <trkpt lat="45.86508" lon="4.69476">
        <ele>219</ele>
        <time>2018-04-27T09:39:04Z</time>
      </trkpt>
      <trkpt lat="45.86511" lon="4.69481">
        <ele>219</ele>
        <time>2018-04-27T09:39:05Z</time>
      </trkpt>
      <trkpt lat="45.86514" lon="4.69487">
        <ele>219</ele>
        <time>2018-04-27T09:39:06Z</time>
      </trkpt>
      <trkpt lat="45.86516" lon="4.69494">
        <ele>219</ele>
        <time>2018-04-27T09:39:07Z</time>
      </trkpt>
      <trkpt lat="45.86519" lon="4.695">
        <ele>219</ele>
        <time>2018-04-27T09:39:08Z</time>
      </trkpt>
      <trkpt lat="45.86522" lon="4.69505">
        <ele>219</ele>
        <time>2018-04-27T09:39:09Z</time>
      </trkpt>
      <trkpt lat="45.86526" lon="4.69511">
        <ele>219</ele>
        <time>2018-04-27T09:39:10Z</time>
      </trkpt>
      <trkpt lat="45.8653" lon="4.69517">
        <ele>219</ele>
        <time>2018-04-27T09:39:11Z</time>
      </trkpt>
      <trkpt lat="45.86534" lon="4.69523">
        <ele>219</ele>
        <time>2018-04-27T09:39:12Z</time>
      </trkpt>
      <trkpt lat="45.86537" lon="4.69527">
        <ele>219</ele>
        <time>2018-04-27T09:39:13Z</time>
      </trkpt>
      <trkpt lat="45.86541" lon="4.69533">
        <ele>219</ele>
        <time>2018-04-27T09:39:14Z</time>
      </trkpt>
      <trkpt lat="45.86543" lon="4.69538">
        <ele>219</ele>
        <time>2018-04-27T09:39:15Z</time>
      </trkpt>
      <trkpt lat="45.86547" lon="4.69543">
        <ele>219</ele>
        <time>2018-04-27T09:39:16Z</time>
      </trkpt>
      <trkpt lat="45.86551" lon="4.69549">
        <ele>219</ele>
        <time>2018-04-27T09:39:17Z</time>
      </trkpt>
      <trkpt lat="45.86553" lon="4.69554">
        <ele>219</ele>
        <time>2018-04-27T09:39:18Z</time>
      </trkpt>
      <trkpt lat="45.86556" lon="4.6956">
        <ele>219</ele>
        <time>2018-04-27T09:39:19Z</time>
      </trkpt>
      <trkpt lat="45.8656" lon="4.69565">
        <ele>219</ele>
        <time>2018-04-27T09:39:20Z</time>
      </trkpt>
      <trkpt lat="45.86564" lon="4.6957">
        <ele>219</ele>
        <time>2018-04-27T09:39:21Z</time>
      </trkpt>
      <trkpt lat="45.86568" lon="4.69576">
        <ele>219</ele>
        <time>2018-04-27T09:39:22Z</time>
      </trkpt>
      <trkpt lat="45.86571" lon="4.69581">
        <ele>219</ele>
        <time>2018-04-27T09:39:23Z</time>
      </trkpt>
      <trkpt lat="45.86575" lon="4.69586">
        <ele>219</ele>
        <time>2018-04-27T09:39:24Z</time>
      </trkpt>
      <trkpt lat="45.86579" lon="4.69592">
        <ele>219</ele>
        <time>2018-04-27T09:39:25Z</time>
      </trkpt>
      <trkpt lat="45.86582" lon="4.69597">
        <ele>219</ele>
        <time>2018-04-27T09:39:26Z</time>
      </trkpt>
      <trkpt lat="45.86587" lon="4.69603">
        <ele>219</ele>
        <time>2018-04-27T09:39:27Z</time>
      </trkpt>
      <trkpt lat="45.8659" lon="4.69608">
        <ele>219</ele>
        <time>2018-04-27T09:39:28Z</time>
      </trkpt>
      <trkpt lat="45.86594" lon="4.69614">
        <ele>219</ele>
        <time>2018-04-27T09:39:29Z</time>
      </trkpt>
      <trkpt lat="45.86597" lon="4.69621">
        <ele>219</ele>
        <time>2018-04-27T09:39:30Z</time>
      </trkpt>
      <trkpt lat="45.86601" lon="4.69627">
        <ele>219</ele>
        <time>2018-04-27T09:39:31Z</time>
      </trkpt>
      <trkpt lat="45.86604" lon="4.69633">
        <ele>219</ele>
        <time>2018-04-27T09:39:32Z</time>
      </trkpt>
      <trkpt lat="45.86608" lon="4.69638">
        <ele>219</ele>
        <time>2018-04-27T09:39:33Z</time>
      </trkpt>
      <trkpt lat="45.86611" lon="4.69643">
        <ele>219</ele>
        <time>2018-04-27T09:39:34Z</time>
      </trkpt>
      <trkpt lat="45.86615" lon="4.69649">
        <ele>219</ele>
        <time>2018-04-27T09:39:35Z</time>
      </trkpt>
      <trkpt lat="45.86619" lon="4.69654">
        <ele>219</ele>
        <time>2018-04-27T09:39:36Z</time>
      </trkpt>
      <trkpt lat="45.86623" lon="4.69659">
        <ele>219</ele>
        <time>2018-04-27T09:39:37Z</time>
      </trkpt>
      <trkpt lat="45.86627" lon="4.69665">
        <ele>218</ele>
        <time>2018-04-27T09:39:38Z</time>
      </trkpt>
      <trkpt lat="45.86633" lon="4.69669">
        <ele>218</ele>
        <time>2018-04-27T09:39:39Z</time>
      </trkpt>
      <trkpt lat="45.86637" lon="4.69676">
        <ele>218</ele>
        <time>2018-04-27T09:39:40Z</time>
      </trkpt>
      <trkpt lat="45.86641" lon="4.69681">
        <ele>218</ele>
        <time>2018-04-27T09:39:41Z</time>
      </trkpt>
      <trkpt lat="45.86645" lon="4.69686">
        <ele>218</ele>
        <time>2018-04-27T09:39:42Z</time>
      </trkpt>
      <trkpt lat="45.86649" lon="4.69691">
        <ele>218</ele>
        <time>2018-04-27T09:39:43Z</time>
      </trkpt>
      <trkpt lat="45.86654" lon="4.69695">
        <ele>218</ele>
        <time>2018-04-27T09:39:44Z</time>
      </trkpt>
      <trkpt lat="45.86658" lon="4.697">
        <ele>218</ele>
        <time>2018-04-27T09:39:45Z</time>
      </trkpt>
      <trkpt lat="45.86661" lon="4.69705">
        <ele>218</ele>
        <time>2018-04-27T09:39:46Z</time>
      </trkpt>
      <trkpt lat="45.86666" lon="4.69709">
        <ele>217</ele>
        <time>2018-04-27T09:39:47Z</time>
      </trkpt>
      <trkpt lat="45.8667" lon="4.69713">
        <ele>217</ele>
        <time>2018-04-27T09:39:48Z</time>
      </trkpt>
      <trkpt lat="45.86674" lon="4.69717">
        <ele>217</ele>
        <time>2018-04-27T09:39:49Z</time>
      </trkpt>
      <trkpt lat="45.86678" lon="4.6972">
        <ele>217</ele>
        <time>2018-04-27T09:39:50Z</time>
      </trkpt>
      <trkpt lat="45.86683" lon="4.69724">
        <ele>217</ele>
        <time>2018-04-27T09:39:51Z</time>
      </trkpt>
      <trkpt lat="45.86687" lon="4.69728">
        <ele>217</ele>
        <time>2018-04-27T09:39:52Z</time>
      </trkpt>
      <trkpt lat="45.86691" lon="4.69732">
        <ele>217</ele>
        <time>2018-04-27T09:39:53Z</time>
      </trkpt>
      <trkpt lat="45.86694" lon="4.69737">
        <ele>217</ele>
        <time>2018-04-27T09:39:54Z</time>
      </trkpt>
      <trkpt lat="45.86698" lon="4.6974">
        <ele>217</ele>
        <time>2018-04-27T09:39:55Z</time>
      </trkpt>
      <trkpt lat="45.86702" lon="4.69744">
        <ele>217</ele>
        <time>2018-04-27T09:39:56Z</time>
      </trkpt>
      <trkpt lat="45.86706" lon="4.69748">
        <ele>217</ele>
        <time>2018-04-27T09:39:57Z</time>
      </trkpt>
      <trkpt lat="45.86709" lon="4.69751">
        <ele>217</ele>
        <time>2018-04-27T09:39:58Z</time>
      </trkpt>
      <trkpt lat="45.86714" lon="4.69754">
        <ele>217</ele>
        <time>2018-04-27T09:39:59Z</time>
      </trkpt>
      <trkpt lat="45.86718" lon="4.69758">
        <ele>217</ele>
        <time>2018-04-27T09:40:00Z</time>
      </trkpt>
      <trkpt lat="45.86722" lon="4.69763">
        <ele>217</ele>
        <time>2018-04-27T09:40:01Z</time>
      </trkpt>
      <trkpt lat="45.86727" lon="4.69768">
        <ele>217</ele>
        <time>2018-04-27T09:40:02Z</time>
      </trkpt>
      <trkpt lat="45.86733" lon="4.69769">
        <ele>217</ele>
        <time>2018-04-27T09:40:03Z</time>
      </trkpt>
      <trkpt lat="45.86738" lon="4.69774">
        <ele>217</ele>
        <time>2018-04-27T09:40:04Z</time>
      </trkpt>
      <trkpt lat="45.86743" lon="4.69777">
        <ele>217</ele>
        <time>2018-04-27T09:40:05Z</time>
      </trkpt>
      <trkpt lat="45.86748" lon="4.69781">
        <ele>217</ele>
        <time>2018-04-27T09:40:06Z</time>
      </trkpt>
      <trkpt lat="45.86752" lon="4.69786">
        <ele>217</ele>
        <time>2018-04-27T09:40:07Z</time>
      </trkpt>
      <trkpt lat="45.86756" lon="4.6979">
        <ele>217</ele>
        <time>2018-04-27T09:40:08Z</time>
      </trkpt>
      <trkpt lat="45.86761" lon="4.69795">
        <ele>217</ele>
        <time>2018-04-27T09:40:09Z</time>
      </trkpt>
      <trkpt lat="45.86766" lon="4.69799">
        <ele>217</ele>
        <time>2018-04-27T09:40:10Z</time>
      </trkpt>
      <trkpt lat="45.86771" lon="4.69805">
        <ele>217</ele>
        <time>2018-04-27T09:40:11Z</time>
      </trkpt>
      <trkpt lat="45.86775" lon="4.69809">
        <ele>217</ele>
        <time>2018-04-27T09:40:12Z</time>
      </trkpt>
      <trkpt lat="45.8678" lon="4.69813">
        <ele>217</ele>
        <time>2018-04-27T09:40:13Z</time>
      </trkpt>
      <trkpt lat="45.86785" lon="4.69817">
        <ele>217</ele>
        <time>2018-04-27T09:40:14Z</time>
      </trkpt>
      <trkpt lat="45.86789" lon="4.69821">
        <ele>217</ele>
        <time>2018-04-27T09:40:15Z</time>
      </trkpt>
      <trkpt lat="45.86793" lon="4.69825">
        <ele>217</ele>
        <time>2018-04-27T09:40:16Z</time>
      </trkpt>
      <trkpt lat="45.86798" lon="4.6983">
        <ele>217</ele>
        <time>2018-04-27T09:40:17Z</time>
      </trkpt>
      <trkpt lat="45.86805" lon="4.69834">
        <ele>217</ele>
        <time>2018-04-27T09:40:18Z</time>
      </trkpt>
      <trkpt lat="45.86811" lon="4.6984">
        <ele>217</ele>
        <time>2018-04-27T09:40:19Z</time>
      </trkpt>
      <trkpt lat="45.86815" lon="4.69842">
        <ele>217</ele>
        <time>2018-04-27T09:40:20Z</time>
      </trkpt>
      <trkpt lat="45.8682" lon="4.69847">
        <ele>217</ele>
        <time>2018-04-27T09:40:21Z</time>
      </trkpt>
      <trkpt lat="45.86824" lon="4.69851">
        <ele>217</ele>
        <time>2018-04-27T09:40:22Z</time>
      </trkpt>
      <trkpt lat="45.8683" lon="4.69853">
        <ele>217</ele>
        <time>2018-04-27T09:40:23Z</time>
      </trkpt>
      <trkpt lat="45.86835" lon="4.69855">
        <ele>217</ele>
        <time>2018-04-27T09:40:24Z</time>
      </trkpt>
      <trkpt lat="45.8684" lon="4.6986">
        <ele>217</ele>
        <time>2018-04-27T09:40:25Z</time>
      </trkpt>
      <trkpt lat="45.86844" lon="4.69866">
        <ele>217</ele>
        <time>2018-04-27T09:40:26Z</time>
      </trkpt>
      <trkpt lat="45.86849" lon="4.6987">
        <ele>217</ele>
        <time>2018-04-27T09:40:27Z</time>
      </trkpt>
      <trkpt lat="45.86854" lon="4.69876">
        <ele>217</ele>
        <time>2018-04-27T09:40:28Z</time>
      </trkpt>
      <trkpt lat="45.86859" lon="4.69881">
        <ele>217</ele>
        <time>2018-04-27T09:40:29Z</time>
      </trkpt>
      <trkpt lat="45.86862" lon="4.69888">
        <ele>217</ele>
        <time>2018-04-27T09:40:30Z</time>
      </trkpt>
      <trkpt lat="45.86867" lon="4.69893">
        <ele>217</ele>
        <time>2018-04-27T09:40:31Z</time>
      </trkpt>
      <trkpt lat="45.86872" lon="4.69897">
        <ele>217</ele>
        <time>2018-04-27T09:40:32Z</time>
      </trkpt>
      <trkpt lat="45.86877" lon="4.699">
        <ele>217</ele>
        <time>2018-04-27T09:40:33Z</time>
      </trkpt>
      <trkpt lat="45.86882" lon="4.69905">
        <ele>217</ele>
        <time>2018-04-27T09:40:34Z</time>
      </trkpt>
      <trkpt lat="45.86887" lon="4.6991">
        <ele>217</ele>
        <time>2018-04-27T09:40:35Z</time>
      </trkpt>
      <trkpt lat="45.86892" lon="4.69914">
        <ele>217</ele>
        <time>2018-04-27T09:40:36Z</time>
      </trkpt>
      <trkpt lat="45.86896" lon="4.69918">
        <ele>217</ele>
        <time>2018-04-27T09:40:37Z</time>
      </trkpt>
      <trkpt lat="45.86901" lon="4.69922">
        <ele>217</ele>
        <time>2018-04-27T09:40:38Z</time>
      </trkpt>
      <trkpt lat="45.86906" lon="4.69925">
        <ele>217</ele>
        <time>2018-04-27T09:40:39Z</time>
      </trkpt>
      <trkpt lat="45.86911" lon="4.69929">
        <ele>217</ele>
        <time>2018-04-27T09:40:40Z</time>
      </trkpt>
      <trkpt lat="45.86917" lon="4.69933">
        <ele>217</ele>
        <time>2018-04-27T09:40:41Z</time>
      </trkpt>
      <trkpt lat="45.86921" lon="4.69937">
        <ele>217</ele>
        <time>2018-04-27T09:40:42Z</time>
      </trkpt>
      <trkpt lat="45.86926" lon="4.69941">
        <ele>217</ele>
        <time>2018-04-27T09:40:43Z</time>
      </trkpt>
      <trkpt lat="45.86931" lon="4.69946">
        <ele>217</ele>
        <time>2018-04-27T09:40:44Z</time>
      </trkpt>
      <trkpt lat="45.86936" lon="4.6995">
        <ele>217</ele>
        <time>2018-04-27T09:40:45Z</time>
      </trkpt>
      <trkpt lat="45.86941" lon="4.69954">
        <ele>217</ele>
        <time>2018-04-27T09:40:46Z</time>
      </trkpt>
      <trkpt lat="45.86945" lon="4.69957">
        <ele>217</ele>
        <time>2018-04-27T09:40:47Z</time>
      </trkpt>
      <trkpt lat="45.8695" lon="4.69962">
        <ele>217</ele>
        <time>2018-04-27T09:40:48Z</time>
      </trkpt>
      <trkpt lat="45.86955" lon="4.69966">
        <ele>217</ele>
        <time>2018-04-27T09:40:49Z</time>
      </trkpt>
      <trkpt lat="45.8696" lon="4.6997">
        <ele>217</ele>
        <time>2018-04-27T09:40:50Z</time>
      </trkpt>
      <trkpt lat="45.86964" lon="4.69975">
        <ele>217</ele>
        <time>2018-04-27T09:40:51Z</time>
      </trkpt>
      <trkpt lat="45.86969" lon="4.69979">
        <ele>217</ele>
        <time>2018-04-27T09:40:52Z</time>
      </trkpt>
      <trkpt lat="45.86972" lon="4.69983">
        <ele>217</ele>
        <time>2018-04-27T09:40:53Z</time>
      </trkpt>
      <trkpt lat="45.86976" lon="4.69988">
        <ele>217</ele>
        <time>2018-04-27T09:40:54Z</time>
      </trkpt>
      <trkpt lat="45.86979" lon="4.69993">
        <ele>217</ele>
        <time>2018-04-27T09:40:55Z</time>
      </trkpt>
      <trkpt lat="45.86983" lon="4.69998">
        <ele>217</ele>
        <time>2018-04-27T09:40:56Z</time>
      </trkpt>
      <trkpt lat="45.86987" lon="4.7">
        <ele>217</ele>
        <time>2018-04-27T09:40:57Z</time>
      </trkpt>
      <trkpt lat="45.86993" lon="4.70001">
        <ele>217</ele>
        <time>2018-04-27T09:40:58Z</time>
      </trkpt>
      <trkpt lat="45.86998" lon="4.70001">
        <ele>217</ele>
        <time>2018-04-27T09:40:59Z</time>
      </trkpt>
      <trkpt lat="45.87003" lon="4.70002">
        <ele>217</ele>
        <time>2018-04-27T09:41:00Z</time>
      </trkpt>
      <trkpt lat="45.87008" lon="4.70002">
        <ele>217</ele>
        <time>2018-04-27T09:41:01Z</time>
      </trkpt>
      <trkpt lat="45.87013" lon="4.70006">
        <ele>217</ele>
        <time>2018-04-27T09:41:02Z</time>
      </trkpt>
      <trkpt lat="45.87017" lon="4.70008">
        <ele>217</ele>
        <time>2018-04-27T09:41:03Z</time>
      </trkpt>
      <trkpt lat="45.87022" lon="4.70012">
        <ele>217</ele>
        <time>2018-04-27T09:41:04Z</time>
      </trkpt>
      <trkpt lat="45.87026" lon="4.70016">
        <ele>217</ele>
        <time>2018-04-27T09:41:05Z</time>
      </trkpt>
      <trkpt lat="45.8703" lon="4.70022">
        <ele>217</ele>
        <time>2018-04-27T09:41:06Z</time>
      </trkpt>
      <trkpt lat="45.87033" lon="4.70028">
        <ele>217</ele>
        <time>2018-04-27T09:41:07Z</time>
      </trkpt>
      <trkpt lat="45.87037" lon="4.70034">
        <ele>217</ele>
        <time>2018-04-27T09:41:08Z</time>
      </trkpt>
      <trkpt lat="45.8704" lon="4.7004">
        <ele>217</ele>
        <time>2018-04-27T09:41:09Z</time>
      </trkpt>
      <trkpt lat="45.87044" lon="4.70047">
        <ele>217</ele>
        <time>2018-04-27T09:41:10Z</time>
      </trkpt>
      <trkpt lat="45.87048" lon="4.70053">
        <ele>217</ele>
        <time>2018-04-27T09:41:11Z</time>
      </trkpt>
      <trkpt lat="45.87052" lon="4.7006">
        <ele>217</ele>
        <time>2018-04-27T09:41:12Z</time>
      </trkpt>
      <trkpt lat="45.87055" lon="4.70067">
        <ele>217</ele>
        <time>2018-04-27T09:41:13Z</time>
      </trkpt>
      <trkpt lat="45.87061" lon="4.70074">
        <ele>217</ele>
        <time>2018-04-27T09:41:14Z</time>
      </trkpt>
      <trkpt lat="45.87064" lon="4.70081">
        <ele>217</ele>
        <time>2018-04-27T09:41:15Z</time>
      </trkpt>
      <trkpt lat="45.87068" lon="4.70087">
        <ele>217</ele>
        <time>2018-04-27T09:41:16Z</time>
      </trkpt>
      <trkpt lat="45.87072" lon="4.70093">
        <ele>217</ele>
        <time>2018-04-27T09:41:17Z</time>
      </trkpt>
      <trkpt lat="45.87075" lon="4.70099">
        <ele>217</ele>
        <time>2018-04-27T09:41:18Z</time>
      </trkpt>
      <trkpt lat="45.87078" lon="4.70106">
        <ele>217</ele>
        <time>2018-04-27T09:41:19Z</time>
      </trkpt>
      <trkpt lat="45.87082" lon="4.70113">
        <ele>217</ele>
        <time>2018-04-27T09:41:20Z</time>
      </trkpt>
      <trkpt lat="45.87084" lon="4.7012">
        <ele>217</ele>
        <time>2018-04-27T09:41:21Z</time>
      </trkpt>
      <trkpt lat="45.87087" lon="4.70126">
        <ele>217</ele>
        <time>2018-04-27T09:41:22Z</time>
      </trkpt>
      <trkpt lat="45.87091" lon="4.70132">
        <ele>217</ele>
        <time>2018-04-27T09:41:23Z</time>
      </trkpt>
      <trkpt lat="45.87094" lon="4.70136">
        <ele>217</ele>
        <time>2018-04-27T09:41:24Z</time>
      </trkpt>
      <trkpt lat="45.87098" lon="4.70142">
        <ele>217</ele>
        <time>2018-04-27T09:41:25Z</time>
      </trkpt>
      <trkpt lat="45.87101" lon="4.70148">
        <ele>217</ele>
        <time>2018-04-27T09:41:26Z</time>
      </trkpt>
      <trkpt lat="45.87105" lon="4.70154">
        <ele>217</ele>
        <time>2018-04-27T09:41:27Z</time>
      </trkpt>
      <trkpt lat="45.87109" lon="4.7016">
        <ele>217</ele>
        <time>2018-04-27T09:41:28Z</time>
      </trkpt>
      <trkpt lat="45.87112" lon="4.70167">
        <ele>216</ele>
        <time>2018-04-27T09:41:29Z</time>
      </trkpt>
      <trkpt lat="45.87116" lon="4.70173">
        <ele>216</ele>
        <time>2018-04-27T09:41:30Z</time>
      </trkpt>
      <trkpt lat="45.8712" lon="4.70179">
        <ele>216</ele>
        <time>2018-04-27T09:41:31Z</time>
      </trkpt>
      <trkpt lat="45.87124" lon="4.70185">
        <ele>216</ele>
        <time>2018-04-27T09:41:32Z</time>
      </trkpt>
      <trkpt lat="45.87129" lon="4.70192">
        <ele>216</ele>
        <time>2018-04-27T09:41:33Z</time>
      </trkpt>
      <trkpt lat="45.87133" lon="4.70196">
        <ele>216</ele>
        <time>2018-04-27T09:41:34Z</time>
      </trkpt>
      <trkpt lat="45.87137" lon="4.70202">
        <ele>216</ele>
        <time>2018-04-27T09:41:35Z</time>
      </trkpt>
      <trkpt lat="45.87142" lon="4.70208">
        <ele>216</ele>
        <time>2018-04-27T09:41:36Z</time>
      </trkpt>
      <trkpt lat="45.87146" lon="4.70214">
        <ele>216</ele>
        <time>2018-04-27T09:41:37Z</time>
      </trkpt>
      <trkpt lat="45.8715" lon="4.7022">
        <ele>216</ele>
        <time>2018-04-27T09:41:38Z</time>
      </trkpt>
      <trkpt lat="45.87155" lon="4.70225">
        <ele>216</ele>
        <time>2018-04-27T09:41:39Z</time>
      </trkpt>
      <trkpt lat="45.8716" lon="4.70231">
        <ele>216</ele>
        <time>2018-04-27T09:41:40Z</time>
      </trkpt>
      <trkpt lat="45.87164" lon="4.70239">
        <ele>216</ele>
        <time>2018-04-27T09:41:41Z</time>
      </trkpt>
      <trkpt lat="45.87168" lon="4.70245">
        <ele>216</ele>
        <time>2018-04-27T09:41:42Z</time>
      </trkpt>
      <trkpt lat="45.87172" lon="4.70252">
        <ele>216</ele>
        <time>2018-04-27T09:41:43Z</time>
      </trkpt>
      <trkpt lat="45.87178" lon="4.70259">
        <ele>216</ele>
        <time>2018-04-27T09:41:44Z</time>
      </trkpt>
      <trkpt lat="45.87182" lon="4.70266">
        <ele>216</ele>
        <time>2018-04-27T09:41:45Z</time>
      </trkpt>
      <trkpt lat="45.87188" lon="4.70272">
        <ele>217</ele>
        <time>2018-04-27T09:41:46Z</time>
      </trkpt>
      <trkpt lat="45.87192" lon="4.70278">
        <ele>217</ele>
        <time>2018-04-27T09:41:47Z</time>
      </trkpt>
      <trkpt lat="45.87195" lon="4.70284">
        <ele>217</ele>
        <time>2018-04-27T09:41:48Z</time>
      </trkpt>
      <trkpt lat="45.872" lon="4.7029">
        <ele>217</ele>
        <time>2018-04-27T09:41:49Z</time>
      </trkpt>
      <trkpt lat="45.87204" lon="4.70296">
        <ele>217</ele>
        <time>2018-04-27T09:41:50Z</time>
      </trkpt>
      <trkpt lat="45.87208" lon="4.70301">
        <ele>217</ele>
        <time>2018-04-27T09:41:51Z</time>
      </trkpt>
      <trkpt lat="45.87212" lon="4.70307">
        <ele>217</ele>
        <time>2018-04-27T09:41:52Z</time>
      </trkpt>
      <trkpt lat="45.87217" lon="4.70312">
        <ele>217</ele>
        <time>2018-04-27T09:41:53Z</time>
      </trkpt>
      <trkpt lat="45.87222" lon="4.70317">
        <ele>217</ele>
        <time>2018-04-27T09:41:54Z</time>
      </trkpt>
      <trkpt lat="45.87228" lon="4.70321">
        <ele>217</ele>
        <time>2018-04-27T09:41:55Z</time>
      </trkpt>
      <trkpt lat="45.87233" lon="4.70326">
        <ele>217</ele>
        <time>2018-04-27T09:41:56Z</time>
      </trkpt>
      <trkpt lat="45.87237" lon="4.70332">
        <ele>217</ele>
        <time>2018-04-27T09:41:57Z</time>
      </trkpt>
      <trkpt lat="45.87242" lon="4.70339">
        <ele>217</ele>
        <time>2018-04-27T09:41:58Z</time>
      </trkpt>
      <trkpt lat="45.87247" lon="4.70346">
        <ele>217</ele>
        <time>2018-04-27T09:41:59Z</time>
      </trkpt>
      <trkpt lat="45.87252" lon="4.70352">
        <ele>217</ele>
        <time>2018-04-27T09:42:00Z</time>
      </trkpt>
      <trkpt lat="45.87256" lon="4.7036">
        <ele>216</ele>
        <time>2018-04-27T09:42:01Z</time>
      </trkpt>
      <trkpt lat="45.87261" lon="4.70366">
        <ele>216</ele>
        <time>2018-04-27T09:42:02Z</time>
      </trkpt>
      <trkpt lat="45.87265" lon="4.70371">
        <ele>216</ele>
        <time>2018-04-27T09:42:03Z</time>
      </trkpt>
      <trkpt lat="45.87269" lon="4.70378">
        <ele>216</ele>
        <time>2018-04-27T09:42:04Z</time>
      </trkpt>
      <trkpt lat="45.87272" lon="4.70384">
        <ele>216</ele>
        <time>2018-04-27T09:42:05Z</time>
      </trkpt>
      <trkpt lat="45.87275" lon="4.70393">
        <ele>216</ele>
        <time>2018-04-27T09:42:06Z</time>
      </trkpt>
      <trkpt lat="45.87279" lon="4.704">
        <ele>216</ele>
        <time>2018-04-27T09:42:07Z</time>
      </trkpt>
      <trkpt lat="45.87282" lon="4.70405">
        <ele>216</ele>
        <time>2018-04-27T09:42:08Z</time>
      </trkpt>
      <trkpt lat="45.87287" lon="4.7041">
        <ele>216</ele>
        <time>2018-04-27T09:42:09Z</time>
      </trkpt>
      <trkpt lat="45.87292" lon="4.70413">
        <ele>215</ele>
        <time>2018-04-27T09:42:10Z</time>
      </trkpt>
      <trkpt lat="45.87296" lon="4.70417">
        <ele>215</ele>
        <time>2018-04-27T09:42:11Z</time>
      </trkpt>
      <trkpt lat="45.873" lon="4.70422">
        <ele>214</ele>
        <time>2018-04-27T09:42:12Z</time>
      </trkpt>
      <trkpt lat="45.87304" lon="4.70429">
        <ele>214</ele>
        <time>2018-04-27T09:42:13Z</time>
      </trkpt>
      <trkpt lat="45.87308" lon="4.70436">
        <ele>214</ele>
        <time>2018-04-27T09:42:14Z</time>
      </trkpt>
      <trkpt lat="45.87312" lon="4.70442">
        <ele>214</ele>
        <time>2018-04-27T09:42:15Z</time>
      </trkpt>
      <trkpt lat="45.87316" lon="4.70449">
        <ele>214</ele>
        <time>2018-04-27T09:42:16Z</time>
      </trkpt>
      <trkpt lat="45.8732" lon="4.70457">
        <ele>214</ele>
        <time>2018-04-27T09:42:17Z</time>
      </trkpt>
      <trkpt lat="45.87325" lon="4.70464">
        <ele>214</ele>
        <time>2018-04-27T09:42:18Z</time>
      </trkpt>
      <trkpt lat="45.87329" lon="4.70471">
        <ele>214</ele>
        <time>2018-04-27T09:42:19Z</time>
      </trkpt>
      <trkpt lat="45.87334" lon="4.70478">
        <ele>213</ele>
        <time>2018-04-27T09:42:20Z</time>
      </trkpt>
      <trkpt lat="45.87339" lon="4.70486">
        <ele>213</ele>
        <time>2018-04-27T09:42:21Z</time>
      </trkpt>
      <trkpt lat="45.87343" lon="4.70494">
        <ele>213</ele>
        <time>2018-04-27T09:42:22Z</time>
      </trkpt>
      <trkpt lat="45.87347" lon="4.70502">
        <ele>212</ele>
        <time>2018-04-27T09:42:23Z</time>
      </trkpt>
      <trkpt lat="45.87351" lon="4.70508">
        <ele>212</ele>
        <time>2018-04-27T09:42:24Z</time>
      </trkpt>
      <trkpt lat="45.87356" lon="4.70516">
        <ele>212</ele>
        <time>2018-04-27T09:42:25Z</time>
      </trkpt>
      <trkpt lat="45.87362" lon="4.70524">
        <ele>212</ele>
        <time>2018-04-27T09:42:26Z</time>
      </trkpt>
      <trkpt lat="45.87367" lon="4.70532">
        <ele>212</ele>
        <time>2018-04-27T09:42:27Z</time>
      </trkpt>
      <trkpt lat="45.87373" lon="4.70542">
        <ele>212</ele>
        <time>2018-04-27T09:42:28Z</time>
      </trkpt>
      <trkpt lat="45.87378" lon="4.70551">
        <ele>212</ele>
        <time>2018-04-27T09:42:29Z</time>
      </trkpt>
      <trkpt lat="45.87384" lon="4.70559">
        <ele>211</ele>
        <time>2018-04-27T09:42:30Z</time>
      </trkpt>
      <trkpt lat="45.8739" lon="4.70566">
        <ele>211</ele>
        <time>2018-04-27T09:42:31Z</time>
      </trkpt>
      <trkpt lat="45.87396" lon="4.70575">
        <ele>211</ele>
        <time>2018-04-27T09:42:32Z</time>
      </trkpt>
      <trkpt lat="45.87403" lon="4.70583">
        <ele>211</ele>
        <time>2018-04-27T09:42:33Z</time>
      </trkpt>
      <trkpt lat="45.87408" lon="4.70592">
        <ele>210</ele>
        <time>2018-04-27T09:42:34Z</time>
      </trkpt>
      <trkpt lat="45.87411" lon="4.70602">
        <ele>210</ele>
        <time>2018-04-27T09:42:35Z</time>
      </trkpt>
      <trkpt lat="45.87415" lon="4.70612">
        <ele>210</ele>
        <time>2018-04-27T09:42:36Z</time>
      </trkpt>
      <trkpt lat="45.87418" lon="4.70623">
        <ele>210</ele>
        <time>2018-04-27T09:42:37Z</time>
      </trkpt>
      <trkpt lat="45.87421" lon="4.70633">
        <ele>209</ele>
        <time>2018-04-27T09:42:38Z</time>
      </trkpt>
      <trkpt lat="45.87423" lon="4.70643">
        <ele>209</ele>
        <time>2018-04-27T09:42:39Z</time>
      </trkpt>
      <trkpt lat="45.87424" lon="4.70652">
        <ele>209</ele>
        <time>2018-04-27T09:42:40Z</time>
      </trkpt>
      <trkpt lat="45.87425" lon="4.70661">
        <ele>208</ele>
        <time>2018-04-27T09:42:41Z</time>
      </trkpt>
      <trkpt lat="45.87426" lon="4.70669">
        <ele>208</ele>
        <time>2018-04-27T09:42:42Z</time>
      </trkpt>
      <trkpt lat="45.87426" lon="4.70678">
        <ele>208</ele>
        <time>2018-04-27T09:42:43Z</time>
      </trkpt>
      <trkpt lat="45.87425" lon="4.70685">
        <ele>209</ele>
        <time>2018-04-27T09:42:44Z</time>
      </trkpt>
      <trkpt lat="45.87426" lon="4.70692">
        <ele>209</ele>
        <time>2018-04-27T09:42:45Z</time>
      </trkpt>
      <trkpt lat="45.87427" lon="4.70699">
        <ele>209</ele>
        <time>2018-04-27T09:42:46Z</time>
      </trkpt>
      <trkpt lat="45.87429" lon="4.70706">
        <ele>209</ele>
        <time>2018-04-27T09:42:47Z</time>
      </trkpt>
      <trkpt lat="45.8743" lon="4.70714">
        <ele>209</ele>
        <time>2018-04-27T09:42:48Z</time>
      </trkpt>
      <trkpt lat="45.8743" lon="4.70721">
        <ele>209</ele>
        <time>2018-04-27T09:42:49Z</time>
      </trkpt>
      <trkpt lat="45.87432" lon="4.70729">
        <ele>209</ele>
        <time>2018-04-27T09:42:50Z</time>
      </trkpt>
      <trkpt lat="45.87432" lon="4.70736">
        <ele>209</ele>
        <time>2018-04-27T09:42:51Z</time>
      </trkpt>
      <trkpt lat="45.87434" lon="4.70743">
        <ele>209</ele>
        <time>2018-04-27T09:42:52Z</time>
      </trkpt>
      <trkpt lat="45.87435" lon="4.70751">
        <ele>209</ele>
        <time>2018-04-27T09:42:53Z</time>
      </trkpt>
      <trkpt lat="45.87436" lon="4.70757">
        <ele>209</ele>
        <time>2018-04-27T09:42:54Z</time>
      </trkpt>
      <trkpt lat="45.87439" lon="4.70769">
        <ele>210</ele>
        <time>2018-04-27T09:42:56Z</time>
      </trkpt>
      <trkpt lat="45.8744" lon="4.70774">
        <ele>210</ele>
        <time>2018-04-27T09:42:57Z</time>
      </trkpt>
      <trkpt lat="45.87443" lon="4.70785">
        <ele>211</ele>
        <time>2018-04-27T09:42:59Z</time>
      </trkpt>
      <trkpt lat="45.87445" lon="4.7079">
        <ele>211</ele>
        <time>2018-04-27T09:43:00Z</time>
      </trkpt>
      <trkpt lat="45.87446" lon="4.70796">
        <ele>211</ele>
        <time>2018-04-27T09:43:02Z</time>
      </trkpt>
      <trkpt lat="45.87448" lon="4.70805">
        <ele>211</ele>
        <time>2018-04-27T09:43:03Z</time>
      </trkpt>
      <trkpt lat="45.87449" lon="4.70815">
        <ele>211</ele>
        <time>2018-04-27T09:43:05Z</time>
      </trkpt>
      <trkpt lat="45.87451" lon="4.70821">
        <ele>211</ele>
        <time>2018-04-27T09:43:06Z</time>
      </trkpt>
      <trkpt lat="45.87453" lon="4.70832">
        <ele>211</ele>
        <time>2018-04-27T09:43:08Z</time>
      </trkpt>
      <trkpt lat="45.87455" lon="4.70838">
        <ele>213</ele>
        <time>2018-04-27T09:43:09Z</time>
      </trkpt>
      <trkpt lat="45.87456" lon="4.7085">
        <ele>213</ele>
        <time>2018-04-27T09:43:11Z</time>
      </trkpt>
      <trkpt lat="45.87457" lon="4.70856">
        <ele>213</ele>
        <time>2018-04-27T09:43:12Z</time>
      </trkpt>
      <trkpt lat="45.87458" lon="4.70863">
        <ele>213</ele>
        <time>2018-04-27T09:43:13Z</time>
      </trkpt>
      <trkpt lat="45.8746" lon="4.70869">
        <ele>213</ele>
        <time>2018-04-27T09:43:14Z</time>
      </trkpt>
      <trkpt lat="45.87461" lon="4.70877">
        <ele>213</ele>
        <time>2018-04-27T09:43:15Z</time>
      </trkpt>
      <trkpt lat="45.87462" lon="4.70884">
        <ele>213</ele>
        <time>2018-04-27T09:43:16Z</time>
      </trkpt>
      <trkpt lat="45.87463" lon="4.70891">
        <ele>214</ele>
        <time>2018-04-27T09:43:17Z</time>
      </trkpt>
      <trkpt lat="45.87465" lon="4.70901">
        <ele>214</ele>
        <time>2018-04-27T09:43:18Z</time>
      </trkpt>
      <trkpt lat="45.87468" lon="4.70907">
        <ele>214</ele>
        <time>2018-04-27T09:43:19Z</time>
      </trkpt>
      <trkpt lat="45.87468" lon="4.70914">
        <ele>214</ele>
        <time>2018-04-27T09:43:20Z</time>
      </trkpt>
      <trkpt lat="45.8747" lon="4.7092">
        <ele>215</ele>
        <time>2018-04-27T09:43:21Z</time>
      </trkpt>
      <trkpt lat="45.87472" lon="4.70927">
        <ele>215</ele>
        <time>2018-04-27T09:43:22Z</time>
      </trkpt>
      <trkpt lat="45.87474" lon="4.70939">
        <ele>215</ele>
        <time>2018-04-27T09:43:24Z</time>
      </trkpt>
      <trkpt lat="45.87478" lon="4.70944">
        <ele>215</ele>
        <time>2018-04-27T09:43:25Z</time>
      </trkpt>
      <trkpt lat="45.87482" lon="4.70956">
        <ele>215</ele>
        <time>2018-04-27T09:43:27Z</time>
      </trkpt>
      <trkpt lat="45.87484" lon="4.70961">
        <ele>215</ele>
        <time>2018-04-27T09:43:28Z</time>
      </trkpt>
      <trkpt lat="45.87488" lon="4.70971">
        <ele>215</ele>
        <time>2018-04-27T09:43:30Z</time>
      </trkpt>
      <trkpt lat="45.8749" lon="4.70976">
        <ele>215</ele>
        <time>2018-04-27T09:43:31Z</time>
      </trkpt>
      <trkpt lat="45.87495" lon="4.70985">
        <ele>214</ele>
        <time>2018-04-27T09:43:33Z</time>
      </trkpt>
      <trkpt lat="45.87497" lon="4.7099">
        <ele>214</ele>
        <time>2018-04-27T09:43:34Z</time>
      </trkpt>
      <trkpt lat="45.87503" lon="4.70999">
        <ele>214</ele>
        <time>2018-04-27T09:43:36Z</time>
      </trkpt>
      <trkpt lat="45.87506" lon="4.71003">
        <ele>214</ele>
        <time>2018-04-27T09:43:37Z</time>
      </trkpt>
      <trkpt lat="45.87511" lon="4.71013">
        <ele>215</ele>
        <time>2018-04-27T09:43:39Z</time>
      </trkpt>
      <trkpt lat="45.87514" lon="4.71018">
        <ele>215</ele>
        <time>2018-04-27T09:43:40Z</time>
      </trkpt>
      <trkpt lat="45.87519" lon="4.71028">
        <ele>215</ele>
        <time>2018-04-27T09:43:42Z</time>
      </trkpt>
      <trkpt lat="45.87521" lon="4.71033">
        <ele>215</ele>
        <time>2018-04-27T09:43:43Z</time>
      </trkpt>
      <trkpt lat="45.87528" lon="4.7104">
        <ele>215</ele>
        <time>2018-04-27T09:43:45Z</time>
      </trkpt>
      <trkpt lat="45.8753" lon="4.71046">
        <ele>215</ele>
        <time>2018-04-27T09:43:46Z</time>
      </trkpt>
      <trkpt lat="45.87535" lon="4.71054">
        <ele>215</ele>
        <time>2018-04-27T09:43:49Z</time>
      </trkpt>
      <trkpt lat="45.87535" lon="4.71057">
        <ele>215</ele>
        <time>2018-04-27T09:43:50Z</time>
      </trkpt>
      <trkpt lat="45.87537" lon="4.71068">
        <ele>216</ele>
        <time>2018-04-27T09:43:53Z</time>
      </trkpt>
      <trkpt lat="45.87537" lon="4.71072">
        <ele>216</ele>
        <time>2018-04-27T09:43:54Z</time>
      </trkpt>
      <trkpt lat="45.87536" lon="4.71082">
        <ele>216</ele>
        <time>2018-04-27T09:43:57Z</time>
      </trkpt>
      <trkpt lat="45.87536" lon="4.71085">
        <ele>218</ele>
        <time>2018-04-27T09:43:58Z</time>
      </trkpt>
      <trkpt lat="45.87532" lon="4.71093">
        <ele>218</ele>
        <time>2018-04-27T09:44:52Z</time>
      </trkpt>
      <trkpt lat="45.87532" lon="4.71096">
        <ele>218</ele>
        <time>2018-04-27T09:44:53Z</time>
      </trkpt>
      <trkpt lat="45.87532" lon="4.71106">
        <ele>218</ele>
        <time>2018-04-27T09:44:56Z</time>
      </trkpt>
      <trkpt lat="45.87534" lon="4.71109">
        <ele>218</ele>
        <time>2018-04-27T09:44:57Z</time>
      </trkpt>
      <trkpt lat="45.8754" lon="4.71118">
        <ele>218</ele>
        <time>2018-04-27T09:45:00Z</time>
      </trkpt>
      <trkpt lat="45.87548" lon="4.71125">
        <ele>218</ele>
        <time>2018-04-27T09:45:01Z</time>
      </trkpt>
      <trkpt lat="45.87556" lon="4.7113">
        <ele>218</ele>
        <time>2018-04-27T09:45:03Z</time>
      </trkpt>
      <trkpt lat="45.87559" lon="4.71132">
        <ele>219</ele>
        <time>2018-04-27T09:45:04Z</time>
      </trkpt>
      <trkpt lat="45.87563" lon="4.71135">
        <ele>219</ele>
        <time>2018-04-27T09:45:06Z</time>
      </trkpt>
      <trkpt lat="45.87568" lon="4.7114">
        <ele>219</ele>
        <time>2018-04-27T09:45:07Z</time>
      </trkpt>
      <trkpt lat="45.87571" lon="4.71152">
        <ele>220</ele>
        <time>2018-04-27T09:45:10Z</time>
      </trkpt>
      <trkpt lat="45.87574" lon="4.71159">
        <ele>220</ele>
        <time>2018-04-27T09:45:11Z</time>
      </trkpt>
      <trkpt lat="45.87578" lon="4.71168">
        <ele>221</ele>
        <time>2018-04-27T09:45:14Z</time>
      </trkpt>
      <trkpt lat="45.87579" lon="4.71171">
        <ele>221</ele>
        <time>2018-04-27T09:45:15Z</time>
      </trkpt>
      <trkpt lat="45.87583" lon="4.71181">
        <ele>221</ele>
        <time>2018-04-27T09:45:18Z</time>
      </trkpt>
      <trkpt lat="45.87585" lon="4.71184">
        <ele>222</ele>
        <time>2018-04-27T09:45:19Z</time>
      </trkpt>
      <trkpt lat="45.87589" lon="4.71195">
        <ele>223</ele>
        <time>2018-04-27T09:45:22Z</time>
      </trkpt>
      <trkpt lat="45.8759" lon="4.71199">
        <ele>223</ele>
        <time>2018-04-27T09:45:23Z</time>
      </trkpt>
      <trkpt lat="45.87595" lon="4.71209">
        <ele>223</ele>
        <time>2018-04-27T09:45:26Z</time>
      </trkpt>
      <trkpt lat="45.87596" lon="4.71212">
        <ele>223</ele>
        <time>2018-04-27T09:45:27Z</time>
      </trkpt>
      <trkpt lat="45.876" lon="4.71222">
        <ele>223</ele>
        <time>2018-04-27T09:45:30Z</time>
      </trkpt>
      <trkpt lat="45.87601" lon="4.71226">
        <ele>224</ele>
        <time>2018-04-27T09:45:31Z</time>
      </trkpt>
      <trkpt lat="45.87605" lon="4.71235">
        <ele>224</ele>
        <time>2018-04-27T09:45:34Z</time>
      </trkpt>
      <trkpt lat="45.87606" lon="4.71238">
        <ele>224</ele>
        <time>2018-04-27T09:45:35Z</time>
      </trkpt>
      <trkpt lat="45.87611" lon="4.71249">
        <ele>224</ele>
        <time>2018-04-27T09:45:39Z</time>
      </trkpt>
      <trkpt lat="45.87612" lon="4.71252">
        <ele>225</ele>
        <time>2018-04-27T09:45:40Z</time>
      </trkpt>
      <trkpt lat="45.87615" lon="4.71261">
        <ele>225</ele>
        <time>2018-04-27T09:45:43Z</time>
      </trkpt>
      <trkpt lat="45.87616" lon="4.71264">
        <ele>225</ele>
        <time>2018-04-27T09:45:44Z</time>
      </trkpt>
      <trkpt lat="45.87621" lon="4.71275">
        <ele>225</ele>
        <time>2018-04-27T09:45:52Z</time>
      </trkpt>
      <trkpt lat="45.87621" lon="4.71275">
        <ele>225</ele>
        <time>2018-04-27T09:45:53Z</time>
      </trkpt>
      <trkpt lat="45.87623" lon="4.71286">
        <ele>225</ele>
        <time>2018-04-27T09:46:48Z</time>
      </trkpt>
      <trkpt lat="45.87623" lon="4.71287">
        <ele>225</ele>
        <time>2018-04-27T09:46:49Z</time>
      </trkpt>
      <trkpt lat="45.87623" lon="4.71288">
        <ele>225</ele>
        <time>2018-04-27T09:46:50Z</time>
      </trkpt>
      <trkpt lat="45.87626" lon="4.713">
        <ele>225</ele>
        <time>2018-04-27T09:47:40Z</time>
      </trkpt>
      <trkpt lat="45.87626" lon="4.713">
        <ele>225</ele>
        <time>2018-04-27T09:47:41Z</time>
      </trkpt>
      <trkpt lat="45.87625" lon="4.71304">
        <ele>225</ele>
        <time>2018-04-27T09:48:06Z</time>
      </trkpt>
      <trkpt lat="45.87625" lon="4.71304">
        <ele>225</ele>
        <time>2018-04-27T09:48:07Z</time>
      </trkpt>
      <trkpt lat="45.87625" lon="4.71305">
        <ele>225</ele>
        <time>2018-04-27T09:48:12Z</time>
      </trkpt>
      <trkpt lat="45.87624" lon="4.71305">
        <ele>225</ele>
        <time>2018-04-27T09:48:13Z</time>
      </trkpt>
      <trkpt lat="45.87627" lon="4.71295">
        <ele>225</ele>
        <time>2018-04-27T09:48:42Z</time>
      </trkpt>
      <trkpt lat="45.87627" lon="4.71294">
        <ele>225</ele>
        <time>2018-04-27T09:48:43Z</time>
      </trkpt>
      <trkpt lat="45.87627" lon="4.71293">
        <ele>225</ele>
        <time>2018-04-27T09:49:09Z</time>
      </trkpt>
      <trkpt lat="45.87627" lon="4.71293">
        <ele>225</ele>
        <time>2018-04-27T09:49:10Z</time>
      </trkpt>
      <trkpt lat="45.87622" lon="4.71283">
        <ele>225</ele>
        <time>2018-04-27T09:49:26Z</time>
      </trkpt>
      <trkpt lat="45.87622" lon="4.71282">
        <ele>225</ele>
        <time>2018-04-27T09:49:27Z</time>
      </trkpt>
      <trkpt lat="45.87621" lon="4.7127">
        <ele>225</ele>
        <time>2018-04-27T09:49:42Z</time>
      </trkpt>
      <trkpt lat="45.8762" lon="4.71267">
        <ele>225</ele>
        <time>2018-04-27T09:49:43Z</time>
      </trkpt>
      <trkpt lat="45.87618" lon="4.71255">
        <ele>225</ele>
        <time>2018-04-27T09:49:46Z</time>
      </trkpt>
      <trkpt lat="45.87614" lon="4.71243">
        <ele>224</ele>
        <time>2018-04-27T09:49:47Z</time>
      </trkpt>
      <trkpt lat="45.87609" lon="4.71232">
        <ele>224</ele>
        <time>2018-04-27T09:49:49Z</time>
      </trkpt>
      <trkpt lat="45.87605" lon="4.71225">
        <ele>224</ele>
        <time>2018-04-27T09:49:50Z</time>
      </trkpt>
      <trkpt lat="45.87602" lon="4.71218">
        <ele>223</ele>
        <time>2018-04-27T09:49:51Z</time>
      </trkpt>
      <trkpt lat="45.87597" lon="4.7121">
        <ele>223</ele>
        <time>2018-04-27T09:49:52Z</time>
      </trkpt>
      <trkpt lat="45.87594" lon="4.71203">
        <ele>223</ele>
        <time>2018-04-27T09:49:53Z</time>
      </trkpt>
      <trkpt lat="45.87592" lon="4.71195">
        <ele>223</ele>
        <time>2018-04-27T09:49:54Z</time>
      </trkpt>
      <trkpt lat="45.87588" lon="4.71187">
        <ele>222</ele>
        <time>2018-04-27T09:49:55Z</time>
      </trkpt>
      <trkpt lat="45.87585" lon="4.71179">
        <ele>222</ele>
        <time>2018-04-27T09:49:56Z</time>
      </trkpt>
      <trkpt lat="45.87582" lon="4.71171">
        <ele>221</ele>
        <time>2018-04-27T09:49:57Z</time>
      </trkpt>
      <trkpt lat="45.87579" lon="4.71164">
        <ele>220</ele>
        <time>2018-04-27T09:49:58Z</time>
      </trkpt>
      <trkpt lat="45.87577" lon="4.71157">
        <ele>220</ele>
        <time>2018-04-27T09:49:59Z</time>
      </trkpt>
      <trkpt lat="45.87574" lon="4.7115">
        <ele>220</ele>
        <time>2018-04-27T09:50:00Z</time>
      </trkpt>
      <trkpt lat="45.87571" lon="4.71139">
        <ele>219</ele>
        <time>2018-04-27T09:50:03Z</time>
      </trkpt>
      <trkpt lat="45.87572" lon="4.71136">
        <ele>219</ele>
        <time>2018-04-27T09:50:04Z</time>
      </trkpt>
      <trkpt lat="45.87573" lon="4.71125">
        <ele>218</ele>
        <time>2018-04-27T09:50:08Z</time>
      </trkpt>
      <trkpt lat="45.87574" lon="4.71123">
        <ele>218</ele>
        <time>2018-04-27T09:50:09Z</time>
      </trkpt>
      <trkpt lat="45.87577" lon="4.71113">
        <ele>218</ele>
        <time>2018-04-27T09:50:36Z</time>
      </trkpt>
      <trkpt lat="45.87578" lon="4.7111">
        <ele>218</ele>
        <time>2018-04-27T09:50:37Z</time>
      </trkpt>
      <trkpt lat="45.87584" lon="4.71101">
        <ele>219</ele>
        <time>2018-04-27T09:50:40Z</time>
      </trkpt>
      <trkpt lat="45.87587" lon="4.71099">
        <ele>219</ele>
        <time>2018-04-27T09:50:41Z</time>
      </trkpt>
      <trkpt lat="45.87589" lon="4.71097">
        <ele>219</ele>
        <time>2018-04-27T09:50:42Z</time>
      </trkpt>
      <trkpt lat="45.87598" lon="4.71091">
        <ele>219</ele>
        <time>2018-04-27T09:50:43Z</time>
      </trkpt>
      <trkpt lat="45.87604" lon="4.71089">
        <ele>219</ele>
        <time>2018-04-27T09:50:45Z</time>
      </trkpt>
      <trkpt lat="45.8761" lon="4.71086">
        <ele>219</ele>
        <time>2018-04-27T09:50:46Z</time>
      </trkpt>
      <trkpt lat="45.87618" lon="4.71083">
        <ele>217</ele>
        <time>2018-04-27T09:50:48Z</time>
      </trkpt>
      <trkpt lat="45.87622" lon="4.71081">
        <ele>217</ele>
        <time>2018-04-27T09:50:49Z</time>
      </trkpt>
      <trkpt lat="45.87627" lon="4.7108">
        <ele>218</ele>
        <time>2018-04-27T09:50:50Z</time>
      </trkpt>
      <trkpt lat="45.87631" lon="4.71078">
        <ele>218</ele>
        <time>2018-04-27T09:50:51Z</time>
      </trkpt>
      <trkpt lat="45.87635" lon="4.71076">
        <ele>218</ele>
        <time>2018-04-27T09:50:52Z</time>
      </trkpt>
      <trkpt lat="45.8764" lon="4.71073">
        <ele>218</ele>
        <time>2018-04-27T09:50:53Z</time>
      </trkpt>
      <trkpt lat="45.87645" lon="4.71071">
        <ele>218</ele>
        <time>2018-04-27T09:50:54Z</time>
      </trkpt>
      <trkpt lat="45.87649" lon="4.71069">
        <ele>218</ele>
        <time>2018-04-27T09:50:55Z</time>
      </trkpt>
      <trkpt lat="45.87657" lon="4.71066">
        <ele>218</ele>
        <time>2018-04-27T09:50:57Z</time>
      </trkpt>
      <trkpt lat="45.87661" lon="4.71064">
        <ele>218</ele>
        <time>2018-04-27T09:50:58Z</time>
      </trkpt>
      <trkpt lat="45.87666" lon="4.71062">
        <ele>218</ele>
        <time>2018-04-27T09:50:59Z</time>
      </trkpt>
      <trkpt lat="45.8767" lon="4.7106">
        <ele>220</ele>
        <time>2018-04-27T09:51:00Z</time>
      </trkpt>
      <trkpt lat="45.87675" lon="4.71058">
        <ele>220</ele>
        <time>2018-04-27T09:51:01Z</time>
      </trkpt>
      <trkpt lat="45.87679" lon="4.71057">
        <ele>220</ele>
        <time>2018-04-27T09:51:02Z</time>
      </trkpt>
      <trkpt lat="45.87685" lon="4.71054">
        <ele>220</ele>
        <time>2018-04-27T09:51:03Z</time>
      </trkpt>
      <trkpt lat="45.8769" lon="4.71053">
        <ele>220</ele>
        <time>2018-04-27T09:51:04Z</time>
      </trkpt>
      <trkpt lat="45.87698" lon="4.71053">
        <ele>220</ele>
        <time>2018-04-27T09:51:06Z</time>
      </trkpt>
      <trkpt lat="45.87702" lon="4.71051">
        <ele>220</ele>
        <time>2018-04-27T09:51:07Z</time>
      </trkpt>
      <trkpt lat="45.87708" lon="4.71049">
        <ele>220</ele>
        <time>2018-04-27T09:51:09Z</time>
      </trkpt>
      <trkpt lat="45.87712" lon="4.71047">
        <ele>220</ele>
        <time>2018-04-27T09:51:10Z</time>
      </trkpt>
      <trkpt lat="45.87718" lon="4.71045">
        <ele>220</ele>
        <time>2018-04-27T09:51:12Z</time>
      </trkpt>
      <trkpt lat="45.87725" lon="4.71042">
        <ele>220</ele>
        <time>2018-04-27T09:51:13Z</time>
      </trkpt>
      <trkpt lat="45.87732" lon="4.71038">
        <ele>220</ele>
        <time>2018-04-27T09:51:15Z</time>
      </trkpt>
      <trkpt lat="45.87737" lon="4.71035">
        <ele>220</ele>
        <time>2018-04-27T09:51:16Z</time>
      </trkpt>
      <trkpt lat="45.87744" lon="4.71031">
        <ele>220</ele>
        <time>2018-04-27T09:51:18Z</time>
      </trkpt>
      <trkpt lat="45.87749" lon="4.71028">
        <ele>220</ele>
        <time>2018-04-27T09:51:19Z</time>
      </trkpt>
      <trkpt lat="45.87757" lon="4.71025">
        <ele>222</ele>
        <time>2018-04-27T09:51:21Z</time>
      </trkpt>
      <trkpt lat="45.87761" lon="4.71024">
        <ele>222</ele>
        <time>2018-04-27T09:51:22Z</time>
      </trkpt>
      <trkpt lat="45.87769" lon="4.7102">
        <ele>222</ele>
        <time>2018-04-27T09:51:24Z</time>
      </trkpt>
      <trkpt lat="45.87774" lon="4.71018">
        <ele>222</ele>
        <time>2018-04-27T09:51:25Z</time>
      </trkpt>
      <trkpt lat="45.87782" lon="4.71014">
        <ele>222</ele>
        <time>2018-04-27T09:51:27Z</time>
      </trkpt>
      <trkpt lat="45.87786" lon="4.71013">
        <ele>223</ele>
        <time>2018-04-27T09:51:28Z</time>
      </trkpt>
      <trkpt lat="45.87793" lon="4.7101">
        <ele>223</ele>
        <time>2018-04-27T09:51:30Z</time>
      </trkpt>
      <trkpt lat="45.87797" lon="4.71008">
        <ele>223</ele>
        <time>2018-04-27T09:51:31Z</time>
      </trkpt>
      <trkpt lat="45.87805" lon="4.71004">
        <ele>223</ele>
        <time>2018-04-27T09:51:33Z</time>
      </trkpt>
      <trkpt lat="45.87809" lon="4.71002">
        <ele>223</ele>
        <time>2018-04-27T09:51:34Z</time>
      </trkpt>
      <trkpt lat="45.87817" lon="4.70999">
        <ele>223</ele>
        <time>2018-04-27T09:51:36Z</time>
      </trkpt>
      <trkpt lat="45.87822" lon="4.70997">
        <ele>223</ele>
        <time>2018-04-27T09:51:37Z</time>
      </trkpt>
      <trkpt lat="45.8783" lon="4.70994">
        <ele>223</ele>
        <time>2018-04-27T09:51:39Z</time>
      </trkpt>
      <trkpt lat="45.87834" lon="4.70993">
        <ele>224</ele>
        <time>2018-04-27T09:51:40Z</time>
      </trkpt>
      <trkpt lat="45.87842" lon="4.70989">
        <ele>224</ele>
        <time>2018-04-27T09:51:42Z</time>
      </trkpt>
      <trkpt lat="45.87843" lon="4.70988">
        <ele>224</ele>
        <time>2018-04-27T09:51:43Z</time>
      </trkpt>
      <trkpt lat="45.87849" lon="4.70984">
        <ele>224</ele>
        <time>2018-04-27T09:51:44Z</time>
      </trkpt>
      <trkpt lat="45.87852" lon="4.70982">
        <ele>224</ele>
        <time>2018-04-27T09:51:45Z</time>
      </trkpt>
      <trkpt lat="45.87857" lon="4.7098">
        <ele>224</ele>
        <time>2018-04-27T09:51:46Z</time>
      </trkpt>
      <trkpt lat="45.87861" lon="4.70977">
        <ele>224</ele>
        <time>2018-04-27T09:51:47Z</time>
      </trkpt>
      <trkpt lat="45.87865" lon="4.70975">
        <ele>224</ele>
        <time>2018-04-27T09:51:48Z</time>
      </trkpt>
      <trkpt lat="45.87869" lon="4.70973">
        <ele>225</ele>
        <time>2018-04-27T09:51:49Z</time>
      </trkpt>
      <trkpt lat="45.87877" lon="4.7097">
        <ele>225</ele>
        <time>2018-04-27T09:51:51Z</time>
      </trkpt>
      <trkpt lat="45.87881" lon="4.70967">
        <ele>225</ele>
        <time>2018-04-27T09:51:52Z</time>
      </trkpt>
      <trkpt lat="45.87889" lon="4.70963">
        <ele>225</ele>
        <time>2018-04-27T09:51:54Z</time>
      </trkpt>
      <trkpt lat="45.87893" lon="4.70961">
        <ele>225</ele>
        <time>2018-04-27T09:51:55Z</time>
      </trkpt>
      <trkpt lat="45.87898" lon="4.70957">
        <ele>225</ele>
        <time>2018-04-27T09:51:57Z</time>
      </trkpt>
      <trkpt lat="45.87903" lon="4.70954">
        <ele>225</ele>
        <time>2018-04-27T09:51:58Z</time>
      </trkpt>
      <trkpt lat="45.87909" lon="4.70948">
        <ele>225</ele>
        <time>2018-04-27T09:52:00Z</time>
      </trkpt>
      <trkpt lat="45.87913" lon="4.70946">
        <ele>224</ele>
        <time>2018-04-27T09:52:01Z</time>
      </trkpt>
      <trkpt lat="45.87921" lon="4.7094">
        <ele>225</ele>
        <time>2018-04-27T09:52:03Z</time>
      </trkpt>
      <trkpt lat="45.87925" lon="4.70938">
        <ele>225</ele>
        <time>2018-04-27T09:52:04Z</time>
      </trkpt>
      <trkpt lat="45.87932" lon="4.70933">
        <ele>225</ele>
        <time>2018-04-27T09:52:06Z</time>
      </trkpt>
      <trkpt lat="45.87935" lon="4.70931">
        <ele>225</ele>
        <time>2018-04-27T09:52:07Z</time>
      </trkpt>
      <trkpt lat="45.87942" lon="4.70926">
        <ele>225</ele>
        <time>2018-04-27T09:52:09Z</time>
      </trkpt>
      <trkpt lat="45.87946" lon="4.70923">
        <ele>225</ele>
        <time>2018-04-27T09:52:10Z</time>
      </trkpt>
      <trkpt lat="45.87953" lon="4.70919">
        <ele>225</ele>
        <time>2018-04-27T09:52:12Z</time>
      </trkpt>
      <trkpt lat="45.87957" lon="4.70916">
        <ele>224</ele>
        <time>2018-04-27T09:52:13Z</time>
      </trkpt>
      <trkpt lat="45.87964" lon="4.70912">
        <ele>225</ele>
        <time>2018-04-27T09:52:15Z</time>
      </trkpt>
      <trkpt lat="45.87967" lon="4.7091">
        <ele>225</ele>
        <time>2018-04-27T09:52:16Z</time>
      </trkpt>
      <trkpt lat="45.87975" lon="4.70904">
        <ele>225</ele>
        <time>2018-04-27T09:52:18Z</time>
      </trkpt>
      <trkpt lat="45.87978" lon="4.70902">
        <ele>225</ele>
        <time>2018-04-27T09:52:19Z</time>
      </trkpt>
      <trkpt lat="45.87986" lon="4.70897">
        <ele>225</ele>
        <time>2018-04-27T09:52:21Z</time>
      </trkpt>
      <trkpt lat="45.87989" lon="4.70895">
        <ele>225</ele>
        <time>2018-04-27T09:52:22Z</time>
      </trkpt>
      <trkpt lat="45.87997" lon="4.7089">
        <ele>225</ele>
        <time>2018-04-27T09:52:24Z</time>
      </trkpt>
      <trkpt lat="45.88" lon="4.70888">
        <ele>226</ele>
        <time>2018-04-27T09:52:25Z</time>
      </trkpt>
      <trkpt lat="45.88007" lon="4.70883">
        <ele>226</ele>
        <time>2018-04-27T09:52:27Z</time>
      </trkpt>
      <trkpt lat="45.88011" lon="4.70881">
        <ele>226</ele>
        <time>2018-04-27T09:52:28Z</time>
      </trkpt>
      <trkpt lat="45.88018" lon="4.70876">
        <ele>226</ele>
        <time>2018-04-27T09:52:30Z</time>
      </trkpt>
      <trkpt lat="45.88022" lon="4.70873">
        <ele>226</ele>
        <time>2018-04-27T09:52:31Z</time>
      </trkpt>
      <trkpt lat="45.88029" lon="4.70869">
        <ele>226</ele>
        <time>2018-04-27T09:52:33Z</time>
      </trkpt>
      <trkpt lat="45.88033" lon="4.70867">
        <ele>226</ele>
        <time>2018-04-27T09:52:34Z</time>
      </trkpt>
      <trkpt lat="45.8804" lon="4.70862">
        <ele>227</ele>
        <time>2018-04-27T09:52:36Z</time>
      </trkpt>
      <trkpt lat="45.88044" lon="4.7086">
        <ele>227</ele>
        <time>2018-04-27T09:52:37Z</time>
      </trkpt>
      <trkpt lat="45.88052" lon="4.70855">
        <ele>227</ele>
        <time>2018-04-27T09:52:39Z</time>
      </trkpt>
      <trkpt lat="45.88055" lon="4.70853">
        <ele>227</ele>
        <time>2018-04-27T09:52:40Z</time>
      </trkpt>
      <trkpt lat="45.88062" lon="4.70848">
        <ele>227</ele>
        <time>2018-04-27T09:52:42Z</time>
      </trkpt>
      <trkpt lat="45.88066" lon="4.70845">
        <ele>228</ele>
        <time>2018-04-27T09:52:43Z</time>
      </trkpt>
      <trkpt lat="45.88073" lon="4.7084">
        <ele>228</ele>
        <time>2018-04-27T09:52:45Z</time>
      </trkpt>
      <trkpt lat="45.88077" lon="4.70839">
        <ele>228</ele>
        <time>2018-04-27T09:52:46Z</time>
      </trkpt>
      <trkpt lat="45.88082" lon="4.70841">
        <ele>228</ele>
        <time>2018-04-27T09:52:47Z</time>
      </trkpt>
      <trkpt lat="45.88087" lon="4.70841">
        <ele>229</ele>
        <time>2018-04-27T09:52:48Z</time>
      </trkpt>
      <trkpt lat="45.88092" lon="4.70844">
        <ele>229</ele>
        <time>2018-04-27T09:52:49Z</time>
      </trkpt>
      <trkpt lat="45.88096" lon="4.70846">
        <ele>229</ele>
        <time>2018-04-27T09:52:50Z</time>
      </trkpt>
      <trkpt lat="45.88101" lon="4.70846">
        <ele>229</ele>
        <time>2018-04-27T09:52:51Z</time>
      </trkpt>
      <trkpt lat="45.88105" lon="4.70843">
        <ele>229</ele>
        <time>2018-04-27T09:52:52Z</time>
      </trkpt>
      <trkpt lat="45.8811" lon="4.70837">
        <ele>229</ele>
        <time>2018-04-27T09:52:54Z</time>
      </trkpt>
      <trkpt lat="45.88113" lon="4.70832">
        <ele>230</ele>
        <time>2018-04-27T09:52:55Z</time>
      </trkpt>
      <trkpt lat="45.88118" lon="4.70823">
        <ele>230</ele>
        <time>2018-04-27T09:52:57Z</time>
      </trkpt>
      <trkpt lat="45.88121" lon="4.70819">
        <ele>230</ele>
        <time>2018-04-27T09:52:58Z</time>
      </trkpt>
      <trkpt lat="45.88127" lon="4.70813">
        <ele>230</ele>
        <time>2018-04-27T09:53:00Z</time>
      </trkpt>
      <trkpt lat="45.8813" lon="4.7081">
        <ele>230</ele>
        <time>2018-04-27T09:53:01Z</time>
      </trkpt>
      <trkpt lat="45.88137" lon="4.70803">
        <ele>231</ele>
        <time>2018-04-27T09:53:03Z</time>
      </trkpt>
      <trkpt lat="45.8814" lon="4.708">
        <ele>231</ele>
        <time>2018-04-27T09:53:04Z</time>
      </trkpt>
      <trkpt lat="45.88147" lon="4.70793">
        <ele>231</ele>
        <time>2018-04-27T09:53:06Z</time>
      </trkpt>
      <trkpt lat="45.8815" lon="4.70789">
        <ele>231</ele>
        <time>2018-04-27T09:53:07Z</time>
      </trkpt>
      <trkpt lat="45.88157" lon="4.70783">
        <ele>231</ele>
        <time>2018-04-27T09:53:09Z</time>
      </trkpt>
      <trkpt lat="45.88161" lon="4.7078">
        <ele>231</ele>
        <time>2018-04-27T09:53:10Z</time>
      </trkpt>
      <trkpt lat="45.88169" lon="4.70775">
        <ele>232</ele>
        <time>2018-04-27T09:53:12Z</time>
      </trkpt>
      <trkpt lat="45.88173" lon="4.70772">
        <ele>232</ele>
        <time>2018-04-27T09:53:13Z</time>
      </trkpt>
      <trkpt lat="45.88181" lon="4.70767">
        <ele>232</ele>
        <time>2018-04-27T09:53:15Z</time>
      </trkpt>
      <trkpt lat="45.88185" lon="4.70765">
        <ele>232</ele>
        <time>2018-04-27T09:53:16Z</time>
      </trkpt>
      <trkpt lat="45.88192" lon="4.7076">
        <ele>232</ele>
        <time>2018-04-27T09:53:18Z</time>
      </trkpt>
      <trkpt lat="45.88195" lon="4.70758">
        <ele>232</ele>
        <time>2018-04-27T09:53:19Z</time>
      </trkpt>
      <trkpt lat="45.88202" lon="4.70752">
        <ele>232</ele>
        <time>2018-04-27T09:53:21Z</time>
      </trkpt>
      <trkpt lat="45.88206" lon="4.7075">
        <ele>235</ele>
        <time>2018-04-27T09:53:22Z</time>
      </trkpt>
      <trkpt lat="45.88213" lon="4.70744">
        <ele>235</ele>
        <time>2018-04-27T09:53:24Z</time>
      </trkpt>
      <trkpt lat="45.88217" lon="4.70742">
        <ele>235</ele>
        <time>2018-04-27T09:53:25Z</time>
      </trkpt>
      <trkpt lat="45.88224" lon="4.70737">
        <ele>235</ele>
        <time>2018-04-27T09:53:27Z</time>
      </trkpt>
      <trkpt lat="45.88226" lon="4.70735">
        <ele>235</ele>
        <time>2018-04-27T09:53:28Z</time>
      </trkpt>
      <trkpt lat="45.88231" lon="4.70731">
        <ele>235</ele>
        <time>2018-04-27T09:53:29Z</time>
      </trkpt>
      <trkpt lat="45.88234" lon="4.70729">
        <ele>235</ele>
        <time>2018-04-27T09:53:30Z</time>
      </trkpt>
      <trkpt lat="45.8824" lon="4.70724">
        <ele>235</ele>
        <time>2018-04-27T09:53:32Z</time>
      </trkpt>
      <trkpt lat="45.88244" lon="4.7072">
        <ele>235</ele>
        <time>2018-04-27T09:53:33Z</time>
      </trkpt>
      <trkpt lat="45.88251" lon="4.70713">
        <ele>234</ele>
        <time>2018-04-27T09:53:35Z</time>
      </trkpt>
      <trkpt lat="45.88255" lon="4.70711">
        <ele>235</ele>
        <time>2018-04-27T09:53:36Z</time>
      </trkpt>
      <trkpt lat="45.88262" lon="4.70704">
        <ele>235</ele>
        <time>2018-04-27T09:53:38Z</time>
      </trkpt>
      <trkpt lat="45.88266" lon="4.707">
        <ele>235</ele>
        <time>2018-04-27T09:53:39Z</time>
      </trkpt>
      <trkpt lat="45.8827" lon="4.70697">
        <ele>235</ele>
        <time>2018-04-27T09:53:40Z</time>
      </trkpt>
      <trkpt lat="45.88274" lon="4.70693">
        <ele>235</ele>
        <time>2018-04-27T09:53:41Z</time>
      </trkpt>
      <trkpt lat="45.88278" lon="4.70688">
        <ele>235</ele>
        <time>2018-04-27T09:53:42Z</time>
      </trkpt>
      <trkpt lat="45.88284" lon="4.70684">
        <ele>235</ele>
        <time>2018-04-27T09:53:43Z</time>
      </trkpt>
      <trkpt lat="45.8829" lon="4.70678">
        <ele>235</ele>
        <time>2018-04-27T09:53:45Z</time>
      </trkpt>
      <trkpt lat="45.88294" lon="4.70675">
        <ele>235</ele>
        <time>2018-04-27T09:53:46Z</time>
      </trkpt>
      <trkpt lat="45.88302" lon="4.70669">
        <ele>235</ele>
        <time>2018-04-27T09:53:48Z</time>
      </trkpt>
      <trkpt lat="45.88306" lon="4.70664">
        <ele>238</ele>
        <time>2018-04-27T09:53:49Z</time>
      </trkpt>
      <trkpt lat="45.88314" lon="4.70658">
        <ele>238</ele>
        <time>2018-04-27T09:53:51Z</time>
      </trkpt>
      <trkpt lat="45.88318" lon="4.70654">
        <ele>238</ele>
        <time>2018-04-27T09:53:52Z</time>
      </trkpt>
      <trkpt lat="45.88323" lon="4.70651">
        <ele>238</ele>
        <time>2018-04-27T09:53:53Z</time>
      </trkpt>
      <trkpt lat="45.88327" lon="4.70647">
        <ele>238</ele>
        <time>2018-04-27T09:53:54Z</time>
      </trkpt>
      <trkpt lat="45.88335" lon="4.70642">
        <ele>235</ele>
        <time>2018-04-27T09:53:56Z</time>
      </trkpt>
      <trkpt lat="45.88338" lon="4.70639">
        <ele>235</ele>
        <time>2018-04-27T09:53:57Z</time>
      </trkpt>
      <trkpt lat="45.88343" lon="4.70636">
        <ele>235</ele>
        <time>2018-04-27T09:53:58Z</time>
      </trkpt>
      <trkpt lat="45.88347" lon="4.70633">
        <ele>235</ele>
        <time>2018-04-27T09:53:59Z</time>
      </trkpt>
      <trkpt lat="45.88351" lon="4.70629">
        <ele>235</ele>
        <time>2018-04-27T09:54:00Z</time>
      </trkpt>
      <trkpt lat="45.88355" lon="4.70627">
        <ele>235</ele>
        <time>2018-04-27T09:54:01Z</time>
      </trkpt>
      <trkpt lat="45.88363" lon="4.70622">
        <ele>235</ele>
        <time>2018-04-27T09:54:03Z</time>
      </trkpt>
      <trkpt lat="45.88368" lon="4.70619">
        <ele>235</ele>
        <time>2018-04-27T09:54:04Z</time>
      </trkpt>
      <trkpt lat="45.88372" lon="4.70615">
        <ele>235</ele>
        <time>2018-04-27T09:54:05Z</time>
      </trkpt>
      <trkpt lat="45.88376" lon="4.70613">
        <ele>235</ele>
        <time>2018-04-27T09:54:06Z</time>
      </trkpt>
      <trkpt lat="45.88381" lon="4.70609">
        <ele>235</ele>
        <time>2018-04-27T09:54:07Z</time>
      </trkpt>
      <trkpt lat="45.88386" lon="4.70606">
        <ele>235</ele>
        <time>2018-04-27T09:54:08Z</time>
      </trkpt>
      <trkpt lat="45.88391" lon="4.70602">
        <ele>235</ele>
        <time>2018-04-27T09:54:09Z</time>
      </trkpt>
      <trkpt lat="45.88396" lon="4.70599">
        <ele>235</ele>
        <time>2018-04-27T09:54:10Z</time>
      </trkpt>
      <trkpt lat="45.88401" lon="4.70595">
        <ele>235</ele>
        <time>2018-04-27T09:54:11Z</time>
      </trkpt>
      <trkpt lat="45.88406" lon="4.70591">
        <ele>235</ele>
        <time>2018-04-27T09:54:12Z</time>
      </trkpt>
      <trkpt lat="45.88411" lon="4.70587">
        <ele>235</ele>
        <time>2018-04-27T09:54:13Z</time>
      </trkpt>
      <trkpt lat="45.88418" lon="4.70582">
        <ele>235</ele>
        <time>2018-04-27T09:54:14Z</time>
      </trkpt>
      <trkpt lat="45.88423" lon="4.70578">
        <ele>235</ele>
        <time>2018-04-27T09:54:15Z</time>
      </trkpt>
      <trkpt lat="45.88428" lon="4.70573">
        <ele>235</ele>
        <time>2018-04-27T09:54:16Z</time>
      </trkpt>
      <trkpt lat="45.88433" lon="4.70569">
        <ele>235</ele>
        <time>2018-04-27T09:54:17Z</time>
      </trkpt>
      <trkpt lat="45.88438" lon="4.70565">
        <ele>234</ele>
        <time>2018-04-27T09:54:18Z</time>
      </trkpt>
      <trkpt lat="45.88442" lon="4.70562">
        <ele>234</ele>
        <time>2018-04-27T09:54:19Z</time>
      </trkpt>
      <trkpt lat="45.88449" lon="4.70558">
        <ele>234</ele>
        <time>2018-04-27T09:54:20Z</time>
      </trkpt>
      <trkpt lat="45.88454" lon="4.70554">
        <ele>234</ele>
        <time>2018-04-27T09:54:21Z</time>
      </trkpt>
      <trkpt lat="45.8846" lon="4.7055">
        <ele>234</ele>
        <time>2018-04-27T09:54:22Z</time>
      </trkpt>
      <trkpt lat="45.88467" lon="4.70545">
        <ele>234</ele>
        <time>2018-04-27T09:54:23Z</time>
      </trkpt>
      <trkpt lat="45.88472" lon="4.70541">
        <ele>234</ele>
        <time>2018-04-27T09:54:24Z</time>
      </trkpt>
      <trkpt lat="45.88478" lon="4.70536">
        <ele>234</ele>
        <time>2018-04-27T09:54:25Z</time>
      </trkpt>
      <trkpt lat="45.88482" lon="4.70533">
        <ele>234</ele>
        <time>2018-04-27T09:54:26Z</time>
      </trkpt>
      <trkpt lat="45.88486" lon="4.7053">
        <ele>234</ele>
        <time>2018-04-27T09:54:27Z</time>
      </trkpt>
      <trkpt lat="45.88491" lon="4.70527">
        <ele>234</ele>
        <time>2018-04-27T09:54:28Z</time>
      </trkpt>
      <trkpt lat="45.88497" lon="4.70521">
        <ele>233</ele>
        <time>2018-04-27T09:54:29Z</time>
      </trkpt>
      <trkpt lat="45.88502" lon="4.70517">
        <ele>231</ele>
        <time>2018-04-27T09:54:30Z</time>
      </trkpt>
      <trkpt lat="45.88506" lon="4.70514">
        <ele>231</ele>
        <time>2018-04-27T09:54:31Z</time>
      </trkpt>
      <trkpt lat="45.8851" lon="4.7051">
        <ele>231</ele>
        <time>2018-04-27T09:54:32Z</time>
      </trkpt>
      <trkpt lat="45.88515" lon="4.70506">
        <ele>231</ele>
        <time>2018-04-27T09:54:33Z</time>
      </trkpt>
      <trkpt lat="45.88521" lon="4.70503">
        <ele>230</ele>
        <time>2018-04-27T09:54:34Z</time>
      </trkpt>
      <trkpt lat="45.88526" lon="4.70498">
        <ele>232</ele>
        <time>2018-04-27T09:54:35Z</time>
      </trkpt>
      <trkpt lat="45.88531" lon="4.70493">
        <ele>232</ele>
        <time>2018-04-27T09:54:36Z</time>
      </trkpt>
      <trkpt lat="45.88536" lon="4.70489">
        <ele>232</ele>
        <time>2018-04-27T09:54:37Z</time>
      </trkpt>
      <trkpt lat="45.88542" lon="4.70486">
        <ele>232</ele>
        <time>2018-04-27T09:54:38Z</time>
      </trkpt>
      <trkpt lat="45.88547" lon="4.70481">
        <ele>232</ele>
        <time>2018-04-27T09:54:39Z</time>
      </trkpt>
      <trkpt lat="45.88552" lon="4.70477">
        <ele>231</ele>
        <time>2018-04-27T09:54:40Z</time>
      </trkpt>
      <trkpt lat="45.88559" lon="4.70471">
        <ele>231</ele>
        <time>2018-04-27T09:54:41Z</time>
      </trkpt>
      <trkpt lat="45.88564" lon="4.70467">
        <ele>231</ele>
        <time>2018-04-27T09:54:42Z</time>
      </trkpt>
      <trkpt lat="45.88569" lon="4.70463">
        <ele>231</ele>
        <time>2018-04-27T09:54:43Z</time>
      </trkpt>
      <trkpt lat="45.88574" lon="4.70457">
        <ele>232</ele>
        <time>2018-04-27T09:54:44Z</time>
      </trkpt>
      <trkpt lat="45.88578" lon="4.70452">
        <ele>232</ele>
        <time>2018-04-27T09:54:45Z</time>
      </trkpt>
      <trkpt lat="45.88583" lon="4.70448">
        <ele>232</ele>
        <time>2018-04-27T09:54:46Z</time>
      </trkpt>
      <trkpt lat="45.88588" lon="4.70444">
        <ele>229</ele>
        <time>2018-04-27T09:54:47Z</time>
      </trkpt>
      <trkpt lat="45.88594" lon="4.7044">
        <ele>229</ele>
        <time>2018-04-27T09:54:48Z</time>
      </trkpt>
      <trkpt lat="45.88599" lon="4.70436">
        <ele>229</ele>
        <time>2018-04-27T09:54:49Z</time>
      </trkpt>
      <trkpt lat="45.88605" lon="4.70433">
        <ele>229</ele>
        <time>2018-04-27T09:54:50Z</time>
      </trkpt>
      <trkpt lat="45.88611" lon="4.70429">
        <ele>228</ele>
        <time>2018-04-27T09:54:51Z</time>
      </trkpt>
      <trkpt lat="45.88616" lon="4.70425">
        <ele>228</ele>
        <time>2018-04-27T09:54:52Z</time>
      </trkpt>
      <trkpt lat="45.88621" lon="4.70422">
        <ele>228</ele>
        <time>2018-04-27T09:54:53Z</time>
      </trkpt>
      <trkpt lat="45.88625" lon="4.70417">
        <ele>231</ele>
        <time>2018-04-27T09:54:54Z</time>
      </trkpt>
      <trkpt lat="45.88629" lon="4.70413">
        <ele>231</ele>
        <time>2018-04-27T09:54:55Z</time>
      </trkpt>
      <trkpt lat="45.88633" lon="4.70409">
        <ele>230</ele>
        <time>2018-04-27T09:54:56Z</time>
      </trkpt>
      <trkpt lat="45.88638" lon="4.70405">
        <ele>230</ele>
        <time>2018-04-27T09:54:57Z</time>
      </trkpt>
      <trkpt lat="45.88643" lon="4.70401">
        <ele>230</ele>
        <time>2018-04-27T09:54:58Z</time>
      </trkpt>
      <trkpt lat="45.8865" lon="4.70396">
        <ele>230</ele>
        <time>2018-04-27T09:54:59Z</time>
      </trkpt>
      <trkpt lat="45.88655" lon="4.70392">
        <ele>230</ele>
        <time>2018-04-27T09:55:00Z</time>
      </trkpt>
      <trkpt lat="45.88661" lon="4.70388">
        <ele>230</ele>
        <time>2018-04-27T09:55:01Z</time>
      </trkpt>
      <trkpt lat="45.88666" lon="4.70384">
        <ele>230</ele>
        <time>2018-04-27T09:55:02Z</time>
      </trkpt>
      <trkpt lat="45.88671" lon="4.70381">
        <ele>228</ele>
        <time>2018-04-27T09:55:03Z</time>
      </trkpt>
      <trkpt lat="45.88677" lon="4.70376">
        <ele>228</ele>
        <time>2018-04-27T09:55:04Z</time>
      </trkpt>
      <trkpt lat="45.88682" lon="4.70372">
        <ele>229</ele>
        <time>2018-04-27T09:55:05Z</time>
      </trkpt>
      <trkpt lat="45.88688" lon="4.70368">
        <ele>229</ele>
        <time>2018-04-27T09:55:06Z</time>
      </trkpt>
      <trkpt lat="45.88692" lon="4.70364">
        <ele>229</ele>
        <time>2018-04-27T09:55:07Z</time>
      </trkpt>
      <trkpt lat="45.88698" lon="4.70358">
        <ele>229</ele>
        <time>2018-04-27T09:55:08Z</time>
      </trkpt>
      <trkpt lat="45.887" lon="4.70353">
        <ele>229</ele>
        <time>2018-04-27T09:55:09Z</time>
      </trkpt>
      <trkpt lat="45.88705" lon="4.70348">
        <ele>229</ele>
        <time>2018-04-27T09:55:10Z</time>
      </trkpt>
      <trkpt lat="45.88714" lon="4.70344">
        <ele>229</ele>
        <time>2018-04-27T09:55:11Z</time>
      </trkpt>
      <trkpt lat="45.88719" lon="4.70338">
        <ele>229</ele>
        <time>2018-04-27T09:55:12Z</time>
      </trkpt>
      <trkpt lat="45.88724" lon="4.70335">
        <ele>229</ele>
        <time>2018-04-27T09:55:13Z</time>
      </trkpt>
      <trkpt lat="45.88731" lon="4.70331">
        <ele>232</ele>
        <time>2018-04-27T09:55:14Z</time>
      </trkpt>
      <trkpt lat="45.88736" lon="4.70327">
        <ele>232</ele>
        <time>2018-04-27T09:55:15Z</time>
      </trkpt>
      <trkpt lat="45.8874" lon="4.70324">
        <ele>232</ele>
        <time>2018-04-27T09:55:16Z</time>
      </trkpt>
      <trkpt lat="45.88744" lon="4.70319">
        <ele>232</ele>
        <time>2018-04-27T09:55:17Z</time>
      </trkpt>
      <trkpt lat="45.88752" lon="4.70314">
        <ele>232</ele>
        <time>2018-04-27T09:55:19Z</time>
      </trkpt>
      <trkpt lat="45.88753" lon="4.70309">
        <ele>232</ele>
        <time>2018-04-27T09:55:20Z</time>
      </trkpt>
      <trkpt lat="45.88757" lon="4.70306">
        <ele>233</ele>
        <time>2018-04-27T09:55:21Z</time>
      </trkpt>
      <trkpt lat="45.88763" lon="4.70304">
        <ele>233</ele>
        <time>2018-04-27T09:55:22Z</time>
      </trkpt>
      <trkpt lat="45.88767" lon="4.70301">
        <ele>233</ele>
        <time>2018-04-27T09:55:23Z</time>
      </trkpt>
      <trkpt lat="45.88771" lon="4.70296">
        <ele>233</ele>
        <time>2018-04-27T09:55:24Z</time>
      </trkpt>
      <trkpt lat="45.88776" lon="4.70293">
        <ele>234</ele>
        <time>2018-04-27T09:55:25Z</time>
      </trkpt>
      <trkpt lat="45.88782" lon="4.70289">
        <ele>234</ele>
        <time>2018-04-27T09:55:26Z</time>
      </trkpt>
      <trkpt lat="45.88787" lon="4.70287">
        <ele>234</ele>
        <time>2018-04-27T09:55:27Z</time>
      </trkpt>
      <trkpt lat="45.88793" lon="4.70282">
        <ele>234</ele>
        <time>2018-04-27T09:55:28Z</time>
      </trkpt>
      <trkpt lat="45.88798" lon="4.70279">
        <ele>234</ele>
        <time>2018-04-27T09:55:29Z</time>
      </trkpt>
      <trkpt lat="45.88803" lon="4.70274">
        <ele>234</ele>
        <time>2018-04-27T09:55:30Z</time>
      </trkpt>
      <trkpt lat="45.88807" lon="4.7027">
        <ele>235</ele>
        <time>2018-04-27T09:55:31Z</time>
      </trkpt>
      <trkpt lat="45.88812" lon="4.70263">
        <ele>235</ele>
        <time>2018-04-27T09:55:32Z</time>
      </trkpt>
      <trkpt lat="45.88817" lon="4.7026">
        <ele>235</ele>
        <time>2018-04-27T09:55:33Z</time>
      </trkpt>
      <trkpt lat="45.88822" lon="4.70256">
        <ele>236</ele>
        <time>2018-04-27T09:55:34Z</time>
      </trkpt>
      <trkpt lat="45.88825" lon="4.70253">
        <ele>236</ele>
        <time>2018-04-27T09:55:35Z</time>
      </trkpt>
      <trkpt lat="45.8883" lon="4.70249">
        <ele>238</ele>
        <time>2018-04-27T09:55:36Z</time>
      </trkpt>
      <trkpt lat="45.88836" lon="4.70246">
        <ele>237</ele>
        <time>2018-04-27T09:55:37Z</time>
      </trkpt>
      <trkpt lat="45.88842" lon="4.70243">
        <ele>238</ele>
        <time>2018-04-27T09:55:38Z</time>
      </trkpt>
      <trkpt lat="45.88847" lon="4.7024">
        <ele>238</ele>
        <time>2018-04-27T09:55:39Z</time>
      </trkpt>
      <trkpt lat="45.88851" lon="4.70238">
        <ele>238</ele>
        <time>2018-04-27T09:55:40Z</time>
      </trkpt>
      <trkpt lat="45.88856" lon="4.70235">
        <ele>238</ele>
        <time>2018-04-27T09:55:41Z</time>
      </trkpt>
      <trkpt lat="45.88861" lon="4.70233">
        <ele>238</ele>
        <time>2018-04-27T09:55:42Z</time>
      </trkpt>
      <trkpt lat="45.88867" lon="4.70233">
        <ele>238</ele>
        <time>2018-04-27T09:55:43Z</time>
      </trkpt>
      <trkpt lat="45.88873" lon="4.7023">
        <ele>238</ele>
        <time>2018-04-27T09:55:44Z</time>
      </trkpt>
      <trkpt lat="45.88877" lon="4.70228">
        <ele>238</ele>
        <time>2018-04-27T09:55:45Z</time>
      </trkpt>
      <trkpt lat="45.88884" lon="4.70224">
        <ele>238</ele>
        <time>2018-04-27T09:55:46Z</time>
      </trkpt>
      <trkpt lat="45.8889" lon="4.70221">
        <ele>238</ele>
        <time>2018-04-27T09:55:47Z</time>
      </trkpt>
      <trkpt lat="45.88895" lon="4.70219">
        <ele>238</ele>
        <time>2018-04-27T09:55:48Z</time>
      </trkpt>
      <trkpt lat="45.88901" lon="4.70216">
        <ele>238</ele>
        <time>2018-04-27T09:55:49Z</time>
      </trkpt>
      <trkpt lat="45.88907" lon="4.70213">
        <ele>238</ele>
        <time>2018-04-27T09:55:50Z</time>
      </trkpt>
      <trkpt lat="45.88912" lon="4.7021">
        <ele>238</ele>
        <time>2018-04-27T09:55:51Z</time>
      </trkpt>
      <trkpt lat="45.88917" lon="4.70209">
        <ele>234</ele>
        <time>2018-04-27T09:55:52Z</time>
      </trkpt>
      <trkpt lat="45.88924" lon="4.70201">
        <ele>235</ele>
        <time>2018-04-27T09:55:53Z</time>
      </trkpt>
      <trkpt lat="45.8893" lon="4.70199">
        <ele>235</ele>
        <time>2018-04-27T09:55:54Z</time>
      </trkpt>
      <trkpt lat="45.88938" lon="4.70194">
        <ele>235</ele>
        <time>2018-04-27T09:55:55Z</time>
      </trkpt>
      <trkpt lat="45.88944" lon="4.7019">
        <ele>235</ele>
        <time>2018-04-27T09:55:56Z</time>
      </trkpt>
      <trkpt lat="45.8895" lon="4.70187">
        <ele>234</ele>
        <time>2018-04-27T09:55:57Z</time>
      </trkpt>
      <trkpt lat="45.88956" lon="4.70184">
        <ele>234</ele>
        <time>2018-04-27T09:55:58Z</time>
      </trkpt>
      <trkpt lat="45.88962" lon="4.70181">
        <ele>234</ele>
        <time>2018-04-27T09:55:59Z</time>
      </trkpt>
      <trkpt lat="45.88967" lon="4.70178">
        <ele>233</ele>
        <time>2018-04-27T09:56:00Z</time>
      </trkpt>
      <trkpt lat="45.88973" lon="4.70175">
        <ele>233</ele>
        <time>2018-04-27T09:56:01Z</time>
      </trkpt>
      <trkpt lat="45.8898" lon="4.70171">
        <ele>233</ele>
        <time>2018-04-27T09:56:03Z</time>
      </trkpt>
      <trkpt lat="45.88985" lon="4.70167">
        <ele>233</ele>
        <time>2018-04-27T09:56:04Z</time>
      </trkpt>
      <trkpt lat="45.8899" lon="4.70163">
        <ele>234</ele>
        <time>2018-04-27T09:56:05Z</time>
      </trkpt>
      <trkpt lat="45.88995" lon="4.70161">
        <ele>234</ele>
        <time>2018-04-27T09:56:06Z</time>
      </trkpt>
      <trkpt lat="45.89001" lon="4.70158">
        <ele>232</ele>
        <time>2018-04-27T09:56:07Z</time>
      </trkpt>
      <trkpt lat="45.89006" lon="4.70155">
        <ele>232</ele>
        <time>2018-04-27T09:56:08Z</time>
      </trkpt>
      <trkpt lat="45.89011" lon="4.70153">
        <ele>232</ele>
        <time>2018-04-27T09:56:09Z</time>
      </trkpt>
      <trkpt lat="45.89016" lon="4.70149">
        <ele>231</ele>
        <time>2018-04-27T09:56:10Z</time>
      </trkpt>
      <trkpt lat="45.89022" lon="4.70145">
        <ele>231</ele>
        <time>2018-04-27T09:56:11Z</time>
      </trkpt>
      <trkpt lat="45.89028" lon="4.70141">
        <ele>231</ele>
        <time>2018-04-27T09:56:12Z</time>
      </trkpt>
      <trkpt lat="45.89034" lon="4.70138">
        <ele>231</ele>
        <time>2018-04-27T09:56:13Z</time>
      </trkpt>
      <trkpt lat="45.89041" lon="4.70135">
        <ele>231</ele>
        <time>2018-04-27T09:56:14Z</time>
      </trkpt>
      <trkpt lat="45.89047" lon="4.70131">
        <ele>231</ele>
        <time>2018-04-27T09:56:15Z</time>
      </trkpt>
      <trkpt lat="45.89052" lon="4.70128">
        <ele>230</ele>
        <time>2018-04-27T09:56:16Z</time>
      </trkpt>
      <trkpt lat="45.89058" lon="4.70124">
        <ele>230</ele>
        <time>2018-04-27T09:56:17Z</time>
      </trkpt>
      <trkpt lat="45.89064" lon="4.70121">
        <ele>230</ele>
        <time>2018-04-27T09:56:18Z</time>
      </trkpt>
      <trkpt lat="45.89069" lon="4.70118">
        <ele>230</ele>
        <time>2018-04-27T09:56:19Z</time>
      </trkpt>
      <trkpt lat="45.89074" lon="4.70113">
        <ele>230</ele>
        <time>2018-04-27T09:56:20Z</time>
      </trkpt>
      <trkpt lat="45.89082" lon="4.70107">
        <ele>230</ele>
        <time>2018-04-27T09:56:21Z</time>
      </trkpt>
      <trkpt lat="45.89087" lon="4.70104">
        <ele>228</ele>
        <time>2018-04-27T09:56:22Z</time>
      </trkpt>
      <trkpt lat="45.89091" lon="4.70102">
        <ele>228</ele>
        <time>2018-04-27T09:56:23Z</time>
      </trkpt>
      <trkpt lat="45.89096" lon="4.70098">
        <ele>228</ele>
        <time>2018-04-27T09:56:24Z</time>
      </trkpt>
      <trkpt lat="45.89103" lon="4.70096">
        <ele>228</ele>
        <time>2018-04-27T09:56:25Z</time>
      </trkpt>
      <trkpt lat="45.89109" lon="4.70091">
        <ele>228</ele>
        <time>2018-04-27T09:56:26Z</time>
      </trkpt>
      <trkpt lat="45.89117" lon="4.70088">
        <ele>228</ele>
        <time>2018-04-27T09:56:27Z</time>
      </trkpt>
      <trkpt lat="45.89121" lon="4.70083">
        <ele>231</ele>
        <time>2018-04-27T09:56:28Z</time>
      </trkpt>
      <trkpt lat="45.89128" lon="4.7008">
        <ele>231</ele>
        <time>2018-04-27T09:56:29Z</time>
      </trkpt>
      <trkpt lat="45.89135" lon="4.70078">
        <ele>231</ele>
        <time>2018-04-27T09:56:30Z</time>
      </trkpt>
      <trkpt lat="45.89141" lon="4.70074">
        <ele>231</ele>
        <time>2018-04-27T09:56:31Z</time>
      </trkpt>
      <trkpt lat="45.89148" lon="4.7007">
        <ele>230</ele>
        <time>2018-04-27T09:56:32Z</time>
      </trkpt>
      <trkpt lat="45.89154" lon="4.70068">
        <ele>230</ele>
        <time>2018-04-27T09:56:33Z</time>
      </trkpt>
      <trkpt lat="45.89161" lon="4.70066">
        <ele>230</ele>
        <time>2018-04-27T09:56:34Z</time>
      </trkpt>
      <trkpt lat="45.89165" lon="4.70063">
        <ele>230</ele>
        <time>2018-04-27T09:56:35Z</time>
      </trkpt>
      <trkpt lat="45.89171" lon="4.70061">
        <ele>229</ele>
        <time>2018-04-27T09:56:36Z</time>
      </trkpt>
      <trkpt lat="45.89176" lon="4.70057">
        <ele>229</ele>
        <time>2018-04-27T09:56:37Z</time>
      </trkpt>
      <trkpt lat="45.89181" lon="4.70053">
        <ele>229</ele>
        <time>2018-04-27T09:56:38Z</time>
      </trkpt>
      <trkpt lat="45.89185" lon="4.70049">
        <ele>229</ele>
        <time>2018-04-27T09:56:39Z</time>
      </trkpt>
      <trkpt lat="45.89192" lon="4.70045">
        <ele>229</ele>
        <time>2018-04-27T09:56:40Z</time>
      </trkpt>
      <trkpt lat="45.89199" lon="4.7004">
        <ele>229</ele>
        <time>2018-04-27T09:56:41Z</time>
      </trkpt>
      <trkpt lat="45.89207" lon="4.70037">
        <ele>229</ele>
        <time>2018-04-27T09:56:42Z</time>
      </trkpt>
      <trkpt lat="45.89214" lon="4.70034">
        <ele>229</ele>
        <time>2018-04-27T09:56:43Z</time>
      </trkpt>
      <trkpt lat="45.89222" lon="4.70032">
        <ele>229</ele>
        <time>2018-04-27T09:56:44Z</time>
      </trkpt>
      <trkpt lat="45.89228" lon="4.70029">
        <ele>228</ele>
        <time>2018-04-27T09:56:45Z</time>
      </trkpt>
      <trkpt lat="45.89238" lon="4.70023">
        <ele>229</ele>
        <time>2018-04-27T09:56:46Z</time>
      </trkpt>
      <trkpt lat="45.89244" lon="4.70021">
        <ele>229</ele>
        <time>2018-04-27T09:56:47Z</time>
      </trkpt>
      <trkpt lat="45.8925" lon="4.70019">
        <ele>227</ele>
        <time>2018-04-27T09:56:48Z</time>
      </trkpt>
      <trkpt lat="45.89258" lon="4.70016">
        <ele>227</ele>
        <time>2018-04-27T09:56:49Z</time>
      </trkpt>
      <trkpt lat="45.89264" lon="4.70014">
        <ele>227</ele>
        <time>2018-04-27T09:56:50Z</time>
      </trkpt>
      <trkpt lat="45.89268" lon="4.7001">
        <ele>227</ele>
        <time>2018-04-27T09:56:51Z</time>
      </trkpt>
      <trkpt lat="45.89274" lon="4.70006">
        <ele>227</ele>
        <time>2018-04-27T09:56:52Z</time>
      </trkpt>
      <trkpt lat="45.8928" lon="4.70003">
        <ele>226</ele>
        <time>2018-04-27T09:56:53Z</time>
      </trkpt>
      <trkpt lat="45.89287" lon="4.70001">
        <ele>226</ele>
        <time>2018-04-27T09:56:54Z</time>
      </trkpt>
      <trkpt lat="45.89293" lon="4.69999">
        <ele>229</ele>
        <time>2018-04-27T09:56:55Z</time>
      </trkpt>
      <trkpt lat="45.89299" lon="4.69997">
        <ele>229</ele>
        <time>2018-04-27T09:56:56Z</time>
      </trkpt>
      <trkpt lat="45.89305" lon="4.69994">
        <ele>229</ele>
        <time>2018-04-27T09:56:57Z</time>
      </trkpt>
      <trkpt lat="45.89311" lon="4.69993">
        <ele>228</ele>
        <time>2018-04-27T09:56:58Z</time>
      </trkpt>
      <trkpt lat="45.89316" lon="4.69991">
        <ele>228</ele>
        <time>2018-04-27T09:56:59Z</time>
      </trkpt>
      <trkpt lat="45.89325" lon="4.69987">
        <ele>228</ele>
        <time>2018-04-27T09:57:00Z</time>
      </trkpt>
      <trkpt lat="45.89331" lon="4.69986">
        <ele>228</ele>
        <time>2018-04-27T09:57:01Z</time>
      </trkpt>
      <trkpt lat="45.89338" lon="4.69985">
        <ele>227</ele>
        <time>2018-04-27T09:57:02Z</time>
      </trkpt>
      <trkpt lat="45.89346" lon="4.69985">
        <ele>227</ele>
        <time>2018-04-27T09:57:03Z</time>
      </trkpt>
      <trkpt lat="45.89352" lon="4.69985">
        <ele>227</ele>
        <time>2018-04-27T09:57:04Z</time>
      </trkpt>
      <trkpt lat="45.89359" lon="4.69986">
        <ele>227</ele>
        <time>2018-04-27T09:57:05Z</time>
      </trkpt>
      <trkpt lat="45.89366" lon="4.69986">
        <ele>227</ele>
        <time>2018-04-27T09:57:06Z</time>
      </trkpt>
      <trkpt lat="45.8937" lon="4.69989">
        <ele>227</ele>
        <time>2018-04-27T09:57:07Z</time>
      </trkpt>
      <trkpt lat="45.89377" lon="4.6999">
        <ele>228</ele>
        <time>2018-04-27T09:57:08Z</time>
      </trkpt>
      <trkpt lat="45.89382" lon="4.69993">
        <ele>228</ele>
        <time>2018-04-27T09:57:09Z</time>
      </trkpt>
      <trkpt lat="45.89388" lon="4.69994">
        <ele>227</ele>
        <time>2018-04-27T09:57:10Z</time>
      </trkpt>
      <trkpt lat="45.89395" lon="4.69995">
        <ele>227</ele>
        <time>2018-04-27T09:57:11Z</time>
      </trkpt>
      <trkpt lat="45.89403" lon="4.69999">
        <ele>227</ele>
        <time>2018-04-27T09:57:12Z</time>
      </trkpt>
      <trkpt lat="45.8941" lon="4.70001">
        <ele>226</ele>
        <time>2018-04-27T09:57:13Z</time>
      </trkpt>
      <trkpt lat="45.89415" lon="4.70003">
        <ele>227</ele>
        <time>2018-04-27T09:57:14Z</time>
      </trkpt>
      <trkpt lat="45.89422" lon="4.70005">
        <ele>226</ele>
        <time>2018-04-27T09:57:15Z</time>
      </trkpt>
      <trkpt lat="45.89429" lon="4.70008">
        <ele>226</ele>
        <time>2018-04-27T09:57:16Z</time>
      </trkpt>
      <trkpt lat="45.89436" lon="4.70009">
        <ele>225</ele>
        <time>2018-04-27T09:57:17Z</time>
      </trkpt>
      <trkpt lat="45.89443" lon="4.7001">
        <ele>225</ele>
        <time>2018-04-27T09:57:18Z</time>
      </trkpt>
      <trkpt lat="45.89452" lon="4.70009">
        <ele>225</ele>
        <time>2018-04-27T09:57:19Z</time>
      </trkpt>
      <trkpt lat="45.89458" lon="4.7001">
        <ele>225</ele>
        <time>2018-04-27T09:57:20Z</time>
      </trkpt>
      <trkpt lat="45.89465" lon="4.70011">
        <ele>225</ele>
        <time>2018-04-27T09:57:21Z</time>
      </trkpt>
      <trkpt lat="45.89471" lon="4.70012">
        <ele>225</ele>
        <time>2018-04-27T09:57:22Z</time>
      </trkpt>
      <trkpt lat="45.89478" lon="4.70014">
        <ele>225</ele>
        <time>2018-04-27T09:57:23Z</time>
      </trkpt>
      <trkpt lat="45.89485" lon="4.70017">
        <ele>225</ele>
        <time>2018-04-27T09:57:24Z</time>
      </trkpt>
      <trkpt lat="45.89491" lon="4.70019">
        <ele>224</ele>
        <time>2018-04-27T09:57:25Z</time>
      </trkpt>
      <trkpt lat="45.89499" lon="4.70019">
        <ele>224</ele>
        <time>2018-04-27T09:57:26Z</time>
      </trkpt>
      <trkpt lat="45.89505" lon="4.7002">
        <ele>223</ele>
        <time>2018-04-27T09:57:27Z</time>
      </trkpt>
      <trkpt lat="45.89513" lon="4.70022">
        <ele>223</ele>
        <time>2018-04-27T09:57:28Z</time>
      </trkpt>
      <trkpt lat="45.8952" lon="4.70023">
        <ele>223</ele>
        <time>2018-04-27T09:57:29Z</time>
      </trkpt>
      <trkpt lat="45.89527" lon="4.70024">
        <ele>223</ele>
        <time>2018-04-27T09:57:30Z</time>
      </trkpt>
      <trkpt lat="45.89534" lon="4.70025">
        <ele>223</ele>
        <time>2018-04-27T09:57:31Z</time>
      </trkpt>
      <trkpt lat="45.89543" lon="4.70025">
        <ele>223</ele>
        <time>2018-04-27T09:57:32Z</time>
      </trkpt>
      <trkpt lat="45.8955" lon="4.70024">
        <ele>223</ele>
        <time>2018-04-27T09:57:33Z</time>
      </trkpt>
      <trkpt lat="45.89557" lon="4.70026">
        <ele>222</ele>
        <time>2018-04-27T09:57:34Z</time>
      </trkpt>
      <trkpt lat="45.89562" lon="4.70027">
        <ele>222</ele>
        <time>2018-04-27T09:57:35Z</time>
      </trkpt>
      <trkpt lat="45.8957" lon="4.70028">
        <ele>222</ele>
        <time>2018-04-27T09:57:36Z</time>
      </trkpt>
      <trkpt lat="45.89577" lon="4.70029">
        <ele>222</ele>
        <time>2018-04-27T09:57:37Z</time>
      </trkpt>
      <trkpt lat="45.89584" lon="4.7003">
        <ele>222</ele>
        <time>2018-04-27T09:57:38Z</time>
      </trkpt>
      <trkpt lat="45.89593" lon="4.70029">
        <ele>222</ele>
        <time>2018-04-27T09:57:39Z</time>
      </trkpt>
      <trkpt lat="45.896" lon="4.70031">
        <ele>222</ele>
        <time>2018-04-27T09:57:40Z</time>
      </trkpt>
      <trkpt lat="45.89606" lon="4.70031">
        <ele>222</ele>
        <time>2018-04-27T09:57:41Z</time>
      </trkpt>
      <trkpt lat="45.89613" lon="4.70031">
        <ele>222</ele>
        <time>2018-04-27T09:57:42Z</time>
      </trkpt>
      <trkpt lat="45.8962" lon="4.70033">
        <ele>222</ele>
        <time>2018-04-27T09:57:43Z</time>
      </trkpt>
      <trkpt lat="45.89627" lon="4.70034">
        <ele>222</ele>
        <time>2018-04-27T09:57:44Z</time>
      </trkpt>
      <trkpt lat="45.89634" lon="4.70036">
        <ele>222</ele>
        <time>2018-04-27T09:57:45Z</time>
      </trkpt>
      <trkpt lat="45.89641" lon="4.70039">
        <ele>222</ele>
        <time>2018-04-27T09:57:46Z</time>
      </trkpt>
      <trkpt lat="45.89648" lon="4.7004">
        <ele>222</ele>
        <time>2018-04-27T09:57:47Z</time>
      </trkpt>
      <trkpt lat="45.89656" lon="4.70041">
        <ele>222</ele>
        <time>2018-04-27T09:57:48Z</time>
      </trkpt>
      <trkpt lat="45.89664" lon="4.70042">
        <ele>222</ele>
        <time>2018-04-27T09:57:49Z</time>
      </trkpt>
      <trkpt lat="45.89671" lon="4.70044">
        <ele>222</ele>
        <time>2018-04-27T09:57:50Z</time>
      </trkpt>
      <trkpt lat="45.89678" lon="4.70045">
        <ele>222</ele>
        <time>2018-04-27T09:57:51Z</time>
      </trkpt>
      <trkpt lat="45.89685" lon="4.70046">
        <ele>222</ele>
        <time>2018-04-27T09:57:52Z</time>
      </trkpt>
      <trkpt lat="45.89692" lon="4.70047">
        <ele>222</ele>
        <time>2018-04-27T09:57:53Z</time>
      </trkpt>
      <trkpt lat="45.89698" lon="4.70048">
        <ele>222</ele>
        <time>2018-04-27T09:57:54Z</time>
      </trkpt>
      <trkpt lat="45.89704" lon="4.7005">
        <ele>222</ele>
        <time>2018-04-27T09:57:55Z</time>
      </trkpt>
      <trkpt lat="45.89709" lon="4.70051">
        <ele>222</ele>
        <time>2018-04-27T09:57:56Z</time>
      </trkpt>
      <trkpt lat="45.89714" lon="4.7005">
        <ele>222</ele>
        <time>2018-04-27T09:57:57Z</time>
      </trkpt>
      <trkpt lat="45.8972" lon="4.70051">
        <ele>221</ele>
        <time>2018-04-27T09:57:58Z</time>
      </trkpt>
      <trkpt lat="45.89725" lon="4.70052">
        <ele>221</ele>
        <time>2018-04-27T09:57:59Z</time>
      </trkpt>
      <trkpt lat="45.8973" lon="4.70053">
        <ele>221</ele>
        <time>2018-04-27T09:58:00Z</time>
      </trkpt>
      <trkpt lat="45.89735" lon="4.70055">
        <ele>221</ele>
        <time>2018-04-27T09:58:01Z</time>
      </trkpt>
      <trkpt lat="45.89743" lon="4.70057">
        <ele>221</ele>
        <time>2018-04-27T09:58:03Z</time>
      </trkpt>
      <trkpt lat="45.89747" lon="4.70058">
        <ele>221</ele>
        <time>2018-04-27T09:58:04Z</time>
      </trkpt>
      <trkpt lat="45.89756" lon="4.70059">
        <ele>221</ele>
        <time>2018-04-27T09:58:12Z</time>
      </trkpt>
      <trkpt lat="45.89756" lon="4.70059">
        <ele>221</ele>
        <time>2018-04-27T09:58:13Z</time>
      </trkpt>
      <trkpt lat="45.89762" lon="4.70065">
        <ele>220</ele>
        <time>2018-04-27T09:58:21Z</time>
      </trkpt>
      <trkpt lat="45.89763" lon="4.70066">
        <ele>220</ele>
        <time>2018-04-27T09:58:22Z</time>
      </trkpt>
      <trkpt lat="45.8977" lon="4.70067">
        <ele>220</ele>
        <time>2018-04-27T09:58:25Z</time>
      </trkpt>
      <trkpt lat="45.8978" lon="4.70068">
        <ele>221</ele>
        <time>2018-04-27T09:58:26Z</time>
      </trkpt>
      <trkpt lat="45.89784" lon="4.70071">
        <ele>221</ele>
        <time>2018-04-27T09:58:27Z</time>
      </trkpt>
      <trkpt lat="45.89789" lon="4.7007">
        <ele>221</ele>
        <time>2018-04-27T09:58:28Z</time>
      </trkpt>
      <trkpt lat="45.89795" lon="4.70071">
        <ele>221</ele>
        <time>2018-04-27T09:58:29Z</time>
      </trkpt>
      <trkpt lat="45.898" lon="4.70073">
        <ele>221</ele>
        <time>2018-04-27T09:58:30Z</time>
      </trkpt>
      <trkpt lat="45.89807" lon="4.70073">
        <ele>221</ele>
        <time>2018-04-27T09:58:31Z</time>
      </trkpt>
      <trkpt lat="45.89811" lon="4.70075">
        <ele>221</ele>
        <time>2018-04-27T09:58:32Z</time>
      </trkpt>
      <trkpt lat="45.8982" lon="4.70075">
        <ele>221</ele>
        <time>2018-04-27T09:58:34Z</time>
      </trkpt>
      <trkpt lat="45.89825" lon="4.70076">
        <ele>220</ele>
        <time>2018-04-27T09:58:35Z</time>
      </trkpt>
      <trkpt lat="45.89829" lon="4.70075">
        <ele>220</ele>
        <time>2018-04-27T09:58:36Z</time>
      </trkpt>
      <trkpt lat="45.89834" lon="4.70074">
        <ele>221</ele>
        <time>2018-04-27T09:58:37Z</time>
      </trkpt>
      <trkpt lat="45.89839" lon="4.70077">
        <ele>221</ele>
        <time>2018-04-27T09:58:38Z</time>
      </trkpt>
      <trkpt lat="45.89846" lon="4.70078">
        <ele>221</ele>
        <time>2018-04-27T09:58:39Z</time>
      </trkpt>
      <trkpt lat="45.8985" lon="4.70077">
        <ele>221</ele>
        <time>2018-04-27T09:58:40Z</time>
      </trkpt>
      <trkpt lat="45.89855" lon="4.70077">
        <ele>221</ele>
        <time>2018-04-27T09:58:41Z</time>
      </trkpt>
      <trkpt lat="45.89862" lon="4.70078">
        <ele>221</ele>
        <time>2018-04-27T09:58:42Z</time>
      </trkpt>
      <trkpt lat="45.89868" lon="4.70078">
        <ele>221</ele>
        <time>2018-04-27T09:58:43Z</time>
      </trkpt>
      <trkpt lat="45.89873" lon="4.70079">
        <ele>221</ele>
        <time>2018-04-27T09:58:44Z</time>
      </trkpt>
      <trkpt lat="45.89878" lon="4.7008">
        <ele>221</ele>
        <time>2018-04-27T09:58:45Z</time>
      </trkpt>
      <trkpt lat="45.89887" lon="4.70079">
        <ele>221</ele>
        <time>2018-04-27T09:58:47Z</time>
      </trkpt>
      <trkpt lat="45.89891" lon="4.70081">
        <ele>221</ele>
        <time>2018-04-27T09:58:48Z</time>
      </trkpt>
      <trkpt lat="45.89896" lon="4.7008">
        <ele>221</ele>
        <time>2018-04-27T09:58:49Z</time>
      </trkpt>
      <trkpt lat="45.89901" lon="4.7008">
        <ele>221</ele>
        <time>2018-04-27T09:58:50Z</time>
      </trkpt>
      <trkpt lat="45.89907" lon="4.70082">
        <ele>221</ele>
        <time>2018-04-27T09:58:51Z</time>
      </trkpt>
      <trkpt lat="45.89913" lon="4.70082">
        <ele>221</ele>
        <time>2018-04-27T09:58:52Z</time>
      </trkpt>
      <trkpt lat="45.89918" lon="4.70082">
        <ele>221</ele>
        <time>2018-04-27T09:58:53Z</time>
      </trkpt>
      <trkpt lat="45.89923" lon="4.70082">
        <ele>221</ele>
        <time>2018-04-27T09:58:54Z</time>
      </trkpt>
      <trkpt lat="45.89928" lon="4.70083">
        <ele>222</ele>
        <time>2018-04-27T09:58:55Z</time>
      </trkpt>
      <trkpt lat="45.89933" lon="4.70083">
        <ele>222</ele>
        <time>2018-04-27T09:58:56Z</time>
      </trkpt>
      <trkpt lat="45.89939" lon="4.70083">
        <ele>222</ele>
        <time>2018-04-27T09:58:57Z</time>
      </trkpt>
      <trkpt lat="45.89944" lon="4.70083">
        <ele>222</ele>
        <time>2018-04-27T09:58:58Z</time>
      </trkpt>
      <trkpt lat="45.89949" lon="4.70083">
        <ele>222</ele>
        <time>2018-04-27T09:58:59Z</time>
      </trkpt>
      <trkpt lat="45.89955" lon="4.70082">
        <ele>223</ele>
        <time>2018-04-27T09:59:00Z</time>
      </trkpt>
      <trkpt lat="45.89959" lon="4.70083">
        <ele>223</ele>
        <time>2018-04-27T09:59:01Z</time>
      </trkpt>
      <trkpt lat="45.89966" lon="4.70083">
        <ele>223</ele>
        <time>2018-04-27T09:59:02Z</time>
      </trkpt>
      <trkpt lat="45.8997" lon="4.70083">
        <ele>221</ele>
        <time>2018-04-27T09:59:03Z</time>
      </trkpt>
      <trkpt lat="45.89975" lon="4.70083">
        <ele>221</ele>
        <time>2018-04-27T09:59:04Z</time>
      </trkpt>
      <trkpt lat="45.8998" lon="4.70084">
        <ele>221</ele>
        <time>2018-04-27T09:59:05Z</time>
      </trkpt>
      <trkpt lat="45.89984" lon="4.70083">
        <ele>223</ele>
        <time>2018-04-27T09:59:06Z</time>
      </trkpt>
      <trkpt lat="45.8999" lon="4.70085">
        <ele>222</ele>
        <time>2018-04-27T09:59:07Z</time>
      </trkpt>
      <trkpt lat="45.89996" lon="4.70085">
        <ele>222</ele>
        <time>2018-04-27T09:59:08Z</time>
      </trkpt>
      <trkpt lat="45.9" lon="4.70086">
        <ele>222</ele>
        <time>2018-04-27T09:59:09Z</time>
      </trkpt>
      <trkpt lat="45.90005" lon="4.70085">
        <ele>222</ele>
        <time>2018-04-27T09:59:10Z</time>
      </trkpt>
      <trkpt lat="45.90013" lon="4.70087">
        <ele>222</ele>
        <time>2018-04-27T09:59:12Z</time>
      </trkpt>
      <trkpt lat="45.90018" lon="4.70087">
        <ele>222</ele>
        <time>2018-04-27T09:59:13Z</time>
      </trkpt>
      <trkpt lat="45.90023" lon="4.70087">
        <ele>222</ele>
        <time>2018-04-27T09:59:14Z</time>
      </trkpt>
      <trkpt lat="45.90029" lon="4.70088">
        <ele>222</ele>
        <time>2018-04-27T09:59:15Z</time>
      </trkpt>
      <trkpt lat="45.90034" lon="4.70088">
        <ele>222</ele>
        <time>2018-04-27T09:59:16Z</time>
      </trkpt>
      <trkpt lat="45.90039" lon="4.70088">
        <ele>222</ele>
        <time>2018-04-27T09:59:17Z</time>
      </trkpt>
      <trkpt lat="45.90044" lon="4.70088">
        <ele>222</ele>
        <time>2018-04-27T09:59:18Z</time>
      </trkpt>
      <trkpt lat="45.90049" lon="4.70089">
        <ele>222</ele>
        <time>2018-04-27T09:59:19Z</time>
      </trkpt>
      <trkpt lat="45.90053" lon="4.70089">
        <ele>222</ele>
        <time>2018-04-27T09:59:20Z</time>
      </trkpt>
      <trkpt lat="45.90059" lon="4.70089">
        <ele>223</ele>
        <time>2018-04-27T09:59:21Z</time>
      </trkpt>
      <trkpt lat="45.90064" lon="4.70089">
        <ele>223</ele>
        <time>2018-04-27T09:59:22Z</time>
      </trkpt>
      <trkpt lat="45.9007" lon="4.70087">
        <ele>223</ele>
        <time>2018-04-27T09:59:23Z</time>
      </trkpt>
      <trkpt lat="45.90075" lon="4.70086">
        <ele>223</ele>
        <time>2018-04-27T09:59:24Z</time>
      </trkpt>
      <trkpt lat="45.9008" lon="4.70084">
        <ele>224</ele>
        <time>2018-04-27T09:59:25Z</time>
      </trkpt>
      <trkpt lat="45.90084" lon="4.70084">
        <ele>224</ele>
        <time>2018-04-27T09:59:26Z</time>
      </trkpt>
      <trkpt lat="45.9009" lon="4.70082">
        <ele>225</ele>
        <time>2018-04-27T09:59:27Z</time>
      </trkpt>
      <trkpt lat="45.90095" lon="4.7008">
        <ele>225</ele>
        <time>2018-04-27T09:59:28Z</time>
      </trkpt>
      <trkpt lat="45.901" lon="4.70079">
        <ele>225</ele>
        <time>2018-04-27T09:59:29Z</time>
      </trkpt>
      <trkpt lat="45.90105" lon="4.70078">
        <ele>226</ele>
        <time>2018-04-27T09:59:30Z</time>
      </trkpt>
      <trkpt lat="45.90111" lon="4.70076">
        <ele>226</ele>
        <time>2018-04-27T09:59:31Z</time>
      </trkpt>
      <trkpt lat="45.90116" lon="4.70076">
        <ele>226</ele>
        <time>2018-04-27T09:59:32Z</time>
      </trkpt>
      <trkpt lat="45.90121" lon="4.70077">
        <ele>226</ele>
        <time>2018-04-27T09:59:33Z</time>
      </trkpt>
      <trkpt lat="45.90125" lon="4.70076">
        <ele>226</ele>
        <time>2018-04-27T09:59:34Z</time>
      </trkpt>
      <trkpt lat="45.9013" lon="4.70075">
        <ele>226</ele>
        <time>2018-04-27T09:59:35Z</time>
      </trkpt>
      <trkpt lat="45.90137" lon="4.70072">
        <ele>226</ele>
        <time>2018-04-27T09:59:37Z</time>
      </trkpt>
      <trkpt lat="45.90142" lon="4.70071">
        <ele>226</ele>
        <time>2018-04-27T09:59:38Z</time>
      </trkpt>
      <trkpt lat="45.90147" lon="4.7007">
        <ele>226</ele>
        <time>2018-04-27T09:59:39Z</time>
      </trkpt>
      <trkpt lat="45.90153" lon="4.70068">
        <ele>226</ele>
        <time>2018-04-27T09:59:40Z</time>
      </trkpt>
      <trkpt lat="45.90157" lon="4.70067">
        <ele>226</ele>
        <time>2018-04-27T09:59:41Z</time>
      </trkpt>
      <trkpt lat="45.90162" lon="4.70065">
        <ele>226</ele>
        <time>2018-04-27T09:59:42Z</time>
      </trkpt>
      <trkpt lat="45.90167" lon="4.70064">
        <ele>226</ele>
        <time>2018-04-27T09:59:43Z</time>
      </trkpt>
      <trkpt lat="45.90173" lon="4.70065">
        <ele>226</ele>
        <time>2018-04-27T09:59:44Z</time>
      </trkpt>
      <trkpt lat="45.90178" lon="4.70063">
        <ele>226</ele>
        <time>2018-04-27T09:59:45Z</time>
      </trkpt>
      <trkpt lat="45.90183" lon="4.70062">
        <ele>226</ele>
        <time>2018-04-27T09:59:46Z</time>
      </trkpt>
      <trkpt lat="45.90188" lon="4.70063">
        <ele>226</ele>
        <time>2018-04-27T09:59:47Z</time>
      </trkpt>
      <trkpt lat="45.90192" lon="4.70062">
        <ele>226</ele>
        <time>2018-04-27T09:59:48Z</time>
      </trkpt>
      <trkpt lat="45.90198" lon="4.70064">
        <ele>226</ele>
        <time>2018-04-27T09:59:49Z</time>
      </trkpt>
      <trkpt lat="45.90203" lon="4.70064">
        <ele>226</ele>
        <time>2018-04-27T09:59:50Z</time>
      </trkpt>
      <trkpt lat="45.90209" lon="4.70063">
        <ele>226</ele>
        <time>2018-04-27T09:59:51Z</time>
      </trkpt>
      <trkpt lat="45.90214" lon="4.70062">
        <ele>226</ele>
        <time>2018-04-27T09:59:52Z</time>
      </trkpt>
      <trkpt lat="45.90218" lon="4.70058">
        <ele>226</ele>
        <time>2018-04-27T09:59:53Z</time>
      </trkpt>
      <trkpt lat="45.90224" lon="4.70057">
        <ele>226</ele>
        <time>2018-04-27T09:59:54Z</time>
      </trkpt>
      <trkpt lat="45.90232" lon="4.70057">
        <ele>225</ele>
        <time>2018-04-27T09:59:56Z</time>
      </trkpt>
      <trkpt lat="45.90237" lon="4.70058">
        <ele>225</ele>
        <time>2018-04-27T09:59:57Z</time>
      </trkpt>
      <trkpt lat="45.90246" lon="4.70056">
        <ele>225</ele>
        <time>2018-04-27T09:59:59Z</time>
      </trkpt>
      <trkpt lat="45.9025" lon="4.70056">
        <ele>225</ele>
        <time>2018-04-27T10:00:00Z</time>
      </trkpt>
      <trkpt lat="45.90255" lon="4.70055">
        <ele>224</ele>
        <time>2018-04-27T10:00:01Z</time>
      </trkpt>
      <trkpt lat="45.90259" lon="4.70054">
        <ele>224</ele>
        <time>2018-04-27T10:00:02Z</time>
      </trkpt>
      <trkpt lat="45.90264" lon="4.70052">
        <ele>224</ele>
        <time>2018-04-27T10:00:03Z</time>
      </trkpt>
      <trkpt lat="45.90269" lon="4.70053">
        <ele>224</ele>
        <time>2018-04-27T10:00:04Z</time>
      </trkpt>
      <trkpt lat="45.90274" lon="4.70052">
        <ele>224</ele>
        <time>2018-04-27T10:00:05Z</time>
      </trkpt>
      <trkpt lat="45.90279" lon="4.70052">
        <ele>224</ele>
        <time>2018-04-27T10:00:06Z</time>
      </trkpt>
      <trkpt lat="45.90284" lon="4.70051">
        <ele>224</ele>
        <time>2018-04-27T10:00:07Z</time>
      </trkpt>
      <trkpt lat="45.90288" lon="4.7005">
        <ele>224</ele>
        <time>2018-04-27T10:00:08Z</time>
      </trkpt>
      <trkpt lat="45.90292" lon="4.7005">
        <ele>224</ele>
        <time>2018-04-27T10:00:09Z</time>
      </trkpt>
      <trkpt lat="45.90297" lon="4.70047">
        <ele>224</ele>
        <time>2018-04-27T10:00:10Z</time>
      </trkpt>
      <trkpt lat="45.90302" lon="4.70047">
        <ele>224</ele>
        <time>2018-04-27T10:00:11Z</time>
      </trkpt>
      <trkpt lat="45.90306" lon="4.70046">
        <ele>224</ele>
        <time>2018-04-27T10:00:12Z</time>
      </trkpt>
      <trkpt lat="45.90311" lon="4.70046">
        <ele>224</ele>
        <time>2018-04-27T10:00:13Z</time>
      </trkpt>
      <trkpt lat="45.90316" lon="4.70045">
        <ele>224</ele>
        <time>2018-04-27T10:00:14Z</time>
      </trkpt>
      <trkpt lat="45.90321" lon="4.70044">
        <ele>224</ele>
        <time>2018-04-27T10:00:15Z</time>
      </trkpt>
      <trkpt lat="45.90326" lon="4.70044">
        <ele>224</ele>
        <time>2018-04-27T10:00:16Z</time>
      </trkpt>
      <trkpt lat="45.90331" lon="4.70043">
        <ele>224</ele>
        <time>2018-04-27T10:00:17Z</time>
      </trkpt>
      <trkpt lat="45.90336" lon="4.70042">
        <ele>224</ele>
        <time>2018-04-27T10:00:18Z</time>
      </trkpt>
      <trkpt lat="45.90341" lon="4.70041">
        <ele>224</ele>
        <time>2018-04-27T10:00:19Z</time>
      </trkpt>
      <trkpt lat="45.90346" lon="4.7004">
        <ele>224</ele>
        <time>2018-04-27T10:00:20Z</time>
      </trkpt>
      <trkpt lat="45.90351" lon="4.7004">
        <ele>224</ele>
        <time>2018-04-27T10:00:21Z</time>
      </trkpt>
      <trkpt lat="45.90357" lon="4.70039">
        <ele>224</ele>
        <time>2018-04-27T10:00:22Z</time>
      </trkpt>
      <trkpt lat="45.90362" lon="4.70039">
        <ele>224</ele>
        <time>2018-04-27T10:00:23Z</time>
      </trkpt>
      <trkpt lat="45.90367" lon="4.70037">
        <ele>224</ele>
        <time>2018-04-27T10:00:24Z</time>
      </trkpt>
      <trkpt lat="45.90373" lon="4.70035">
        <ele>224</ele>
        <time>2018-04-27T10:00:25Z</time>
      </trkpt>
      <trkpt lat="45.90378" lon="4.70032">
        <ele>225</ele>
        <time>2018-04-27T10:00:26Z</time>
      </trkpt>
      <trkpt lat="45.90383" lon="4.70031">
        <ele>225</ele>
        <time>2018-04-27T10:00:27Z</time>
      </trkpt>
      <trkpt lat="45.90388" lon="4.7003">
        <ele>225</ele>
        <time>2018-04-27T10:00:28Z</time>
      </trkpt>
      <trkpt lat="45.90393" lon="4.70029">
        <ele>225</ele>
        <time>2018-04-27T10:00:29Z</time>
      </trkpt>
      <trkpt lat="45.90397" lon="4.70029">
        <ele>225</ele>
        <time>2018-04-27T10:00:30Z</time>
      </trkpt>
      <trkpt lat="45.90406" lon="4.70028">
        <ele>225</ele>
        <time>2018-04-27T10:00:32Z</time>
      </trkpt>
      <trkpt lat="45.9041" lon="4.70026">
        <ele>225</ele>
        <time>2018-04-27T10:00:33Z</time>
      </trkpt>
      <trkpt lat="45.90415" lon="4.70025">
        <ele>225</ele>
        <time>2018-04-27T10:00:34Z</time>
      </trkpt>
      <trkpt lat="45.9042" lon="4.70025">
        <ele>226</ele>
        <time>2018-04-27T10:00:35Z</time>
      </trkpt>
      <trkpt lat="45.90426" lon="4.70024">
        <ele>226</ele>
        <time>2018-04-27T10:00:36Z</time>
      </trkpt>
      <trkpt lat="45.90431" lon="4.70024">
        <ele>226</ele>
        <time>2018-04-27T10:00:37Z</time>
      </trkpt>
      <trkpt lat="45.90437" lon="4.70025">
        <ele>225</ele>
        <time>2018-04-27T10:00:38Z</time>
      </trkpt>
      <trkpt lat="45.90442" lon="4.70025">
        <ele>225</ele>
        <time>2018-04-27T10:00:39Z</time>
      </trkpt>
      <trkpt lat="45.90451" lon="4.70022">
        <ele>225</ele>
        <time>2018-04-27T10:00:41Z</time>
      </trkpt>
      <trkpt lat="45.90457" lon="4.70022">
        <ele>225</ele>
        <time>2018-04-27T10:00:42Z</time>
      </trkpt>
      <trkpt lat="45.90463" lon="4.70023">
        <ele>225</ele>
        <time>2018-04-27T10:00:43Z</time>
      </trkpt>
      <trkpt lat="45.90468" lon="4.70024">
        <ele>225</ele>
        <time>2018-04-27T10:00:44Z</time>
      </trkpt>
      <trkpt lat="45.90474" lon="4.70025">
        <ele>225</ele>
        <time>2018-04-27T10:00:45Z</time>
      </trkpt>
      <trkpt lat="45.9048" lon="4.70026">
        <ele>225</ele>
        <time>2018-04-27T10:00:46Z</time>
      </trkpt>
      <trkpt lat="45.90486" lon="4.70028">
        <ele>225</ele>
        <time>2018-04-27T10:00:47Z</time>
      </trkpt>
      <trkpt lat="45.90492" lon="4.70029">
        <ele>225</ele>
        <time>2018-04-27T10:00:48Z</time>
      </trkpt>
      <trkpt lat="45.90497" lon="4.7003">
        <ele>225</ele>
        <time>2018-04-27T10:00:49Z</time>
      </trkpt>
      <trkpt lat="45.90504" lon="4.70031">
        <ele>225</ele>
        <time>2018-04-27T10:00:50Z</time>
      </trkpt>
      <trkpt lat="45.9051" lon="4.70032">
        <ele>225</ele>
        <time>2018-04-27T10:00:51Z</time>
      </trkpt>
      <trkpt lat="45.90516" lon="4.70034">
        <ele>224</ele>
        <time>2018-04-27T10:00:52Z</time>
      </trkpt>
      <trkpt lat="45.90522" lon="4.70035">
        <ele>224</ele>
        <time>2018-04-27T10:00:53Z</time>
      </trkpt>
      <trkpt lat="45.90528" lon="4.70035">
        <ele>224</ele>
        <time>2018-04-27T10:00:54Z</time>
      </trkpt>
      <trkpt lat="45.90534" lon="4.70036">
        <ele>224</ele>
        <time>2018-04-27T10:00:55Z</time>
      </trkpt>
      <trkpt lat="45.90541" lon="4.70029">
        <ele>224</ele>
        <time>2018-04-27T10:00:56Z</time>
      </trkpt>
      <trkpt lat="45.90547" lon="4.70033">
        <ele>224</ele>
        <time>2018-04-27T10:00:57Z</time>
      </trkpt>
      <trkpt lat="45.90553" lon="4.70037">
        <ele>224</ele>
        <time>2018-04-27T10:00:58Z</time>
      </trkpt>
      <trkpt lat="45.90558" lon="4.7004">
        <ele>224</ele>
        <time>2018-04-27T10:00:59Z</time>
      </trkpt>
      <trkpt lat="45.90565" lon="4.70044">
        <ele>224</ele>
        <time>2018-04-27T10:01:00Z</time>
      </trkpt>
      <trkpt lat="45.90571" lon="4.70048">
        <ele>224</ele>
        <time>2018-04-27T10:01:01Z</time>
      </trkpt>
      <trkpt lat="45.90577" lon="4.70053">
        <ele>223</ele>
        <time>2018-04-27T10:01:02Z</time>
      </trkpt>
      <trkpt lat="45.90583" lon="4.70058">
        <ele>223</ele>
        <time>2018-04-27T10:01:03Z</time>
      </trkpt>
      <trkpt lat="45.90589" lon="4.70061">
        <ele>223</ele>
        <time>2018-04-27T10:01:04Z</time>
      </trkpt>
      <trkpt lat="45.90594" lon="4.70066">
        <ele>223</ele>
        <time>2018-04-27T10:01:05Z</time>
      </trkpt>
      <trkpt lat="45.906" lon="4.7007">
        <ele>223</ele>
        <time>2018-04-27T10:01:06Z</time>
      </trkpt>
      <trkpt lat="45.90606" lon="4.70073">
        <ele>223</ele>
        <time>2018-04-27T10:01:07Z</time>
      </trkpt>
      <trkpt lat="45.90612" lon="4.70077">
        <ele>224</ele>
        <time>2018-04-27T10:01:08Z</time>
      </trkpt>
      <trkpt lat="45.90618" lon="4.7008">
        <ele>224</ele>
        <time>2018-04-27T10:01:09Z</time>
      </trkpt>
      <trkpt lat="45.90624" lon="4.70083">
        <ele>224</ele>
        <time>2018-04-27T10:01:10Z</time>
      </trkpt>
      <trkpt lat="45.90629" lon="4.70085">
        <ele>221</ele>
        <time>2018-04-27T10:01:11Z</time>
      </trkpt>
      <trkpt lat="45.90635" lon="4.70089">
        <ele>221</ele>
        <time>2018-04-27T10:01:12Z</time>
      </trkpt>
      <trkpt lat="45.90641" lon="4.70091">
        <ele>221</ele>
        <time>2018-04-27T10:01:13Z</time>
      </trkpt>
      <trkpt lat="45.90646" lon="4.70095">
        <ele>222</ele>
        <time>2018-04-27T10:01:14Z</time>
      </trkpt>
      <trkpt lat="45.90651" lon="4.70099">
        <ele>222</ele>
        <time>2018-04-27T10:01:15Z</time>
      </trkpt>
      <trkpt lat="45.90656" lon="4.70102">
        <ele>222</ele>
        <time>2018-04-27T10:01:16Z</time>
      </trkpt>
      <trkpt lat="45.90661" lon="4.70105">
        <ele>222</ele>
        <time>2018-04-27T10:01:17Z</time>
      </trkpt>
      <trkpt lat="45.90666" lon="4.70108">
        <ele>221</ele>
        <time>2018-04-27T10:01:18Z</time>
      </trkpt>
      <trkpt lat="45.9067" lon="4.70115">
        <ele>222</ele>
        <time>2018-04-27T10:01:19Z</time>
      </trkpt>
      <trkpt lat="45.90676" lon="4.70119">
        <ele>221</ele>
        <time>2018-04-27T10:01:20Z</time>
      </trkpt>
      <trkpt lat="45.9068" lon="4.70124">
        <ele>221</ele>
        <time>2018-04-27T10:01:21Z</time>
      </trkpt>
      <trkpt lat="45.90685" lon="4.7013">
        <ele>221</ele>
        <time>2018-04-27T10:01:22Z</time>
      </trkpt>
      <trkpt lat="45.90689" lon="4.70137">
        <ele>221</ele>
        <time>2018-04-27T10:01:23Z</time>
      </trkpt>
      <trkpt lat="45.90696" lon="4.70142">
        <ele>221</ele>
        <time>2018-04-27T10:01:24Z</time>
      </trkpt>
      <trkpt lat="45.90701" lon="4.70147">
        <ele>220</ele>
        <time>2018-04-27T10:01:25Z</time>
      </trkpt>
      <trkpt lat="45.90708" lon="4.70146">
        <ele>220</ele>
        <time>2018-04-27T10:01:26Z</time>
      </trkpt>
      <trkpt lat="45.90714" lon="4.70143">
        <ele>220</ele>
        <time>2018-04-27T10:01:27Z</time>
      </trkpt>
      <trkpt lat="45.90719" lon="4.70144">
        <ele>220</ele>
        <time>2018-04-27T10:01:28Z</time>
      </trkpt>
      <trkpt lat="45.90727" lon="4.70143">
        <ele>220</ele>
        <time>2018-04-27T10:01:29Z</time>
      </trkpt>
      <trkpt lat="45.90733" lon="4.70144">
        <ele>220</ele>
        <time>2018-04-27T10:01:30Z</time>
      </trkpt>
      <trkpt lat="45.90739" lon="4.70141">
        <ele>220</ele>
        <time>2018-04-27T10:01:31Z</time>
      </trkpt>
      <trkpt lat="45.90745" lon="4.70141">
        <ele>220</ele>
        <time>2018-04-27T10:01:32Z</time>
      </trkpt>
      <trkpt lat="45.90752" lon="4.70141">
        <ele>219</ele>
        <time>2018-04-27T10:01:33Z</time>
      </trkpt>
      <trkpt lat="45.90759" lon="4.7014">
        <ele>219</ele>
        <time>2018-04-27T10:01:34Z</time>
      </trkpt>
      <trkpt lat="45.90767" lon="4.7014">
        <ele>219</ele>
        <time>2018-04-27T10:01:35Z</time>
      </trkpt>
      <trkpt lat="45.90774" lon="4.7014">
        <ele>219</ele>
        <time>2018-04-27T10:01:36Z</time>
      </trkpt>
      <trkpt lat="45.9078" lon="4.70141">
        <ele>219</ele>
        <time>2018-04-27T10:01:37Z</time>
      </trkpt>
      <trkpt lat="45.90787" lon="4.70141">
        <ele>219</ele>
        <time>2018-04-27T10:01:38Z</time>
      </trkpt>
      <trkpt lat="45.90794" lon="4.7014">
        <ele>219</ele>
        <time>2018-04-27T10:01:39Z</time>
      </trkpt>
      <trkpt lat="45.90802" lon="4.70138">
        <ele>219</ele>
        <time>2018-04-27T10:01:40Z</time>
      </trkpt>
      <trkpt lat="45.90807" lon="4.7014">
        <ele>219</ele>
        <time>2018-04-27T10:01:41Z</time>
      </trkpt>
      <trkpt lat="45.90815" lon="4.70137">
        <ele>219</ele>
        <time>2018-04-27T10:01:42Z</time>
      </trkpt>
      <trkpt lat="45.90822" lon="4.70138">
        <ele>219</ele>
        <time>2018-04-27T10:01:43Z</time>
      </trkpt>
      <trkpt lat="45.90829" lon="4.70138">
        <ele>219</ele>
        <time>2018-04-27T10:01:44Z</time>
      </trkpt>
      <trkpt lat="45.90836" lon="4.70137">
        <ele>218</ele>
        <time>2018-04-27T10:01:45Z</time>
      </trkpt>
      <trkpt lat="45.90843" lon="4.70136">
        <ele>218</ele>
        <time>2018-04-27T10:01:46Z</time>
      </trkpt>
      <trkpt lat="45.90849" lon="4.70136">
        <ele>218</ele>
        <time>2018-04-27T10:01:47Z</time>
      </trkpt>
      <trkpt lat="45.90854" lon="4.70135">
        <ele>218</ele>
        <time>2018-04-27T10:01:48Z</time>
      </trkpt>
      <trkpt lat="45.9086" lon="4.70135">
        <ele>218</ele>
        <time>2018-04-27T10:01:49Z</time>
      </trkpt>
      <trkpt lat="45.90866" lon="4.70135">
        <ele>218</ele>
        <time>2018-04-27T10:01:50Z</time>
      </trkpt>
      <trkpt lat="45.90873" lon="4.70134">
        <ele>218</ele>
        <time>2018-04-27T10:01:51Z</time>
      </trkpt>
      <trkpt lat="45.90878" lon="4.70131">
        <ele>219</ele>
        <time>2018-04-27T10:01:52Z</time>
      </trkpt>
      <trkpt lat="45.90883" lon="4.70131">
        <ele>219</ele>
        <time>2018-04-27T10:01:53Z</time>
      </trkpt>
      <trkpt lat="45.90888" lon="4.7013">
        <ele>219</ele>
        <time>2018-04-27T10:01:54Z</time>
      </trkpt>
      <trkpt lat="45.90894" lon="4.7013">
        <ele>219</ele>
        <time>2018-04-27T10:01:55Z</time>
      </trkpt>
      <trkpt lat="45.90902" lon="4.7013">
        <ele>219</ele>
        <time>2018-04-27T10:01:56Z</time>
      </trkpt>
      <trkpt lat="45.90908" lon="4.70129">
        <ele>219</ele>
        <time>2018-04-27T10:01:57Z</time>
      </trkpt>
      <trkpt lat="45.90914" lon="4.70129">
        <ele>219</ele>
        <time>2018-04-27T10:01:58Z</time>
      </trkpt>
      <trkpt lat="45.90919" lon="4.70129">
        <ele>219</ele>
        <time>2018-04-27T10:01:59Z</time>
      </trkpt>
      <trkpt lat="45.90924" lon="4.7013">
        <ele>219</ele>
        <time>2018-04-27T10:02:00Z</time>
      </trkpt>
      <trkpt lat="45.90931" lon="4.7013">
        <ele>219</ele>
        <time>2018-04-27T10:02:01Z</time>
      </trkpt>
      <trkpt lat="45.90937" lon="4.70131">
        <ele>219</ele>
        <time>2018-04-27T10:02:02Z</time>
      </trkpt>
      <trkpt lat="45.90944" lon="4.70133">
        <ele>219</ele>
        <time>2018-04-27T10:02:03Z</time>
      </trkpt>
      <trkpt lat="45.9095" lon="4.70135">
        <ele>219</ele>
        <time>2018-04-27T10:02:04Z</time>
      </trkpt>
      <trkpt lat="45.90957" lon="4.70136">
        <ele>219</ele>
        <time>2018-04-27T10:02:05Z</time>
      </trkpt>
      <trkpt lat="45.90965" lon="4.70138">
        <ele>219</ele>
        <time>2018-04-27T10:02:06Z</time>
      </trkpt>
      <trkpt lat="45.90972" lon="4.70141">
        <ele>218</ele>
        <time>2018-04-27T10:02:07Z</time>
      </trkpt>
      <trkpt lat="45.90978" lon="4.70144">
        <ele>218</ele>
        <time>2018-04-27T10:02:08Z</time>
      </trkpt>
      <trkpt lat="45.90986" lon="4.70146">
        <ele>218</ele>
        <time>2018-04-27T10:02:09Z</time>
      </trkpt>
      <trkpt lat="45.90993" lon="4.7015">
        <ele>218</ele>
        <time>2018-04-27T10:02:10Z</time>
      </trkpt>
      <trkpt lat="45.91" lon="4.70151">
        <ele>217</ele>
        <time>2018-04-27T10:02:11Z</time>
      </trkpt>
      <trkpt lat="45.91006" lon="4.70153">
        <ele>217</ele>
        <time>2018-04-27T10:02:12Z</time>
      </trkpt>
      <trkpt lat="45.91013" lon="4.70156">
        <ele>218</ele>
        <time>2018-04-27T10:02:13Z</time>
      </trkpt>
      <trkpt lat="45.91019" lon="4.70158">
        <ele>218</ele>
        <time>2018-04-27T10:02:14Z</time>
      </trkpt>
      <trkpt lat="45.91025" lon="4.7016">
        <ele>218</ele>
        <time>2018-04-27T10:02:15Z</time>
      </trkpt>
      <trkpt lat="45.91032" lon="4.7016">
        <ele>218</ele>
        <time>2018-04-27T10:02:16Z</time>
      </trkpt>
      <trkpt lat="45.91038" lon="4.70161">
        <ele>218</ele>
        <time>2018-04-27T10:02:17Z</time>
      </trkpt>
      <trkpt lat="45.91045" lon="4.70165">
        <ele>218</ele>
        <time>2018-04-27T10:02:18Z</time>
      </trkpt>
      <trkpt lat="45.91051" lon="4.70167">
        <ele>216</ele>
        <time>2018-04-27T10:02:19Z</time>
      </trkpt>
      <trkpt lat="45.91058" lon="4.70166">
        <ele>218</ele>
        <time>2018-04-27T10:02:20Z</time>
      </trkpt>
      <trkpt lat="45.91065" lon="4.70168">
        <ele>216</ele>
        <time>2018-04-27T10:02:21Z</time>
      </trkpt>
      <trkpt lat="45.91072" lon="4.70171">
        <ele>216</ele>
        <time>2018-04-27T10:02:22Z</time>
      </trkpt>
      <trkpt lat="45.91078" lon="4.70174">
        <ele>216</ele>
        <time>2018-04-27T10:02:23Z</time>
      </trkpt>
      <trkpt lat="45.91085" lon="4.70177">
        <ele>216</ele>
        <time>2018-04-27T10:02:24Z</time>
      </trkpt>
      <trkpt lat="45.91092" lon="4.7018">
        <ele>216</ele>
        <time>2018-04-27T10:02:25Z</time>
      </trkpt>
      <trkpt lat="45.911" lon="4.70184">
        <ele>215</ele>
        <time>2018-04-27T10:02:26Z</time>
      </trkpt>
      <trkpt lat="45.91107" lon="4.70187">
        <ele>215</ele>
        <time>2018-04-27T10:02:27Z</time>
      </trkpt>
      <trkpt lat="45.91116" lon="4.7019">
        <ele>215</ele>
        <time>2018-04-27T10:02:28Z</time>
      </trkpt>
      <trkpt lat="45.91123" lon="4.70193">
        <ele>215</ele>
        <time>2018-04-27T10:02:29Z</time>
      </trkpt>
      <trkpt lat="45.9113" lon="4.70195">
        <ele>215</ele>
        <time>2018-04-27T10:02:30Z</time>
      </trkpt>
      <trkpt lat="45.91138" lon="4.70196">
        <ele>215</ele>
        <time>2018-04-27T10:02:31Z</time>
      </trkpt>
      <trkpt lat="45.91146" lon="4.70198">
        <ele>215</ele>
        <time>2018-04-27T10:02:32Z</time>
      </trkpt>
      <trkpt lat="45.91152" lon="4.70201">
        <ele>215</ele>
        <time>2018-04-27T10:02:33Z</time>
      </trkpt>
      <trkpt lat="45.9116" lon="4.70203">
        <ele>215</ele>
        <time>2018-04-27T10:02:34Z</time>
      </trkpt>
      <trkpt lat="45.91167" lon="4.70206">
        <ele>214</ele>
        <time>2018-04-27T10:02:35Z</time>
      </trkpt>
      <trkpt lat="45.91174" lon="4.70208">
        <ele>214</ele>
        <time>2018-04-27T10:02:36Z</time>
      </trkpt>
      <trkpt lat="45.91183" lon="4.7021">
        <ele>214</ele>
        <time>2018-04-27T10:02:37Z</time>
      </trkpt>
      <trkpt lat="45.9119" lon="4.70212">
        <ele>214</ele>
        <time>2018-04-27T10:02:38Z</time>
      </trkpt>
      <trkpt lat="45.91199" lon="4.70214">
        <ele>214</ele>
        <time>2018-04-27T10:02:39Z</time>
      </trkpt>
      <trkpt lat="45.91206" lon="4.70216">
        <ele>214</ele>
        <time>2018-04-27T10:02:40Z</time>
      </trkpt>
      <trkpt lat="45.91214" lon="4.70221">
        <ele>214</ele>
        <time>2018-04-27T10:02:41Z</time>
      </trkpt>
      <trkpt lat="45.91222" lon="4.70225">
        <ele>213</ele>
        <time>2018-04-27T10:02:42Z</time>
      </trkpt>
      <trkpt lat="45.9123" lon="4.70227">
        <ele>213</ele>
        <time>2018-04-27T10:02:43Z</time>
      </trkpt>
      <trkpt lat="45.91238" lon="4.70229">
        <ele>213</ele>
        <time>2018-04-27T10:02:44Z</time>
      </trkpt>
      <trkpt lat="45.91245" lon="4.70231">
        <ele>213</ele>
        <time>2018-04-27T10:02:45Z</time>
      </trkpt>
      <trkpt lat="45.91254" lon="4.70232">
        <ele>213</ele>
        <time>2018-04-27T10:02:46Z</time>
      </trkpt>
      <trkpt lat="45.91261" lon="4.70235">
        <ele>213</ele>
        <time>2018-04-27T10:02:47Z</time>
      </trkpt>
      <trkpt lat="45.91268" lon="4.70238">
        <ele>213</ele>
        <time>2018-04-27T10:02:48Z</time>
      </trkpt>
      <trkpt lat="45.91275" lon="4.70241">
        <ele>213</ele>
        <time>2018-04-27T10:02:49Z</time>
      </trkpt>
      <trkpt lat="45.91282" lon="4.70243">
        <ele>213</ele>
        <time>2018-04-27T10:02:50Z</time>
      </trkpt>
      <trkpt lat="45.9129" lon="4.70245">
        <ele>214</ele>
        <time>2018-04-27T10:02:51Z</time>
      </trkpt>
      <trkpt lat="45.91297" lon="4.70248">
        <ele>214</ele>
        <time>2018-04-27T10:02:52Z</time>
      </trkpt>
      <trkpt lat="45.91304" lon="4.7025">
        <ele>214</ele>
        <time>2018-04-27T10:02:53Z</time>
      </trkpt>
      <trkpt lat="45.91311" lon="4.70253">
        <ele>210</ele>
        <time>2018-04-27T10:02:54Z</time>
      </trkpt>
      <trkpt lat="45.91317" lon="4.70258">
        <ele>211</ele>
        <time>2018-04-27T10:02:55Z</time>
      </trkpt>
      <trkpt lat="45.91325" lon="4.70262">
        <ele>211</ele>
        <time>2018-04-27T10:02:56Z</time>
      </trkpt>
      <trkpt lat="45.91332" lon="4.70265">
        <ele>211</ele>
        <time>2018-04-27T10:02:57Z</time>
      </trkpt>
      <trkpt lat="45.91339" lon="4.7027">
        <ele>210</ele>
        <time>2018-04-27T10:02:58Z</time>
      </trkpt>
      <trkpt lat="45.91346" lon="4.70274">
        <ele>210</ele>
        <time>2018-04-27T10:02:59Z</time>
      </trkpt>
      <trkpt lat="45.91353" lon="4.70279">
        <ele>210</ele>
        <time>2018-04-27T10:03:00Z</time>
      </trkpt>
      <trkpt lat="45.91361" lon="4.70286">
        <ele>210</ele>
        <time>2018-04-27T10:03:01Z</time>
      </trkpt>
      <trkpt lat="45.91369" lon="4.70291">
        <ele>210</ele>
        <time>2018-04-27T10:03:02Z</time>
      </trkpt>
      <trkpt lat="45.91377" lon="4.70296">
        <ele>209</ele>
        <time>2018-04-27T10:03:03Z</time>
      </trkpt>
      <trkpt lat="45.91384" lon="4.70301">
        <ele>209</ele>
        <time>2018-04-27T10:03:04Z</time>
      </trkpt>
      <trkpt lat="45.91391" lon="4.70306">
        <ele>209</ele>
        <time>2018-04-27T10:03:05Z</time>
      </trkpt>
      <trkpt lat="45.91398" lon="4.70313">
        <ele>209</ele>
        <time>2018-04-27T10:03:06Z</time>
      </trkpt>
      <trkpt lat="45.91405" lon="4.70317">
        <ele>209</ele>
        <time>2018-04-27T10:03:07Z</time>
      </trkpt>
      <trkpt lat="45.91411" lon="4.70323">
        <ele>209</ele>
        <time>2018-04-27T10:03:08Z</time>
      </trkpt>
      <trkpt lat="45.91418" lon="4.70328">
        <ele>209</ele>
        <time>2018-04-27T10:03:09Z</time>
      </trkpt>
      <trkpt lat="45.91425" lon="4.70332">
        <ele>209</ele>
        <time>2018-04-27T10:03:10Z</time>
      </trkpt>
      <trkpt lat="45.91432" lon="4.70338">
        <ele>207</ele>
        <time>2018-04-27T10:03:11Z</time>
      </trkpt>
      <trkpt lat="45.91438" lon="4.70343">
        <ele>207</ele>
        <time>2018-04-27T10:03:12Z</time>
      </trkpt>
      <trkpt lat="45.91444" lon="4.70349">
        <ele>207</ele>
        <time>2018-04-27T10:03:13Z</time>
      </trkpt>
      <trkpt lat="45.91451" lon="4.70354">
        <ele>207</ele>
        <time>2018-04-27T10:03:14Z</time>
      </trkpt>
      <trkpt lat="45.91458" lon="4.7036">
        <ele>207</ele>
        <time>2018-04-27T10:03:15Z</time>
      </trkpt>
      <trkpt lat="45.91465" lon="4.70365">
        <ele>206</ele>
        <time>2018-04-27T10:03:16Z</time>
      </trkpt>
      <trkpt lat="45.91473" lon="4.70371">
        <ele>206</ele>
        <time>2018-04-27T10:03:17Z</time>
      </trkpt>
      <trkpt lat="45.9148" lon="4.70376">
        <ele>206</ele>
        <time>2018-04-27T10:03:18Z</time>
      </trkpt>
      <trkpt lat="45.91487" lon="4.7038">
        <ele>206</ele>
        <time>2018-04-27T10:03:19Z</time>
      </trkpt>
      <trkpt lat="45.91493" lon="4.70386">
        <ele>206</ele>
        <time>2018-04-27T10:03:20Z</time>
      </trkpt>
      <trkpt lat="45.915" lon="4.7039">
        <ele>205</ele>
        <time>2018-04-27T10:03:21Z</time>
      </trkpt>
      <trkpt lat="45.91507" lon="4.70395">
        <ele>206</ele>
        <time>2018-04-27T10:03:22Z</time>
      </trkpt>
      <trkpt lat="45.91514" lon="4.70401">
        <ele>205</ele>
        <time>2018-04-27T10:03:23Z</time>
      </trkpt>
      <trkpt lat="45.9152" lon="4.70406">
        <ele>205</ele>
        <time>2018-04-27T10:03:24Z</time>
      </trkpt>
      <trkpt lat="45.91527" lon="4.70412">
        <ele>206</ele>
        <time>2018-04-27T10:03:25Z</time>
      </trkpt>
      <trkpt lat="45.91532" lon="4.70418">
        <ele>203</ele>
        <time>2018-04-27T10:03:26Z</time>
      </trkpt>
      <trkpt lat="45.91539" lon="4.70423">
        <ele>203</ele>
        <time>2018-04-27T10:03:27Z</time>
      </trkpt>
      <trkpt lat="45.91545" lon="4.70429">
        <ele>203</ele>
        <time>2018-04-27T10:03:28Z</time>
      </trkpt>
      <trkpt lat="45.91551" lon="4.70435">
        <ele>203</ele>
        <time>2018-04-27T10:03:29Z</time>
      </trkpt>
      <trkpt lat="45.91557" lon="4.70441">
        <ele>203</ele>
        <time>2018-04-27T10:03:30Z</time>
      </trkpt>
      <trkpt lat="45.91563" lon="4.70446">
        <ele>203</ele>
        <time>2018-04-27T10:03:31Z</time>
      </trkpt>
      <trkpt lat="45.91569" lon="4.70452">
        <ele>203</ele>
        <time>2018-04-27T10:03:32Z</time>
      </trkpt>
      <trkpt lat="45.91575" lon="4.70457">
        <ele>203</ele>
        <time>2018-04-27T10:03:33Z</time>
      </trkpt>
      <trkpt lat="45.91581" lon="4.70462">
        <ele>203</ele>
        <time>2018-04-27T10:03:34Z</time>
      </trkpt>
      <trkpt lat="45.91587" lon="4.70467">
        <ele>203</ele>
        <time>2018-04-27T10:03:35Z</time>
      </trkpt>
      <trkpt lat="45.91593" lon="4.70472">
        <ele>202</ele>
        <time>2018-04-27T10:03:36Z</time>
      </trkpt>
      <trkpt lat="45.91599" lon="4.70477">
        <ele>202</ele>
        <time>2018-04-27T10:03:37Z</time>
      </trkpt>
      <trkpt lat="45.91605" lon="4.70483">
        <ele>202</ele>
        <time>2018-04-27T10:03:38Z</time>
      </trkpt>
      <trkpt lat="45.91612" lon="4.7049">
        <ele>202</ele>
        <time>2018-04-27T10:03:39Z</time>
      </trkpt>
      <trkpt lat="45.91618" lon="4.70495">
        <ele>202</ele>
        <time>2018-04-27T10:03:40Z</time>
      </trkpt>
      <trkpt lat="45.91625" lon="4.70501">
        <ele>199</ele>
        <time>2018-04-27T10:03:41Z</time>
      </trkpt>
      <trkpt lat="45.91631" lon="4.70505">
        <ele>199</ele>
        <time>2018-04-27T10:03:42Z</time>
      </trkpt>
      <trkpt lat="45.91638" lon="4.7051">
        <ele>199</ele>
        <time>2018-04-27T10:03:43Z</time>
      </trkpt>
      <trkpt lat="45.91645" lon="4.70516">
        <ele>199</ele>
        <time>2018-04-27T10:03:44Z</time>
      </trkpt>
      <trkpt lat="45.91652" lon="4.70522">
        <ele>199</ele>
        <time>2018-04-27T10:03:45Z</time>
      </trkpt>
      <trkpt lat="45.91657" lon="4.70525">
        <ele>199</ele>
        <time>2018-04-27T10:03:46Z</time>
      </trkpt>
      <trkpt lat="45.91663" lon="4.70531">
        <ele>198</ele>
        <time>2018-04-27T10:03:47Z</time>
      </trkpt>
      <trkpt lat="45.91669" lon="4.70534">
        <ele>198</ele>
        <time>2018-04-27T10:03:48Z</time>
      </trkpt>
      <trkpt lat="45.91676" lon="4.70539">
        <ele>198</ele>
        <time>2018-04-27T10:03:49Z</time>
      </trkpt>
      <trkpt lat="45.91682" lon="4.70545">
        <ele>198</ele>
        <time>2018-04-27T10:03:50Z</time>
      </trkpt>
      <trkpt lat="45.91688" lon="4.7055">
        <ele>198</ele>
        <time>2018-04-27T10:03:51Z</time>
      </trkpt>
      <trkpt lat="45.91694" lon="4.70555">
        <ele>198</ele>
        <time>2018-04-27T10:03:52Z</time>
      </trkpt>
      <trkpt lat="45.917" lon="4.70561">
        <ele>198</ele>
        <time>2018-04-27T10:03:53Z</time>
      </trkpt>
      <trkpt lat="45.91705" lon="4.70568">
        <ele>197</ele>
        <time>2018-04-27T10:03:54Z</time>
      </trkpt>
      <trkpt lat="45.91708" lon="4.70575">
        <ele>197</ele>
        <time>2018-04-27T10:03:55Z</time>
      </trkpt>
      <trkpt lat="45.91713" lon="4.70581">
        <ele>197</ele>
        <time>2018-04-27T10:03:56Z</time>
      </trkpt>
      <trkpt lat="45.91719" lon="4.70587">
        <ele>196</ele>
        <time>2018-04-27T10:03:57Z</time>
      </trkpt>
      <trkpt lat="45.91725" lon="4.70588">
        <ele>196</ele>
        <time>2018-04-27T10:03:58Z</time>
      </trkpt>
      <trkpt lat="45.91731" lon="4.70589">
        <ele>196</ele>
        <time>2018-04-27T10:03:59Z</time>
      </trkpt>
      <trkpt lat="45.91737" lon="4.7059">
        <ele>196</ele>
        <time>2018-04-27T10:04:00Z</time>
      </trkpt>
      <trkpt lat="45.91743" lon="4.70592">
        <ele>196</ele>
        <time>2018-04-27T10:04:01Z</time>
      </trkpt>
      <trkpt lat="45.91749" lon="4.70595">
        <ele>196</ele>
        <time>2018-04-27T10:04:02Z</time>
      </trkpt>
      <trkpt lat="45.91756" lon="4.70597">
        <ele>195</ele>
        <time>2018-04-27T10:04:03Z</time>
      </trkpt>
      <trkpt lat="45.91763" lon="4.706">
        <ele>195</ele>
        <time>2018-04-27T10:04:04Z</time>
      </trkpt>
      <trkpt lat="45.9177" lon="4.70603">
        <ele>195</ele>
        <time>2018-04-27T10:04:05Z</time>
      </trkpt>
      <trkpt lat="45.91777" lon="4.70606">
        <ele>195</ele>
        <time>2018-04-27T10:04:06Z</time>
      </trkpt>
      <trkpt lat="45.91784" lon="4.70607">
        <ele>195</ele>
        <time>2018-04-27T10:04:07Z</time>
      </trkpt>
      <trkpt lat="45.91791" lon="4.70611">
        <ele>194</ele>
        <time>2018-04-27T10:04:08Z</time>
      </trkpt>
      <trkpt lat="45.91799" lon="4.70612">
        <ele>194</ele>
        <time>2018-04-27T10:04:09Z</time>
      </trkpt>
      <trkpt lat="45.91807" lon="4.70614">
        <ele>194</ele>
        <time>2018-04-27T10:04:10Z</time>
      </trkpt>
      <trkpt lat="45.91814" lon="4.70614">
        <ele>194</ele>
        <time>2018-04-27T10:04:11Z</time>
      </trkpt>
      <trkpt lat="45.91821" lon="4.70614">
        <ele>194</ele>
        <time>2018-04-27T10:04:12Z</time>
      </trkpt>
      <trkpt lat="45.91828" lon="4.70615">
        <ele>194</ele>
        <time>2018-04-27T10:04:13Z</time>
      </trkpt>
      <trkpt lat="45.91835" lon="4.70615">
        <ele>194</ele>
        <time>2018-04-27T10:04:14Z</time>
      </trkpt>
      <trkpt lat="45.91842" lon="4.70614">
        <ele>194</ele>
        <time>2018-04-27T10:04:15Z</time>
      </trkpt>
      <trkpt lat="45.91849" lon="4.70613">
        <ele>194</ele>
        <time>2018-04-27T10:04:16Z</time>
      </trkpt>
      <trkpt lat="45.91856" lon="4.70612">
        <ele>194</ele>
        <time>2018-04-27T10:04:17Z</time>
      </trkpt>
      <trkpt lat="45.91863" lon="4.70611">
        <ele>194</ele>
        <time>2018-04-27T10:04:18Z</time>
      </trkpt>
      <trkpt lat="45.91869" lon="4.70609">
        <ele>194</ele>
        <time>2018-04-27T10:04:19Z</time>
      </trkpt>
      <trkpt lat="45.91874" lon="4.7061">
        <ele>194</ele>
        <time>2018-04-27T10:04:20Z</time>
      </trkpt>
      <trkpt lat="45.9188" lon="4.70611">
        <ele>194</ele>
        <time>2018-04-27T10:04:21Z</time>
      </trkpt>
      <trkpt lat="45.91886" lon="4.70611">
        <ele>194</ele>
        <time>2018-04-27T10:04:22Z</time>
      </trkpt>
      <trkpt lat="45.91894" lon="4.7061">
        <ele>194</ele>
        <time>2018-04-27T10:04:23Z</time>
      </trkpt>
      <trkpt lat="45.919" lon="4.7061">
        <ele>194</ele>
        <time>2018-04-27T10:04:24Z</time>
      </trkpt>
      <trkpt lat="45.91907" lon="4.7061">
        <ele>195</ele>
        <time>2018-04-27T10:04:25Z</time>
      </trkpt>
      <trkpt lat="45.91913" lon="4.7061">
        <ele>195</ele>
        <time>2018-04-27T10:04:26Z</time>
      </trkpt>
      <trkpt lat="45.9192" lon="4.7061">
        <ele>195</ele>
        <time>2018-04-27T10:04:27Z</time>
      </trkpt>
      <trkpt lat="45.91928" lon="4.70609">
        <ele>195</ele>
        <time>2018-04-27T10:04:28Z</time>
      </trkpt>
      <trkpt lat="45.91935" lon="4.70608">
        <ele>195</ele>
        <time>2018-04-27T10:04:29Z</time>
      </trkpt>
      <trkpt lat="45.91943" lon="4.70608">
        <ele>194</ele>
        <time>2018-04-27T10:04:30Z</time>
      </trkpt>
      <trkpt lat="45.9195" lon="4.70606">
        <ele>194</ele>
        <time>2018-04-27T10:04:31Z</time>
      </trkpt>
      <trkpt lat="45.91955" lon="4.70606">
        <ele>194</ele>
        <time>2018-04-27T10:04:32Z</time>
      </trkpt>
      <trkpt lat="45.91962" lon="4.70606">
        <ele>194</ele>
        <time>2018-04-27T10:04:33Z</time>
      </trkpt>
      <trkpt lat="45.91969" lon="4.70604">
        <ele>194</ele>
        <time>2018-04-27T10:04:34Z</time>
      </trkpt>
      <trkpt lat="45.91975" lon="4.70603">
        <ele>194</ele>
        <time>2018-04-27T10:04:35Z</time>
      </trkpt>
      <trkpt lat="45.91982" lon="4.70602">
        <ele>194</ele>
        <time>2018-04-27T10:04:36Z</time>
      </trkpt>
      <trkpt lat="45.91987" lon="4.706">
        <ele>194</ele>
        <time>2018-04-27T10:04:37Z</time>
      </trkpt>
      <trkpt lat="45.91992" lon="4.70598">
        <ele>194</ele>
        <time>2018-04-27T10:04:38Z</time>
      </trkpt>
      <trkpt lat="45.91998" lon="4.70598">
        <ele>195</ele>
        <time>2018-04-27T10:04:39Z</time>
      </trkpt>
      <trkpt lat="45.92003" lon="4.70598">
        <ele>194</ele>
        <time>2018-04-27T10:04:40Z</time>
      </trkpt>
      <trkpt lat="45.9201" lon="4.70597">
        <ele>194</ele>
        <time>2018-04-27T10:04:41Z</time>
      </trkpt>
      <trkpt lat="45.92018" lon="4.70596">
        <ele>194</ele>
        <time>2018-04-27T10:04:42Z</time>
      </trkpt>
      <trkpt lat="45.92024" lon="4.70596">
        <ele>194</ele>
        <time>2018-04-27T10:04:43Z</time>
      </trkpt>
      <trkpt lat="45.92031" lon="4.70596">
        <ele>194</ele>
        <time>2018-04-27T10:04:44Z</time>
      </trkpt>
      <trkpt lat="45.92037" lon="4.70594">
        <ele>194</ele>
        <time>2018-04-27T10:04:45Z</time>
      </trkpt>
      <trkpt lat="45.92044" lon="4.70593">
        <ele>193</ele>
        <time>2018-04-27T10:04:46Z</time>
      </trkpt>
      <trkpt lat="45.9205" lon="4.70593">
        <ele>193</ele>
        <time>2018-04-27T10:04:47Z</time>
      </trkpt>
      <trkpt lat="45.92059" lon="4.70593">
        <ele>193</ele>
        <time>2018-04-27T10:04:48Z</time>
      </trkpt>
      <trkpt lat="45.92065" lon="4.70593">
        <ele>193</ele>
        <time>2018-04-27T10:04:49Z</time>
      </trkpt>
      <trkpt lat="45.92072" lon="4.70592">
        <ele>194</ele>
        <time>2018-04-27T10:04:50Z</time>
      </trkpt>
      <trkpt lat="45.92077" lon="4.70594">
        <ele>194</ele>
        <time>2018-04-27T10:04:51Z</time>
      </trkpt>
      <trkpt lat="45.92083" lon="4.70593">
        <ele>193</ele>
        <time>2018-04-27T10:04:52Z</time>
      </trkpt>
      <trkpt lat="45.9209" lon="4.70591">
        <ele>193</ele>
        <time>2018-04-27T10:04:53Z</time>
      </trkpt>
      <trkpt lat="45.92096" lon="4.70591">
        <ele>193</ele>
        <time>2018-04-27T10:04:54Z</time>
      </trkpt>
      <trkpt lat="45.92105" lon="4.7059">
        <ele>192</ele>
        <time>2018-04-27T10:04:55Z</time>
      </trkpt>
      <trkpt lat="45.92112" lon="4.7059">
        <ele>192</ele>
        <time>2018-04-27T10:04:56Z</time>
      </trkpt>
      <trkpt lat="45.92119" lon="4.70589">
        <ele>191</ele>
        <time>2018-04-27T10:04:57Z</time>
      </trkpt>
      <trkpt lat="45.92127" lon="4.70587">
        <ele>191</ele>
        <time>2018-04-27T10:04:58Z</time>
      </trkpt>
      <trkpt lat="45.92135" lon="4.70587">
        <ele>191</ele>
        <time>2018-04-27T10:04:59Z</time>
      </trkpt>
      <trkpt lat="45.92142" lon="4.70587">
        <ele>191</ele>
        <time>2018-04-27T10:05:00Z</time>
      </trkpt>
      <trkpt lat="45.92149" lon="4.70587">
        <ele>190</ele>
        <time>2018-04-27T10:05:01Z</time>
      </trkpt>
      <trkpt lat="45.92156" lon="4.70587">
        <ele>190</ele>
        <time>2018-04-27T10:05:02Z</time>
      </trkpt>
      <trkpt lat="45.92162" lon="4.70589">
        <ele>190</ele>
        <time>2018-04-27T10:05:03Z</time>
      </trkpt>
      <trkpt lat="45.92168" lon="4.70588">
        <ele>190</ele>
        <time>2018-04-27T10:05:04Z</time>
      </trkpt>
      <trkpt lat="45.92174" lon="4.70589">
        <ele>191</ele>
        <time>2018-04-27T10:05:05Z</time>
      </trkpt>
      <trkpt lat="45.92179" lon="4.7059">
        <ele>191</ele>
        <time>2018-04-27T10:05:06Z</time>
      </trkpt>
      <trkpt lat="45.92185" lon="4.70591">
        <ele>191</ele>
        <time>2018-04-27T10:05:07Z</time>
      </trkpt>
      <trkpt lat="45.9219" lon="4.70593">
        <ele>192</ele>
        <time>2018-04-27T10:05:08Z</time>
      </trkpt>
      <trkpt lat="45.92195" lon="4.70594">
        <ele>192</ele>
        <time>2018-04-27T10:05:09Z</time>
      </trkpt>
      <trkpt lat="45.92204" lon="4.70594">
        <ele>192</ele>
        <time>2018-04-27T10:05:11Z</time>
      </trkpt>
      <trkpt lat="45.9221" lon="4.70595">
        <ele>193</ele>
        <time>2018-04-27T10:05:12Z</time>
      </trkpt>
      <trkpt lat="45.92216" lon="4.70594">
        <ele>193</ele>
        <time>2018-04-27T10:05:13Z</time>
      </trkpt>
      <trkpt lat="45.92221" lon="4.70595">
        <ele>193</ele>
        <time>2018-04-27T10:05:14Z</time>
      </trkpt>
      <trkpt lat="45.92227" lon="4.70595">
        <ele>194</ele>
        <time>2018-04-27T10:05:15Z</time>
      </trkpt>
      <trkpt lat="45.92233" lon="4.70595">
        <ele>194</ele>
        <time>2018-04-27T10:05:16Z</time>
      </trkpt>
      <trkpt lat="45.92239" lon="4.70596">
        <ele>194</ele>
        <time>2018-04-27T10:05:17Z</time>
      </trkpt>
      <trkpt lat="45.92246" lon="4.70598">
        <ele>194</ele>
        <time>2018-04-27T10:05:18Z</time>
      </trkpt>
      <trkpt lat="45.92252" lon="4.706">
        <ele>196</ele>
        <time>2018-04-27T10:05:19Z</time>
      </trkpt>
      <trkpt lat="45.92258" lon="4.70602">
        <ele>196</ele>
        <time>2018-04-27T10:05:20Z</time>
      </trkpt>
      <trkpt lat="45.92264" lon="4.70603">
        <ele>196</ele>
        <time>2018-04-27T10:05:21Z</time>
      </trkpt>
      <trkpt lat="45.9227" lon="4.70606">
        <ele>196</ele>
        <time>2018-04-27T10:05:22Z</time>
      </trkpt>
      <trkpt lat="45.92275" lon="4.70608">
        <ele>196</ele>
        <time>2018-04-27T10:05:23Z</time>
      </trkpt>
      <trkpt lat="45.92282" lon="4.70612">
        <ele>196</ele>
        <time>2018-04-27T10:05:24Z</time>
      </trkpt>
      <trkpt lat="45.92288" lon="4.70615">
        <ele>196</ele>
        <time>2018-04-27T10:05:25Z</time>
      </trkpt>
      <trkpt lat="45.92294" lon="4.70618">
        <ele>196</ele>
        <time>2018-04-27T10:05:26Z</time>
      </trkpt>
      <trkpt lat="45.923" lon="4.70623">
        <ele>196</ele>
        <time>2018-04-27T10:05:27Z</time>
      </trkpt>
      <trkpt lat="45.92305" lon="4.70626">
        <ele>196</ele>
        <time>2018-04-27T10:05:28Z</time>
      </trkpt>
      <trkpt lat="45.92312" lon="4.70629">
        <ele>196</ele>
        <time>2018-04-27T10:05:29Z</time>
      </trkpt>
      <trkpt lat="45.92317" lon="4.70633">
        <ele>196</ele>
        <time>2018-04-27T10:05:30Z</time>
      </trkpt>
      <trkpt lat="45.92324" lon="4.70637">
        <ele>196</ele>
        <time>2018-04-27T10:05:31Z</time>
      </trkpt>
      <trkpt lat="45.9233" lon="4.70639">
        <ele>196</ele>
        <time>2018-04-27T10:05:32Z</time>
      </trkpt>
      <trkpt lat="45.92335" lon="4.70645">
        <ele>197</ele>
        <time>2018-04-27T10:05:33Z</time>
      </trkpt>
      <trkpt lat="45.92342" lon="4.70647">
        <ele>196</ele>
        <time>2018-04-27T10:05:34Z</time>
      </trkpt>
      <trkpt lat="45.92348" lon="4.7065">
        <ele>196</ele>
        <time>2018-04-27T10:05:35Z</time>
      </trkpt>
      <trkpt lat="45.92356" lon="4.70652">
        <ele>196</ele>
        <time>2018-04-27T10:05:36Z</time>
      </trkpt>
      <trkpt lat="45.92361" lon="4.70655">
        <ele>196</ele>
        <time>2018-04-27T10:05:37Z</time>
      </trkpt>
      <trkpt lat="45.92367" lon="4.70657">
        <ele>196</ele>
        <time>2018-04-27T10:05:38Z</time>
      </trkpt>
      <trkpt lat="45.92373" lon="4.70658">
        <ele>196</ele>
        <time>2018-04-27T10:05:39Z</time>
      </trkpt>
      <trkpt lat="45.92379" lon="4.70661">
        <ele>196</ele>
        <time>2018-04-27T10:05:40Z</time>
      </trkpt>
      <trkpt lat="45.92384" lon="4.70663">
        <ele>196</ele>
        <time>2018-04-27T10:05:41Z</time>
      </trkpt>
      <trkpt lat="45.92389" lon="4.70666">
        <ele>196</ele>
        <time>2018-04-27T10:05:42Z</time>
      </trkpt>
      <trkpt lat="45.92394" lon="4.7067">
        <ele>195</ele>
        <time>2018-04-27T10:05:43Z</time>
      </trkpt>
      <trkpt lat="45.92401" lon="4.70673">
        <ele>195</ele>
        <time>2018-04-27T10:05:44Z</time>
      </trkpt>
      <trkpt lat="45.92406" lon="4.70677">
        <ele>195</ele>
        <time>2018-04-27T10:05:45Z</time>
      </trkpt>
      <trkpt lat="45.92412" lon="4.70679">
        <ele>195</ele>
        <time>2018-04-27T10:05:46Z</time>
      </trkpt>
      <trkpt lat="45.92417" lon="4.70683">
        <ele>195</ele>
        <time>2018-04-27T10:05:47Z</time>
      </trkpt>
      <trkpt lat="45.92423" lon="4.70687">
        <ele>195</ele>
        <time>2018-04-27T10:05:48Z</time>
      </trkpt>
      <trkpt lat="45.92429" lon="4.70691">
        <ele>195</ele>
        <time>2018-04-27T10:05:49Z</time>
      </trkpt>
      <trkpt lat="45.92434" lon="4.70694">
        <ele>195</ele>
        <time>2018-04-27T10:05:50Z</time>
      </trkpt>
      <trkpt lat="45.92439" lon="4.70698">
        <ele>195</ele>
        <time>2018-04-27T10:05:51Z</time>
      </trkpt>
      <trkpt lat="45.92445" lon="4.70701">
        <ele>195</ele>
        <time>2018-04-27T10:05:52Z</time>
      </trkpt>
      <trkpt lat="45.92451" lon="4.70704">
        <ele>195</ele>
        <time>2018-04-27T10:05:53Z</time>
      </trkpt>
      <trkpt lat="45.92456" lon="4.70708">
        <ele>194</ele>
        <time>2018-04-27T10:05:54Z</time>
      </trkpt>
      <trkpt lat="45.92461" lon="4.70711">
        <ele>194</ele>
        <time>2018-04-27T10:05:55Z</time>
      </trkpt>
      <trkpt lat="45.92467" lon="4.70714">
        <ele>194</ele>
        <time>2018-04-27T10:05:56Z</time>
      </trkpt>
      <trkpt lat="45.92472" lon="4.70714">
        <ele>195</ele>
        <time>2018-04-27T10:05:57Z</time>
      </trkpt>
      <trkpt lat="45.92477" lon="4.70717">
        <ele>195</ele>
        <time>2018-04-27T10:05:58Z</time>
      </trkpt>
      <trkpt lat="45.92483" lon="4.70721">
        <ele>194</ele>
        <time>2018-04-27T10:05:59Z</time>
      </trkpt>
      <trkpt lat="45.92489" lon="4.70724">
        <ele>194</ele>
        <time>2018-04-27T10:06:00Z</time>
      </trkpt>
      <trkpt lat="45.92495" lon="4.70727">
        <ele>194</ele>
        <time>2018-04-27T10:06:01Z</time>
      </trkpt>
      <trkpt lat="45.925" lon="4.70732">
        <ele>196</ele>
        <time>2018-04-27T10:06:02Z</time>
      </trkpt>
      <trkpt lat="45.92505" lon="4.70735">
        <ele>196</ele>
        <time>2018-04-27T10:06:03Z</time>
      </trkpt>
      <trkpt lat="45.9251" lon="4.70738">
        <ele>196</ele>
        <time>2018-04-27T10:06:04Z</time>
      </trkpt>
      <trkpt lat="45.92514" lon="4.70738">
        <ele>196</ele>
        <time>2018-04-27T10:06:05Z</time>
      </trkpt>
      <trkpt lat="45.92519" lon="4.70743">
        <ele>196</ele>
        <time>2018-04-27T10:06:06Z</time>
      </trkpt>
      <trkpt lat="45.92524" lon="4.70747">
        <ele>196</ele>
        <time>2018-04-27T10:06:07Z</time>
      </trkpt>
      <trkpt lat="45.9253" lon="4.70748">
        <ele>196</ele>
        <time>2018-04-27T10:06:08Z</time>
      </trkpt>
      <trkpt lat="45.92535" lon="4.70751">
        <ele>195</ele>
        <time>2018-04-27T10:06:09Z</time>
      </trkpt>
      <trkpt lat="45.9254" lon="4.70755">
        <ele>195</ele>
        <time>2018-04-27T10:06:10Z</time>
      </trkpt>
      <trkpt lat="45.92544" lon="4.70759">
        <ele>195</ele>
        <time>2018-04-27T10:06:11Z</time>
      </trkpt>
      <trkpt lat="45.92549" lon="4.70765">
        <ele>196</ele>
        <time>2018-04-27T10:06:12Z</time>
      </trkpt>
      <trkpt lat="45.92554" lon="4.70768">
        <ele>196</ele>
        <time>2018-04-27T10:06:13Z</time>
      </trkpt>
      <trkpt lat="45.92558" lon="4.70771">
        <ele>196</ele>
        <time>2018-04-27T10:06:14Z</time>
      </trkpt>
      <trkpt lat="45.92563" lon="4.70775">
        <ele>196</ele>
        <time>2018-04-27T10:06:15Z</time>
      </trkpt>
      <trkpt lat="45.92567" lon="4.70779">
        <ele>196</ele>
        <time>2018-04-27T10:06:16Z</time>
      </trkpt>
      <trkpt lat="45.9257" lon="4.70787">
        <ele>196</ele>
        <time>2018-04-27T10:06:17Z</time>
      </trkpt>
      <trkpt lat="45.92575" lon="4.70787">
        <ele>196</ele>
        <time>2018-04-27T10:06:18Z</time>
      </trkpt>
      <trkpt lat="45.92579" lon="4.70791">
        <ele>196</ele>
        <time>2018-04-27T10:06:19Z</time>
      </trkpt>
      <trkpt lat="45.92584" lon="4.70795">
        <ele>198</ele>
        <time>2018-04-27T10:06:20Z</time>
      </trkpt>
      <trkpt lat="45.92589" lon="4.70797">
        <ele>198</ele>
        <time>2018-04-27T10:06:21Z</time>
      </trkpt>
      <trkpt lat="45.92593" lon="4.708">
        <ele>198</ele>
        <time>2018-04-27T10:06:22Z</time>
      </trkpt>
      <trkpt lat="45.92597" lon="4.70804">
        <ele>198</ele>
        <time>2018-04-27T10:06:23Z</time>
      </trkpt>
      <trkpt lat="45.92601" lon="4.70808">
        <ele>198</ele>
        <time>2018-04-27T10:06:24Z</time>
      </trkpt>
      <trkpt lat="45.92605" lon="4.7081">
        <ele>198</ele>
        <time>2018-04-27T10:06:25Z</time>
      </trkpt>
      <trkpt lat="45.92608" lon="4.70815">
        <ele>198</ele>
        <time>2018-04-27T10:06:26Z</time>
      </trkpt>
      <trkpt lat="45.92613" lon="4.70819">
        <ele>199</ele>
        <time>2018-04-27T10:06:27Z</time>
      </trkpt>
      <trkpt lat="45.92617" lon="4.70822">
        <ele>199</ele>
        <time>2018-04-27T10:06:28Z</time>
      </trkpt>
      <trkpt lat="45.92621" lon="4.70827">
        <ele>199</ele>
        <time>2018-04-27T10:06:29Z</time>
      </trkpt>
      <trkpt lat="45.92626" lon="4.7083">
        <ele>199</ele>
        <time>2018-04-27T10:06:30Z</time>
      </trkpt>
      <trkpt lat="45.9263" lon="4.70834">
        <ele>198</ele>
        <time>2018-04-27T10:06:31Z</time>
      </trkpt>
      <trkpt lat="45.92634" lon="4.70837">
        <ele>198</ele>
        <time>2018-04-27T10:06:32Z</time>
      </trkpt>
      <trkpt lat="45.92637" lon="4.70842">
        <ele>198</ele>
        <time>2018-04-27T10:06:33Z</time>
      </trkpt>
      <trkpt lat="45.92641" lon="4.70845">
        <ele>198</ele>
        <time>2018-04-27T10:06:34Z</time>
      </trkpt>
      <trkpt lat="45.92646" lon="4.70847">
        <ele>198</ele>
        <time>2018-04-27T10:06:35Z</time>
      </trkpt>
      <trkpt lat="45.9265" lon="4.70852">
        <ele>198</ele>
        <time>2018-04-27T10:06:36Z</time>
      </trkpt>
      <trkpt lat="45.92653" lon="4.70857">
        <ele>198</ele>
        <time>2018-04-27T10:06:37Z</time>
      </trkpt>
      <trkpt lat="45.92657" lon="4.70862">
        <ele>198</ele>
        <time>2018-04-27T10:06:38Z</time>
      </trkpt>
      <trkpt lat="45.92661" lon="4.70865">
        <ele>198</ele>
        <time>2018-04-27T10:06:39Z</time>
      </trkpt>
      <trkpt lat="45.92665" lon="4.70869">
        <ele>198</ele>
        <time>2018-04-27T10:06:40Z</time>
      </trkpt>
      <trkpt lat="45.92669" lon="4.70873">
        <ele>198</ele>
        <time>2018-04-27T10:06:41Z</time>
      </trkpt>
      <trkpt lat="45.92673" lon="4.70878">
        <ele>198</ele>
        <time>2018-04-27T10:06:42Z</time>
      </trkpt>
      <trkpt lat="45.92678" lon="4.70881">
        <ele>198</ele>
        <time>2018-04-27T10:06:43Z</time>
      </trkpt>
      <trkpt lat="45.92683" lon="4.70884">
        <ele>198</ele>
        <time>2018-04-27T10:06:44Z</time>
      </trkpt>
      <trkpt lat="45.92688" lon="4.70888">
        <ele>198</ele>
        <time>2018-04-27T10:06:45Z</time>
      </trkpt>
      <trkpt lat="45.92692" lon="4.70891">
        <ele>198</ele>
        <time>2018-04-27T10:06:46Z</time>
      </trkpt>
      <trkpt lat="45.92697" lon="4.70895">
        <ele>198</ele>
        <time>2018-04-27T10:06:47Z</time>
      </trkpt>
      <trkpt lat="45.92701" lon="4.70899">
        <ele>197</ele>
        <time>2018-04-27T10:06:48Z</time>
      </trkpt>
      <trkpt lat="45.92706" lon="4.70902">
        <ele>197</ele>
        <time>2018-04-27T10:06:49Z</time>
      </trkpt>
      <trkpt lat="45.92711" lon="4.70905">
        <ele>197</ele>
        <time>2018-04-27T10:06:50Z</time>
      </trkpt>
      <trkpt lat="45.92716" lon="4.70908">
        <ele>197</ele>
        <time>2018-04-27T10:06:51Z</time>
      </trkpt>
      <trkpt lat="45.92721" lon="4.7091">
        <ele>197</ele>
        <time>2018-04-27T10:06:52Z</time>
      </trkpt>
      <trkpt lat="45.92727" lon="4.70913">
        <ele>197</ele>
        <time>2018-04-27T10:06:53Z</time>
      </trkpt>
      <trkpt lat="45.92732" lon="4.70915">
        <ele>197</ele>
        <time>2018-04-27T10:06:54Z</time>
      </trkpt>
      <trkpt lat="45.92737" lon="4.70918">
        <ele>195</ele>
        <time>2018-04-27T10:06:55Z</time>
      </trkpt>
      <trkpt lat="45.92742" lon="4.70921">
        <ele>195</ele>
        <time>2018-04-27T10:06:56Z</time>
      </trkpt>
      <trkpt lat="45.92747" lon="4.70923">
        <ele>196</ele>
        <time>2018-04-27T10:06:57Z</time>
      </trkpt>
      <trkpt lat="45.92754" lon="4.70922">
        <ele>196</ele>
        <time>2018-04-27T10:06:58Z</time>
      </trkpt>
      <trkpt lat="45.9276" lon="4.70923">
        <ele>196</ele>
        <time>2018-04-27T10:06:59Z</time>
      </trkpt>
      <trkpt lat="45.92765" lon="4.70924">
        <ele>196</ele>
        <time>2018-04-27T10:07:00Z</time>
      </trkpt>
      <trkpt lat="45.9277" lon="4.70924">
        <ele>196</ele>
        <time>2018-04-27T10:07:01Z</time>
      </trkpt>
      <trkpt lat="45.92775" lon="4.70925">
        <ele>196</ele>
        <time>2018-04-27T10:07:02Z</time>
      </trkpt>
      <trkpt lat="45.9278" lon="4.70926">
        <ele>196</ele>
        <time>2018-04-27T10:07:03Z</time>
      </trkpt>
      <trkpt lat="45.92785" lon="4.70928">
        <ele>196</ele>
        <time>2018-04-27T10:07:04Z</time>
      </trkpt>
      <trkpt lat="45.9279" lon="4.7093">
        <ele>196</ele>
        <time>2018-04-27T10:07:05Z</time>
      </trkpt>
      <trkpt lat="45.92795" lon="4.7093">
        <ele>196</ele>
        <time>2018-04-27T10:07:06Z</time>
      </trkpt>
      <trkpt lat="45.92799" lon="4.70933">
        <ele>196</ele>
        <time>2018-04-27T10:07:07Z</time>
      </trkpt>
      <trkpt lat="45.92804" lon="4.70936">
        <ele>196</ele>
        <time>2018-04-27T10:07:08Z</time>
      </trkpt>
      <trkpt lat="45.92807" lon="4.70939">
        <ele>197</ele>
        <time>2018-04-27T10:07:09Z</time>
      </trkpt>
      <trkpt lat="45.92812" lon="4.70943">
        <ele>197</ele>
        <time>2018-04-27T10:07:10Z</time>
      </trkpt>
      <trkpt lat="45.92817" lon="4.70946">
        <ele>197</ele>
        <time>2018-04-27T10:07:11Z</time>
      </trkpt>
      <trkpt lat="45.92823" lon="4.70947">
        <ele>197</ele>
        <time>2018-04-27T10:07:12Z</time>
      </trkpt>
      <trkpt lat="45.92828" lon="4.70944">
        <ele>197</ele>
        <time>2018-04-27T10:07:13Z</time>
      </trkpt>
      <trkpt lat="45.92833" lon="4.70942">
        <ele>197</ele>
        <time>2018-04-27T10:07:14Z</time>
      </trkpt>
      <trkpt lat="45.92838" lon="4.70939">
        <ele>198</ele>
        <time>2018-04-27T10:07:15Z</time>
      </trkpt>
      <trkpt lat="45.92843" lon="4.70939">
        <ele>198</ele>
        <time>2018-04-27T10:07:16Z</time>
      </trkpt>
      <trkpt lat="45.92849" lon="4.70939">
        <ele>198</ele>
        <time>2018-04-27T10:07:17Z</time>
      </trkpt>
      <trkpt lat="45.92855" lon="4.70941">
        <ele>198</ele>
        <time>2018-04-27T10:07:18Z</time>
      </trkpt>
      <trkpt lat="45.92859" lon="4.70941">
        <ele>198</ele>
        <time>2018-04-27T10:07:19Z</time>
      </trkpt>
      <trkpt lat="45.92865" lon="4.70942">
        <ele>198</ele>
        <time>2018-04-27T10:07:20Z</time>
      </trkpt>
      <trkpt lat="45.92872" lon="4.70944">
        <ele>198</ele>
        <time>2018-04-27T10:07:21Z</time>
      </trkpt>
      <trkpt lat="45.92878" lon="4.70944">
        <ele>198</ele>
        <time>2018-04-27T10:07:22Z</time>
      </trkpt>
      <trkpt lat="45.92885" lon="4.70946">
        <ele>198</ele>
        <time>2018-04-27T10:07:23Z</time>
      </trkpt>
      <trkpt lat="45.92892" lon="4.70948">
        <ele>198</ele>
        <time>2018-04-27T10:07:24Z</time>
      </trkpt>
      <trkpt lat="45.92898" lon="4.7095">
        <ele>198</ele>
        <time>2018-04-27T10:07:25Z</time>
      </trkpt>
      <trkpt lat="45.92904" lon="4.7095">
        <ele>198</ele>
        <time>2018-04-27T10:07:26Z</time>
      </trkpt>
      <trkpt lat="45.92909" lon="4.70952">
        <ele>198</ele>
        <time>2018-04-27T10:07:27Z</time>
      </trkpt>
      <trkpt lat="45.92916" lon="4.70954">
        <ele>198</ele>
        <time>2018-04-27T10:07:28Z</time>
      </trkpt>
      <trkpt lat="45.92922" lon="4.70956">
        <ele>198</ele>
        <time>2018-04-27T10:07:29Z</time>
      </trkpt>
      <trkpt lat="45.92929" lon="4.70957">
        <ele>198</ele>
        <time>2018-04-27T10:07:30Z</time>
      </trkpt>
      <trkpt lat="45.92936" lon="4.70959">
        <ele>198</ele>
        <time>2018-04-27T10:07:31Z</time>
      </trkpt>
      <trkpt lat="45.92942" lon="4.70959">
        <ele>198</ele>
        <time>2018-04-27T10:07:32Z</time>
      </trkpt>
      <trkpt lat="45.9295" lon="4.7096">
        <ele>198</ele>
        <time>2018-04-27T10:07:33Z</time>
      </trkpt>
      <trkpt lat="45.92957" lon="4.70963">
        <ele>198</ele>
        <time>2018-04-27T10:07:34Z</time>
      </trkpt>
      <trkpt lat="45.92964" lon="4.70965">
        <ele>198</ele>
        <time>2018-04-27T10:07:35Z</time>
      </trkpt>
      <trkpt lat="45.92971" lon="4.70967">
        <ele>198</ele>
        <time>2018-04-27T10:07:36Z</time>
      </trkpt>
      <trkpt lat="45.92978" lon="4.70969">
        <ele>198</ele>
        <time>2018-04-27T10:07:37Z</time>
      </trkpt>
      <trkpt lat="45.92983" lon="4.70974">
        <ele>198</ele>
        <time>2018-04-27T10:07:38Z</time>
      </trkpt>
      <trkpt lat="45.92991" lon="4.70974">
        <ele>198</ele>
        <time>2018-04-27T10:07:39Z</time>
      </trkpt>
      <trkpt lat="45.92997" lon="4.70979">
        <ele>198</ele>
        <time>2018-04-27T10:07:40Z</time>
      </trkpt>
      <trkpt lat="45.93005" lon="4.70982">
        <ele>198</ele>
        <time>2018-04-27T10:07:41Z</time>
      </trkpt>
      <trkpt lat="45.93011" lon="4.70985">
        <ele>198</ele>
        <time>2018-04-27T10:07:42Z</time>
      </trkpt>
      <trkpt lat="45.93019" lon="4.70991">
        <ele>198</ele>
        <time>2018-04-27T10:07:43Z</time>
      </trkpt>
      <trkpt lat="45.93026" lon="4.70994">
        <ele>198</ele>
        <time>2018-04-27T10:07:44Z</time>
      </trkpt>
      <trkpt lat="45.93032" lon="4.70999">
        <ele>198</ele>
        <time>2018-04-27T10:07:45Z</time>
      </trkpt>
      <trkpt lat="45.9304" lon="4.71003">
        <ele>197</ele>
        <time>2018-04-27T10:07:46Z</time>
      </trkpt>
      <trkpt lat="45.93048" lon="4.71006">
        <ele>197</ele>
        <time>2018-04-27T10:07:47Z</time>
      </trkpt>
      <trkpt lat="45.93054" lon="4.71011">
        <ele>197</ele>
        <time>2018-04-27T10:07:48Z</time>
      </trkpt>
      <trkpt lat="45.93061" lon="4.71017">
        <ele>197</ele>
        <time>2018-04-27T10:07:49Z</time>
      </trkpt>
      <trkpt lat="45.93068" lon="4.71023">
        <ele>197</ele>
        <time>2018-04-27T10:07:50Z</time>
      </trkpt>
      <trkpt lat="45.93074" lon="4.7103">
        <ele>197</ele>
        <time>2018-04-27T10:07:51Z</time>
      </trkpt>
      <trkpt lat="45.9308" lon="4.71037">
        <ele>196</ele>
        <time>2018-04-27T10:07:52Z</time>
      </trkpt>
      <trkpt lat="45.93086" lon="4.71045">
        <ele>196</ele>
        <time>2018-04-27T10:07:53Z</time>
      </trkpt>
      <trkpt lat="45.93092" lon="4.71053">
        <ele>196</ele>
        <time>2018-04-27T10:07:54Z</time>
      </trkpt>
      <trkpt lat="45.93097" lon="4.71061">
        <ele>195</ele>
        <time>2018-04-27T10:07:55Z</time>
      </trkpt>
      <trkpt lat="45.93103" lon="4.7107">
        <ele>195</ele>
        <time>2018-04-27T10:07:56Z</time>
      </trkpt>
      <trkpt lat="45.93107" lon="4.71079">
        <ele>195</ele>
        <time>2018-04-27T10:07:57Z</time>
      </trkpt>
      <trkpt lat="45.93112" lon="4.71088">
        <ele>193</ele>
        <time>2018-04-27T10:07:58Z</time>
      </trkpt>
      <trkpt lat="45.93118" lon="4.71096">
        <ele>193</ele>
        <time>2018-04-27T10:07:59Z</time>
      </trkpt>
      <trkpt lat="45.93124" lon="4.71105">
        <ele>192</ele>
        <time>2018-04-27T10:08:00Z</time>
      </trkpt>
      <trkpt lat="45.93129" lon="4.71114">
        <ele>192</ele>
        <time>2018-04-27T10:08:01Z</time>
      </trkpt>
      <trkpt lat="45.93133" lon="4.71125">
        <ele>192</ele>
        <time>2018-04-27T10:08:02Z</time>
      </trkpt>
      <trkpt lat="45.93137" lon="4.71134">
        <ele>192</ele>
        <time>2018-04-27T10:08:03Z</time>
      </trkpt>
      <trkpt lat="45.93142" lon="4.71145">
        <ele>191</ele>
        <time>2018-04-27T10:08:04Z</time>
      </trkpt>
      <trkpt lat="45.93146" lon="4.71155">
        <ele>191</ele>
        <time>2018-04-27T10:08:05Z</time>
      </trkpt>
      <trkpt lat="45.9315" lon="4.71166">
        <ele>191</ele>
        <time>2018-04-27T10:08:06Z</time>
      </trkpt>
      <trkpt lat="45.93155" lon="4.71176">
        <ele>190</ele>
        <time>2018-04-27T10:08:07Z</time>
      </trkpt>
      <trkpt lat="45.93159" lon="4.71185">
        <ele>190</ele>
        <time>2018-04-27T10:08:08Z</time>
      </trkpt>
      <trkpt lat="45.93163" lon="4.71194">
        <ele>190</ele>
        <time>2018-04-27T10:08:09Z</time>
      </trkpt>
      <trkpt lat="45.93168" lon="4.71204">
        <ele>190</ele>
        <time>2018-04-27T10:08:10Z</time>
      </trkpt>
      <trkpt lat="45.93173" lon="4.71214">
        <ele>190</ele>
        <time>2018-04-27T10:08:11Z</time>
      </trkpt>
      <trkpt lat="45.93178" lon="4.71224">
        <ele>190</ele>
        <time>2018-04-27T10:08:12Z</time>
      </trkpt>
      <trkpt lat="45.93183" lon="4.71233">
        <ele>190</ele>
        <time>2018-04-27T10:08:13Z</time>
      </trkpt>
      <trkpt lat="45.93187" lon="4.71243">
        <ele>190</ele>
        <time>2018-04-27T10:08:14Z</time>
      </trkpt>
      <trkpt lat="45.93192" lon="4.71253">
        <ele>189</ele>
        <time>2018-04-27T10:08:15Z</time>
      </trkpt>
      <trkpt lat="45.93197" lon="4.71261">
        <ele>189</ele>
        <time>2018-04-27T10:08:16Z</time>
      </trkpt>
      <trkpt lat="45.932" lon="4.71271">
        <ele>188</ele>
        <time>2018-04-27T10:08:17Z</time>
      </trkpt>
      <trkpt lat="45.93205" lon="4.71281">
        <ele>188</ele>
        <time>2018-04-27T10:08:18Z</time>
      </trkpt>
      <trkpt lat="45.93209" lon="4.7129">
        <ele>188</ele>
        <time>2018-04-27T10:08:19Z</time>
      </trkpt>
      <trkpt lat="45.93213" lon="4.71299">
        <ele>188</ele>
        <time>2018-04-27T10:08:20Z</time>
      </trkpt>
      <trkpt lat="45.93216" lon="4.71309">
        <ele>188</ele>
        <time>2018-04-27T10:08:21Z</time>
      </trkpt>
      <trkpt lat="45.9322" lon="4.71318">
        <ele>187</ele>
        <time>2018-04-27T10:08:22Z</time>
      </trkpt>
      <trkpt lat="45.93224" lon="4.71327">
        <ele>187</ele>
        <time>2018-04-27T10:08:23Z</time>
      </trkpt>
      <trkpt lat="45.93228" lon="4.71338">
        <ele>186</ele>
        <time>2018-04-27T10:08:24Z</time>
      </trkpt>
      <trkpt lat="45.93232" lon="4.71347">
        <ele>186</ele>
        <time>2018-04-27T10:08:25Z</time>
      </trkpt>
      <trkpt lat="45.93235" lon="4.71356">
        <ele>186</ele>
        <time>2018-04-27T10:08:26Z</time>
      </trkpt>
      <trkpt lat="45.93239" lon="4.71365">
        <ele>186</ele>
        <time>2018-04-27T10:08:27Z</time>
      </trkpt>
      <trkpt lat="45.93243" lon="4.71374">
        <ele>186</ele>
        <time>2018-04-27T10:08:28Z</time>
      </trkpt>
      <trkpt lat="45.93247" lon="4.71383">
        <ele>186</ele>
        <time>2018-04-27T10:08:29Z</time>
      </trkpt>
      <trkpt lat="45.93251" lon="4.71391">
        <ele>186</ele>
        <time>2018-04-27T10:08:30Z</time>
      </trkpt>
      <trkpt lat="45.93255" lon="4.71399">
        <ele>186</ele>
        <time>2018-04-27T10:08:31Z</time>
      </trkpt>
      <trkpt lat="45.93258" lon="4.71406">
        <ele>186</ele>
        <time>2018-04-27T10:08:32Z</time>
      </trkpt>
      <trkpt lat="45.93262" lon="4.71415">
        <ele>186</ele>
        <time>2018-04-27T10:08:33Z</time>
      </trkpt>
      <trkpt lat="45.93267" lon="4.71424">
        <ele>186</ele>
        <time>2018-04-27T10:08:34Z</time>
      </trkpt>
      <trkpt lat="45.93271" lon="4.71435">
        <ele>185</ele>
        <time>2018-04-27T10:08:35Z</time>
      </trkpt>
      <trkpt lat="45.93275" lon="4.71443">
        <ele>185</ele>
        <time>2018-04-27T10:08:36Z</time>
      </trkpt>
      <trkpt lat="45.93278" lon="4.71451">
        <ele>185</ele>
        <time>2018-04-27T10:08:37Z</time>
      </trkpt>
      <trkpt lat="45.93282" lon="4.7146">
        <ele>185</ele>
        <time>2018-04-27T10:08:38Z</time>
      </trkpt>
      <trkpt lat="45.93285" lon="4.71468">
        <ele>185</ele>
        <time>2018-04-27T10:08:39Z</time>
      </trkpt>
      <trkpt lat="45.93289" lon="4.71476">
        <ele>185</ele>
        <time>2018-04-27T10:08:40Z</time>
      </trkpt>
      <trkpt lat="45.93291" lon="4.71482">
        <ele>185</ele>
        <time>2018-04-27T10:08:41Z</time>
      </trkpt>
      <trkpt lat="45.93295" lon="4.71489">
        <ele>185</ele>
        <time>2018-04-27T10:08:42Z</time>
      </trkpt>
      <trkpt lat="45.93298" lon="4.71495">
        <ele>185</ele>
        <time>2018-04-27T10:08:43Z</time>
      </trkpt>
      <trkpt lat="45.93301" lon="4.71502">
        <ele>184</ele>
        <time>2018-04-27T10:08:44Z</time>
      </trkpt>
      <trkpt lat="45.93304" lon="4.71508">
        <ele>184</ele>
        <time>2018-04-27T10:08:45Z</time>
      </trkpt>
      <trkpt lat="45.93306" lon="4.71514">
        <ele>184</ele>
        <time>2018-04-27T10:08:46Z</time>
      </trkpt>
      <trkpt lat="45.93309" lon="4.71522">
        <ele>184</ele>
        <time>2018-04-27T10:08:47Z</time>
      </trkpt>
      <trkpt lat="45.93312" lon="4.71528">
        <ele>184</ele>
        <time>2018-04-27T10:08:48Z</time>
      </trkpt>
      <trkpt lat="45.93315" lon="4.71535">
        <ele>184</ele>
        <time>2018-04-27T10:08:49Z</time>
      </trkpt>
      <trkpt lat="45.93318" lon="4.71543">
        <ele>184</ele>
        <time>2018-04-27T10:08:50Z</time>
      </trkpt>
      <trkpt lat="45.93322" lon="4.71549">
        <ele>184</ele>
        <time>2018-04-27T10:08:51Z</time>
      </trkpt>
      <trkpt lat="45.93325" lon="4.71557">
        <ele>184</ele>
        <time>2018-04-27T10:08:52Z</time>
      </trkpt>
      <trkpt lat="45.93328" lon="4.71564">
        <ele>185</ele>
        <time>2018-04-27T10:08:53Z</time>
      </trkpt>
      <trkpt lat="45.93331" lon="4.71571">
        <ele>185</ele>
        <time>2018-04-27T10:08:54Z</time>
      </trkpt>
      <trkpt lat="45.93334" lon="4.71579">
        <ele>185</ele>
        <time>2018-04-27T10:08:55Z</time>
      </trkpt>
      <trkpt lat="45.93337" lon="4.71586">
        <ele>185</ele>
        <time>2018-04-27T10:08:56Z</time>
      </trkpt>
      <trkpt lat="45.93342" lon="4.71594">
        <ele>185</ele>
        <time>2018-04-27T10:08:57Z</time>
      </trkpt>
      <trkpt lat="45.93345" lon="4.71602">
        <ele>185</ele>
        <time>2018-04-27T10:08:58Z</time>
      </trkpt>
      <trkpt lat="45.93348" lon="4.7161">
        <ele>185</ele>
        <time>2018-04-27T10:08:59Z</time>
      </trkpt>
      <trkpt lat="45.93352" lon="4.71618">
        <ele>185</ele>
        <time>2018-04-27T10:09:00Z</time>
      </trkpt>
      <trkpt lat="45.93356" lon="4.71626">
        <ele>185</ele>
        <time>2018-04-27T10:09:01Z</time>
      </trkpt>
      <trkpt lat="45.93359" lon="4.71634">
        <ele>185</ele>
        <time>2018-04-27T10:09:02Z</time>
      </trkpt>
      <trkpt lat="45.93362" lon="4.71642">
        <ele>185</ele>
        <time>2018-04-27T10:09:03Z</time>
      </trkpt>
      <trkpt lat="45.93366" lon="4.71649">
        <ele>185</ele>
        <time>2018-04-27T10:09:04Z</time>
      </trkpt>
      <trkpt lat="45.93369" lon="4.71656">
        <ele>185</ele>
        <time>2018-04-27T10:09:05Z</time>
      </trkpt>
      <trkpt lat="45.93373" lon="4.71663">
        <ele>185</ele>
        <time>2018-04-27T10:09:06Z</time>
      </trkpt>
      <trkpt lat="45.93376" lon="4.71672">
        <ele>185</ele>
        <time>2018-04-27T10:09:07Z</time>
      </trkpt>
      <trkpt lat="45.93379" lon="4.7168">
        <ele>185</ele>
        <time>2018-04-27T10:09:08Z</time>
      </trkpt>
      <trkpt lat="45.93385" lon="4.71689">
        <ele>184</ele>
        <time>2018-04-27T10:09:09Z</time>
      </trkpt>
      <trkpt lat="45.93389" lon="4.71698">
        <ele>184</ele>
        <time>2018-04-27T10:09:10Z</time>
      </trkpt>
      <trkpt lat="45.93392" lon="4.71706">
        <ele>184</ele>
        <time>2018-04-27T10:09:11Z</time>
      </trkpt>
      <trkpt lat="45.93396" lon="4.71715">
        <ele>184</ele>
        <time>2018-04-27T10:09:12Z</time>
      </trkpt>
      <trkpt lat="45.934" lon="4.71725">
        <ele>184</ele>
        <time>2018-04-27T10:09:13Z</time>
      </trkpt>
      <trkpt lat="45.93403" lon="4.71734">
        <ele>184</ele>
        <time>2018-04-27T10:09:14Z</time>
      </trkpt>
      <trkpt lat="45.93407" lon="4.71744">
        <ele>184</ele>
        <time>2018-04-27T10:09:15Z</time>
      </trkpt>
      <trkpt lat="45.93411" lon="4.71753">
        <ele>183</ele>
        <time>2018-04-27T10:09:16Z</time>
      </trkpt>
      <trkpt lat="45.93416" lon="4.71762">
        <ele>183</ele>
        <time>2018-04-27T10:09:17Z</time>
      </trkpt>
      <trkpt lat="45.93421" lon="4.7177">
        <ele>182</ele>
        <time>2018-04-27T10:09:18Z</time>
      </trkpt>
      <trkpt lat="45.93426" lon="4.7178">
        <ele>182</ele>
        <time>2018-04-27T10:09:19Z</time>
      </trkpt>
      <trkpt lat="45.9343" lon="4.71787">
        <ele>182</ele>
        <time>2018-04-27T10:09:20Z</time>
      </trkpt>
      <trkpt lat="45.93435" lon="4.71798">
        <ele>182</ele>
        <time>2018-04-27T10:09:21Z</time>
      </trkpt>
      <trkpt lat="45.93441" lon="4.71809">
        <ele>182</ele>
        <time>2018-04-27T10:09:22Z</time>
      </trkpt>
      <trkpt lat="45.93446" lon="4.7182">
        <ele>182</ele>
        <time>2018-04-27T10:09:23Z</time>
      </trkpt>
      <trkpt lat="45.93451" lon="4.71829">
        <ele>182</ele>
        <time>2018-04-27T10:09:24Z</time>
      </trkpt>
      <trkpt lat="45.93456" lon="4.71838">
        <ele>181</ele>
        <time>2018-04-27T10:09:25Z</time>
      </trkpt>
      <trkpt lat="45.93462" lon="4.71845">
        <ele>180</ele>
        <time>2018-04-27T10:09:26Z</time>
      </trkpt>
      <trkpt lat="45.93471" lon="4.71849">
        <ele>180</ele>
        <time>2018-04-27T10:09:27Z</time>
      </trkpt>
      <trkpt lat="45.93477" lon="4.71851">
        <ele>180</ele>
        <time>2018-04-27T10:09:28Z</time>
      </trkpt>
      <trkpt lat="45.93486" lon="4.71851">
        <ele>180</ele>
        <time>2018-04-27T10:09:29Z</time>
      </trkpt>
      <trkpt lat="45.93494" lon="4.7185">
        <ele>180</ele>
        <time>2018-04-27T10:09:30Z</time>
      </trkpt>
      <trkpt lat="45.93502" lon="4.7185">
        <ele>179</ele>
        <time>2018-04-27T10:09:31Z</time>
      </trkpt>
      <trkpt lat="45.93511" lon="4.71848">
        <ele>179</ele>
        <time>2018-04-27T10:09:35Z</time>
      </trkpt>
      <trkpt lat="45.93512" lon="4.71845">
        <ele>179</ele>
        <time>2018-04-27T10:09:36Z</time>
      </trkpt>
      <trkpt lat="45.93519" lon="4.71839">
        <ele>179</ele>
        <time>2018-04-27T10:09:37Z</time>
      </trkpt>
      <trkpt lat="45.93523" lon="4.71839">
        <ele>179</ele>
        <time>2018-04-27T10:09:38Z</time>
      </trkpt>
      <trkpt lat="45.93528" lon="4.71839">
        <ele>179</ele>
        <time>2018-04-27T10:09:39Z</time>
      </trkpt>
      <trkpt lat="45.93533" lon="4.71839">
        <ele>179</ele>
        <time>2018-04-27T10:09:40Z</time>
      </trkpt>
      <trkpt lat="45.93538" lon="4.71839">
        <ele>179</ele>
        <time>2018-04-27T10:09:41Z</time>
      </trkpt>
      <trkpt lat="45.93543" lon="4.71835">
        <ele>179</ele>
        <time>2018-04-27T10:09:42Z</time>
      </trkpt>
      <trkpt lat="45.9355" lon="4.71833">
        <ele>180</ele>
        <time>2018-04-27T10:09:43Z</time>
      </trkpt>
      <trkpt lat="45.93559" lon="4.7183">
        <ele>180</ele>
        <time>2018-04-27T10:09:44Z</time>
      </trkpt>
      <trkpt lat="45.93564" lon="4.71828">
        <ele>180</ele>
        <time>2018-04-27T10:09:45Z</time>
      </trkpt>
      <trkpt lat="45.93571" lon="4.71827">
        <ele>180</ele>
        <time>2018-04-27T10:09:46Z</time>
      </trkpt>
      <trkpt lat="45.93578" lon="4.71825">
        <ele>180</ele>
        <time>2018-04-27T10:09:47Z</time>
      </trkpt>
      <trkpt lat="45.93585" lon="4.71825">
        <ele>180</ele>
        <time>2018-04-27T10:09:48Z</time>
      </trkpt>
      <trkpt lat="45.93592" lon="4.71824">
        <ele>180</ele>
        <time>2018-04-27T10:09:49Z</time>
      </trkpt>
      <trkpt lat="45.93598" lon="4.71823">
        <ele>179</ele>
        <time>2018-04-27T10:09:50Z</time>
      </trkpt>
      <trkpt lat="45.93603" lon="4.71817">
        <ele>179</ele>
        <time>2018-04-27T10:09:51Z</time>
      </trkpt>
      <trkpt lat="45.93609" lon="4.71813">
        <ele>179</ele>
        <time>2018-04-27T10:09:52Z</time>
      </trkpt>
      <trkpt lat="45.93615" lon="4.71808">
        <ele>179</ele>
        <time>2018-04-27T10:09:53Z</time>
      </trkpt>
      <trkpt lat="45.9362" lon="4.71804">
        <ele>179</ele>
        <time>2018-04-27T10:09:54Z</time>
      </trkpt>
      <trkpt lat="45.93625" lon="4.71799">
        <ele>179</ele>
        <time>2018-04-27T10:09:55Z</time>
      </trkpt>
      <trkpt lat="45.9363" lon="4.71798">
        <ele>179</ele>
        <time>2018-04-27T10:09:56Z</time>
      </trkpt>
      <trkpt lat="45.93636" lon="4.71796">
        <ele>179</ele>
        <time>2018-04-27T10:09:57Z</time>
      </trkpt>
      <trkpt lat="45.93643" lon="4.71793">
        <ele>179</ele>
        <time>2018-04-27T10:09:58Z</time>
      </trkpt>
      <trkpt lat="45.93649" lon="4.71792">
        <ele>179</ele>
        <time>2018-04-27T10:09:59Z</time>
      </trkpt>
      <trkpt lat="45.93655" lon="4.7179">
        <ele>179</ele>
        <time>2018-04-27T10:10:00Z</time>
      </trkpt>
      <trkpt lat="45.93661" lon="4.71788">
        <ele>179</ele>
        <time>2018-04-27T10:10:01Z</time>
      </trkpt>
      <trkpt lat="45.93667" lon="4.71786">
        <ele>177</ele>
        <time>2018-04-27T10:10:02Z</time>
      </trkpt>
      <trkpt lat="45.93674" lon="4.71783">
        <ele>177</ele>
        <time>2018-04-27T10:10:03Z</time>
      </trkpt>
      <trkpt lat="45.93679" lon="4.71783">
        <ele>177</ele>
        <time>2018-04-27T10:10:04Z</time>
      </trkpt>
      <trkpt lat="45.93683" lon="4.71784">
        <ele>177</ele>
        <time>2018-04-27T10:10:06Z</time>
      </trkpt>
      <trkpt lat="45.9369" lon="4.71785">
        <ele>177</ele>
        <time>2018-04-27T10:10:07Z</time>
      </trkpt>
      <trkpt lat="45.93692" lon="4.71792">
        <ele>177</ele>
        <time>2018-04-27T10:10:08Z</time>
      </trkpt>
      <trkpt lat="45.93692" lon="4.71799">
        <ele>176</ele>
        <time>2018-04-27T10:10:09Z</time>
      </trkpt>
      <trkpt lat="45.93693" lon="4.71806">
        <ele>176</ele>
        <time>2018-04-27T10:10:10Z</time>
      </trkpt>
      <trkpt lat="45.93694" lon="4.71813">
        <ele>176</ele>
        <time>2018-04-27T10:10:11Z</time>
      </trkpt>
      <trkpt lat="45.93695" lon="4.71824">
        <ele>176</ele>
        <time>2018-04-27T10:10:13Z</time>
      </trkpt>
      <trkpt lat="45.93695" lon="4.71826">
        <ele>176</ele>
        <time>2018-04-27T10:10:14Z</time>
      </trkpt>
      <trkpt lat="45.93696" lon="4.71838">
        <ele>175</ele>
        <time>2018-04-27T10:10:18Z</time>
      </trkpt>
      <trkpt lat="45.93696" lon="4.71848">
        <ele>175</ele>
        <time>2018-04-27T10:10:19Z</time>
      </trkpt>
      <trkpt lat="45.93691" lon="4.71859">
        <ele>175</ele>
        <time>2018-04-27T10:10:21Z</time>
      </trkpt>
      <trkpt lat="45.93688" lon="4.71865">
        <ele>175</ele>
        <time>2018-04-27T10:10:22Z</time>
      </trkpt>
      <trkpt lat="45.93682" lon="4.71874">
        <ele>175</ele>
        <time>2018-04-27T10:10:24Z</time>
      </trkpt>
      <trkpt lat="45.93681" lon="4.71881">
        <ele>175</ele>
        <time>2018-04-27T10:10:25Z</time>
      </trkpt>
      <trkpt lat="45.93679" lon="4.71889">
        <ele>175</ele>
        <time>2018-04-27T10:10:27Z</time>
      </trkpt>
      <trkpt lat="45.93674" lon="4.71903">
        <ele>175</ele>
        <time>2018-04-27T10:10:28Z</time>
      </trkpt>
      <trkpt lat="45.93672" lon="4.71909">
        <ele>175</ele>
        <time>2018-04-27T10:10:29Z</time>
      </trkpt>
      <trkpt lat="45.93671" lon="4.71916">
        <ele>175</ele>
        <time>2018-04-27T10:10:30Z</time>
      </trkpt>
      <trkpt lat="45.93667" lon="4.71923">
        <ele>174</ele>
        <time>2018-04-27T10:10:31Z</time>
      </trkpt>
      <trkpt lat="45.93662" lon="4.71931">
        <ele>175</ele>
        <time>2018-04-27T10:10:32Z</time>
      </trkpt>
      <trkpt lat="45.93659" lon="4.71939">
        <ele>175</ele>
        <time>2018-04-27T10:10:33Z</time>
      </trkpt>
      <trkpt lat="45.93655" lon="4.71946">
        <ele>175</ele>
        <time>2018-04-27T10:10:34Z</time>
      </trkpt>
      <trkpt lat="45.93651" lon="4.71952">
        <ele>175</ele>
        <time>2018-04-27T10:10:35Z</time>
      </trkpt>
      <trkpt lat="45.93649" lon="4.71961">
        <ele>175</ele>
        <time>2018-04-27T10:10:36Z</time>
      </trkpt>
      <trkpt lat="45.93644" lon="4.71971">
        <ele>175</ele>
        <time>2018-04-27T10:10:37Z</time>
      </trkpt>
      <trkpt lat="45.9364" lon="4.71977">
        <ele>175</ele>
        <time>2018-04-27T10:10:38Z</time>
      </trkpt>
      <trkpt lat="45.93637" lon="4.71983">
        <ele>175</ele>
        <time>2018-04-27T10:10:39Z</time>
      </trkpt>
      <trkpt lat="45.93634" lon="4.7199">
        <ele>175</ele>
        <time>2018-04-27T10:10:40Z</time>
      </trkpt>
      <trkpt lat="45.93633" lon="4.71997">
        <ele>175</ele>
        <time>2018-04-27T10:10:41Z</time>
      </trkpt>
      <trkpt lat="45.9363" lon="4.72004">
        <ele>175</ele>
        <time>2018-04-27T10:10:42Z</time>
      </trkpt>
      <trkpt lat="45.93627" lon="4.72009">
        <ele>175</ele>
        <time>2018-04-27T10:10:43Z</time>
      </trkpt>
      <trkpt lat="45.93624" lon="4.72017">
        <ele>175</ele>
        <time>2018-04-27T10:10:44Z</time>
      </trkpt>
      <trkpt lat="45.93622" lon="4.72022">
        <ele>175</ele>
        <time>2018-04-27T10:10:45Z</time>
      </trkpt>
      <trkpt lat="45.93621" lon="4.72031">
        <ele>175</ele>
        <time>2018-04-27T10:10:46Z</time>
      </trkpt>
      <trkpt lat="45.93619" lon="4.72038">
        <ele>175</ele>
        <time>2018-04-27T10:10:47Z</time>
      </trkpt>
      <trkpt lat="45.93619" lon="4.72044">
        <ele>175</ele>
        <time>2018-04-27T10:10:48Z</time>
      </trkpt>
      <trkpt lat="45.93613" lon="4.72047">
        <ele>175</ele>
        <time>2018-04-27T10:10:49Z</time>
      </trkpt>
      <trkpt lat="45.93609" lon="4.7205">
        <ele>175</ele>
        <time>2018-04-27T10:10:50Z</time>
      </trkpt>
      <trkpt lat="45.93609" lon="4.72056">
        <ele>175</ele>
        <time>2018-04-27T10:10:51Z</time>
      </trkpt>
      <trkpt lat="45.93606" lon="4.72063">
        <ele>175</ele>
        <time>2018-04-27T10:10:52Z</time>
      </trkpt>
      <trkpt lat="45.93602" lon="4.72071">
        <ele>175</ele>
        <time>2018-04-27T10:10:53Z</time>
      </trkpt>
      <trkpt lat="45.936" lon="4.72079">
        <ele>175</ele>
        <time>2018-04-27T10:10:54Z</time>
      </trkpt>
      <trkpt lat="45.93601" lon="4.72088">
        <ele>175</ele>
        <time>2018-04-27T10:10:55Z</time>
      </trkpt>
      <trkpt lat="45.93596" lon="4.72093">
        <ele>175</ele>
        <time>2018-04-27T10:10:56Z</time>
      </trkpt>
      <trkpt lat="45.93597" lon="4.72101">
        <ele>174</ele>
        <time>2018-04-27T10:10:57Z</time>
      </trkpt>
      <trkpt lat="45.93594" lon="4.72106">
        <ele>174</ele>
        <time>2018-04-27T10:10:58Z</time>
      </trkpt>
      <trkpt lat="45.9359" lon="4.72111">
        <ele>174</ele>
        <time>2018-04-27T10:10:59Z</time>
      </trkpt>
      <trkpt lat="45.93583" lon="4.72117">
        <ele>175</ele>
        <time>2018-04-27T10:11:00Z</time>
      </trkpt>
      <trkpt lat="45.93579" lon="4.72119">
        <ele>175</ele>
        <time>2018-04-27T10:11:01Z</time>
      </trkpt>
      <trkpt lat="45.93574" lon="4.72125">
        <ele>174</ele>
        <time>2018-04-27T10:11:02Z</time>
      </trkpt>
      <trkpt lat="45.93569" lon="4.7213">
        <ele>174</ele>
        <time>2018-04-27T10:11:03Z</time>
      </trkpt>
      <trkpt lat="45.93568" lon="4.72141">
        <ele>174</ele>
        <time>2018-04-27T10:11:04Z</time>
      </trkpt>
      <trkpt lat="45.93566" lon="4.7215">
        <ele>174</ele>
        <time>2018-04-27T10:11:05Z</time>
      </trkpt>
      <trkpt lat="45.93561" lon="4.72158">
        <ele>174</ele>
        <time>2018-04-27T10:11:06Z</time>
      </trkpt>
      <trkpt lat="45.93559" lon="4.72166">
        <ele>174</ele>
        <time>2018-04-27T10:11:07Z</time>
      </trkpt>
      <trkpt lat="45.93556" lon="4.72178">
        <ele>173</ele>
        <time>2018-04-27T10:11:08Z</time>
      </trkpt>
      <trkpt lat="45.93553" lon="4.72185">
        <ele>173</ele>
        <time>2018-04-27T10:11:09Z</time>
      </trkpt>
      <trkpt lat="45.93552" lon="4.72194">
        <ele>173</ele>
        <time>2018-04-27T10:11:10Z</time>
      </trkpt>
      <trkpt lat="45.93549" lon="4.722">
        <ele>173</ele>
        <time>2018-04-27T10:11:11Z</time>
      </trkpt>
      <trkpt lat="45.93546" lon="4.72207">
        <ele>173</ele>
        <time>2018-04-27T10:11:12Z</time>
      </trkpt>
      <trkpt lat="45.93543" lon="4.72213">
        <ele>172</ele>
        <time>2018-04-27T10:11:13Z</time>
      </trkpt>
      <trkpt lat="45.9354" lon="4.72219">
        <ele>172</ele>
        <time>2018-04-27T10:11:14Z</time>
      </trkpt>
      <trkpt lat="45.93537" lon="4.72225">
        <ele>172</ele>
        <time>2018-04-27T10:11:15Z</time>
      </trkpt>
      <trkpt lat="45.93534" lon="4.72233">
        <ele>172</ele>
        <time>2018-04-27T10:11:16Z</time>
      </trkpt>
      <trkpt lat="45.93532" lon="4.72239">
        <ele>172</ele>
        <time>2018-04-27T10:11:17Z</time>
      </trkpt>
      <trkpt lat="45.93528" lon="4.72243">
        <ele>172</ele>
        <time>2018-04-27T10:11:18Z</time>
      </trkpt>
      <trkpt lat="45.93526" lon="4.7225">
        <ele>172</ele>
        <time>2018-04-27T10:11:19Z</time>
      </trkpt>
      <trkpt lat="45.93525" lon="4.72258">
        <ele>172</ele>
        <time>2018-04-27T10:11:20Z</time>
      </trkpt>
      <trkpt lat="45.93522" lon="4.72264">
        <ele>172</ele>
        <time>2018-04-27T10:11:21Z</time>
      </trkpt>
      <trkpt lat="45.93519" lon="4.72271">
        <ele>172</ele>
        <time>2018-04-27T10:11:22Z</time>
      </trkpt>
      <trkpt lat="45.93519" lon="4.7228">
        <ele>172</ele>
        <time>2018-04-27T10:11:23Z</time>
      </trkpt>
      <trkpt lat="45.93516" lon="4.72286">
        <ele>172</ele>
        <time>2018-04-27T10:11:24Z</time>
      </trkpt>
      <trkpt lat="45.93514" lon="4.72293">
        <ele>172</ele>
        <time>2018-04-27T10:11:25Z</time>
      </trkpt>
      <trkpt lat="45.93511" lon="4.723">
        <ele>172</ele>
        <time>2018-04-27T10:11:26Z</time>
      </trkpt>
      <trkpt lat="45.93507" lon="4.72308">
        <ele>173</ele>
        <time>2018-04-27T10:11:27Z</time>
      </trkpt>
      <trkpt lat="45.93504" lon="4.72315">
        <ele>173</ele>
        <time>2018-04-27T10:11:28Z</time>
      </trkpt>
      <trkpt lat="45.93499" lon="4.7232">
        <ele>173</ele>
        <time>2018-04-27T10:11:29Z</time>
      </trkpt>
      <trkpt lat="45.93494" lon="4.72325">
        <ele>173</ele>
        <time>2018-04-27T10:11:30Z</time>
      </trkpt>
      <trkpt lat="45.93491" lon="4.72334">
        <ele>173</ele>
        <time>2018-04-27T10:11:31Z</time>
      </trkpt>
      <trkpt lat="45.93486" lon="4.72341">
        <ele>173</ele>
        <time>2018-04-27T10:11:32Z</time>
      </trkpt>
      <trkpt lat="45.93483" lon="4.72345">
        <ele>173</ele>
        <time>2018-04-27T10:11:33Z</time>
      </trkpt>
      <trkpt lat="45.93479" lon="4.72351">
        <ele>173</ele>
        <time>2018-04-27T10:11:34Z</time>
      </trkpt>
      <trkpt lat="45.93474" lon="4.72357">
        <ele>173</ele>
        <time>2018-04-27T10:11:35Z</time>
      </trkpt>
      <trkpt lat="45.93471" lon="4.72361">
        <ele>173</ele>
        <time>2018-04-27T10:11:36Z</time>
      </trkpt>
      <trkpt lat="45.93466" lon="4.72365">
        <ele>173</ele>
        <time>2018-04-27T10:11:37Z</time>
      </trkpt>
      <trkpt lat="45.93463" lon="4.72371">
        <ele>173</ele>
        <time>2018-04-27T10:11:38Z</time>
      </trkpt>
      <trkpt lat="45.93458" lon="4.72376">
        <ele>173</ele>
        <time>2018-04-27T10:11:39Z</time>
      </trkpt>
      <trkpt lat="45.93453" lon="4.72382">
        <ele>173</ele>
        <time>2018-04-27T10:11:40Z</time>
      </trkpt>
      <trkpt lat="45.93448" lon="4.72385">
        <ele>173</ele>
        <time>2018-04-27T10:11:41Z</time>
      </trkpt>
      <trkpt lat="45.93443" lon="4.72389">
        <ele>173</ele>
        <time>2018-04-27T10:11:42Z</time>
      </trkpt>
      <trkpt lat="45.93437" lon="4.72392">
        <ele>173</ele>
        <time>2018-04-27T10:11:43Z</time>
      </trkpt>
      <trkpt lat="45.93432" lon="4.72396">
        <ele>173</ele>
        <time>2018-04-27T10:11:44Z</time>
      </trkpt>
      <trkpt lat="45.93426" lon="4.72397">
        <ele>174</ele>
        <time>2018-04-27T10:11:45Z</time>
      </trkpt>
      <trkpt lat="45.93421" lon="4.724">
        <ele>174</ele>
        <time>2018-04-27T10:11:46Z</time>
      </trkpt>
      <trkpt lat="45.93416" lon="4.72402">
        <ele>174</ele>
        <time>2018-04-27T10:11:47Z</time>
      </trkpt>
      <trkpt lat="45.93412" lon="4.72403">
        <ele>174</ele>
        <time>2018-04-27T10:11:48Z</time>
      </trkpt>
      <trkpt lat="45.93406" lon="4.72404">
        <ele>174</ele>
        <time>2018-04-27T10:11:49Z</time>
      </trkpt>
      <trkpt lat="45.93401" lon="4.72403">
        <ele>174</ele>
        <time>2018-04-27T10:11:50Z</time>
      </trkpt>
      <trkpt lat="45.93396" lon="4.72402">
        <ele>174</ele>
        <time>2018-04-27T10:11:51Z</time>
      </trkpt>
      <trkpt lat="45.93392" lon="4.72402">
        <ele>174</ele>
        <time>2018-04-27T10:11:52Z</time>
      </trkpt>
      <trkpt lat="45.93387" lon="4.72405">
        <ele>174</ele>
        <time>2018-04-27T10:11:53Z</time>
      </trkpt>
      <trkpt lat="45.93384" lon="4.72409">
        <ele>174</ele>
        <time>2018-04-27T10:11:54Z</time>
      </trkpt>
      <trkpt lat="45.93382" lon="4.72416">
        <ele>174</ele>
        <time>2018-04-27T10:11:55Z</time>
      </trkpt>
      <trkpt lat="45.93381" lon="4.72422">
        <ele>173</ele>
        <time>2018-04-27T10:11:56Z</time>
      </trkpt>
      <trkpt lat="45.93384" lon="4.7243">
        <ele>173</ele>
        <time>2018-04-27T10:11:57Z</time>
      </trkpt>
      <trkpt lat="45.93386" lon="4.72436">
        <ele>173</ele>
        <time>2018-04-27T10:11:58Z</time>
      </trkpt>
      <trkpt lat="45.93389" lon="4.72443">
        <ele>173</ele>
        <time>2018-04-27T10:11:59Z</time>
      </trkpt>
      <trkpt lat="45.9339" lon="4.72449">
        <ele>173</ele>
        <time>2018-04-27T10:12:00Z</time>
      </trkpt>
      <trkpt lat="45.9339" lon="4.72457">
        <ele>173</ele>
        <time>2018-04-27T10:12:01Z</time>
      </trkpt>
      <trkpt lat="45.93387" lon="4.72462">
        <ele>173</ele>
        <time>2018-04-27T10:12:02Z</time>
      </trkpt>
      <trkpt lat="45.93385" lon="4.72468">
        <ele>173</ele>
        <time>2018-04-27T10:12:03Z</time>
      </trkpt>
      <trkpt lat="45.93381" lon="4.72472">
        <ele>173</ele>
        <time>2018-04-27T10:12:04Z</time>
      </trkpt>
      <trkpt lat="45.93377" lon="4.72475">
        <ele>173</ele>
        <time>2018-04-27T10:12:05Z</time>
      </trkpt>
      <trkpt lat="45.93373" lon="4.72479">
        <ele>173</ele>
        <time>2018-04-27T10:12:06Z</time>
      </trkpt>
      <trkpt lat="45.93368" lon="4.72484">
        <ele>173</ele>
        <time>2018-04-27T10:12:07Z</time>
      </trkpt>
      <trkpt lat="45.93364" lon="4.72487">
        <ele>173</ele>
        <time>2018-04-27T10:12:08Z</time>
      </trkpt>
      <trkpt lat="45.93357" lon="4.72494">
        <ele>173</ele>
        <time>2018-04-27T10:12:10Z</time>
      </trkpt>
      <trkpt lat="45.93352" lon="4.725">
        <ele>172</ele>
        <time>2018-04-27T10:12:11Z</time>
      </trkpt>
      <trkpt lat="45.93348" lon="4.72505">
        <ele>172</ele>
        <time>2018-04-27T10:12:12Z</time>
      </trkpt>
      <trkpt lat="45.93345" lon="4.7251">
        <ele>172</ele>
        <time>2018-04-27T10:12:13Z</time>
      </trkpt>
      <trkpt lat="45.93341" lon="4.72515">
        <ele>172</ele>
        <time>2018-04-27T10:12:14Z</time>
      </trkpt>
      <trkpt lat="45.93336" lon="4.72519">
        <ele>172</ele>
        <time>2018-04-27T10:12:15Z</time>
      </trkpt>
      <trkpt lat="45.93332" lon="4.72525">
        <ele>172</ele>
        <time>2018-04-27T10:12:16Z</time>
      </trkpt>
      <trkpt lat="45.93328" lon="4.72529">
        <ele>172</ele>
        <time>2018-04-27T10:12:17Z</time>
      </trkpt>
      <trkpt lat="45.93323" lon="4.72534">
        <ele>172</ele>
        <time>2018-04-27T10:12:18Z</time>
      </trkpt>
      <trkpt lat="45.93318" lon="4.72538">
        <ele>172</ele>
        <time>2018-04-27T10:12:19Z</time>
      </trkpt>
      <trkpt lat="45.93315" lon="4.72542">
        <ele>172</ele>
        <time>2018-04-27T10:12:20Z</time>
      </trkpt>
      <trkpt lat="45.93308" lon="4.72549">
        <ele>172</ele>
        <time>2018-04-27T10:12:21Z</time>
      </trkpt>
      <trkpt lat="45.93305" lon="4.72555">
        <ele>172</ele>
        <time>2018-04-27T10:12:22Z</time>
      </trkpt>
      <trkpt lat="45.93302" lon="4.7256">
        <ele>172</ele>
        <time>2018-04-27T10:12:23Z</time>
      </trkpt>
      <trkpt lat="45.93296" lon="4.72563">
        <ele>172</ele>
        <time>2018-04-27T10:12:24Z</time>
      </trkpt>
      <trkpt lat="45.93294" lon="4.72569">
        <ele>172</ele>
        <time>2018-04-27T10:12:25Z</time>
      </trkpt>
      <trkpt lat="45.93289" lon="4.72574">
        <ele>172</ele>
        <time>2018-04-27T10:12:26Z</time>
      </trkpt>
      <trkpt lat="45.93285" lon="4.72578">
        <ele>172</ele>
        <time>2018-04-27T10:12:27Z</time>
      </trkpt>
      <trkpt lat="45.93281" lon="4.72582">
        <ele>171</ele>
        <time>2018-04-27T10:12:28Z</time>
      </trkpt>
      <trkpt lat="45.93277" lon="4.72587">
        <ele>170</ele>
        <time>2018-04-27T10:12:29Z</time>
      </trkpt>
      <trkpt lat="45.93274" lon="4.72592">
        <ele>170</ele>
        <time>2018-04-27T10:12:30Z</time>
      </trkpt>
      <trkpt lat="45.9327" lon="4.72596">
        <ele>170</ele>
        <time>2018-04-27T10:12:31Z</time>
      </trkpt>
      <trkpt lat="45.93266" lon="4.72601">
        <ele>170</ele>
        <time>2018-04-27T10:12:32Z</time>
      </trkpt>
      <trkpt lat="45.93262" lon="4.72606">
        <ele>170</ele>
        <time>2018-04-27T10:12:33Z</time>
      </trkpt>
      <trkpt lat="45.93259" lon="4.7261">
        <ele>170</ele>
        <time>2018-04-27T10:12:34Z</time>
      </trkpt>
      <trkpt lat="45.93255" lon="4.72615">
        <ele>170</ele>
        <time>2018-04-27T10:12:35Z</time>
      </trkpt>
      <trkpt lat="45.93251" lon="4.7262">
        <ele>170</ele>
        <time>2018-04-27T10:12:36Z</time>
      </trkpt>
      <trkpt lat="45.93247" lon="4.72624">
        <ele>170</ele>
        <time>2018-04-27T10:12:37Z</time>
      </trkpt>
      <trkpt lat="45.93243" lon="4.72628">
        <ele>170</ele>
        <time>2018-04-27T10:12:38Z</time>
      </trkpt>
      <trkpt lat="45.93239" lon="4.72632">
        <ele>170</ele>
        <time>2018-04-27T10:12:39Z</time>
      </trkpt>
      <trkpt lat="45.93234" lon="4.72636">
        <ele>170</ele>
        <time>2018-04-27T10:12:40Z</time>
      </trkpt>
      <trkpt lat="45.93232" lon="4.72644">
        <ele>170</ele>
        <time>2018-04-27T10:12:41Z</time>
      </trkpt>
      <trkpt lat="45.93227" lon="4.72652">
        <ele>170</ele>
        <time>2018-04-27T10:12:43Z</time>
      </trkpt>
      <trkpt lat="45.93224" lon="4.72657">
        <ele>170</ele>
        <time>2018-04-27T10:12:44Z</time>
      </trkpt>
      <trkpt lat="45.9322" lon="4.72661">
        <ele>170</ele>
        <time>2018-04-27T10:12:45Z</time>
      </trkpt>
      <trkpt lat="45.93215" lon="4.72667">
        <ele>169</ele>
        <time>2018-04-27T10:12:46Z</time>
      </trkpt>
      <trkpt lat="45.9321" lon="4.72672">
        <ele>169</ele>
        <time>2018-04-27T10:12:47Z</time>
      </trkpt>
      <trkpt lat="45.93206" lon="4.72676">
        <ele>169</ele>
        <time>2018-04-27T10:12:48Z</time>
      </trkpt>
      <trkpt lat="45.93202" lon="4.7268">
        <ele>169</ele>
        <time>2018-04-27T10:12:49Z</time>
      </trkpt>
      <trkpt lat="45.93198" lon="4.72685">
        <ele>169</ele>
        <time>2018-04-27T10:12:50Z</time>
      </trkpt>
      <trkpt lat="45.93194" lon="4.7269">
        <ele>169</ele>
        <time>2018-04-27T10:12:51Z</time>
      </trkpt>
      <trkpt lat="45.9319" lon="4.72695">
        <ele>169</ele>
        <time>2018-04-27T10:12:52Z</time>
      </trkpt>
      <trkpt lat="45.93185" lon="4.727">
        <ele>169</ele>
        <time>2018-04-27T10:12:53Z</time>
      </trkpt>
      <trkpt lat="45.93182" lon="4.72704">
        <ele>169</ele>
        <time>2018-04-27T10:12:54Z</time>
      </trkpt>
      <trkpt lat="45.93178" lon="4.72709">
        <ele>169</ele>
        <time>2018-04-27T10:12:55Z</time>
      </trkpt>
      <trkpt lat="45.93174" lon="4.72715">
        <ele>170</ele>
        <time>2018-04-27T10:12:56Z</time>
      </trkpt>
      <trkpt lat="45.9317" lon="4.7272">
        <ele>170</ele>
        <time>2018-04-27T10:12:57Z</time>
      </trkpt>
      <trkpt lat="45.93166" lon="4.72725">
        <ele>170</ele>
        <time>2018-04-27T10:12:58Z</time>
      </trkpt>
      <trkpt lat="45.93162" lon="4.7273">
        <ele>170</ele>
        <time>2018-04-27T10:12:59Z</time>
      </trkpt>
      <trkpt lat="45.93158" lon="4.72734">
        <ele>170</ele>
        <time>2018-04-27T10:13:00Z</time>
      </trkpt>
      <trkpt lat="45.93153" lon="4.72739">
        <ele>170</ele>
        <time>2018-04-27T10:13:01Z</time>
      </trkpt>
      <trkpt lat="45.93149" lon="4.72744">
        <ele>170</ele>
        <time>2018-04-27T10:13:02Z</time>
      </trkpt>
      <trkpt lat="45.93143" lon="4.72747">
        <ele>170</ele>
        <time>2018-04-27T10:13:03Z</time>
      </trkpt>
      <trkpt lat="45.93139" lon="4.72752">
        <ele>171</ele>
        <time>2018-04-27T10:13:04Z</time>
      </trkpt>
      <trkpt lat="45.93135" lon="4.72759">
        <ele>171</ele>
        <time>2018-04-27T10:13:05Z</time>
      </trkpt>
      <trkpt lat="45.93131" lon="4.72763">
        <ele>171</ele>
        <time>2018-04-27T10:13:06Z</time>
      </trkpt>
      <trkpt lat="45.93127" lon="4.72768">
        <ele>171</ele>
        <time>2018-04-27T10:13:07Z</time>
      </trkpt>
      <trkpt lat="45.93122" lon="4.72773">
        <ele>171</ele>
        <time>2018-04-27T10:13:08Z</time>
      </trkpt>
      <trkpt lat="45.93118" lon="4.72777">
        <ele>171</ele>
        <time>2018-04-27T10:13:09Z</time>
      </trkpt>
      <trkpt lat="45.93114" lon="4.72782">
        <ele>171</ele>
        <time>2018-04-27T10:13:10Z</time>
      </trkpt>
      <trkpt lat="45.9311" lon="4.72786">
        <ele>171</ele>
        <time>2018-04-27T10:13:11Z</time>
      </trkpt>
      <trkpt lat="45.93106" lon="4.7279">
        <ele>171</ele>
        <time>2018-04-27T10:13:12Z</time>
      </trkpt>
      <trkpt lat="45.93103" lon="4.72795">
        <ele>171</ele>
        <time>2018-04-27T10:13:13Z</time>
      </trkpt>
      <trkpt lat="45.93098" lon="4.728">
        <ele>171</ele>
        <time>2018-04-27T10:13:14Z</time>
      </trkpt>
      <trkpt lat="45.93092" lon="4.72808">
        <ele>172</ele>
        <time>2018-04-27T10:13:16Z</time>
      </trkpt>
      <trkpt lat="45.93088" lon="4.72812">
        <ele>172</ele>
        <time>2018-04-27T10:13:17Z</time>
      </trkpt>
      <trkpt lat="45.93084" lon="4.72816">
        <ele>172</ele>
        <time>2018-04-27T10:13:18Z</time>
      </trkpt>
      <trkpt lat="45.93049" lon="4.72845">
        <ele>172</ele>
        <time>2018-04-27T10:13:27Z</time>
      </trkpt>
      <trkpt lat="45.93044" lon="4.72858">
        <ele>172</ele>
        <time>2018-04-27T10:13:28Z</time>
      </trkpt>
      <trkpt lat="45.9304" lon="4.72864">
        <ele>172</ele>
        <time>2018-04-27T10:13:29Z</time>
      </trkpt>
      <trkpt lat="45.93036" lon="4.72868">
        <ele>172</ele>
        <time>2018-04-27T10:13:30Z</time>
      </trkpt>
      <trkpt lat="45.93032" lon="4.72874">
        <ele>172</ele>
        <time>2018-04-27T10:13:31Z</time>
      </trkpt>
      <trkpt lat="45.93026" lon="4.7288">
        <ele>172</ele>
        <time>2018-04-27T10:13:32Z</time>
      </trkpt>
      <trkpt lat="45.93023" lon="4.72885">
        <ele>172</ele>
        <time>2018-04-27T10:13:33Z</time>
      </trkpt>
      <trkpt lat="45.93019" lon="4.7289">
        <ele>172</ele>
        <time>2018-04-27T10:13:34Z</time>
      </trkpt>
      <trkpt lat="45.93015" lon="4.72894">
        <ele>172</ele>
        <time>2018-04-27T10:13:35Z</time>
      </trkpt>
      <trkpt lat="45.93011" lon="4.72899">
        <ele>172</ele>
        <time>2018-04-27T10:13:36Z</time>
      </trkpt>
      <trkpt lat="45.93007" lon="4.72904">
        <ele>171</ele>
        <time>2018-04-27T10:13:37Z</time>
      </trkpt>
      <trkpt lat="45.93003" lon="4.72908">
        <ele>171</ele>
        <time>2018-04-27T10:13:38Z</time>
      </trkpt>
      <trkpt lat="45.93" lon="4.72912">
        <ele>171</ele>
        <time>2018-04-27T10:13:39Z</time>
      </trkpt>
      <trkpt lat="45.92996" lon="4.72917">
        <ele>171</ele>
        <time>2018-04-27T10:13:40Z</time>
      </trkpt>
      <trkpt lat="45.9299" lon="4.72925">
        <ele>171</ele>
        <time>2018-04-27T10:13:42Z</time>
      </trkpt>
      <trkpt lat="45.92987" lon="4.72929">
        <ele>171</ele>
        <time>2018-04-27T10:13:43Z</time>
      </trkpt>
      <trkpt lat="45.92983" lon="4.72934">
        <ele>171</ele>
        <time>2018-04-27T10:13:44Z</time>
      </trkpt>
      <trkpt lat="45.92979" lon="4.72937">
        <ele>171</ele>
        <time>2018-04-27T10:13:45Z</time>
      </trkpt>
      <trkpt lat="45.92976" lon="4.72942">
        <ele>171</ele>
        <time>2018-04-27T10:13:46Z</time>
      </trkpt>
      <trkpt lat="45.92972" lon="4.72947">
        <ele>171</ele>
        <time>2018-04-27T10:13:47Z</time>
      </trkpt>
      <trkpt lat="45.92968" lon="4.7295">
        <ele>171</ele>
        <time>2018-04-27T10:13:48Z</time>
      </trkpt>
      <trkpt lat="45.92963" lon="4.72954">
        <ele>171</ele>
        <time>2018-04-27T10:13:49Z</time>
      </trkpt>
      <trkpt lat="45.92959" lon="4.72958">
        <ele>171</ele>
        <time>2018-04-27T10:13:50Z</time>
      </trkpt>
      <trkpt lat="45.92955" lon="4.72963">
        <ele>171</ele>
        <time>2018-04-27T10:13:51Z</time>
      </trkpt>
      <trkpt lat="45.92953" lon="4.72969">
        <ele>171</ele>
        <time>2018-04-27T10:13:52Z</time>
      </trkpt>
      <trkpt lat="45.92948" lon="4.72972">
        <ele>171</ele>
        <time>2018-04-27T10:13:53Z</time>
      </trkpt>
      <trkpt lat="45.92945" lon="4.72976">
        <ele>171</ele>
        <time>2018-04-27T10:13:54Z</time>
      </trkpt>
      <trkpt lat="45.92941" lon="4.72979">
        <ele>171</ele>
        <time>2018-04-27T10:13:55Z</time>
      </trkpt>
      <trkpt lat="45.92937" lon="4.72984">
        <ele>171</ele>
        <time>2018-04-27T10:13:56Z</time>
      </trkpt>
      <trkpt lat="45.92934" lon="4.72988">
        <ele>172</ele>
        <time>2018-04-27T10:13:57Z</time>
      </trkpt>
      <trkpt lat="45.9293" lon="4.72992">
        <ele>172</ele>
        <time>2018-04-27T10:13:58Z</time>
      </trkpt>
      <trkpt lat="45.92928" lon="4.72998">
        <ele>172</ele>
        <time>2018-04-27T10:13:59Z</time>
      </trkpt>
      <trkpt lat="45.92922" lon="4.73006">
        <ele>172</ele>
        <time>2018-04-27T10:14:01Z</time>
      </trkpt>
      <trkpt lat="45.92918" lon="4.7301">
        <ele>172</ele>
        <time>2018-04-27T10:14:02Z</time>
      </trkpt>
      <trkpt lat="45.92913" lon="4.73021">
        <ele>172</ele>
        <time>2018-04-27T10:14:04Z</time>
      </trkpt>
      <trkpt lat="45.9291" lon="4.73026">
        <ele>172</ele>
        <time>2018-04-27T10:14:05Z</time>
      </trkpt>
      <trkpt lat="45.92904" lon="4.73034">
        <ele>172</ele>
        <time>2018-04-27T10:14:07Z</time>
      </trkpt>
      <trkpt lat="45.92901" lon="4.73039">
        <ele>172</ele>
        <time>2018-04-27T10:14:08Z</time>
      </trkpt>
      <trkpt lat="45.92895" lon="4.73047">
        <ele>172</ele>
        <time>2018-04-27T10:14:10Z</time>
      </trkpt>
      <trkpt lat="45.92891" lon="4.73052">
        <ele>172</ele>
        <time>2018-04-27T10:14:11Z</time>
      </trkpt>
      <trkpt lat="45.92886" lon="4.73061">
        <ele>172</ele>
        <time>2018-04-27T10:14:13Z</time>
      </trkpt>
      <trkpt lat="45.92883" lon="4.73066">
        <ele>172</ele>
        <time>2018-04-27T10:14:14Z</time>
      </trkpt>
      <trkpt lat="45.9288" lon="4.73073">
        <ele>172</ele>
        <time>2018-04-27T10:14:15Z</time>
      </trkpt>
      <trkpt lat="45.92877" lon="4.73076">
        <ele>172</ele>
        <time>2018-04-27T10:14:16Z</time>
      </trkpt>
      <trkpt lat="45.92871" lon="4.73085">
        <ele>172</ele>
        <time>2018-04-27T10:14:18Z</time>
      </trkpt>
      <trkpt lat="45.92868" lon="4.7309">
        <ele>172</ele>
        <time>2018-04-27T10:14:19Z</time>
      </trkpt>
      <trkpt lat="45.92865" lon="4.73095">
        <ele>171</ele>
        <time>2018-04-27T10:14:20Z</time>
      </trkpt>
      <trkpt lat="45.92861" lon="4.73098">
        <ele>171</ele>
        <time>2018-04-27T10:14:21Z</time>
      </trkpt>
      <trkpt lat="45.92854" lon="4.731">
        <ele>171</ele>
        <time>2018-04-27T10:14:23Z</time>
      </trkpt>
      <trkpt lat="45.9285" lon="4.73099">
        <ele>171</ele>
        <time>2018-04-27T10:14:24Z</time>
      </trkpt>
      <trkpt lat="45.92846" lon="4.73089">
        <ele>171</ele>
        <time>2018-04-27T10:14:26Z</time>
      </trkpt>
      <trkpt lat="45.92846" lon="4.73082">
        <ele>171</ele>
        <time>2018-04-27T10:14:27Z</time>
      </trkpt>
      <trkpt lat="45.92845" lon="4.73074">
        <ele>171</ele>
        <time>2018-04-27T10:14:28Z</time>
      </trkpt>
      <trkpt lat="45.92843" lon="4.73067">
        <ele>171</ele>
        <time>2018-04-27T10:14:29Z</time>
      </trkpt>
      <trkpt lat="45.92841" lon="4.7306">
        <ele>171</ele>
        <time>2018-04-27T10:14:30Z</time>
      </trkpt>
      <trkpt lat="45.9284" lon="4.73053">
        <ele>171</ele>
        <time>2018-04-27T10:14:31Z</time>
      </trkpt>
      <trkpt lat="45.92838" lon="4.73046">
        <ele>171</ele>
        <time>2018-04-27T10:14:32Z</time>
      </trkpt>
      <trkpt lat="45.92837" lon="4.73039">
        <ele>171</ele>
        <time>2018-04-27T10:14:33Z</time>
      </trkpt>
      <trkpt lat="45.92837" lon="4.73032">
        <ele>171</ele>
        <time>2018-04-27T10:14:34Z</time>
      </trkpt>
      <trkpt lat="45.92836" lon="4.73024">
        <ele>171</ele>
        <time>2018-04-27T10:14:35Z</time>
      </trkpt>
      <trkpt lat="45.92834" lon="4.73017">
        <ele>171</ele>
        <time>2018-04-27T10:14:36Z</time>
      </trkpt>
      <trkpt lat="45.92832" lon="4.73011">
        <ele>170</ele>
        <time>2018-04-27T10:14:37Z</time>
      </trkpt>
      <trkpt lat="45.92832" lon="4.73004">
        <ele>170</ele>
        <time>2018-04-27T10:14:38Z</time>
      </trkpt>
      <trkpt lat="45.92831" lon="4.72997">
        <ele>170</ele>
        <time>2018-04-27T10:14:39Z</time>
      </trkpt>
      <trkpt lat="45.9283" lon="4.7299">
        <ele>170</ele>
        <time>2018-04-27T10:14:40Z</time>
      </trkpt>
      <trkpt lat="45.92829" lon="4.72982">
        <ele>170</ele>
        <time>2018-04-27T10:14:41Z</time>
      </trkpt>
      <trkpt lat="45.92829" lon="4.72976">
        <ele>170</ele>
        <time>2018-04-27T10:14:42Z</time>
      </trkpt>
      <trkpt lat="45.92827" lon="4.72967">
        <ele>170</ele>
        <time>2018-04-27T10:14:43Z</time>
      </trkpt>
      <trkpt lat="45.92826" lon="4.72959">
        <ele>170</ele>
        <time>2018-04-27T10:14:44Z</time>
      </trkpt>
      <trkpt lat="45.92826" lon="4.72951">
        <ele>170</ele>
        <time>2018-04-27T10:14:45Z</time>
      </trkpt>
      <trkpt lat="45.92825" lon="4.72941">
        <ele>170</ele>
        <time>2018-04-27T10:14:47Z</time>
      </trkpt>
      <trkpt lat="45.92825" lon="4.72934">
        <ele>170</ele>
        <time>2018-04-27T10:14:48Z</time>
      </trkpt>
      <trkpt lat="45.92824" lon="4.72926">
        <ele>170</ele>
        <time>2018-04-27T10:14:49Z</time>
      </trkpt>
      <trkpt lat="45.92823" lon="4.7292">
        <ele>170</ele>
        <time>2018-04-27T10:14:50Z</time>
      </trkpt>
      <trkpt lat="45.92822" lon="4.72913">
        <ele>170</ele>
        <time>2018-04-27T10:14:51Z</time>
      </trkpt>
      <trkpt lat="45.92821" lon="4.72905">
        <ele>170</ele>
        <time>2018-04-27T10:14:52Z</time>
      </trkpt>
      <trkpt lat="45.92819" lon="4.72895">
        <ele>170</ele>
        <time>2018-04-27T10:14:54Z</time>
      </trkpt>
      <trkpt lat="45.92818" lon="4.72888">
        <ele>170</ele>
        <time>2018-04-27T10:14:55Z</time>
      </trkpt>
      <trkpt lat="45.92818" lon="4.72881">
        <ele>170</ele>
        <time>2018-04-27T10:14:56Z</time>
      </trkpt>
      <trkpt lat="45.92814" lon="4.72871">
        <ele>170</ele>
        <time>2018-04-27T10:14:57Z</time>
      </trkpt>
      <trkpt lat="45.92812" lon="4.72864">
        <ele>170</ele>
        <time>2018-04-27T10:14:58Z</time>
      </trkpt>
      <trkpt lat="45.92811" lon="4.72857">
        <ele>170</ele>
        <time>2018-04-27T10:14:59Z</time>
      </trkpt>
      <trkpt lat="45.9281" lon="4.72845">
        <ele>170</ele>
        <time>2018-04-27T10:15:01Z</time>
      </trkpt>
      <trkpt lat="45.92808" lon="4.72839">
        <ele>170</ele>
        <time>2018-04-27T10:15:02Z</time>
      </trkpt>
      <trkpt lat="45.92808" lon="4.72828">
        <ele>171</ele>
        <time>2018-04-27T10:15:04Z</time>
      </trkpt>
      <trkpt lat="45.92807" lon="4.72825">
        <ele>171</ele>
        <time>2018-04-27T10:15:05Z</time>
      </trkpt>
      <trkpt lat="45.92805" lon="4.72815">
        <ele>171</ele>
        <time>2018-04-27T10:15:07Z</time>
      </trkpt>
      <trkpt lat="45.92805" lon="4.72809">
        <ele>171</ele>
        <time>2018-04-27T10:15:08Z</time>
      </trkpt>
      <trkpt lat="45.92804" lon="4.72803">
        <ele>171</ele>
        <time>2018-04-27T10:15:09Z</time>
      </trkpt>
      <trkpt lat="45.92802" lon="4.72796">
        <ele>171</ele>
        <time>2018-04-27T10:15:10Z</time>
      </trkpt>
      <trkpt lat="45.92795" lon="4.7279">
        <ele>171</ele>
        <time>2018-04-27T10:15:12Z</time>
      </trkpt>
      <trkpt lat="45.92791" lon="4.72791">
        <ele>171</ele>
        <time>2018-04-27T10:15:13Z</time>
      </trkpt>
      <trkpt lat="45.92783" lon="4.72794">
        <ele>170</ele>
        <time>2018-04-27T10:15:15Z</time>
      </trkpt>
      <trkpt lat="45.9278" lon="4.72798">
        <ele>170</ele>
        <time>2018-04-27T10:15:16Z</time>
      </trkpt>
      <trkpt lat="45.92774" lon="4.72803">
        <ele>170</ele>
        <time>2018-04-27T10:15:18Z</time>
      </trkpt>
      <trkpt lat="45.9277" lon="4.72804">
        <ele>170</ele>
        <time>2018-04-27T10:15:19Z</time>
      </trkpt>
      <trkpt lat="45.92767" lon="4.72808">
        <ele>170</ele>
        <time>2018-04-27T10:15:20Z</time>
      </trkpt>
      <trkpt lat="45.92762" lon="4.72811">
        <ele>170</ele>
        <time>2018-04-27T10:15:21Z</time>
      </trkpt>
      <trkpt lat="45.92755" lon="4.72818">
        <ele>170</ele>
        <time>2018-04-27T10:15:23Z</time>
      </trkpt>
      <trkpt lat="45.92751" lon="4.7282">
        <ele>170</ele>
        <time>2018-04-27T10:15:24Z</time>
      </trkpt>
      <trkpt lat="45.92747" lon="4.72824">
        <ele>169</ele>
        <time>2018-04-27T10:15:25Z</time>
      </trkpt>
      <trkpt lat="45.92742" lon="4.72827">
        <ele>169</ele>
        <time>2018-04-27T10:15:26Z</time>
      </trkpt>
      <trkpt lat="45.92738" lon="4.7283">
        <ele>169</ele>
        <time>2018-04-27T10:15:27Z</time>
      </trkpt>
      <trkpt lat="45.92733" lon="4.72833">
        <ele>169</ele>
        <time>2018-04-27T10:15:28Z</time>
      </trkpt>
      <trkpt lat="45.92725" lon="4.72839">
        <ele>169</ele>
        <time>2018-04-27T10:15:30Z</time>
      </trkpt>
      <trkpt lat="45.9272" lon="4.72841">
        <ele>169</ele>
        <time>2018-04-27T10:15:31Z</time>
      </trkpt>
      <trkpt lat="45.92713" lon="4.72847">
        <ele>169</ele>
        <time>2018-04-27T10:15:33Z</time>
      </trkpt>
      <trkpt lat="45.92708" lon="4.7285">
        <ele>169</ele>
        <time>2018-04-27T10:15:34Z</time>
      </trkpt>
      <trkpt lat="45.92704" lon="4.72853">
        <ele>169</ele>
        <time>2018-04-27T10:15:35Z</time>
      </trkpt>
      <trkpt lat="45.92699" lon="4.72856">
        <ele>169</ele>
        <time>2018-04-27T10:15:36Z</time>
      </trkpt>
      <trkpt lat="45.92697" lon="4.72861">
        <ele>169</ele>
        <time>2018-04-27T10:15:37Z</time>
      </trkpt>
      <trkpt lat="45.92691" lon="4.72863">
        <ele>169</ele>
        <time>2018-04-27T10:15:38Z</time>
      </trkpt>
      <trkpt lat="45.92684" lon="4.72868">
        <ele>169</ele>
        <time>2018-04-27T10:15:40Z</time>
      </trkpt>
      <trkpt lat="45.9268" lon="4.72871">
        <ele>169</ele>
        <time>2018-04-27T10:15:41Z</time>
      </trkpt>
      <trkpt lat="45.92673" lon="4.72878">
        <ele>170</ele>
        <time>2018-04-27T10:15:43Z</time>
      </trkpt>
      <trkpt lat="45.92669" lon="4.72882">
        <ele>170</ele>
        <time>2018-04-27T10:15:44Z</time>
      </trkpt>
      <trkpt lat="45.92665" lon="4.72885">
        <ele>169</ele>
        <time>2018-04-27T10:15:45Z</time>
      </trkpt>
      <trkpt lat="45.9266" lon="4.72888">
        <ele>169</ele>
        <time>2018-04-27T10:15:46Z</time>
      </trkpt>
      <trkpt lat="45.92656" lon="4.7289">
        <ele>169</ele>
        <time>2018-04-27T10:15:47Z</time>
      </trkpt>
      <trkpt lat="45.92653" lon="4.72896">
        <ele>170</ele>
        <time>2018-04-27T10:15:48Z</time>
      </trkpt>
      <trkpt lat="45.92646" lon="4.72901">
        <ele>169</ele>
        <time>2018-04-27T10:15:50Z</time>
      </trkpt>
      <trkpt lat="45.92642" lon="4.72905">
        <ele>169</ele>
        <time>2018-04-27T10:15:51Z</time>
      </trkpt>
      <trkpt lat="45.92634" lon="4.72911">
        <ele>169</ele>
        <time>2018-04-27T10:15:53Z</time>
      </trkpt>
      <trkpt lat="45.92631" lon="4.72915">
        <ele>169</ele>
        <time>2018-04-27T10:15:54Z</time>
      </trkpt>
      <trkpt lat="45.92627" lon="4.72918">
        <ele>170</ele>
        <time>2018-04-27T10:15:55Z</time>
      </trkpt>
      <trkpt lat="45.92623" lon="4.72922">
        <ele>169</ele>
        <time>2018-04-27T10:15:56Z</time>
      </trkpt>
      <trkpt lat="45.92619" lon="4.72924">
        <ele>169</ele>
        <time>2018-04-27T10:15:57Z</time>
      </trkpt>
      <trkpt lat="45.92614" lon="4.72928">
        <ele>169</ele>
        <time>2018-04-27T10:15:58Z</time>
      </trkpt>
      <trkpt lat="45.9261" lon="4.72932">
        <ele>169</ele>
        <time>2018-04-27T10:15:59Z</time>
      </trkpt>
      <trkpt lat="45.92607" lon="4.72938">
        <ele>169</ele>
        <time>2018-04-27T10:16:00Z</time>
      </trkpt>
      <trkpt lat="45.92603" lon="4.72943">
        <ele>169</ele>
        <time>2018-04-27T10:16:01Z</time>
      </trkpt>
      <trkpt lat="45.92598" lon="4.72947">
        <ele>169</ele>
        <time>2018-04-27T10:16:02Z</time>
      </trkpt>
      <trkpt lat="45.92594" lon="4.72951">
        <ele>169</ele>
        <time>2018-04-27T10:16:03Z</time>
      </trkpt>
      <trkpt lat="45.9259" lon="4.72956">
        <ele>169</ele>
        <time>2018-04-27T10:16:04Z</time>
      </trkpt>
      <trkpt lat="45.92586" lon="4.7296">
        <ele>169</ele>
        <time>2018-04-27T10:16:05Z</time>
      </trkpt>
      <trkpt lat="45.92582" lon="4.72965">
        <ele>169</ele>
        <time>2018-04-27T10:16:06Z</time>
      </trkpt>
      <trkpt lat="45.92578" lon="4.72969">
        <ele>169</ele>
        <time>2018-04-27T10:16:07Z</time>
      </trkpt>
      <trkpt lat="45.92575" lon="4.72974">
        <ele>169</ele>
        <time>2018-04-27T10:16:08Z</time>
      </trkpt>
      <trkpt lat="45.92571" lon="4.72978">
        <ele>169</ele>
        <time>2018-04-27T10:16:09Z</time>
      </trkpt>
      <trkpt lat="45.92567" lon="4.72981">
        <ele>169</ele>
        <time>2018-04-27T10:16:10Z</time>
      </trkpt>
      <trkpt lat="45.92563" lon="4.72986">
        <ele>169</ele>
        <time>2018-04-27T10:16:11Z</time>
      </trkpt>
      <trkpt lat="45.92559" lon="4.7299">
        <ele>169</ele>
        <time>2018-04-27T10:16:12Z</time>
      </trkpt>
      <trkpt lat="45.92555" lon="4.72995">
        <ele>169</ele>
        <time>2018-04-27T10:16:13Z</time>
      </trkpt>
      <trkpt lat="45.92551" lon="4.72999">
        <ele>169</ele>
        <time>2018-04-27T10:16:14Z</time>
      </trkpt>
      <trkpt lat="45.92547" lon="4.73003">
        <ele>169</ele>
        <time>2018-04-27T10:16:15Z</time>
      </trkpt>
      <trkpt lat="45.92543" lon="4.73007">
        <ele>169</ele>
        <time>2018-04-27T10:16:16Z</time>
      </trkpt>
      <trkpt lat="45.9254" lon="4.73011">
        <ele>169</ele>
        <time>2018-04-27T10:16:17Z</time>
      </trkpt>
      <trkpt lat="45.92536" lon="4.73015">
        <ele>169</ele>
        <time>2018-04-27T10:16:18Z</time>
      </trkpt>
      <trkpt lat="45.92531" lon="4.73019">
        <ele>169</ele>
        <time>2018-04-27T10:16:19Z</time>
      </trkpt>
      <trkpt lat="45.92527" lon="4.73025">
        <ele>169</ele>
        <time>2018-04-27T10:16:20Z</time>
      </trkpt>
      <trkpt lat="45.92522" lon="4.73028">
        <ele>169</ele>
        <time>2018-04-27T10:16:21Z</time>
      </trkpt>
      <trkpt lat="45.92518" lon="4.73033">
        <ele>169</ele>
        <time>2018-04-27T10:16:22Z</time>
      </trkpt>
      <trkpt lat="45.92511" lon="4.73036">
        <ele>169</ele>
        <time>2018-04-27T10:16:24Z</time>
      </trkpt>
      <trkpt lat="45.92507" lon="4.73039">
        <ele>169</ele>
        <time>2018-04-27T10:16:25Z</time>
      </trkpt>
      <trkpt lat="45.92502" lon="4.73042">
        <ele>169</ele>
        <time>2018-04-27T10:16:26Z</time>
      </trkpt>
      <trkpt lat="45.92498" lon="4.73044">
        <ele>170</ele>
        <time>2018-04-27T10:16:27Z</time>
      </trkpt>
      <trkpt lat="45.92491" lon="4.7305">
        <ele>170</ele>
        <time>2018-04-27T10:16:29Z</time>
      </trkpt>
      <trkpt lat="45.92487" lon="4.73054">
        <ele>170</ele>
        <time>2018-04-27T10:16:30Z</time>
      </trkpt>
      <trkpt lat="45.9248" lon="4.73061">
        <ele>170</ele>
        <time>2018-04-27T10:16:32Z</time>
      </trkpt>
      <trkpt lat="45.92477" lon="4.73065">
        <ele>170</ele>
        <time>2018-04-27T10:16:33Z</time>
      </trkpt>
      <trkpt lat="45.92473" lon="4.73068">
        <ele>170</ele>
        <time>2018-04-27T10:16:34Z</time>
      </trkpt>
      <trkpt lat="45.92468" lon="4.73072">
        <ele>170</ele>
        <time>2018-04-27T10:16:35Z</time>
      </trkpt>
      <trkpt lat="45.92465" lon="4.73076">
        <ele>170</ele>
        <time>2018-04-27T10:16:36Z</time>
      </trkpt>
      <trkpt lat="45.92461" lon="4.73079">
        <ele>170</ele>
        <time>2018-04-27T10:16:37Z</time>
      </trkpt>
      <trkpt lat="45.92454" lon="4.73083">
        <ele>170</ele>
        <time>2018-04-27T10:16:39Z</time>
      </trkpt>
      <trkpt lat="45.9245" lon="4.73089">
        <ele>170</ele>
        <time>2018-04-27T10:16:40Z</time>
      </trkpt>
      <trkpt lat="45.92443" lon="4.73095">
        <ele>170</ele>
        <time>2018-04-27T10:16:42Z</time>
      </trkpt>
      <trkpt lat="45.92439" lon="4.73098">
        <ele>170</ele>
        <time>2018-04-27T10:16:43Z</time>
      </trkpt>
      <trkpt lat="45.92435" lon="4.73101">
        <ele>170</ele>
        <time>2018-04-27T10:16:44Z</time>
      </trkpt>
      <trkpt lat="45.92431" lon="4.73107">
        <ele>170</ele>
        <time>2018-04-27T10:16:45Z</time>
      </trkpt>
      <trkpt lat="45.92423" lon="4.73112">
        <ele>170</ele>
        <time>2018-04-27T10:16:47Z</time>
      </trkpt>
      <trkpt lat="45.92418" lon="4.73116">
        <ele>170</ele>
        <time>2018-04-27T10:16:48Z</time>
      </trkpt>
      <trkpt lat="45.92412" lon="4.73123">
        <ele>171</ele>
        <time>2018-04-27T10:16:50Z</time>
      </trkpt>
      <trkpt lat="45.9241" lon="4.73128">
        <ele>171</ele>
        <time>2018-04-27T10:16:51Z</time>
      </trkpt>
      <trkpt lat="45.92409" lon="4.73134">
        <ele>171</ele>
        <time>2018-04-27T10:16:52Z</time>
      </trkpt>
      <trkpt lat="45.92408" lon="4.73142">
        <ele>171</ele>
        <time>2018-04-27T10:16:53Z</time>
      </trkpt>
      <trkpt lat="45.92408" lon="4.73154">
        <ele>170</ele>
        <time>2018-04-27T10:16:55Z</time>
      </trkpt>
      <trkpt lat="45.92408" lon="4.7316">
        <ele>170</ele>
        <time>2018-04-27T10:16:56Z</time>
      </trkpt>
      <trkpt lat="45.92407" lon="4.73166">
        <ele>170</ele>
        <time>2018-04-27T10:16:57Z</time>
      </trkpt>
      <trkpt lat="45.92407" lon="4.73174">
        <ele>170</ele>
        <time>2018-04-27T10:16:58Z</time>
      </trkpt>
      <trkpt lat="45.92407" lon="4.73181">
        <ele>171</ele>
        <time>2018-04-27T10:16:59Z</time>
      </trkpt>
      <trkpt lat="45.92407" lon="4.73188">
        <ele>171</ele>
        <time>2018-04-27T10:17:00Z</time>
      </trkpt>
      <trkpt lat="45.92407" lon="4.73194">
        <ele>171</ele>
        <time>2018-04-27T10:17:01Z</time>
      </trkpt>
      <trkpt lat="45.92407" lon="4.73201">
        <ele>171</ele>
        <time>2018-04-27T10:17:02Z</time>
      </trkpt>
      <trkpt lat="45.92408" lon="4.73208">
        <ele>171</ele>
        <time>2018-04-27T10:17:03Z</time>
      </trkpt>
      <trkpt lat="45.92408" lon="4.73215">
        <ele>171</ele>
        <time>2018-04-27T10:17:04Z</time>
      </trkpt>
      <trkpt lat="45.92408" lon="4.73222">
        <ele>171</ele>
        <time>2018-04-27T10:17:05Z</time>
      </trkpt>
      <trkpt lat="45.92408" lon="4.73229">
        <ele>171</ele>
        <time>2018-04-27T10:17:06Z</time>
      </trkpt>
      <trkpt lat="45.92409" lon="4.73236">
        <ele>171</ele>
        <time>2018-04-27T10:17:07Z</time>
      </trkpt>
      <trkpt lat="45.9241" lon="4.73244">
        <ele>171</ele>
        <time>2018-04-27T10:17:08Z</time>
      </trkpt>
      <trkpt lat="45.92411" lon="4.73251">
        <ele>171</ele>
        <time>2018-04-27T10:17:09Z</time>
      </trkpt>
      <trkpt lat="45.92412" lon="4.73258">
        <ele>171</ele>
        <time>2018-04-27T10:17:10Z</time>
      </trkpt>
      <trkpt lat="45.92413" lon="4.7327">
        <ele>171</ele>
        <time>2018-04-27T10:17:12Z</time>
      </trkpt>
      <trkpt lat="45.92413" lon="4.73276">
        <ele>171</ele>
        <time>2018-04-27T10:17:13Z</time>
      </trkpt>
      <trkpt lat="45.92414" lon="4.73288">
        <ele>171</ele>
        <time>2018-04-27T10:17:15Z</time>
      </trkpt>
      <trkpt lat="45.92414" lon="4.73293">
        <ele>171</ele>
        <time>2018-04-27T10:17:16Z</time>
      </trkpt>
      <trkpt lat="45.92415" lon="4.73305">
        <ele>171</ele>
        <time>2018-04-27T10:17:18Z</time>
      </trkpt>
      <trkpt lat="45.92415" lon="4.73311">
        <ele>171</ele>
        <time>2018-04-27T10:17:19Z</time>
      </trkpt>
      <trkpt lat="45.92416" lon="4.73323">
        <ele>171</ele>
        <time>2018-04-27T10:17:21Z</time>
      </trkpt>
      <trkpt lat="45.92416" lon="4.7333">
        <ele>171</ele>
        <time>2018-04-27T10:17:22Z</time>
      </trkpt>
      <trkpt lat="45.92416" lon="4.73337">
        <ele>171</ele>
        <time>2018-04-27T10:17:23Z</time>
      </trkpt>
      <trkpt lat="45.92416" lon="4.73344">
        <ele>171</ele>
        <time>2018-04-27T10:17:24Z</time>
      </trkpt>
      <trkpt lat="45.92417" lon="4.73351">
        <ele>171</ele>
        <time>2018-04-27T10:17:25Z</time>
      </trkpt>
      <trkpt lat="45.92418" lon="4.73358">
        <ele>171</ele>
        <time>2018-04-27T10:17:26Z</time>
      </trkpt>
      <trkpt lat="45.92421" lon="4.73368">
        <ele>172</ele>
        <time>2018-04-27T10:17:28Z</time>
      </trkpt>
      <trkpt lat="45.92422" lon="4.73374">
        <ele>172</ele>
        <time>2018-04-27T10:17:29Z</time>
      </trkpt>
      <trkpt lat="45.92423" lon="4.7338">
        <ele>172</ele>
        <time>2018-04-27T10:17:30Z</time>
      </trkpt>
      <trkpt lat="45.92424" lon="4.73387">
        <ele>172</ele>
        <time>2018-04-27T10:17:31Z</time>
      </trkpt>
      <trkpt lat="45.92426" lon="4.73398">
        <ele>172</ele>
        <time>2018-04-27T10:17:33Z</time>
      </trkpt>
      <trkpt lat="45.9243" lon="4.73403">
        <ele>172</ele>
        <time>2018-04-27T10:17:34Z</time>
      </trkpt>
      <trkpt lat="45.92435" lon="4.7341">
        <ele>172</ele>
        <time>2018-04-27T10:17:36Z</time>
      </trkpt>
      <trkpt lat="45.92439" lon="4.73414">
        <ele>172</ele>
        <time>2018-04-27T10:17:37Z</time>
      </trkpt>
      <trkpt lat="45.92443" lon="4.73417">
        <ele>173</ele>
        <time>2018-04-27T10:17:38Z</time>
      </trkpt>
      <trkpt lat="45.92448" lon="4.73421">
        <ele>173</ele>
        <time>2018-04-27T10:17:39Z</time>
      </trkpt>
      <trkpt lat="45.92452" lon="4.73424">
        <ele>173</ele>
        <time>2018-04-27T10:17:40Z</time>
      </trkpt>
      <trkpt lat="45.92456" lon="4.73428">
        <ele>173</ele>
        <time>2018-04-27T10:17:41Z</time>
      </trkpt>
      <trkpt lat="45.9246" lon="4.73433">
        <ele>173</ele>
        <time>2018-04-27T10:17:42Z</time>
      </trkpt>
      <trkpt lat="45.92463" lon="4.73439">
        <ele>173</ele>
        <time>2018-04-27T10:17:43Z</time>
      </trkpt>
      <trkpt lat="45.92467" lon="4.73446">
        <ele>173</ele>
        <time>2018-04-27T10:17:44Z</time>
      </trkpt>
      <trkpt lat="45.92468" lon="4.73454">
        <ele>173</ele>
        <time>2018-04-27T10:17:45Z</time>
      </trkpt>
      <trkpt lat="45.92468" lon="4.73462">
        <ele>173</ele>
        <time>2018-04-27T10:17:46Z</time>
      </trkpt>
      <trkpt lat="45.92469" lon="4.73468">
        <ele>173</ele>
        <time>2018-04-27T10:17:47Z</time>
      </trkpt>
      <trkpt lat="45.92469" lon="4.73481">
        <ele>173</ele>
        <time>2018-04-27T10:17:49Z</time>
      </trkpt>
      <trkpt lat="45.92469" lon="4.73488">
        <ele>173</ele>
        <time>2018-04-27T10:17:50Z</time>
      </trkpt>
      <trkpt lat="45.92469" lon="4.73496">
        <ele>173</ele>
        <time>2018-04-27T10:17:51Z</time>
      </trkpt>
      <trkpt lat="45.92468" lon="4.73502">
        <ele>174</ele>
        <time>2018-04-27T10:17:52Z</time>
      </trkpt>
      <trkpt lat="45.92467" lon="4.73515">
        <ele>174</ele>
        <time>2018-04-27T10:17:54Z</time>
      </trkpt>
      <trkpt lat="45.92468" lon="4.73522">
        <ele>174</ele>
        <time>2018-04-27T10:17:55Z</time>
      </trkpt>
      <trkpt lat="45.92467" lon="4.73535">
        <ele>174</ele>
        <time>2018-04-27T10:17:57Z</time>
      </trkpt>
      <trkpt lat="45.92467" lon="4.7354">
        <ele>174</ele>
        <time>2018-04-27T10:17:58Z</time>
      </trkpt>
      <trkpt lat="45.92467" lon="4.73553">
        <ele>173</ele>
        <time>2018-04-27T10:18:00Z</time>
      </trkpt>
      <trkpt lat="45.92467" lon="4.7356">
        <ele>173</ele>
        <time>2018-04-27T10:18:01Z</time>
      </trkpt>
      <trkpt lat="45.92467" lon="4.73571">
        <ele>173</ele>
        <time>2018-04-27T10:18:03Z</time>
      </trkpt>
      <trkpt lat="45.92467" lon="4.73577">
        <ele>173</ele>
        <time>2018-04-27T10:18:04Z</time>
      </trkpt>
      <trkpt lat="45.92468" lon="4.73585">
        <ele>174</ele>
        <time>2018-04-27T10:18:05Z</time>
      </trkpt>
      <trkpt lat="45.92467" lon="4.73592">
        <ele>174</ele>
        <time>2018-04-27T10:18:06Z</time>
      </trkpt>
      <trkpt lat="45.92469" lon="4.73601">
        <ele>174</ele>
        <time>2018-04-27T10:18:07Z</time>
      </trkpt>
      <trkpt lat="45.92469" lon="4.73608">
        <ele>174</ele>
        <time>2018-04-27T10:18:08Z</time>
      </trkpt>
      <trkpt lat="45.92469" lon="4.73615">
        <ele>174</ele>
        <time>2018-04-27T10:18:09Z</time>
      </trkpt>
      <trkpt lat="45.92469" lon="4.73622">
        <ele>174</ele>
        <time>2018-04-27T10:18:10Z</time>
      </trkpt>
      <trkpt lat="45.9247" lon="4.73635">
        <ele>174</ele>
        <time>2018-04-27T10:18:12Z</time>
      </trkpt>
      <trkpt lat="45.92468" lon="4.73642">
        <ele>174</ele>
        <time>2018-04-27T10:18:13Z</time>
      </trkpt>
      <trkpt lat="45.92469" lon="4.73653">
        <ele>174</ele>
        <time>2018-04-27T10:18:15Z</time>
      </trkpt>
      <trkpt lat="45.92466" lon="4.73655">
        <ele>174</ele>
        <time>2018-04-27T10:18:16Z</time>
      </trkpt>
      <trkpt lat="45.92464" lon="4.73665">
        <ele>174</ele>
        <time>2018-04-27T10:18:18Z</time>
      </trkpt>
      <trkpt lat="45.92465" lon="4.73675">
        <ele>174</ele>
        <time>2018-04-27T10:18:19Z</time>
      </trkpt>
      <trkpt lat="45.92465" lon="4.73686">
        <ele>174</ele>
        <time>2018-04-27T10:18:21Z</time>
      </trkpt>
      <trkpt lat="45.92467" lon="4.73691">
        <ele>174</ele>
        <time>2018-04-27T10:18:22Z</time>
      </trkpt>
      <trkpt lat="45.92465" lon="4.73704">
        <ele>174</ele>
        <time>2018-04-27T10:18:34Z</time>
      </trkpt>
      <trkpt lat="45.92465" lon="4.73704">
        <ele>174</ele>
        <time>2018-04-27T10:18:35Z</time>
      </trkpt>
      <trkpt lat="45.9246" lon="4.73708">
        <ele>174</ele>
        <time>2018-04-27T10:18:57Z</time>
      </trkpt>
      <trkpt lat="45.9246" lon="4.73708">
        <ele>174</ele>
        <time>2018-04-27T10:18:58Z</time>
      </trkpt>
      <trkpt lat="45.92456" lon="4.73708">
        <ele>174</ele>
        <time>2018-04-27T10:19:13.222Z</time>
      </trkpt>
    </trkseg>
  </trk>
</gpx>